<?xml version="1.0" encoding="utf-8"?>
<gpx xmlns:xsi="http://www.w3.org/2001/XMLSchema-instance" xmlns:xsd="http://www.w3.org/2001/XMLSchema" version="1.1" creator="Shapelink.com" xmlns="http://www.topografix.com/GPX/1/1" xmlns:gpxtpx="http://www.garmin.com/xmlschemas/TrackPointExtension/v1">
  <metadata>
    <name>Löpning 12.08 km, 2018-03-31</name>
    <desc></desc>
    <author><name>Bengt-Åke Forslund</name></author> 
    <time>2018-03-31T11:09:37Z</time>
  </metadata>
  <trk>
    <name>Löpning 12.08 km, 2018-03-31</name>
    <trkseg>
      <trkpt lat="62.631207531386" lon="17.992075830833">
        <ele>101.2</ele>
        <time>2018-03-31T11:09:37Z</time>
      </trkpt>
      <trkpt lat="62.63120719611" lon="17.991680791886">
        <ele>100.6</ele>
        <time>2018-03-31T11:09:45Z</time>
      </trkpt>
      <trkpt lat="62.631227480308" lon="17.991620274568">
        <ele>100.4</ele>
        <time>2018-03-31T11:09:46Z</time>
      </trkpt>
      <trkpt lat="62.631239298787" lon="17.99157316829">
        <ele>100.4</ele>
        <time>2018-03-31T11:09:47Z</time>
      </trkpt>
      <trkpt lat="62.631265785591" lon="17.991489181652">
        <ele>100.2</ele>
        <time>2018-03-31T11:09:48Z</time>
      </trkpt>
      <trkpt lat="62.631283136124" lon="17.991415840027">
        <ele>100</ele>
        <time>2018-03-31T11:09:49Z</time>
      </trkpt>
      <trkpt lat="62.631295876612" lon="17.991358926926">
        <ele>99.8</ele>
        <time>2018-03-31T11:09:50Z</time>
      </trkpt>
      <trkpt lat="62.631314316792" lon="17.99126806713">
        <ele>99.6</ele>
        <time>2018-03-31T11:09:51Z</time>
      </trkpt>
      <trkpt lat="62.631324207434" lon="17.991193384401">
        <ele>99.6</ele>
        <time>2018-03-31T11:09:52Z</time>
      </trkpt>
      <trkpt lat="62.631334265714" lon="17.991125826287">
        <ele>99.4</ele>
        <time>2018-03-31T11:09:53Z</time>
      </trkpt>
      <trkpt lat="62.631349520772" lon="17.991027338962">
        <ele>99.6</ele>
        <time>2018-03-31T11:09:54Z</time>
      </trkpt>
      <trkpt lat="62.631355974835" lon="17.990966654006">
        <ele>99.4</ele>
        <time>2018-03-31T11:09:55Z</time>
      </trkpt>
      <trkpt lat="62.631370224065" lon="17.990873614916">
        <ele>99.2</ele>
        <time>2018-03-31T11:09:56Z</time>
      </trkpt>
      <trkpt lat="62.631382629277" lon="17.990785772604">
        <ele>99.2</ele>
        <time>2018-03-31T11:09:57Z</time>
      </trkpt>
      <trkpt lat="62.63138740696" lon="17.990723159811">
        <ele>99.4</ele>
        <time>2018-03-31T11:09:58Z</time>
      </trkpt>
      <trkpt lat="62.631392184643" lon="17.990679238655">
        <ele>99.4</ele>
        <time>2018-03-31T11:09:59Z</time>
      </trkpt>
      <trkpt lat="62.631407774977" lon="17.990554851259">
        <ele>99.4</ele>
        <time>2018-03-31T11:10:00Z</time>
      </trkpt>
      <trkpt lat="62.631416827429" lon="17.99049022681">
        <ele>99.4</ele>
        <time>2018-03-31T11:10:01Z</time>
      </trkpt>
      <trkpt lat="62.631427053347" lon="17.990409173837">
        <ele>99.2</ele>
        <time>2018-03-31T11:10:02Z</time>
      </trkpt>
      <trkpt lat="62.631437530722" lon="17.990332814728">
        <ele>99.2</ele>
        <time>2018-03-31T11:10:03Z</time>
      </trkpt>
      <trkpt lat="62.631443900966" lon="17.99027900293">
        <ele>99.2</ele>
        <time>2018-03-31T11:10:04Z</time>
      </trkpt>
      <trkpt lat="62.631456473816" lon="17.990212450644">
        <ele>99.2</ele>
        <time>2018-03-31T11:10:05Z</time>
      </trkpt>
      <trkpt lat="62.631462089689" lon="17.990143970521">
        <ele>99.2</ele>
        <time>2018-03-31T11:10:06Z</time>
      </trkpt>
      <trkpt lat="62.631473656711" lon="17.990051182888">
        <ele>99.2</ele>
        <time>2018-03-31T11:10:07Z</time>
      </trkpt>
      <trkpt lat="62.631483714991" lon="17.98995713797">
        <ele>99.2</ele>
        <time>2018-03-31T11:10:08Z</time>
      </trkpt>
      <trkpt lat="62.631492013072" lon="17.989881365594">
        <ele>99.2</ele>
        <time>2018-03-31T11:10:09Z</time>
      </trkpt>
      <trkpt lat="62.631501652257" lon="17.98979117635">
        <ele>99</ele>
        <time>2018-03-31T11:10:10Z</time>
      </trkpt>
      <trkpt lat="62.631515063297" lon="17.989701741477">
        <ele>99</ele>
        <time>2018-03-31T11:10:11Z</time>
      </trkpt>
      <trkpt lat="62.631519170428" lon="17.989639883055">
        <ele>98.8</ele>
        <time>2018-03-31T11:10:12Z</time>
      </trkpt>
      <trkpt lat="62.631531240364" lon="17.98954558668">
        <ele>98.6</ele>
        <time>2018-03-31T11:10:13Z</time>
      </trkpt>
      <trkpt lat="62.631538700255" lon="17.989469479028">
        <ele>98.6</ele>
        <time>2018-03-31T11:10:14Z</time>
      </trkpt>
      <trkpt lat="62.631544735223" lon="17.989410051357">
        <ele>98.6</ele>
        <time>2018-03-31T11:10:15Z</time>
      </trkpt>
      <trkpt lat="62.631553200942" lon="17.989320281208">
        <ele>98.6</ele>
        <time>2018-03-31T11:10:16Z</time>
      </trkpt>
      <trkpt lat="62.631567533991" lon="17.989259260976">
        <ele>98.6</ele>
        <time>2018-03-31T11:10:17Z</time>
      </trkpt>
      <trkpt lat="62.63157767609" lon="17.989165467515">
        <ele>98.6</ele>
        <time>2018-03-31T11:10:18Z</time>
      </trkpt>
      <trkpt lat="62.631587063818" lon="17.989082654343">
        <ele>98.6</ele>
        <time>2018-03-31T11:10:19Z</time>
      </trkpt>
      <trkpt lat="62.631592009139" lon="17.989024483957">
        <ele>98.6</ele>
        <time>2018-03-31T11:10:20Z</time>
      </trkpt>
      <trkpt lat="62.63160365998" lon="17.98892197332">
        <ele>98.6</ele>
        <time>2018-03-31T11:10:21Z</time>
      </trkpt>
      <trkpt lat="62.631609694948" lon="17.98885072717">
        <ele>98.6</ele>
        <time>2018-03-31T11:10:22Z</time>
      </trkpt>
      <trkpt lat="62.631617657753" lon="17.988775122432">
        <ele>98.6</ele>
        <time>2018-03-31T11:10:23Z</time>
      </trkpt>
      <trkpt lat="62.631628554223" lon="17.988679401134">
        <ele>98.6</ele>
        <time>2018-03-31T11:10:24Z</time>
      </trkpt>
      <trkpt lat="62.631634253915" lon="17.988614944323">
        <ele>98.6</ele>
        <time>2018-03-31T11:10:25Z</time>
      </trkpt>
      <trkpt lat="62.63164556948" lon="17.988512349867">
        <ele>98.6</ele>
        <time>2018-03-31T11:10:26Z</time>
      </trkpt>
      <trkpt lat="62.631652023543" lon="17.98842995579">
        <ele>98.6</ele>
        <time>2018-03-31T11:10:27Z</time>
      </trkpt>
      <trkpt lat="62.631662249461" lon="17.988349992464">
        <ele>98.4</ele>
        <time>2018-03-31T11:10:28Z</time>
      </trkpt>
      <trkpt lat="62.631674151759" lon="17.988261311962">
        <ele>98.2</ele>
        <time>2018-03-31T11:10:29Z</time>
      </trkpt>
      <trkpt lat="62.631685467324" lon="17.988191658373">
        <ele>98.2</ele>
        <time>2018-03-31T11:10:30Z</time>
      </trkpt>
      <trkpt lat="62.631701812029" lon="17.988088477184">
        <ele>98</ele>
        <time>2018-03-31T11:10:31Z</time>
      </trkpt>
      <trkpt lat="62.631709942472" lon="17.988020835251">
        <ele>98</ele>
        <time>2018-03-31T11:10:32Z</time>
      </trkpt>
      <trkpt lat="62.63172352115" lon="17.987934669319">
        <ele>98</ele>
        <time>2018-03-31T11:10:33Z</time>
      </trkpt>
      <trkpt lat="62.631733327973" lon="17.987862836436">
        <ele>98</ele>
        <time>2018-03-31T11:10:34Z</time>
      </trkpt>
      <trkpt lat="62.631745397909" lon="17.987778765979">
        <ele>97.8</ele>
        <time>2018-03-31T11:10:35Z</time>
      </trkpt>
      <trkpt lat="62.631754617999" lon="17.987689498744">
        <ele>97.8</ele>
        <time>2018-03-31T11:10:36Z</time>
      </trkpt>
      <trkpt lat="62.631768699591" lon="17.987590759962">
        <ele>97.8</ele>
        <time>2018-03-31T11:10:37Z</time>
      </trkpt>
      <trkpt lat="62.631779176966" lon="17.987501828003">
        <ele>97.6</ele>
        <time>2018-03-31T11:10:38Z</time>
      </trkpt>
      <trkpt lat="62.631790073436" lon="17.987427564369">
        <ele>97.4</ele>
        <time>2018-03-31T11:10:39Z</time>
      </trkpt>
      <trkpt lat="62.631801305182" lon="17.987337961858">
        <ele>97.4</ele>
        <time>2018-03-31T11:10:40Z</time>
      </trkpt>
      <trkpt lat="62.631811447281" lon="17.987266967165">
        <ele>97.4</ele>
        <time>2018-03-31T11:10:41Z</time>
      </trkpt>
      <trkpt lat="62.631825025959" lon="17.987163199243">
        <ele>97.4</ele>
        <time>2018-03-31T11:10:42Z</time>
      </trkpt>
      <trkpt lat="62.63183583861" lon="17.987074686379">
        <ele>97.2</ele>
        <time>2018-03-31T11:10:43Z</time>
      </trkpt>
      <trkpt lat="62.631845645433" lon="17.987004026962">
        <ele>97.2</ele>
        <time>2018-03-31T11:10:44Z</time>
      </trkpt>
      <trkpt lat="62.631859727025" lon="17.986909562949">
        <ele>97.2</ele>
        <time>2018-03-31T11:10:45Z</time>
      </trkpt>
      <trkpt lat="62.631868025106" lon="17.986822391189">
        <ele>97</ele>
        <time>2018-03-31T11:10:46Z</time>
      </trkpt>
      <trkpt lat="62.631881352327" lon="17.986737398723">
        <ele>96.8</ele>
        <time>2018-03-31T11:10:47Z</time>
      </trkpt>
      <trkpt lat="62.63189199734" lon="17.986639162855">
        <ele>97</ele>
        <time>2018-03-31T11:10:48Z</time>
      </trkpt>
      <trkpt lat="62.631901049792" lon="17.986577052976">
        <ele>97</ele>
        <time>2018-03-31T11:10:49Z</time>
      </trkpt>
      <trkpt lat="62.631914796108" lon="17.986476051081">
        <ele>96.8</ele>
        <time>2018-03-31T11:10:50Z</time>
      </trkpt>
      <trkpt lat="62.631924770569" lon="17.986391896805">
        <ele>96.8</ele>
        <time>2018-03-31T11:10:51Z</time>
      </trkpt>
      <trkpt lat="62.631935331763" lon="17.986314028954">
        <ele>96.8</ele>
        <time>2018-03-31T11:10:52Z</time>
      </trkpt>
      <trkpt lat="62.631947485518" lon="17.986226605737">
        <ele>96.6</ele>
        <time>2018-03-31T11:10:53Z</time>
      </trkpt>
      <trkpt lat="62.63196156711" lon="17.986143624927">
        <ele>96.6</ele>
        <time>2018-03-31T11:10:54Z</time>
      </trkpt>
      <trkpt lat="62.631975732521" lon="17.986064415972">
        <ele>96.6</ele>
        <time>2018-03-31T11:10:55Z</time>
      </trkpt>
      <trkpt lat="62.631983611507" lon="17.985986296664">
        <ele>96.6</ele>
        <time>2018-03-31T11:10:56Z</time>
      </trkpt>
      <trkpt lat="62.631997776918" lon="17.985894263402">
        <ele>96.4</ele>
        <time>2018-03-31T11:10:57Z</time>
      </trkpt>
      <trkpt lat="62.632008673388" lon="17.985809690031">
        <ele>96.4</ele>
        <time>2018-03-31T11:10:58Z</time>
      </trkpt>
      <trkpt lat="62.6320210786" lon="17.985726541583">
        <ele>96.4</ele>
        <time>2018-03-31T11:10:59Z</time>
      </trkpt>
      <trkpt lat="62.632033986726" lon="17.985636603796">
        <ele>96.4</ele>
        <time>2018-03-31T11:11:00Z</time>
      </trkpt>
      <trkpt lat="62.632041949531" lon="17.985563597447">
        <ele>96.2</ele>
        <time>2018-03-31T11:11:01Z</time>
      </trkpt>
      <trkpt lat="62.632051588716" lon="17.985475503678">
        <ele>96.2</ele>
        <time>2018-03-31T11:11:02Z</time>
      </trkpt>
      <trkpt lat="62.632059802978" lon="17.985389253927">
        <ele>96.2</ele>
        <time>2018-03-31T11:11:03Z</time>
      </trkpt>
      <trkpt lat="62.632065167394" lon="17.985327227867">
        <ele>96.2</ele>
        <time>2018-03-31T11:11:04Z</time>
      </trkpt>
      <trkpt lat="62.632074638941" lon="17.985240056107">
        <ele>96.2</ele>
        <time>2018-03-31T11:11:05Z</time>
      </trkpt>
      <trkpt lat="62.632085200135" lon="17.985152884347">
        <ele>96</ele>
        <time>2018-03-31T11:11:06Z</time>
      </trkpt>
      <trkpt lat="62.632088552895" lon="17.985083146939">
        <ele>96</ele>
        <time>2018-03-31T11:11:07Z</time>
      </trkpt>
      <trkpt lat="62.632093079121" lon="17.98499086222">
        <ele>96</ele>
        <time>2018-03-31T11:11:08Z</time>
      </trkpt>
      <trkpt lat="62.632098862632" lon="17.984913162007">
        <ele>96</ele>
        <time>2018-03-31T11:11:09Z</time>
      </trkpt>
      <trkpt lat="62.632101377202" lon="17.984854823983">
        <ele>95.8</ele>
        <time>2018-03-31T11:11:10Z</time>
      </trkpt>
      <trkpt lat="62.632102634487" lon="17.984770334431">
        <ele>95.8</ele>
        <time>2018-03-31T11:11:11Z</time>
      </trkpt>
      <trkpt lat="62.632106322523" lon="17.984694645874">
        <ele>96</ele>
        <time>2018-03-31T11:11:12Z</time>
      </trkpt>
      <trkpt lat="62.632107747446" lon="17.984659358075">
        <ele>96</ele>
        <time>2018-03-31T11:11:13Z</time>
      </trkpt>
      <trkpt lat="62.632108166541" lon="17.984548800814">
        <ele>96</ele>
        <time>2018-03-31T11:11:14Z</time>
      </trkpt>
      <trkpt lat="62.632104310867" lon="17.984496246301">
        <ele>96</ele>
        <time>2018-03-31T11:11:15Z</time>
      </trkpt>
      <trkpt lat="62.632101712478" lon="17.984409325998">
        <ele>96</ele>
        <time>2018-03-31T11:11:16Z</time>
      </trkpt>
      <trkpt lat="62.632099700822" lon="17.984361130073">
        <ele>96</ele>
        <time>2018-03-31T11:11:17Z</time>
      </trkpt>
      <trkpt lat="62.632091151284" lon="17.98427337158">
        <ele>96</ele>
        <time>2018-03-31T11:11:18Z</time>
      </trkpt>
      <trkpt lat="62.632077404968" lon="17.984200281412">
        <ele>96</ele>
        <time>2018-03-31T11:11:19Z</time>
      </trkpt>
      <trkpt lat="62.632072711104" lon="17.98414429032">
        <ele>96</ele>
        <time>2018-03-31T11:11:20Z</time>
      </trkpt>
      <trkpt lat="62.63206047353" lon="17.984075726378">
        <ele>96.2</ele>
        <time>2018-03-31T11:11:21Z</time>
      </trkpt>
      <trkpt lat="62.632043374454" lon="17.98401604725">
        <ele>96</ele>
        <time>2018-03-31T11:11:22Z</time>
      </trkpt>
      <trkpt lat="62.632034322002" lon="17.983972293732">
        <ele>96</ele>
        <time>2018-03-31T11:11:23Z</time>
      </trkpt>
      <trkpt lat="62.632013451071" lon="17.983903897428">
        <ele>96.2</ele>
        <time>2018-03-31T11:11:24Z</time>
      </trkpt>
      <trkpt lat="62.631997944556" lon="17.983853019295">
        <ele>96.2</ele>
        <time>2018-03-31T11:11:25Z</time>
      </trkpt>
      <trkpt lat="62.631979336738" lon="17.983804404275">
        <ele>96.2</ele>
        <time>2018-03-31T11:11:26Z</time>
      </trkpt>
      <trkpt lat="62.631954777771" lon="17.98374866464">
        <ele>96.2</ele>
        <time>2018-03-31T11:11:27Z</time>
      </trkpt>
      <trkpt lat="62.631936086134" lon="17.98370675514">
        <ele>96.2</ele>
        <time>2018-03-31T11:11:28Z</time>
      </trkpt>
      <trkpt lat="62.63191630485" lon="17.983666270563">
        <ele>96</ele>
        <time>2018-03-31T11:11:29Z</time>
      </trkpt>
      <trkpt lat="62.631897697032" lon="17.983638275017">
        <ele>96</ele>
        <time>2018-03-31T11:11:30Z</time>
      </trkpt>
      <trkpt lat="62.631877245196" lon="17.98359862863">
        <ele>96</ele>
        <time>2018-03-31T11:11:31Z</time>
      </trkpt>
      <trkpt lat="62.631864420889" lon="17.983563173193">
        <ele>96</ele>
        <time>2018-03-31T11:11:32Z</time>
      </trkpt>
      <trkpt lat="62.631842627949" lon="17.98352151515">
        <ele>96.2</ele>
        <time>2018-03-31T11:11:33Z</time>
      </trkpt>
      <trkpt lat="62.631821337923" lon="17.983484299514">
        <ele>96.2</ele>
        <time>2018-03-31T11:11:34Z</time>
      </trkpt>
      <trkpt lat="62.631805915227" lon="17.983459908185">
        <ele>96.2</ele>
        <time>2018-03-31T11:11:35Z</time>
      </trkpt>
      <trkpt lat="62.631781691536" lon="17.98338991932">
        <ele>96.2</ele>
        <time>2018-03-31T11:11:36Z</time>
      </trkpt>
      <trkpt lat="62.631760904424" lon="17.983333676771">
        <ele>96.2</ele>
        <time>2018-03-31T11:11:37Z</time>
      </trkpt>
      <trkpt lat="62.631737099828" lon="17.983275590204">
        <ele>96.2</ele>
        <time>2018-03-31T11:11:38Z</time>
      </trkpt>
      <trkpt lat="62.631703991323" lon="17.983214402334">
        <ele>96.2</ele>
        <time>2018-03-31T11:11:39Z</time>
      </trkpt>
      <trkpt lat="62.631682030745" lon="17.983171487006">
        <ele>96.2</ele>
        <time>2018-03-31T11:11:40Z</time>
      </trkpt>
      <trkpt lat="62.63166317147" lon="17.983111556421">
        <ele>96</ele>
        <time>2018-03-31T11:11:41Z</time>
      </trkpt>
      <trkpt lat="62.631637606675" lon="17.98304542323">
        <ele>96</ele>
        <time>2018-03-31T11:11:42Z</time>
      </trkpt>
      <trkpt lat="62.6316103655" lon="17.982978032754">
        <ele>96</ele>
        <time>2018-03-31T11:11:43Z</time>
      </trkpt>
      <trkpt lat="62.631589494569" lon="17.982892369736">
        <ele>96</ele>
        <time>2018-03-31T11:11:44Z</time>
      </trkpt>
      <trkpt lat="62.631568539819" lon="17.982816345903">
        <ele>96</ele>
        <time>2018-03-31T11:11:45Z</time>
      </trkpt>
      <trkpt lat="62.631557056616" lon="17.982739986794">
        <ele>96</ele>
        <time>2018-03-31T11:11:46Z</time>
      </trkpt>
      <trkpt lat="62.631549764363" lon="17.982647869713">
        <ele>96</ele>
        <time>2018-03-31T11:11:47Z</time>
      </trkpt>
      <trkpt lat="62.631541801558" lon="17.982544520886">
        <ele>95.8</ele>
        <time>2018-03-31T11:11:48Z</time>
      </trkpt>
      <trkpt lat="62.631538448798" lon="17.982459360782">
        <ele>95.8</ele>
        <time>2018-03-31T11:11:49Z</time>
      </trkpt>
      <trkpt lat="62.631532162373" lon="17.982374200678">
        <ele>95.6</ele>
        <time>2018-03-31T11:11:50Z</time>
      </trkpt>
      <trkpt lat="62.631521852636" lon="17.982291219868">
        <ele>95.6</ele>
        <time>2018-03-31T11:11:51Z</time>
      </trkpt>
      <trkpt lat="62.631511291442" lon="17.982247801626">
        <ele>95.6</ele>
        <time>2018-03-31T11:11:52Z</time>
      </trkpt>
      <trkpt lat="62.631487319208" lon="17.9821846021">
        <ele>95.8</ele>
        <time>2018-03-31T11:11:53Z</time>
      </trkpt>
      <trkpt lat="62.631465442449" lon="17.982144871894">
        <ele>95.8</ele>
        <time>2018-03-31T11:11:54Z</time>
      </trkpt>
      <trkpt lat="62.631439039464" lon="17.982102878575">
        <ele>95.8</ele>
        <time>2018-03-31T11:11:55Z</time>
      </trkpt>
      <trkpt lat="62.631409870452" lon="17.982079409255">
        <ele>96</ele>
        <time>2018-03-31T11:11:56Z</time>
      </trkpt>
      <trkpt lat="62.631382964553" lon="17.982052670994">
        <ele>96</ele>
        <time>2018-03-31T11:11:57Z</time>
      </trkpt>
      <trkpt lat="62.631352622075" lon="17.98201780229">
        <ele>96</ele>
        <time>2018-03-31T11:11:58Z</time>
      </trkpt>
      <trkpt lat="62.631325883814" lon="17.981986705441">
        <ele>96</ele>
        <time>2018-03-31T11:11:59Z</time>
      </trkpt>
      <trkpt lat="62.631304929064" lon="17.981956782058">
        <ele>96</ele>
        <time>2018-03-31T11:12:00Z</time>
      </trkpt>
      <trkpt lat="62.631275676233" lon="17.981947310511">
        <ele>96.2</ele>
        <time>2018-03-31T11:12:01Z</time>
      </trkpt>
      <trkpt lat="62.631248770334" lon="17.981936162584">
        <ele>96</ele>
        <time>2018-03-31T11:12:02Z</time>
      </trkpt>
      <trkpt lat="62.631219936598" lon="17.981921578078">
        <ele>96</ele>
        <time>2018-03-31T11:12:03Z</time>
      </trkpt>
      <trkpt lat="62.631195545269" lon="17.981902299708">
        <ele>96</ele>
        <time>2018-03-31T11:12:04Z</time>
      </trkpt>
      <trkpt lat="62.631178613831" lon="17.981889810677">
        <ele>96</ele>
        <time>2018-03-31T11:12:05Z</time>
      </trkpt>
      <trkpt lat="62.63115271376" lon="17.981867263366">
        <ele>96</ele>
        <time>2018-03-31T11:12:06Z</time>
      </trkpt>
      <trkpt lat="62.631132178105" lon="17.981846057159">
        <ele>96.4</ele>
        <time>2018-03-31T11:12:07Z</time>
      </trkpt>
      <trkpt lat="62.631116923047" lon="17.981819235079">
        <ele>96.6</ele>
        <time>2018-03-31T11:12:08Z</time>
      </trkpt>
      <trkpt lat="62.631099572514" lon="17.981796017216">
        <ele>96.8</ele>
        <time>2018-03-31T11:12:09Z</time>
      </trkpt>
      <trkpt lat="62.631081299972" lon="17.981764417453">
        <ele>97.2</ele>
        <time>2018-03-31T11:12:10Z</time>
      </trkpt>
      <trkpt lat="62.631060093765" lon="17.981732901509">
        <ele>97.4</ele>
        <time>2018-03-31T11:12:11Z</time>
      </trkpt>
      <trkpt lat="62.631039390472" lon="17.981695685873">
        <ele>97.6</ele>
        <time>2018-03-31T11:12:12Z</time>
      </trkpt>
      <trkpt lat="62.631018938636" lon="17.981660062798">
        <ele>97.6</ele>
        <time>2018-03-31T11:12:13Z</time>
      </trkpt>
      <trkpt lat="62.630991194547" lon="17.981633827451">
        <ele>97.8</ele>
        <time>2018-03-31T11:12:14Z</time>
      </trkpt>
      <trkpt lat="62.630954481825" lon="17.981627541026">
        <ele>98</ele>
        <time>2018-03-31T11:12:15Z</time>
      </trkpt>
      <trkpt lat="62.630910309212" lon="17.981634498003">
        <ele>98.2</ele>
        <time>2018-03-31T11:12:16Z</time>
      </trkpt>
      <trkpt lat="62.630876781612" lon="17.981653105821">
        <ele>98.2</ele>
        <time>2018-03-31T11:12:17Z</time>
      </trkpt>
      <trkpt lat="62.630832776637" lon="17.981691327285">
        <ele>98.2</ele>
        <time>2018-03-31T11:12:18Z</time>
      </trkpt>
      <trkpt lat="62.630793800802" lon="17.981732566233">
        <ele>98.2</ele>
        <time>2018-03-31T11:12:19Z</time>
      </trkpt>
      <trkpt lat="62.630759854107" lon="17.981774811009">
        <ele>98.2</ele>
        <time>2018-03-31T11:12:20Z</time>
      </trkpt>
      <trkpt lat="62.630715262399" lon="17.981822168744">
        <ele>98</ele>
        <time>2018-03-31T11:12:21Z</time>
      </trkpt>
      <trkpt lat="62.630679723143" lon="17.981869191203">
        <ele>97.6</ele>
        <time>2018-03-31T11:12:22Z</time>
      </trkpt>
      <trkpt lat="62.630660025678" lon="17.981902802622">
        <ele>97.2</ele>
        <time>2018-03-31T11:12:23Z</time>
      </trkpt>
      <trkpt lat="62.630618535273" lon="17.981945969407">
        <ele>97</ele>
        <time>2018-03-31T11:12:24Z</time>
      </trkpt>
      <trkpt lat="62.630584169483" lon="17.981990561115">
        <ele>96.8</ele>
        <time>2018-03-31T11:12:25Z</time>
      </trkpt>
      <trkpt lat="62.63055005515" lon="17.982029788407">
        <ele>96.6</ele>
        <time>2018-03-31T11:12:26Z</time>
      </trkpt>
      <trkpt lat="62.630507726555" lon="17.98207060826">
        <ele>96.6</ele>
        <time>2018-03-31T11:12:27Z</time>
      </trkpt>
      <trkpt lat="62.630479563371" lon="17.982104387317">
        <ele>96.6</ele>
        <time>2018-03-31T11:12:28Z</time>
      </trkpt>
      <trkpt lat="62.630454836766" lon="17.982129365379">
        <ele>96.6</ele>
        <time>2018-03-31T11:12:29Z</time>
      </trkpt>
      <trkpt lat="62.630409993601" lon="17.982154259622">
        <ele>96.6</ele>
        <time>2018-03-31T11:12:30Z</time>
      </trkpt>
      <trkpt lat="62.630366156264" lon="17.982162725341">
        <ele>96.4</ele>
        <time>2018-03-31T11:12:31Z</time>
      </trkpt>
      <trkpt lat="62.630345201514" lon="17.982177980399">
        <ele>96.4</ele>
        <time>2018-03-31T11:12:32Z</time>
      </trkpt>
      <trkpt lat="62.630309075525" lon="17.982191475258">
        <ele>96.6</ele>
        <time>2018-03-31T11:12:33Z</time>
      </trkpt>
      <trkpt lat="62.630269010043" lon="17.982203461375">
        <ele>96.6</ele>
        <time>2018-03-31T11:12:34Z</time>
      </trkpt>
      <trkpt lat="62.630244283438" lon="17.982212346189">
        <ele>96.8</ele>
        <time>2018-03-31T11:12:35Z</time>
      </trkpt>
      <trkpt lat="62.630206564888" lon="17.982197594045">
        <ele>96.8</ele>
        <time>2018-03-31T11:12:36Z</time>
      </trkpt>
      <trkpt lat="62.6301770606" lon="17.982163563531">
        <ele>96.8</ele>
        <time>2018-03-31T11:12:37Z</time>
      </trkpt>
      <trkpt lat="62.630149232692" lon="17.98212760518">
        <ele>96.8</ele>
        <time>2018-03-31T11:12:38Z</time>
      </trkpt>
      <trkpt lat="62.630111933237" lon="17.982072033183">
        <ele>96.8</ele>
        <time>2018-03-31T11:12:39Z</time>
      </trkpt>
      <trkpt lat="62.630088715374" lon="17.982028028208">
        <ele>96.8</ele>
        <time>2018-03-31T11:12:40Z</time>
      </trkpt>
      <trkpt lat="62.630060216914" lon="17.981992572771">
        <ele>96.8</ele>
        <time>2018-03-31T11:12:41Z</time>
      </trkpt>
      <trkpt lat="62.630028198056" lon="17.981944795941">
        <ele>96.8</ele>
        <time>2018-03-31T11:12:42Z</time>
      </trkpt>
      <trkpt lat="62.629993580809" lon="17.981907915581">
        <ele>96.8</ele>
        <time>2018-03-31T11:12:43Z</time>
      </trkpt>
      <trkpt lat="62.629978828665" lon="17.981875393809">
        <ele>97</ele>
        <time>2018-03-31T11:12:44Z</time>
      </trkpt>
      <trkpt lat="62.629947145083" lon="17.981849242281">
        <ele>97</ele>
        <time>2018-03-31T11:12:45Z</time>
      </trkpt>
      <trkpt lat="62.629911186732" lon="17.981823174572">
        <ele>97</ele>
        <time>2018-03-31T11:12:46Z</time>
      </trkpt>
      <trkpt lat="62.629881095711" lon="17.981806913686">
        <ele>97</ele>
        <time>2018-03-31T11:12:47Z</time>
      </trkpt>
      <trkpt lat="62.629848741577" lon="17.981786126574">
        <ele>97</ele>
        <time>2018-03-31T11:12:48Z</time>
      </trkpt>
      <trkpt lat="62.629811861217" lon="17.981752598974">
        <ele>97</ele>
        <time>2018-03-31T11:12:49Z</time>
      </trkpt>
      <trkpt lat="62.629781770196" lon="17.981745809635">
        <ele>97.2</ele>
        <time>2018-03-31T11:12:50Z</time>
      </trkpt>
      <trkpt lat="62.62974790732" lon="17.981719574288">
        <ele>97.2</ele>
        <time>2018-03-31T11:12:51Z</time>
      </trkpt>
      <trkpt lat="62.62971102696" lon="17.981694680045">
        <ele>97.2</ele>
        <time>2018-03-31T11:12:52Z</time>
      </trkpt>
      <trkpt lat="62.629678253731" lon="17.981682107195">
        <ele>97.4</ele>
        <time>2018-03-31T11:12:53Z</time>
      </trkpt>
      <trkpt lat="62.629642882113" lon="17.98164899869">
        <ele>97.4</ele>
        <time>2018-03-31T11:12:54Z</time>
      </trkpt>
      <trkpt lat="62.629608181047" lon="17.98163055851">
        <ele>97.6</ele>
        <time>2018-03-31T11:12:55Z</time>
      </trkpt>
      <trkpt lat="62.629573899076" lon="17.981620584049">
        <ele>97.8</ele>
        <time>2018-03-31T11:12:56Z</time>
      </trkpt>
      <trkpt lat="62.629538695096" lon="17.981588984286">
        <ele>98</ele>
        <time>2018-03-31T11:12:57Z</time>
      </trkpt>
      <trkpt lat="62.629506173324" lon="17.981559982912">
        <ele>98.2</ele>
        <time>2018-03-31T11:12:58Z</time>
      </trkpt>
      <trkpt lat="62.629480189434" lon="17.981533412289">
        <ele>98.4</ele>
        <time>2018-03-31T11:12:59Z</time>
      </trkpt>
      <trkpt lat="62.629453451173" lon="17.981508518046">
        <ele>98.6</ele>
        <time>2018-03-31T11:13:00Z</time>
      </trkpt>
      <trkpt lat="62.629431742052" lon="17.981491754246">
        <ele>98.6</ele>
        <time>2018-03-31T11:13:01Z</time>
      </trkpt>
      <trkpt lat="62.629418163374" lon="17.981487311839">
        <ele>98.6</ele>
        <time>2018-03-31T11:13:02Z</time>
      </trkpt>
      <trkpt lat="62.629408105094" lon="17.981481612147">
        <ele>98.6</ele>
        <time>2018-03-31T11:13:03Z</time>
      </trkpt>
      <trkpt lat="62.62940927856" lon="17.981474403713">
        <ele>98.8</ele>
        <time>2018-03-31T11:13:04Z</time>
      </trkpt>
      <trkpt lat="62.629407099266" lon="17.98147046422">
        <ele>98.8</ele>
        <time>2018-03-31T11:13:05Z</time>
      </trkpt>
      <trkpt lat="62.62939502933" lon="17.981457472275">
        <ele>99</ele>
        <time>2018-03-31T11:13:06Z</time>
      </trkpt>
      <trkpt lat="62.629388826724" lon="17.981450850574">
        <ele>99</ele>
        <time>2018-03-31T11:13:07Z</time>
      </trkpt>
      <trkpt lat="62.629380109548" lon="17.981447162538">
        <ele>99</ele>
        <time>2018-03-31T11:13:08Z</time>
      </trkpt>
      <trkpt lat="62.62937407458" lon="17.981444731787">
        <ele>99</ele>
        <time>2018-03-31T11:13:09Z</time>
      </trkpt>
      <trkpt lat="62.629367285241" lon="17.981447330176">
        <ele>99</ele>
        <time>2018-03-31T11:13:10Z</time>
      </trkpt>
      <trkpt lat="62.629361669368" lon="17.981449593289">
        <ele>99</ele>
        <time>2018-03-31T11:13:11Z</time>
      </trkpt>
      <trkpt lat="62.629351024355" lon="17.981468452564">
        <ele>99</ele>
        <time>2018-03-31T11:13:12Z</time>
      </trkpt>
      <trkpt lat="62.629348425966" lon="17.981467279098">
        <ele>99</ele>
        <time>2018-03-31T11:13:13Z</time>
      </trkpt>
      <trkpt lat="62.629336858944" lon="17.981465267442">
        <ele>98.8</ele>
        <time>2018-03-31T11:13:14Z</time>
      </trkpt>
      <trkpt lat="62.629329566691" lon="17.981452694592">
        <ele>98.8</ele>
        <time>2018-03-31T11:13:15Z</time>
      </trkpt>
      <trkpt lat="62.629321603886" lon="17.981431236928">
        <ele>98.8</ele>
        <time>2018-03-31T11:13:16Z</time>
      </trkpt>
      <trkpt lat="62.629317664393" lon="17.98140676178">
        <ele>98.8</ele>
        <time>2018-03-31T11:13:17Z</time>
      </trkpt>
      <trkpt lat="62.629315904194" lon="17.98137574875">
        <ele>98.6</ele>
        <time>2018-03-31T11:13:18Z</time>
      </trkpt>
      <trkpt lat="62.62931121033" lon="17.981362840624">
        <ele>98.6</ele>
        <time>2018-03-31T11:13:19Z</time>
      </trkpt>
      <trkpt lat="62.629304253353" lon="17.981329061567">
        <ele>98.8</ele>
        <time>2018-03-31T11:13:20Z</time>
      </trkpt>
      <trkpt lat="62.629287908648" lon="17.981300479288">
        <ele>98.8</ele>
        <time>2018-03-31T11:13:21Z</time>
      </trkpt>
      <trkpt lat="62.629264439328" lon="17.981270639724">
        <ele>98.6</ele>
        <time>2018-03-31T11:13:22Z</time>
      </trkpt>
      <trkpt lat="62.629238120162" lon="17.981246835128">
        <ele>98.6</ele>
        <time>2018-03-31T11:13:23Z</time>
      </trkpt>
      <trkpt lat="62.629212136272" lon="17.981223784903">
        <ele>98.8</ele>
        <time>2018-03-31T11:13:24Z</time>
      </trkpt>
      <trkpt lat="62.629182631984" lon="17.981182378317">
        <ele>98.8</ele>
        <time>2018-03-31T11:13:25Z</time>
      </trkpt>
      <trkpt lat="62.629163521252" lon="17.981147090518">
        <ele>98.6</ele>
        <time>2018-03-31T11:13:26Z</time>
      </trkpt>
      <trkpt lat="62.629130077471" lon="17.981109288149">
        <ele>98.8</ele>
        <time>2018-03-31T11:13:27Z</time>
      </trkpt>
      <trkpt lat="62.62909914826" lon="17.981073748893">
        <ele>98.6</ele>
        <time>2018-03-31T11:13:28Z</time>
      </trkpt>
      <trkpt lat="62.629059418054" lon="17.981064361165">
        <ele>98.6</ele>
        <time>2018-03-31T11:13:29Z</time>
      </trkpt>
      <trkpt lat="62.629025974273" lon="17.981021781113">
        <ele>98.4</ele>
        <time>2018-03-31T11:13:30Z</time>
      </trkpt>
      <trkpt lat="62.628981885479" lon="17.980986577133">
        <ele>98.4</ele>
        <time>2018-03-31T11:13:31Z</time>
      </trkpt>
      <trkpt lat="62.628966546602" lon="17.980943745624">
        <ele>98.4</ele>
        <time>2018-03-31T11:13:32Z</time>
      </trkpt>
      <trkpt lat="62.628936120305" lon="17.980894208595">
        <ele>98.4</ele>
        <time>2018-03-31T11:13:33Z</time>
      </trkpt>
      <trkpt lat="62.628903933809" lon="17.980848946335">
        <ele>98.4</ele>
        <time>2018-03-31T11:13:34Z</time>
      </trkpt>
      <trkpt lat="62.628881805593" lon="17.980793458157">
        <ele>98.4</ele>
        <time>2018-03-31T11:13:35Z</time>
      </trkpt>
      <trkpt lat="62.628857498083" lon="17.98075632634">
        <ele>98.4</ele>
        <time>2018-03-31T11:13:36Z</time>
      </trkpt>
      <trkpt lat="62.628828161433" lon="17.980714165383">
        <ele>98.4</ele>
        <time>2018-03-31T11:13:37Z</time>
      </trkpt>
      <trkpt lat="62.628808380149" lon="17.980682817077">
        <ele>98.4</ele>
        <time>2018-03-31T11:13:38Z</time>
      </trkpt>
      <trkpt lat="62.628786419571" lon="17.980652642237">
        <ele>98.6</ele>
        <time>2018-03-31T11:13:39Z</time>
      </trkpt>
      <trkpt lat="62.628751634686" lon="17.980620288103">
        <ele>98.6</ele>
        <time>2018-03-31T11:13:40Z</time>
      </trkpt>
      <trkpt lat="62.628725650796" lon="17.980585838494">
        <ele>98.8</ele>
        <time>2018-03-31T11:13:41Z</time>
      </trkpt>
      <trkpt lat="62.62869597887" lon="17.980560525156">
        <ele>99</ele>
        <time>2018-03-31T11:13:42Z</time>
      </trkpt>
      <trkpt lat="62.628656332483" lon="17.980540995329">
        <ele>99</ele>
        <time>2018-03-31T11:13:43Z</time>
      </trkpt>
      <trkpt lat="62.628621547598" lon="17.980528757755">
        <ele>99.2</ele>
        <time>2018-03-31T11:13:44Z</time>
      </trkpt>
      <trkpt lat="62.628580141012" lon="17.980501768037">
        <ele>99</ele>
        <time>2018-03-31T11:13:45Z</time>
      </trkpt>
      <trkpt lat="62.62853504639" lon="17.980463965668">
        <ele>98.8</ele>
        <time>2018-03-31T11:13:46Z</time>
      </trkpt>
      <trkpt lat="62.628504787731" lon="17.980480813287">
        <ele>98.6</ele>
        <time>2018-03-31T11:13:47Z</time>
      </trkpt>
      <trkpt lat="62.628470421941" lon="17.98050319296">
        <ele>98.2</ele>
        <time>2018-03-31T11:13:48Z</time>
      </trkpt>
      <trkpt lat="62.62844033092" lon="17.980536133827">
        <ele>97.6</ele>
        <time>2018-03-31T11:13:49Z</time>
      </trkpt>
      <trkpt lat="62.628404791664" lon="17.980568655599">
        <ele>97.2</ele>
        <time>2018-03-31T11:13:50Z</time>
      </trkpt>
      <trkpt lat="62.628359110309" lon="17.98062137775">
        <ele>96.8</ele>
        <time>2018-03-31T11:13:51Z</time>
      </trkpt>
      <trkpt lat="62.628315608248" lon="17.98067837467">
        <ele>96.4</ele>
        <time>2018-03-31T11:13:52Z</time>
      </trkpt>
      <trkpt lat="62.628276380956" lon="17.980731515916">
        <ele>96.2</ele>
        <time>2018-03-31T11:13:53Z</time>
      </trkpt>
      <trkpt lat="62.628235142008" lon="17.980779879479">
        <ele>96</ele>
        <time>2018-03-31T11:13:54Z</time>
      </trkpt>
      <trkpt lat="62.628201782046" lon="17.980830338517">
        <ele>95.8</ele>
        <time>2018-03-31T11:13:55Z</time>
      </trkpt>
      <trkpt lat="62.628161548926" lon="17.98088373122">
        <ele>95.8</ele>
        <time>2018-03-31T11:13:56Z</time>
      </trkpt>
      <trkpt lat="62.628131541724" lon="17.980935279905">
        <ele>96</ele>
        <time>2018-03-31T11:13:57Z</time>
      </trkpt>
      <trkpt lat="62.628093906993" lon="17.980991354816">
        <ele>96.2</ele>
        <time>2018-03-31T11:13:58Z</time>
      </trkpt>
      <trkpt lat="62.628061552859" lon="17.981052458867">
        <ele>96.6</ele>
        <time>2018-03-31T11:13:59Z</time>
      </trkpt>
      <trkpt lat="62.628029869277" lon="17.981104259009">
        <ele>96.8</ele>
        <time>2018-03-31T11:14:00Z</time>
      </trkpt>
      <trkpt lat="62.627993743288" lon="17.981161423567">
        <ele>97</ele>
        <time>2018-03-31T11:14:01Z</time>
      </trkpt>
      <trkpt lat="62.627961389154" lon="17.981212720795">
        <ele>97.2</ele>
        <time>2018-03-31T11:14:02Z</time>
      </trkpt>
      <trkpt lat="62.627928532106" lon="17.981270807362">
        <ele>97.2</ele>
        <time>2018-03-31T11:14:03Z</time>
      </trkpt>
      <trkpt lat="62.62789886018" lon="17.981317578364">
        <ele>97.2</ele>
        <time>2018-03-31T11:14:04Z</time>
      </trkpt>
      <trkpt lat="62.627867511874" lon="17.98137071961">
        <ele>97.4</ele>
        <time>2018-03-31T11:14:05Z</time>
      </trkpt>
      <trkpt lat="62.627830463876" lon="17.981434924964">
        <ele>97.4</ele>
        <time>2018-03-31T11:14:06Z</time>
      </trkpt>
      <trkpt lat="62.627797858285" lon="17.981492843893">
        <ele>97.4</ele>
        <time>2018-03-31T11:14:07Z</time>
      </trkpt>
      <trkpt lat="62.627756116423" lon="17.981566520794">
        <ele>97.4</ele>
        <time>2018-03-31T11:14:08Z</time>
      </trkpt>
      <trkpt lat="62.627723343194" lon="17.98162133842">
        <ele>97.4</ele>
        <time>2018-03-31T11:14:09Z</time>
      </trkpt>
      <trkpt lat="62.627683361531" lon="17.981678838254">
        <ele>97.2</ele>
        <time>2018-03-31T11:14:10Z</time>
      </trkpt>
      <trkpt lat="62.627636003796" lon="17.981739942305">
        <ele>97.2</ele>
        <time>2018-03-31T11:14:11Z</time>
      </trkpt>
      <trkpt lat="62.62759124445" lon="17.981798531786">
        <ele>97.2</ele>
        <time>2018-03-31T11:14:12Z</time>
      </trkpt>
      <trkpt lat="62.627549083493" lon="17.981854271421">
        <ele>96.8</ele>
        <time>2018-03-31T11:14:13Z</time>
      </trkpt>
      <trkpt lat="62.627512203133" lon="17.981904814278">
        <ele>96.2</ele>
        <time>2018-03-31T11:14:14Z</time>
      </trkpt>
      <trkpt lat="62.627467359968" lon="17.981948483977">
        <ele>95.6</ele>
        <time>2018-03-31T11:14:15Z</time>
      </trkpt>
      <trkpt lat="62.627430814884" lon="17.982014365711">
        <ele>95.4</ele>
        <time>2018-03-31T11:14:16Z</time>
      </trkpt>
      <trkpt lat="62.627394605076" lon="17.982058370686">
        <ele>95.2</ele>
        <time>2018-03-31T11:14:17Z</time>
      </trkpt>
      <trkpt lat="62.627335680319" lon="17.982129700655">
        <ele>95.2</ele>
        <time>2018-03-31T11:14:18Z</time>
      </trkpt>
      <trkpt lat="62.627291088611" lon="17.982186613756">
        <ele>95</ele>
        <time>2018-03-31T11:14:19Z</time>
      </trkpt>
      <trkpt lat="62.627252280414" lon="17.982233133301">
        <ele>94.6</ele>
        <time>2018-03-31T11:14:20Z</time>
      </trkpt>
      <trkpt lat="62.627206347602" lon="17.98228937585">
        <ele>94</ele>
        <time>2018-03-31T11:14:21Z</time>
      </trkpt>
      <trkpt lat="62.627163348455" lon="17.982337571775">
        <ele>93.4</ele>
        <time>2018-03-31T11:14:22Z</time>
      </trkpt>
      <trkpt lat="62.627120516946" lon="17.982387108804">
        <ele>92.8</ele>
        <time>2018-03-31T11:14:23Z</time>
      </trkpt>
      <trkpt lat="62.627084307138" lon="17.982440166231">
        <ele>92.4</ele>
        <time>2018-03-31T11:14:24Z</time>
      </trkpt>
      <trkpt lat="62.627055557221" lon="17.982500012997">
        <ele>92.4</ele>
        <time>2018-03-31T11:14:25Z</time>
      </trkpt>
      <trkpt lat="62.627018425404" lon="17.982578048486">
        <ele>93</ele>
        <time>2018-03-31T11:14:26Z</time>
      </trkpt>
      <trkpt lat="62.626975090981" lon="17.982661448391">
        <ele>93.2</ele>
        <time>2018-03-31T11:14:27Z</time>
      </trkpt>
      <trkpt lat="62.626925889228" lon="17.982721211338">
        <ele>93.4</ele>
        <time>2018-03-31T11:14:28Z</time>
      </trkpt>
      <trkpt lat="62.626871742154" lon="17.982765635408">
        <ele>93.6</ele>
        <time>2018-03-31T11:14:29Z</time>
      </trkpt>
      <trkpt lat="62.626815751062" lon="17.982797151352">
        <ele>93.4</ele>
        <time>2018-03-31T11:14:30Z</time>
      </trkpt>
      <trkpt lat="62.62675892178" lon="17.982817603188">
        <ele>93.2</ele>
        <time>2018-03-31T11:14:31Z</time>
      </trkpt>
      <trkpt lat="62.626704942344" lon="17.982831265685">
        <ele>92.6</ele>
        <time>2018-03-31T11:14:32Z</time>
      </trkpt>
      <trkpt lat="62.626648448338" lon="17.982847778028">
        <ele>92</ele>
        <time>2018-03-31T11:14:33Z</time>
      </trkpt>
      <trkpt lat="62.626598995128" lon="17.98285180134">
        <ele>91.4</ele>
        <time>2018-03-31T11:14:34Z</time>
      </trkpt>
      <trkpt lat="62.626553062316" lon="17.982864541828">
        <ele>91</ele>
        <time>2018-03-31T11:14:35Z</time>
      </trkpt>
      <trkpt lat="62.626508973522" lon="17.982889938985">
        <ele>91.4</ele>
        <time>2018-03-31T11:14:36Z</time>
      </trkpt>
      <trkpt lat="62.626459268855" lon="17.982902008921">
        <ele>91.4</ele>
        <time>2018-03-31T11:14:37Z</time>
      </trkpt>
      <trkpt lat="62.626402858668" lon="17.982911815744">
        <ele>91.6</ele>
        <time>2018-03-31T11:14:38Z</time>
      </trkpt>
      <trkpt lat="62.626351309983" lon="17.982932016123">
        <ele>92</ele>
        <time>2018-03-31T11:14:39Z</time>
      </trkpt>
      <trkpt lat="62.626318536754" lon="17.982948779923">
        <ele>92</ele>
        <time>2018-03-31T11:14:40Z</time>
      </trkpt>
      <trkpt lat="62.626265563146" lon="17.982967555379">
        <ele>91.6</ele>
        <time>2018-03-31T11:14:41Z</time>
      </trkpt>
      <trkpt lat="62.62620906914" lon="17.982982810437">
        <ele>91.6</ele>
        <time>2018-03-31T11:14:42Z</time>
      </trkpt>
      <trkpt lat="62.626158358645" lon="17.983007034128">
        <ele>91.4</ele>
        <time>2018-03-31T11:14:43Z</time>
      </trkpt>
      <trkpt lat="62.626098679517" lon="17.983023378833">
        <ele>91</ele>
        <time>2018-03-31T11:14:44Z</time>
      </trkpt>
      <trkpt lat="62.626052159972" lon="17.983046680515">
        <ele>91</ele>
        <time>2018-03-31T11:14:45Z</time>
      </trkpt>
      <trkpt lat="62.626004383142" lon="17.983109460946">
        <ele>91</ele>
        <time>2018-03-31T11:14:46Z</time>
      </trkpt>
      <trkpt lat="62.625955349027" lon="17.983140473976">
        <ele>91</ele>
        <time>2018-03-31T11:14:47Z</time>
      </trkpt>
      <trkpt lat="62.625896927184" lon="17.983184395132">
        <ele>90.8</ele>
        <time>2018-03-31T11:14:48Z</time>
      </trkpt>
      <trkpt lat="62.625850156182" lon="17.983228064831">
        <ele>90.6</ele>
        <time>2018-03-31T11:14:49Z</time>
      </trkpt>
      <trkpt lat="62.625807240854" lon="17.983281457534">
        <ele>90.2</ele>
        <time>2018-03-31T11:14:50Z</time>
      </trkpt>
      <trkpt lat="62.625762900603" lon="17.983352703684">
        <ele>89.8</ele>
        <time>2018-03-31T11:14:51Z</time>
      </trkpt>
      <trkpt lat="62.625730797926" lon="17.983414310649">
        <ele>89.2</ele>
        <time>2018-03-31T11:14:52Z</time>
      </trkpt>
      <trkpt lat="62.625698024697" lon="17.983480360021">
        <ele>88.8</ele>
        <time>2018-03-31T11:14:53Z</time>
      </trkpt>
      <trkpt lat="62.625654522636" lon="17.983559988071">
        <ele>88.8</ele>
        <time>2018-03-31T11:14:54Z</time>
      </trkpt>
      <trkpt lat="62.625604482693" lon="17.98360030501">
        <ele>89</ele>
        <time>2018-03-31T11:14:55Z</time>
      </trkpt>
      <trkpt lat="62.625565506858" lon="17.983638442655">
        <ele>89.4</ele>
        <time>2018-03-31T11:14:56Z</time>
      </trkpt>
      <trkpt lat="62.625514461087" lon="17.983649674401">
        <ele>89.4</ele>
        <time>2018-03-31T11:14:57Z</time>
      </trkpt>
      <trkpt lat="62.625461068384" lon="17.983661241423">
        <ele>89.2</ele>
        <time>2018-03-31T11:14:58Z</time>
      </trkpt>
      <trkpt lat="62.625414045925" lon="17.983676496481">
        <ele>89.2</ele>
        <time>2018-03-31T11:14:59Z</time>
      </trkpt>
      <trkpt lat="62.625337770635" lon="17.983742545853">
        <ele>88.6</ele>
        <time>2018-03-31T11:15:01Z</time>
      </trkpt>
      <trkpt lat="62.625297705153" lon="17.983779761489">
        <ele>88.6</ele>
        <time>2018-03-31T11:15:02Z</time>
      </trkpt>
      <trkpt lat="62.625245737373" lon="17.983840781721">
        <ele>88.6</ele>
        <time>2018-03-31T11:15:03Z</time>
      </trkpt>
      <trkpt lat="62.625198295819" lon="17.983903813609">
        <ele>88.6</ele>
        <time>2018-03-31T11:15:04Z</time>
      </trkpt>
      <trkpt lat="62.625151776274" lon="17.983952512448">
        <ele>88.6</ele>
        <time>2018-03-31T11:15:05Z</time>
      </trkpt>
      <trkpt lat="62.625089498757" lon="17.983997355613">
        <ele>88.4</ele>
        <time>2018-03-31T11:15:06Z</time>
      </trkpt>
      <trkpt lat="62.625024790489" lon="17.984010682834">
        <ele>88.2</ele>
        <time>2018-03-31T11:15:07Z</time>
      </trkpt>
      <trkpt lat="62.624967039198" lon="17.983987381152">
        <ele>87.6</ele>
        <time>2018-03-31T11:15:08Z</time>
      </trkpt>
      <trkpt lat="62.6249132274" lon="17.983954188828">
        <ele>87</ele>
        <time>2018-03-31T11:15:09Z</time>
      </trkpt>
      <trkpt lat="62.624861427258" lon="17.983920242133">
        <ele>86</ele>
        <time>2018-03-31T11:15:10Z</time>
      </trkpt>
      <trkpt lat="62.624818260473" lon="17.983881853031">
        <ele>85.2</ele>
        <time>2018-03-31T11:15:11Z</time>
      </trkpt>
      <trkpt lat="62.624782637398" lon="17.983872213846">
        <ele>84.8</ele>
        <time>2018-03-31T11:15:12Z</time>
      </trkpt>
      <trkpt lat="62.62473804569" lon="17.98385595296">
        <ele>84.8</ele>
        <time>2018-03-31T11:15:13Z</time>
      </trkpt>
      <trkpt lat="62.624692867249" lon="17.983833740925">
        <ele>85</ele>
        <time>2018-03-31T11:15:14Z</time>
      </trkpt>
      <trkpt lat="62.624663195323" lon="17.983826448672">
        <ele>85.6</ele>
        <time>2018-03-31T11:15:15Z</time>
      </trkpt>
      <trkpt lat="62.624622710746" lon="17.983801638248">
        <ele>85.8</ele>
        <time>2018-03-31T11:15:16Z</time>
      </trkpt>
      <trkpt lat="62.62458381873" lon="17.983781856964">
        <ele>85.8</ele>
        <time>2018-03-31T11:15:17Z</time>
      </trkpt>
      <trkpt lat="62.62454945294" lon="17.983772469236">
        <ele>85.8</ele>
        <time>2018-03-31T11:15:18Z</time>
      </trkpt>
      <trkpt lat="62.624506453793" lon="17.983744138414">
        <ele>85.8</ele>
        <time>2018-03-31T11:15:19Z</time>
      </trkpt>
      <trkpt lat="62.624454988927" lon="17.983699798163">
        <ele>85.6</ele>
        <time>2018-03-31T11:15:20Z</time>
      </trkpt>
      <trkpt lat="62.624408134106" lon="17.983669371866">
        <ele>85.6</ele>
        <time>2018-03-31T11:15:21Z</time>
      </trkpt>
      <trkpt lat="62.62436169838" lon="17.983624361063">
        <ele>85.6</ele>
        <time>2018-03-31T11:15:22Z</time>
      </trkpt>
      <trkpt lat="62.624319621242" lon="17.983579014984">
        <ele>85.6</ele>
        <time>2018-03-31T11:15:23Z</time>
      </trkpt>
      <trkpt lat="62.624280310131" lon="17.983509529033">
        <ele>85.4</ele>
        <time>2018-03-31T11:15:24Z</time>
      </trkpt>
      <trkpt lat="62.624255080612" lon="17.983431158268">
        <ele>85.4</ele>
        <time>2018-03-31T11:15:25Z</time>
      </trkpt>
      <trkpt lat="62.624238232993" lon="17.9833496862">
        <ele>85.2</ele>
        <time>2018-03-31T11:15:26Z</time>
      </trkpt>
      <trkpt lat="62.62422507341" lon="17.983268884684">
        <ele>85</ele>
        <time>2018-03-31T11:15:27Z</time>
      </trkpt>
      <trkpt lat="62.624225743962" lon="17.983197889991">
        <ele>84.6</ele>
        <time>2018-03-31T11:15:28Z</time>
      </trkpt>
      <trkpt lat="62.624216188596" lon="17.983133768456">
        <ele>84.6</ele>
        <time>2018-03-31T11:15:29Z</time>
      </trkpt>
      <trkpt lat="62.624215350406" lon="17.983072915862">
        <ele>84.4</ele>
        <time>2018-03-31T11:15:30Z</time>
      </trkpt>
      <trkpt lat="62.624212332922" lon="17.983017092408">
        <ele>84.2</ele>
        <time>2018-03-31T11:15:31Z</time>
      </trkpt>
      <trkpt lat="62.624208896343" lon="17.982976272555">
        <ele>84.2</ele>
        <time>2018-03-31T11:15:32Z</time>
      </trkpt>
      <trkpt lat="62.624206381773" lon="17.982946600629">
        <ele>84.4</ele>
        <time>2018-03-31T11:15:33Z</time>
      </trkpt>
      <trkpt lat="62.624200430624" lon="17.982932099942">
        <ele>84.6</ele>
        <time>2018-03-31T11:15:34Z</time>
      </trkpt>
      <trkpt lat="62.62419406038" lon="17.982934614512">
        <ele>84.8</ele>
        <time>2018-03-31T11:15:35Z</time>
      </trkpt>
      <trkpt lat="62.624190623801" lon="17.9829725007">
        <ele>84.8</ele>
        <time>2018-03-31T11:15:36Z</time>
      </trkpt>
      <trkpt lat="62.624198670425" lon="17.983016840951">
        <ele>85</ele>
        <time>2018-03-31T11:15:37Z</time>
      </trkpt>
      <trkpt lat="62.624201184995" lon="17.983076771536">
        <ele>85</ele>
        <time>2018-03-31T11:15:38Z</time>
      </trkpt>
      <trkpt lat="62.62420747142" lon="17.983145251659">
        <ele>84.8</ele>
        <time>2018-03-31T11:15:39Z</time>
      </trkpt>
      <trkpt lat="62.624220128089" lon="17.98320803209">
        <ele>84.6</ele>
        <time>2018-03-31T11:15:40Z</time>
      </trkpt>
      <trkpt lat="62.624222642659" lon="17.983284223561">
        <ele>84.6</ele>
        <time>2018-03-31T11:15:41Z</time>
      </trkpt>
      <trkpt lat="62.624233036215" lon="17.983368210199">
        <ele>84.4</ele>
        <time>2018-03-31T11:15:42Z</time>
      </trkpt>
      <trkpt lat="62.624255080612" lon="17.983430403897">
        <ele>84.4</ele>
        <time>2018-03-31T11:15:43Z</time>
      </trkpt>
      <trkpt lat="62.624275280991" lon="17.983492513776">
        <ele>84.4</ele>
        <time>2018-03-31T11:15:44Z</time>
      </trkpt>
      <trkpt lat="62.624299169406" lon="17.983540122968">
        <ele>84.4</ele>
        <time>2018-03-31T11:15:45Z</time>
      </trkpt>
      <trkpt lat="62.624326829676" lon="17.983579014984">
        <ele>84.4</ele>
        <time>2018-03-31T11:15:46Z</time>
      </trkpt>
      <trkpt lat="62.624347532969" lon="17.983594689137">
        <ele>84.4</ele>
        <time>2018-03-31T11:15:47Z</time>
      </trkpt>
      <trkpt lat="62.624380725293" lon="17.983625953624">
        <ele>84.4</ele>
        <time>2018-03-31T11:15:48Z</time>
      </trkpt>
      <trkpt lat="62.624410145762" lon="17.983646070184">
        <ele>84.4</ele>
        <time>2018-03-31T11:15:49Z</time>
      </trkpt>
      <trkpt lat="62.624432357797" lon="17.983656966654">
        <ele>84.2</ele>
        <time>2018-03-31T11:15:50Z</time>
      </trkpt>
      <trkpt lat="62.624468567605" lon="17.983679849241">
        <ele>84.4</ele>
        <time>2018-03-31T11:15:51Z</time>
      </trkpt>
      <trkpt lat="62.624504693594" lon="17.983686387123">
        <ele>84.4</ele>
        <time>2018-03-31T11:15:52Z</time>
      </trkpt>
      <trkpt lat="62.624530509846" lon="17.983706252226">
        <ele>84.6</ele>
        <time>2018-03-31T11:15:53Z</time>
      </trkpt>
      <trkpt lat="62.624557751021" lon="17.983728380442">
        <ele>84.6</ele>
        <time>2018-03-31T11:15:54Z</time>
      </trkpt>
      <trkpt lat="62.624578202857" lon="17.983737265256">
        <ele>85</ele>
        <time>2018-03-31T11:15:55Z</time>
      </trkpt>
      <trkpt lat="62.624610556991" lon="17.983756627445">
        <ele>85</ele>
        <time>2018-03-31T11:15:56Z</time>
      </trkpt>
      <trkpt lat="62.624639642184" lon="17.983776073453">
        <ele>85.2</ele>
        <time>2018-03-31T11:15:57Z</time>
      </trkpt>
      <trkpt lat="62.624664787884" lon="17.983779342394">
        <ele>85.4</ele>
        <time>2018-03-31T11:15:58Z</time>
      </trkpt>
      <trkpt lat="62.624698064027" lon="17.983807924673">
        <ele>85.6</ele>
        <time>2018-03-31T11:15:59Z</time>
      </trkpt>
      <trkpt lat="62.624732513636" lon="17.983813792003">
        <ele>85.4</ele>
        <time>2018-03-31T11:16:00Z</time>
      </trkpt>
      <trkpt lat="62.624769142539" lon="17.983844721214">
        <ele>85.6</ele>
        <time>2018-03-31T11:16:01Z</time>
      </trkpt>
      <trkpt lat="62.624807699279" lon="17.983862407023">
        <ele>85.6</ele>
        <time>2018-03-31T11:16:02Z</time>
      </trkpt>
      <trkpt lat="62.624847764761" lon="17.983888055637">
        <ele>85.6</ele>
        <time>2018-03-31T11:16:03Z</time>
      </trkpt>
      <trkpt lat="62.624886572958" lon="17.98391043531">
        <ele>85.4</ele>
        <time>2018-03-31T11:16:04Z</time>
      </trkpt>
      <trkpt lat="62.624923704775" lon="17.983925690368">
        <ele>85.4</ele>
        <time>2018-03-31T11:16:05Z</time>
      </trkpt>
      <trkpt lat="62.624962429153" lon="17.983947818584">
        <ele>85.4</ele>
        <time>2018-03-31T11:16:06Z</time>
      </trkpt>
      <trkpt lat="62.625000985893" lon="17.983961648719">
        <ele>85.4</ele>
        <time>2018-03-31T11:16:07Z</time>
      </trkpt>
      <trkpt lat="62.625041219013" lon="17.983969695343">
        <ele>85.6</ele>
        <time>2018-03-31T11:16:08Z</time>
      </trkpt>
      <trkpt lat="62.625076171536" lon="17.983955613751">
        <ele>85.8</ele>
        <time>2018-03-31T11:16:09Z</time>
      </trkpt>
      <trkpt lat="62.625109028584" lon="17.983945806928">
        <ele>85.8</ele>
        <time>2018-03-31T11:16:10Z</time>
      </trkpt>
      <trkpt lat="62.625137694682" lon="17.983919236305">
        <ele>86</ele>
        <time>2018-03-31T11:16:11Z</time>
      </trkpt>
      <trkpt lat="62.625151943912" lon="17.983895683166">
        <ele>86.2</ele>
        <time>2018-03-31T11:16:12Z</time>
      </trkpt>
      <trkpt lat="62.625166025504" lon="17.983855869141">
        <ele>86.2</ele>
        <time>2018-03-31T11:16:13Z</time>
      </trkpt>
      <trkpt lat="62.625180861467" lon="17.983814127279">
        <ele>86</ele>
        <time>2018-03-31T11:16:14Z</time>
      </trkpt>
      <trkpt lat="62.625199720742" lon="17.983761908042">
        <ele>86.4</ele>
        <time>2018-03-31T11:16:15Z</time>
      </trkpt>
      <trkpt lat="62.625222100415" lon="17.983724021854">
        <ele>86.8</ele>
        <time>2018-03-31T11:16:16Z</time>
      </trkpt>
      <trkpt lat="62.625245569735" lon="17.983693427919">
        <ele>86.8</ele>
        <time>2018-03-31T11:16:17Z</time>
      </trkpt>
      <trkpt lat="62.625274319652" lon="17.983662414889">
        <ele>87.2</ele>
        <time>2018-03-31T11:16:18Z</time>
      </trkpt>
      <trkpt lat="62.62530214756" lon="17.983628216737">
        <ele>87.4</ele>
        <time>2018-03-31T11:16:19Z</time>
      </trkpt>
      <trkpt lat="62.625324611052" lon="17.983606842892">
        <ele>87.6</ele>
        <time>2018-03-31T11:16:20Z</time>
      </trkpt>
      <trkpt lat="62.625353109512" lon="17.983590414368">
        <ele>87.6</ele>
        <time>2018-03-31T11:16:21Z</time>
      </trkpt>
      <trkpt lat="62.625384960732" lon="17.983573147654">
        <ele>87.8</ele>
        <time>2018-03-31T11:16:22Z</time>
      </trkpt>
      <trkpt lat="62.625411615174" lon="17.983555797121">
        <ele>88</ele>
        <time>2018-03-31T11:16:23Z</time>
      </trkpt>
      <trkpt lat="62.625444807498" lon="17.983551438533">
        <ele>88.2</ele>
        <time>2018-03-31T11:16:24Z</time>
      </trkpt>
      <trkpt lat="62.625475066157" lon="17.983535345285">
        <ele>88.2</ele>
        <time>2018-03-31T11:16:25Z</time>
      </trkpt>
      <trkpt lat="62.625511275965" lon="17.983529729412">
        <ele>88.2</ele>
        <time>2018-03-31T11:16:26Z</time>
      </trkpt>
      <trkpt lat="62.625540612615" lon="17.983501566228">
        <ele>88.2</ele>
        <time>2018-03-31T11:16:27Z</time>
      </trkpt>
      <trkpt lat="62.625577744432" lon="17.983470134103">
        <ele>88.4</ele>
        <time>2018-03-31T11:16:28Z</time>
      </trkpt>
      <trkpt lat="62.625608254548" lon="17.983425290938">
        <ele>88.4</ele>
        <time>2018-03-31T11:16:29Z</time>
      </trkpt>
      <trkpt lat="62.625634238438" lon="17.983378519936">
        <ele>88.4</ele>
        <time>2018-03-31T11:16:30Z</time>
      </trkpt>
      <trkpt lat="62.625662233984" lon="17.983333341495">
        <ele>88.6</ele>
        <time>2018-03-31T11:16:31Z</time>
      </trkpt>
      <trkpt lat="62.625684110743" lon="17.983284558837">
        <ele>88.6</ele>
        <time>2018-03-31T11:16:32Z</time>
      </trkpt>
      <trkpt lat="62.625702299466" lon="17.983243906622">
        <ele>88.6</ele>
        <time>2018-03-31T11:16:33Z</time>
      </trkpt>
      <trkpt lat="62.625727026071" lon="17.983200823656">
        <ele>88.8</ele>
        <time>2018-03-31T11:16:34Z</time>
      </trkpt>
      <trkpt lat="62.625748316097" lon="17.983162937468">
        <ele>88.8</ele>
        <time>2018-03-31T11:16:35Z</time>
      </trkpt>
      <trkpt lat="62.625768097381" lon="17.983117088475">
        <ele>89</ele>
        <time>2018-03-31T11:16:36Z</time>
      </trkpt>
      <trkpt lat="62.625796009108" lon="17.983083393237">
        <ele>89</ele>
        <time>2018-03-31T11:16:37Z</time>
      </trkpt>
      <trkpt lat="62.625824759025" lon="17.983051793474">
        <ele>89</ele>
        <time>2018-03-31T11:16:38Z</time>
      </trkpt>
      <trkpt lat="62.625847138698" lon="17.98302446848">
        <ele>89.2</ele>
        <time>2018-03-31T11:16:39Z</time>
      </trkpt>
      <trkpt lat="62.62587882228" lon="17.983000580065">
        <ele>89.4</ele>
        <time>2018-03-31T11:16:40Z</time>
      </trkpt>
      <trkpt lat="62.625909416215" lon="17.982960682221">
        <ele>89.4</ele>
        <time>2018-03-31T11:16:41Z</time>
      </trkpt>
      <trkpt lat="62.6259358192" lon="17.982944421335">
        <ele>89.6</ele>
        <time>2018-03-31T11:16:42Z</time>
      </trkpt>
      <trkpt lat="62.625973956845" lon="17.982924472413">
        <ele>89.8</ele>
        <time>2018-03-31T11:16:43Z</time>
      </trkpt>
      <trkpt lat="62.626004969875" lon="17.982909720269">
        <ele>89.8</ele>
        <time>2018-03-31T11:16:44Z</time>
      </trkpt>
      <trkpt lat="62.626033552154" lon="17.982896644505">
        <ele>89.8</ele>
        <time>2018-03-31T11:16:45Z</time>
      </trkpt>
      <trkpt lat="62.626070181057" lon="17.982890274261">
        <ele>89.8</ele>
        <time>2018-03-31T11:16:46Z</time>
      </trkpt>
      <trkpt lat="62.626096332585" lon="17.982862027258">
        <ele>90</ele>
        <time>2018-03-31T11:16:47Z</time>
      </trkpt>
      <trkpt lat="62.626131368927" lon="17.982860853792">
        <ele>90</ele>
        <time>2018-03-31T11:16:48Z</time>
      </trkpt>
      <trkpt lat="62.626166824364" lon="17.982848029485">
        <ele>90</ele>
        <time>2018-03-31T11:16:49Z</time>
      </trkpt>
      <trkpt lat="62.626195993376" lon="17.982840234318">
        <ele>90.2</ele>
        <time>2018-03-31T11:16:50Z</time>
      </trkpt>
      <trkpt lat="62.626229353338" lon="17.98283587573">
        <ele>90.2</ele>
        <time>2018-03-31T11:16:51Z</time>
      </trkpt>
      <trkpt lat="62.62625768416" lon="17.982822799966">
        <ele>90.2</ele>
        <time>2018-03-31T11:16:52Z</time>
      </trkpt>
      <trkpt lat="62.626291127941" lon="17.982819698663">
        <ele>90.6</ele>
        <time>2018-03-31T11:16:53Z</time>
      </trkpt>
      <trkpt lat="62.626323817351" lon="17.982802767225">
        <ele>90.8</ele>
        <time>2018-03-31T11:16:54Z</time>
      </trkpt>
      <trkpt lat="62.62634737049" lon="17.982807796365">
        <ele>90.8</ele>
        <time>2018-03-31T11:16:55Z</time>
      </trkpt>
      <trkpt lat="62.626381065728" lon="17.982797821904">
        <ele>90.8</ele>
        <time>2018-03-31T11:16:56Z</time>
      </trkpt>
      <trkpt lat="62.626406546704" lon="17.982790781108">
        <ele>91</ele>
        <time>2018-03-31T11:16:57Z</time>
      </trkpt>
      <trkpt lat="62.626442253598" lon="17.98278642252">
        <ele>91</ele>
        <time>2018-03-31T11:16:58Z</time>
      </trkpt>
      <trkpt lat="62.626471171153" lon="17.982785668149">
        <ele>91</ele>
        <time>2018-03-31T11:16:59Z</time>
      </trkpt>
      <trkpt lat="62.626494221378" lon="17.982778292077">
        <ele>91</ele>
        <time>2018-03-31T11:17:00Z</time>
      </trkpt>
      <trkpt lat="62.626529928272" lon="17.982777286249">
        <ele>91.2</ele>
        <time>2018-03-31T11:17:01Z</time>
      </trkpt>
      <trkpt lat="62.626554068144" lon="17.982740405889">
        <ele>91.2</ele>
        <time>2018-03-31T11:17:02Z</time>
      </trkpt>
      <trkpt lat="62.626587763382" lon="17.982746608495">
        <ele>91.6</ele>
        <time>2018-03-31T11:17:03Z</time>
      </trkpt>
      <trkpt lat="62.626619614602" lon="17.982729257962">
        <ele>91.6</ele>
        <time>2018-03-31T11:17:04Z</time>
      </trkpt>
      <trkpt lat="62.626642497189" lon="17.982726240478">
        <ele>91.6</ele>
        <time>2018-03-31T11:17:05Z</time>
      </trkpt>
      <trkpt lat="62.626678706997" lon="17.982716266017">
        <ele>91.6</ele>
        <time>2018-03-31T11:17:06Z</time>
      </trkpt>
      <trkpt lat="62.626708798018" lon="17.982710482506">
        <ele>91.8</ele>
        <time>2018-03-31T11:17:07Z</time>
      </trkpt>
      <trkpt lat="62.626745175464" lon="17.982697406742">
        <ele>91.8</ele>
        <time>2018-03-31T11:17:08Z</time>
      </trkpt>
      <trkpt lat="62.626772165182" lon="17.982691120317">
        <ele>91.8</ele>
        <time>2018-03-31T11:17:09Z</time>
      </trkpt>
      <trkpt lat="62.626803848764" lon="17.982669159739">
        <ele>91.8</ele>
        <time>2018-03-31T11:17:10Z</time>
      </trkpt>
      <trkpt lat="62.626831760491" lon="17.982639152537">
        <ele>91.8</ele>
        <time>2018-03-31T11:17:11Z</time>
      </trkpt>
      <trkpt lat="62.626864785177" lon="17.982609396792">
        <ele>91.8</ele>
        <time>2018-03-31T11:17:12Z</time>
      </trkpt>
      <trkpt lat="62.626890685248" lon="17.982567906387">
        <ele>92</ele>
        <time>2018-03-31T11:17:13Z</time>
      </trkpt>
      <trkpt lat="62.626911975274" lon="17.982540413755">
        <ele>92</ele>
        <time>2018-03-31T11:17:14Z</time>
      </trkpt>
      <trkpt lat="62.626934271128" lon="17.982500935006">
        <ele>92.2</ele>
        <time>2018-03-31T11:17:15Z</time>
      </trkpt>
      <trkpt lat="62.626954387688" lon="17.982447290846">
        <ele>92.6</ele>
        <time>2018-03-31T11:17:16Z</time>
      </trkpt>
      <trkpt lat="62.626970061841" lon="17.982424072983">
        <ele>92.8</ele>
        <time>2018-03-31T11:17:17Z</time>
      </trkpt>
      <trkpt lat="62.62699529136" lon="17.98239079684">
        <ele>93</ele>
        <time>2018-03-31T11:17:18Z</time>
      </trkpt>
      <trkpt lat="62.627027394037" lon="17.982339834888">
        <ele>93.2</ele>
        <time>2018-03-31T11:17:19Z</time>
      </trkpt>
      <trkpt lat="62.62704642095" lon="17.98231452155">
        <ele>93.4</ele>
        <time>2018-03-31T11:17:20Z</time>
      </trkpt>
      <trkpt lat="62.627075254686" lon="17.982281999778">
        <ele>93.2</ele>
        <time>2018-03-31T11:17:21Z</time>
      </trkpt>
      <trkpt lat="62.627098640187" lon="17.982244532685">
        <ele>93.4</ele>
        <time>2018-03-31T11:17:22Z</time>
      </trkpt>
      <trkpt lat="62.627124288801" lon="17.982206646497">
        <ele>93.6</ele>
        <time>2018-03-31T11:17:23Z</time>
      </trkpt>
      <trkpt lat="62.627150691786" lon="17.982170939603">
        <ele>93.6</ele>
        <time>2018-03-31T11:17:24Z</time>
      </trkpt>
      <trkpt lat="62.627178519694" lon="17.982140429487">
        <ele>93.8</ele>
        <time>2018-03-31T11:17:25Z</time>
      </trkpt>
      <trkpt lat="62.627205928507" lon="17.982094664313">
        <ele>94</ele>
        <time>2018-03-31T11:17:26Z</time>
      </trkpt>
      <trkpt lat="62.627230571293" lon="17.982056526668">
        <ele>94</ele>
        <time>2018-03-31T11:17:27Z</time>
      </trkpt>
      <trkpt lat="62.627257477192" lon="17.982032470615">
        <ele>94</ele>
        <time>2018-03-31T11:17:28Z</time>
      </trkpt>
      <trkpt lat="62.627279353951" lon="17.981997434273">
        <ele>94</ele>
        <time>2018-03-31T11:17:29Z</time>
      </trkpt>
      <trkpt lat="62.627307852411" lon="17.981972875306">
        <ele>94.2</ele>
        <time>2018-03-31T11:17:30Z</time>
      </trkpt>
      <trkpt lat="62.627331321731" lon="17.981933480376">
        <ele>94.4</ele>
        <time>2018-03-31T11:17:31Z</time>
      </trkpt>
      <trkpt lat="62.627359484915" lon="17.981908083219">
        <ele>94.4</ele>
        <time>2018-03-31T11:17:32Z</time>
      </trkpt>
      <trkpt lat="62.627387648099" lon="17.981865838443">
        <ele>94.4</ele>
        <time>2018-03-31T11:17:33Z</time>
      </trkpt>
      <trkpt lat="62.627413715808" lon="17.981831640291">
        <ele>94.6</ele>
        <time>2018-03-31T11:17:34Z</time>
      </trkpt>
      <trkpt lat="62.627435424929" lon="17.981803980021">
        <ele>94.8</ele>
        <time>2018-03-31T11:17:35Z</time>
      </trkpt>
      <trkpt lat="62.627464510122" lon="17.981765842376">
        <ele>95</ele>
        <time>2018-03-31T11:17:36Z</time>
      </trkpt>
      <trkpt lat="62.627494768781" lon="17.981727704731">
        <ele>95.2</ele>
        <time>2018-03-31T11:17:37Z</time>
      </trkpt>
      <trkpt lat="62.627518657196" lon="17.981697446072">
        <ele>95.4</ele>
        <time>2018-03-31T11:17:38Z</time>
      </trkpt>
      <trkpt lat="62.62754765857" lon="17.981669366707">
        <ele>95.8</ele>
        <time>2018-03-31T11:17:39Z</time>
      </trkpt>
      <trkpt lat="62.627568529501" lon="17.98163391127">
        <ele>95.8</ele>
        <time>2018-03-31T11:17:40Z</time>
      </trkpt>
      <trkpt lat="62.627598704341" lon="17.981599880756">
        <ele>96</ele>
        <time>2018-03-31T11:17:41Z</time>
      </trkpt>
      <trkpt lat="62.627629298276" lon="17.981551265736">
        <ele>95.8</ele>
        <time>2018-03-31T11:17:42Z</time>
      </trkpt>
      <trkpt lat="62.62765829965" lon="17.981512625177">
        <ele>96</ele>
        <time>2018-03-31T11:17:43Z</time>
      </trkpt>
      <trkpt lat="62.627688390671" lon="17.981473397885">
        <ele>96</ele>
        <time>2018-03-31T11:17:44Z</time>
      </trkpt>
      <trkpt lat="62.627713117276" lon="17.981431823661">
        <ele>96.2</ele>
        <time>2018-03-31T11:17:45Z</time>
      </trkpt>
      <trkpt lat="62.627731976551" lon="17.981396200586">
        <ele>96</ele>
        <time>2018-03-31T11:17:46Z</time>
      </trkpt>
      <trkpt lat="62.627748237437" lon="17.981376167845">
        <ele>96.2</ele>
        <time>2018-03-31T11:17:47Z</time>
      </trkpt>
      <trkpt lat="62.627780926847" lon="17.981331073223">
        <ele>96.4</ele>
        <time>2018-03-31T11:17:48Z</time>
      </trkpt>
      <trkpt lat="62.627801211045" lon="17.981291510655">
        <ele>96.4</ele>
        <time>2018-03-31T11:17:49Z</time>
      </trkpt>
      <trkpt lat="62.627822249614" lon="17.981256390494">
        <ele>96.4</ele>
        <time>2018-03-31T11:17:50Z</time>
      </trkpt>
      <trkpt lat="62.627848987875" lon="17.981206769646">
        <ele>96.6</ele>
        <time>2018-03-31T11:17:51Z</time>
      </trkpt>
      <trkpt lat="62.627866757503" lon="17.981155137142">
        <ele>96.6</ele>
        <time>2018-03-31T11:17:52Z</time>
      </trkpt>
      <trkpt lat="62.627881844923" lon="17.981117418592">
        <ele>96.8</ele>
        <time>2018-03-31T11:17:53Z</time>
      </trkpt>
      <trkpt lat="62.627907493537" lon="17.981086237924">
        <ele>96.8</ele>
        <time>2018-03-31T11:17:54Z</time>
      </trkpt>
      <trkpt lat="62.627930627581" lon="17.981056230722">
        <ele>96.8</ele>
        <time>2018-03-31T11:17:55Z</time>
      </trkpt>
      <trkpt lat="62.627952085245" lon="17.981013147756">
        <ele>97.2</ele>
        <time>2018-03-31T11:17:56Z</time>
      </trkpt>
      <trkpt lat="62.627979661696" lon="17.980973166093">
        <ele>97.2</ele>
        <time>2018-03-31T11:17:57Z</time>
      </trkpt>
      <trkpt lat="62.628013105477" lon="17.980930166946">
        <ele>97.2</ele>
        <time>2018-03-31T11:17:58Z</time>
      </trkpt>
      <trkpt lat="62.628036239521" lon="17.980887586894">
        <ele>97.2</ele>
        <time>2018-03-31T11:17:59Z</time>
      </trkpt>
      <trkpt lat="62.628060882307" lon="17.980850790353">
        <ele>97.2</ele>
        <time>2018-03-31T11:18:00Z</time>
      </trkpt>
      <trkpt lat="62.628098684676" lon="17.980811479242">
        <ele>97</ele>
        <time>2018-03-31T11:18:01Z</time>
      </trkpt>
      <trkpt lat="62.628132044638" lon="17.980771078484">
        <ele>97</ele>
        <time>2018-03-31T11:18:02Z</time>
      </trkpt>
      <trkpt lat="62.628176636346" lon="17.980745346051">
        <ele>97</ele>
        <time>2018-03-31T11:18:03Z</time>
      </trkpt>
      <trkpt lat="62.628213768163" lon="17.980705448207">
        <ele>97</ele>
        <time>2018-03-31T11:18:04Z</time>
      </trkpt>
      <trkpt lat="62.628254168921" lon="17.980653815703">
        <ele>97</ele>
        <time>2018-03-31T11:18:05Z</time>
      </trkpt>
      <trkpt lat="62.628283002657" lon="17.980599836267">
        <ele>97</ele>
        <time>2018-03-31T11:18:06Z</time>
      </trkpt>
      <trkpt lat="62.62831460242" lon="17.980544515727">
        <ele>97</ele>
        <time>2018-03-31T11:18:07Z</time>
      </trkpt>
      <trkpt lat="62.628351818056" lon="17.980506042806">
        <ele>97</ele>
        <time>2018-03-31T11:18:08Z</time>
      </trkpt>
      <trkpt lat="62.628387189674" lon="17.980478717812">
        <ele>97</ele>
        <time>2018-03-31T11:18:09Z</time>
      </trkpt>
      <trkpt lat="62.628409234071" lon="17.980421134159">
        <ele>97</ele>
        <time>2018-03-31T11:18:10Z</time>
      </trkpt>
      <trkpt lat="62.628439408911" lon="17.980400347047">
        <ele>97</ele>
        <time>2018-03-31T11:18:11Z</time>
      </trkpt>
      <trkpt lat="62.628464386973" lon="17.980371764768">
        <ele>97.2</ele>
        <time>2018-03-31T11:18:12Z</time>
      </trkpt>
      <trkpt lat="62.628488610664" lon="17.980347876353">
        <ele>97.2</ele>
        <time>2018-03-31T11:18:13Z</time>
      </trkpt>
      <trkpt lat="62.628516354753" lon="17.980337147521">
        <ele>97.2</ele>
        <time>2018-03-31T11:18:14Z</time>
      </trkpt>
      <trkpt lat="62.628539069702" lon="17.980345026507">
        <ele>97.4</ele>
        <time>2018-03-31T11:18:15Z</time>
      </trkpt>
      <trkpt lat="62.62857192675" lon="17.980347624896">
        <ele>97.6</ele>
        <time>2018-03-31T11:18:16Z</time>
      </trkpt>
      <trkpt lat="62.628601011943" lon="17.980345026507">
        <ele>97.8</ele>
        <time>2018-03-31T11:18:17Z</time>
      </trkpt>
      <trkpt lat="62.628638227579" lon="17.980354330416">
        <ele>98</ele>
        <time>2018-03-31T11:18:18Z</time>
      </trkpt>
      <trkpt lat="62.628674353568" lon="17.980372183863">
        <ele>98.4</ele>
        <time>2018-03-31T11:18:19Z</time>
      </trkpt>
      <trkpt lat="62.628695727413" lon="17.980388277111">
        <ele>98.4</ele>
        <time>2018-03-31T11:18:20Z</time>
      </trkpt>
      <trkpt lat="62.628716598344" lon="17.980419793055">
        <ele>98.6</ele>
        <time>2018-03-31T11:18:21Z</time>
      </trkpt>
      <trkpt lat="62.628746773184" lon="17.980449129705">
        <ele>98.8</ele>
        <time>2018-03-31T11:18:22Z</time>
      </trkpt>
      <trkpt lat="62.628774349635" lon="17.980469497722">
        <ele>99</ele>
        <time>2018-03-31T11:18:23Z</time>
      </trkpt>
      <trkpt lat="62.628796645489" lon="17.980515514353">
        <ele>99</ele>
        <time>2018-03-31T11:18:24Z</time>
      </trkpt>
      <trkpt lat="62.628828999623" lon="17.980561698622">
        <ele>99.2</ele>
        <time>2018-03-31T11:18:25Z</time>
      </trkpt>
      <trkpt lat="62.628859593558" lon="17.980620455741">
        <ele>99.4</ele>
        <time>2018-03-31T11:18:26Z</time>
      </trkpt>
      <trkpt lat="62.628892450606" lon="17.98067334553">
        <ele>99.4</ele>
        <time>2018-03-31T11:18:27Z</time>
      </trkpt>
      <trkpt lat="62.628936455581" lon="17.980722463464">
        <ele>99.2</ele>
        <time>2018-03-31T11:18:28Z</time>
      </trkpt>
      <trkpt lat="62.62896755243" lon="17.980775939986">
        <ele>99.2</ele>
        <time>2018-03-31T11:18:29Z</time>
      </trkpt>
      <trkpt lat="62.628992865768" lon="17.980836122028">
        <ele>99</ele>
        <time>2018-03-31T11:18:30Z</time>
      </trkpt>
      <trkpt lat="62.629026980101" lon="17.980887335437">
        <ele>99</ele>
        <time>2018-03-31T11:18:31Z</time>
      </trkpt>
      <trkpt lat="62.629061597348" lon="17.980925221625">
        <ele>99</ele>
        <time>2018-03-31T11:18:32Z</time>
      </trkpt>
      <trkpt lat="62.629095292586" lon="17.980968556048">
        <ele>99</ele>
        <time>2018-03-31T11:18:33Z</time>
      </trkpt>
      <trkpt lat="62.629130664204" lon="17.980994707576">
        <ele>98.8</ele>
        <time>2018-03-31T11:18:34Z</time>
      </trkpt>
      <trkpt lat="62.62915698337" lon="17.981034102506">
        <ele>98.8</ele>
        <time>2018-03-31T11:18:35Z</time>
      </trkpt>
      <trkpt lat="62.629189756599" lon="17.981066959554">
        <ele>98.6</ele>
        <time>2018-03-31T11:18:36Z</time>
      </trkpt>
      <trkpt lat="62.629222110733" lon="17.981101912077">
        <ele>98.6</ele>
        <time>2018-03-31T11:18:37Z</time>
      </trkpt>
      <trkpt lat="62.629250357736" lon="17.98113435003">
        <ele>98.4</ele>
        <time>2018-03-31T11:18:38Z</time>
      </trkpt>
      <trkpt lat="62.629270725753" lon="17.981159914825">
        <ele>98.6</ele>
        <time>2018-03-31T11:18:39Z</time>
      </trkpt>
      <trkpt lat="62.629286735182" lon="17.981178522643">
        <ele>98.6</ele>
        <time>2018-03-31T11:18:40Z</time>
      </trkpt>
      <trkpt lat="62.629293692159" lon="17.981208026931">
        <ele>98.8</ele>
        <time>2018-03-31T11:18:41Z</time>
      </trkpt>
      <trkpt lat="62.629294530349" lon="17.981239039961">
        <ele>99</ele>
        <time>2018-03-31T11:18:42Z</time>
      </trkpt>
      <trkpt lat="62.629295452358" lon="17.98126007853">
        <ele>99</ele>
        <time>2018-03-31T11:18:43Z</time>
      </trkpt>
      <trkpt lat="62.629303498982" lon="17.981276171778">
        <ele>99</ele>
        <time>2018-03-31T11:18:44Z</time>
      </trkpt>
      <trkpt lat="62.62931288671" lon="17.981281452375">
        <ele>99</ele>
        <time>2018-03-31T11:18:45Z</time>
      </trkpt>
      <trkpt lat="62.629325040465" lon="17.981274160122">
        <ele>98.8</ele>
        <time>2018-03-31T11:18:46Z</time>
      </trkpt>
      <trkpt lat="62.629337361858" lon="17.981258150693">
        <ele>98.8</ele>
        <time>2018-03-31T11:18:47Z</time>
      </trkpt>
      <trkpt lat="62.629355718219" lon="17.981255803761">
        <ele>98.8</ele>
        <time>2018-03-31T11:18:48Z</time>
      </trkpt>
      <trkpt lat="62.629380528643" lon="17.981276255597">
        <ele>98.8</ele>
        <time>2018-03-31T11:18:49Z</time>
      </trkpt>
      <trkpt lat="62.629400980479" lon="17.981298048537">
        <ele>98.8</ele>
        <time>2018-03-31T11:18:50Z</time>
      </trkpt>
      <trkpt lat="62.629428137835" lon="17.981324032427">
        <ele>98.8</ele>
        <time>2018-03-31T11:18:51Z</time>
      </trkpt>
      <trkpt lat="62.629461413978" lon="17.98134808848">
        <ele>98.6</ele>
        <time>2018-03-31T11:18:52Z</time>
      </trkpt>
      <trkpt lat="62.629492427008" lon="17.981383208641">
        <ele>98.6</ele>
        <time>2018-03-31T11:18:53Z</time>
      </trkpt>
      <trkpt lat="62.629533414499" lon="17.981404498667">
        <ele>98.8</ele>
        <time>2018-03-31T11:18:54Z</time>
      </trkpt>
      <trkpt lat="62.629561912959" lon="17.981439283552">
        <ele>98.8</ele>
        <time>2018-03-31T11:18:55Z</time>
      </trkpt>
      <trkpt lat="62.629600972613" lon="17.98145202404">
        <ele>98.8</ele>
        <time>2018-03-31T11:18:56Z</time>
      </trkpt>
      <trkpt lat="62.629635757498" lon="17.981493682083">
        <ele>99</ele>
        <time>2018-03-31T11:18:57Z</time>
      </trkpt>
      <trkpt lat="62.62967582298" lon="17.981526120036">
        <ele>99</ele>
        <time>2018-03-31T11:18:58Z</time>
      </trkpt>
      <trkpt lat="62.629711278417" lon="17.981545482225">
        <ele>98.8</ele>
        <time>2018-03-31T11:18:59Z</time>
      </trkpt>
      <trkpt lat="62.629755786306" lon="17.981593175236">
        <ele>98.8</ele>
        <time>2018-03-31T11:19:00Z</time>
      </trkpt>
      <trkpt lat="62.629803982231" lon="17.981625780827">
        <ele>98.6</ele>
        <time>2018-03-31T11:19:01Z</time>
      </trkpt>
      <trkpt lat="62.629844718265" lon="17.981669031431">
        <ele>98.4</ele>
        <time>2018-03-31T11:19:02Z</time>
      </trkpt>
      <trkpt lat="62.629902050461" lon="17.981721166849">
        <ele>98.2</ele>
        <time>2018-03-31T11:19:03Z</time>
      </trkpt>
      <trkpt lat="62.629943540866" lon="17.981782689995">
        <ele>98</ele>
        <time>2018-03-31T11:19:04Z</time>
      </trkpt>
      <trkpt lat="62.629986540013" lon="17.981819235079">
        <ele>97.8</ele>
        <time>2018-03-31T11:19:05Z</time>
      </trkpt>
      <trkpt lat="62.63004127382" lon="17.98187866275">
        <ele>97.6</ele>
        <time>2018-03-31T11:19:06Z</time>
      </trkpt>
      <trkpt lat="62.630080501112" lon="17.981914285825">
        <ele>97.4</ele>
        <time>2018-03-31T11:19:07Z</time>
      </trkpt>
      <trkpt lat="62.630114950721" lon="17.981961727379">
        <ele>97.4</ele>
        <time>2018-03-31T11:19:08Z</time>
      </trkpt>
      <trkpt lat="62.630168594881" lon="17.981987878907">
        <ele>97.2</ele>
        <time>2018-03-31T11:19:09Z</time>
      </trkpt>
      <trkpt lat="62.630211342571" lon="17.981984693785">
        <ele>97.2</ele>
        <time>2018-03-31T11:19:10Z</time>
      </trkpt>
      <trkpt lat="62.630250569863" lon="17.98198762745">
        <ele>97.2</ele>
        <time>2018-03-31T11:19:11Z</time>
      </trkpt>
      <trkpt lat="62.63029608358" lon="17.981983520319">
        <ele>97</ele>
        <time>2018-03-31T11:19:12Z</time>
      </trkpt>
      <trkpt lat="62.630341764935" lon="17.981972037116">
        <ele>96.8</ele>
        <time>2018-03-31T11:19:13Z</time>
      </trkpt>
      <trkpt lat="62.630370431033" lon="17.981959380447">
        <ele>97</ele>
        <time>2018-03-31T11:19:14Z</time>
      </trkpt>
      <trkpt lat="62.630406808479" lon="17.981952926384">
        <ele>97</ele>
        <time>2018-03-31T11:19:15Z</time>
      </trkpt>
      <trkpt lat="62.630450981092" lon="17.981923757372">
        <ele>97.2</ele>
        <time>2018-03-31T11:19:16Z</time>
      </trkpt>
      <trkpt lat="62.630488951099" lon="17.981898946948">
        <ele>97</ele>
        <time>2018-03-31T11:19:17Z</time>
      </trkpt>
      <trkpt lat="62.630528932762" lon="17.98187279542">
        <ele>97</ele>
        <time>2018-03-31T11:19:18Z</time>
      </trkpt>
      <trkpt lat="62.63056765714" lon="17.981834490137">
        <ele>97</ele>
        <time>2018-03-31T11:19:19Z</time>
      </trkpt>
      <trkpt lat="62.630601939111" lon="17.981800543442">
        <ele>97</ele>
        <time>2018-03-31T11:19:20Z</time>
      </trkpt>
      <trkpt lat="62.630639573842" lon="17.981759891227">
        <ele>97</ele>
        <time>2018-03-31T11:19:21Z</time>
      </trkpt>
      <trkpt lat="62.630674610184" lon="17.981737176278">
        <ele>97</ele>
        <time>2018-03-31T11:19:22Z</time>
      </trkpt>
      <trkpt lat="62.63071182582" lon="17.981694847683">
        <ele>97</ele>
        <time>2018-03-31T11:19:23Z</time>
      </trkpt>
      <trkpt lat="62.630741581565" lon="17.98166576249">
        <ele>97.2</ele>
        <time>2018-03-31T11:19:24Z</time>
      </trkpt>
      <trkpt lat="62.630782988151" lon="17.981628379216">
        <ele>97</ele>
        <time>2018-03-31T11:19:25Z</time>
      </trkpt>
      <trkpt lat="62.630813749724" lon="17.981585044793">
        <ele>97</ele>
        <time>2018-03-31T11:19:26Z</time>
      </trkpt>
      <trkpt lat="62.630849540437" lon="17.981545146949">
        <ele>97</ele>
        <time>2018-03-31T11:19:27Z</time>
      </trkpt>
      <trkpt lat="62.630885247331" lon="17.981514636833">
        <ele>97</ele>
        <time>2018-03-31T11:19:28Z</time>
      </trkpt>
      <trkpt lat="62.630919780759" lon="17.981494268816">
        <ele>97.2</ele>
        <time>2018-03-31T11:19:29Z</time>
      </trkpt>
      <trkpt lat="62.630960013879" lon="17.981475660998">
        <ele>97.2</ele>
        <time>2018-03-31T11:19:30Z</time>
      </trkpt>
      <trkpt lat="62.63100183956" lon="17.981478427025">
        <ele>97.2</ele>
        <time>2018-03-31T11:19:31Z</time>
      </trkpt>
      <trkpt lat="62.631028242545" lon="17.981496280472">
        <ele>97.4</ele>
        <time>2018-03-31T11:19:32Z</time>
      </trkpt>
      <trkpt lat="62.63105464553" lon="17.981530059529">
        <ele>97.4</ele>
        <time>2018-03-31T11:19:33Z</time>
      </trkpt>
      <trkpt lat="62.631081048515" lon="17.981556378695">
        <ele>97.6</ele>
        <time>2018-03-31T11:19:34Z</time>
      </trkpt>
      <trkpt lat="62.63109487865" lon="17.981583871327">
        <ele>97.6</ele>
        <time>2018-03-31T11:19:35Z</time>
      </trkpt>
      <trkpt lat="62.63112672987" lon="17.981639694781">
        <ele>97.6</ele>
        <time>2018-03-31T11:19:36Z</time>
      </trkpt>
      <trkpt lat="62.631139386539" lon="17.981663415558">
        <ele>98</ele>
        <time>2018-03-31T11:19:37Z</time>
      </trkpt>
      <trkpt lat="62.631180206392" lon="17.981725776894">
        <ele>98</ele>
        <time>2018-03-31T11:19:38Z</time>
      </trkpt>
      <trkpt lat="62.631211303241" lon="17.981758131028">
        <ele>98</ele>
        <time>2018-03-31T11:19:39Z</time>
      </trkpt>
      <trkpt lat="62.631243489737" lon="17.981780091606">
        <ele>97.8</ele>
        <time>2018-03-31T11:19:40Z</time>
      </trkpt>
      <trkpt lat="62.631279951002" lon="17.981801633089">
        <ele>97.6</ele>
        <time>2018-03-31T11:19:41Z</time>
      </trkpt>
      <trkpt lat="62.631316076991" lon="17.981830969739">
        <ele>97.2</ele>
        <time>2018-03-31T11:19:42Z</time>
      </trkpt>
      <trkpt lat="62.63134465927" lon="17.981852846498">
        <ele>96.8</ele>
        <time>2018-03-31T11:19:43Z</time>
      </trkpt>
      <trkpt lat="62.631372235721" lon="17.981877740741">
        <ele>96.2</ele>
        <time>2018-03-31T11:19:44Z</time>
      </trkpt>
      <trkpt lat="62.631398890163" lon="17.981905065735">
        <ele>96</ele>
        <time>2018-03-31T11:19:45Z</time>
      </trkpt>
      <trkpt lat="62.631429903193" lon="17.981928702693">
        <ele>95.8</ele>
        <time>2018-03-31T11:19:46Z</time>
      </trkpt>
      <trkpt lat="62.631448846287" lon="17.981958039343">
        <ele>95.6</ele>
        <time>2018-03-31T11:19:47Z</time>
      </trkpt>
      <trkpt lat="62.63147457872" lon="17.982002966327">
        <ele>95.8</ele>
        <time>2018-03-31T11:19:48Z</time>
      </trkpt>
      <trkpt lat="62.631503244818" lon="17.9820504917">
        <ele>95.8</ele>
        <time>2018-03-31T11:19:49Z</time>
      </trkpt>
      <trkpt lat="62.631525205396" lon="17.982105057869">
        <ele>95.8</ele>
        <time>2018-03-31T11:19:50Z</time>
      </trkpt>
      <trkpt lat="62.631536856237" lon="17.982187368127">
        <ele>95.6</ele>
        <time>2018-03-31T11:19:51Z</time>
      </trkpt>
      <trkpt lat="62.631550937829" lon="17.982272109136">
        <ele>95.6</ele>
        <time>2018-03-31T11:19:52Z</time>
      </trkpt>
      <trkpt lat="62.63156677962" lon="17.982342936191">
        <ele>95.6</ele>
        <time>2018-03-31T11:19:53Z</time>
      </trkpt>
      <trkpt lat="62.631569880923" lon="17.982444943914">
        <ele>95.6</ele>
        <time>2018-03-31T11:19:54Z</time>
      </trkpt>
      <trkpt lat="62.631581447945" lon="17.982526835077">
        <ele>95.6</ele>
        <time>2018-03-31T11:19:55Z</time>
      </trkpt>
      <trkpt lat="62.631587399094" lon="17.982607552774">
        <ele>95.6</ele>
        <time>2018-03-31T11:19:56Z</time>
      </trkpt>
      <trkpt lat="62.631601648324" lon="17.982700591864">
        <ele>95.8</ele>
        <time>2018-03-31T11:19:57Z</time>
      </trkpt>
      <trkpt lat="62.631624782368" lon="17.98276882053">
        <ele>95.8</ele>
        <time>2018-03-31T11:19:58Z</time>
      </trkpt>
      <trkpt lat="62.631641881444" lon="17.982825565993">
        <ele>95.8</ele>
        <time>2018-03-31T11:19:59Z</time>
      </trkpt>
      <trkpt lat="62.63166317147" lon="17.982889687528">
        <ele>95.6</ele>
        <time>2018-03-31T11:20:00Z</time>
      </trkpt>
      <trkpt lat="62.631695777061" lon="17.982939476014">
        <ele>95.6</ele>
        <time>2018-03-31T11:20:01Z</time>
      </trkpt>
      <trkpt lat="62.631712876137" lon="17.983004519558">
        <ele>95.8</ele>
        <time>2018-03-31T11:20:02Z</time>
      </trkpt>
      <trkpt lat="62.631742128968" lon="17.98307811264">
        <ele>95.8</ele>
        <time>2018-03-31T11:20:03Z</time>
      </trkpt>
      <trkpt lat="62.63176207789" lon="17.983135025741">
        <ele>95.8</ele>
        <time>2018-03-31T11:20:04Z</time>
      </trkpt>
      <trkpt lat="62.631782529726" lon="17.983204595511">
        <ele>95.8</ele>
        <time>2018-03-31T11:20:05Z</time>
      </trkpt>
      <trkpt lat="62.63180147282" lon="17.983281289896">
        <ele>95.8</ele>
        <time>2018-03-31T11:20:06Z</time>
      </trkpt>
      <trkpt lat="62.631821254104" lon="17.983341052843">
        <ele>96</ele>
        <time>2018-03-31T11:20:07Z</time>
      </trkpt>
      <trkpt lat="62.631853021505" lon="17.983402408351">
        <ele>96</ele>
        <time>2018-03-31T11:20:08Z</time>
      </trkpt>
      <trkpt lat="62.631887052019" lon="17.983434846304">
        <ele>96.2</ele>
        <time>2018-03-31T11:20:09Z</time>
      </trkpt>
      <trkpt lat="62.631908425864" lon="17.983489077197">
        <ele>96.2</ele>
        <time>2018-03-31T11:20:10Z</time>
      </trkpt>
      <trkpt lat="62.631941702007" lon="17.983544733013">
        <ele>96.2</ele>
        <time>2018-03-31T11:20:11Z</time>
      </trkpt>
      <trkpt lat="62.631979085281" lon="17.983585804323">
        <ele>96.4</ele>
        <time>2018-03-31T11:20:12Z</time>
      </trkpt>
      <trkpt lat="62.632010014492" lon="17.983651350781">
        <ele>96.4</ele>
        <time>2018-03-31T11:20:13Z</time>
      </trkpt>
      <trkpt lat="62.632046391938" lon="17.983700468715">
        <ele>96.4</ele>
        <time>2018-03-31T11:20:14Z</time>
      </trkpt>
      <trkpt lat="62.632063993928" lon="17.983768445924">
        <ele>96.4</ele>
        <time>2018-03-31T11:20:15Z</time>
      </trkpt>
      <trkpt lat="62.632088217619" lon="17.983840781721">
        <ele>96.2</ele>
        <time>2018-03-31T11:20:16Z</time>
      </trkpt>
      <trkpt lat="62.632108753274" lon="17.983910519129">
        <ele>96.2</ele>
        <time>2018-03-31T11:20:17Z</time>
      </trkpt>
      <trkpt lat="62.632129037472" lon="17.983989811903">
        <ele>96</ele>
        <time>2018-03-31T11:20:18Z</time>
      </trkpt>
      <trkpt lat="62.632146388005" lon="17.984072876532">
        <ele>96</ele>
        <time>2018-03-31T11:20:19Z</time>
      </trkpt>
      <trkpt lat="62.632159547588" lon="17.984154013324">
        <ele>96</ele>
        <time>2018-03-31T11:20:20Z</time>
      </trkpt>
      <trkpt lat="62.632183016908" lon="17.984225427112">
        <ele>96</ele>
        <time>2018-03-31T11:20:21Z</time>
      </trkpt>
      <trkpt lat="62.632189722428" lon="17.984319639668">
        <ele>96</ele>
        <time>2018-03-31T11:20:22Z</time>
      </trkpt>
      <trkpt lat="62.632198691061" lon="17.984408068713">
        <ele>96</ele>
        <time>2018-03-31T11:20:23Z</time>
      </trkpt>
      <trkpt lat="62.632206570047" lon="17.984438914105">
        <ele>96.2</ele>
        <time>2018-03-31T11:20:24Z</time>
      </trkpt>
      <trkpt lat="62.632214616671" lon="17.98456003256">
        <ele>96.4</ele>
        <time>2018-03-31T11:20:25Z</time>
      </trkpt>
      <trkpt lat="62.632220064906" lon="17.984631111072">
        <ele>96.4</ele>
        <time>2018-03-31T11:20:26Z</time>
      </trkpt>
      <trkpt lat="62.632212940291" lon="17.984721048859">
        <ele>96.2</ele>
        <time>2018-03-31T11:20:27Z</time>
      </trkpt>
      <trkpt lat="62.632214029938" lon="17.984804867859">
        <ele>96.2</ele>
        <time>2018-03-31T11:20:28Z</time>
      </trkpt>
      <trkpt lat="62.632209755169" lon="17.984870246679">
        <ele>96.2</ele>
        <time>2018-03-31T11:20:29Z</time>
      </trkpt>
      <trkpt lat="62.632203217287" lon="17.984956412611">
        <ele>96.2</ele>
        <time>2018-03-31T11:20:30Z</time>
      </trkpt>
      <trkpt lat="62.632203887839" lon="17.985048948787">
        <ele>96.2</ele>
        <time>2018-03-31T11:20:31Z</time>
      </trkpt>
      <trkpt lat="62.632193494283" lon="17.985126649">
        <ele>96.2</ele>
        <time>2018-03-31T11:20:32Z</time>
      </trkpt>
      <trkpt lat="62.63219374574" lon="17.985214072217">
        <ele>96.2</ele>
        <time>2018-03-31T11:20:33Z</time>
      </trkpt>
      <trkpt lat="62.632195170663" lon="17.985282636159">
        <ele>96.2</ele>
        <time>2018-03-31T11:20:34Z</time>
      </trkpt>
      <trkpt lat="62.632185699116" lon="17.985359749639">
        <ele>96.2</ele>
        <time>2018-03-31T11:20:35Z</time>
      </trkpt>
      <trkpt lat="62.632189806247" lon="17.985443903915">
        <ele>96.2</ele>
        <time>2018-03-31T11:20:36Z</time>
      </trkpt>
      <trkpt lat="62.632172455714" lon="17.985522693775">
        <ele>96.2</ele>
        <time>2018-03-31T11:20:37Z</time>
      </trkpt>
      <trkpt lat="62.632177149578" lon="17.985604920214">
        <ele>96.2</ele>
        <time>2018-03-31T11:20:38Z</time>
      </trkpt>
      <trkpt lat="62.632162145977" lon="17.985685637911">
        <ele>96.2</ele>
        <time>2018-03-31T11:20:39Z</time>
      </trkpt>
      <trkpt lat="62.632157452113" lon="17.985762164658">
        <ele>96.2</ele>
        <time>2018-03-31T11:20:40Z</time>
      </trkpt>
      <trkpt lat="62.632143705797" lon="17.985836344473">
        <ele>96.2</ele>
        <time>2018-03-31T11:20:41Z</time>
      </trkpt>
      <trkpt lat="62.63213423425" lon="17.985923516233">
        <ele>96.2</ele>
        <time>2018-03-31T11:20:42Z</time>
      </trkpt>
      <trkpt lat="62.632123505418" lon="17.985998198962">
        <ele>96.2</ele>
        <time>2018-03-31T11:20:43Z</time>
      </trkpt>
      <trkpt lat="62.632114788242" lon="17.986082353238">
        <ele>96.2</ele>
        <time>2018-03-31T11:20:44Z</time>
      </trkpt>
      <trkpt lat="62.632093833492" lon="17.986142283823">
        <ele>96.2</ele>
        <time>2018-03-31T11:20:45Z</time>
      </trkpt>
      <trkpt lat="62.632074806579" lon="17.986225851366">
        <ele>96.6</ele>
        <time>2018-03-31T11:20:46Z</time>
      </trkpt>
      <trkpt lat="62.632065586489" lon="17.986295253498">
        <ele>96.8</ele>
        <time>2018-03-31T11:20:47Z</time>
      </trkpt>
      <trkpt lat="62.632048571232" lon="17.986385526561">
        <ele>96.8</ele>
        <time>2018-03-31T11:20:48Z</time>
      </trkpt>
      <trkpt lat="62.632054690019" lon="17.986457359444">
        <ele>97</ele>
        <time>2018-03-31T11:20:49Z</time>
      </trkpt>
      <trkpt lat="62.63203532783" lon="17.986525671929">
        <ele>97.2</ele>
        <time>2018-03-31T11:20:50Z</time>
      </trkpt>
      <trkpt lat="62.632038512952" lon="17.986607143997">
        <ele>97</ele>
        <time>2018-03-31T11:20:51Z</time>
      </trkpt>
      <trkpt lat="62.63202191679" lon="17.98667143317">
        <ele>97</ele>
        <time>2018-03-31T11:20:52Z</time>
      </trkpt>
      <trkpt lat="62.63201102032" lon="17.986749887754">
        <ele>97</ele>
        <time>2018-03-31T11:20:53Z</time>
      </trkpt>
      <trkpt lat="62.632014540718" lon="17.986826414501">
        <ele>96.8</ele>
        <time>2018-03-31T11:20:54Z</time>
      </trkpt>
      <trkpt lat="62.631999453298" lon="17.986902019239">
        <ele>96.8</ele>
        <time>2018-03-31T11:20:55Z</time>
      </trkpt>
      <trkpt lat="62.631994843253" lon="17.986989274818">
        <ele>96.8</ele>
        <time>2018-03-31T11:20:56Z</time>
      </trkpt>
      <trkpt lat="62.631987215724" lon="17.987073932008">
        <ele>97</ele>
        <time>2018-03-31T11:20:57Z</time>
      </trkpt>
      <trkpt lat="62.631977576539" lon="17.98715423061">
        <ele>97</ele>
        <time>2018-03-31T11:20:58Z</time>
      </trkpt>
      <trkpt lat="62.631961650929" lon="17.98722966771">
        <ele>97</ele>
        <time>2018-03-31T11:20:59Z</time>
      </trkpt>
      <trkpt lat="62.631946982604" lon="17.987317510022">
        <ele>97</ele>
        <time>2018-03-31T11:21:00Z</time>
      </trkpt>
      <trkpt lat="62.631935499401" lon="17.987399987918">
        <ele>97.2</ele>
        <time>2018-03-31T11:21:01Z</time>
      </trkpt>
      <trkpt lat="62.631924854388" lon="17.987482130538">
        <ele>97.2</ele>
        <time>2018-03-31T11:21:02Z</time>
      </trkpt>
      <trkpt lat="62.631912700633" lon="17.987570559583">
        <ele>97.2</ele>
        <time>2018-03-31T11:21:03Z</time>
      </trkpt>
      <trkpt lat="62.631891410607" lon="17.987660078275">
        <ele>97.2</ele>
        <time>2018-03-31T11:21:04Z</time>
      </trkpt>
      <trkpt lat="62.631887052019" lon="17.987735683013">
        <ele>97.4</ele>
        <time>2018-03-31T11:21:05Z</time>
      </trkpt>
      <trkpt lat="62.631871461685" lon="17.987819334375">
        <ele>97.4</ele>
        <time>2018-03-31T11:21:06Z</time>
      </trkpt>
      <trkpt lat="62.63185846974" lon="17.987897369864">
        <ele>97.4</ele>
        <time>2018-03-31T11:21:07Z</time>
      </trkpt>
      <trkpt lat="62.631846064528" lon="17.987972220231">
        <ele>97.4</ele>
        <time>2018-03-31T11:21:08Z</time>
      </trkpt>
      <trkpt lat="62.631831480022" lon="17.988050674815">
        <ele>97.6</ele>
        <time>2018-03-31T11:21:09Z</time>
      </trkpt>
      <trkpt lat="62.631829384547" lon="17.988119322576">
        <ele>97.8</ele>
        <time>2018-03-31T11:21:10Z</time>
      </trkpt>
      <trkpt lat="62.631812201652" lon="17.988183863206">
        <ele>98</ele>
        <time>2018-03-31T11:21:11Z</time>
      </trkpt>
      <trkpt lat="62.63180231101" lon="17.988265335274">
        <ele>98</ele>
        <time>2018-03-31T11:21:12Z</time>
      </trkpt>
      <trkpt lat="62.631796862775" lon="17.988344376591">
        <ele>98.2</ele>
        <time>2018-03-31T11:21:13Z</time>
      </trkpt>
      <trkpt lat="62.631789067608" lon="17.98841822113">
        <ele>98.2</ele>
        <time>2018-03-31T11:21:14Z</time>
      </trkpt>
      <trkpt lat="62.631784289925" lon="17.988486617434">
        <ele>98.2</ele>
        <time>2018-03-31T11:21:15Z</time>
      </trkpt>
      <trkpt lat="62.631772722903" lon="17.988552499168">
        <ele>98.2</ele>
        <time>2018-03-31T11:21:16Z</time>
      </trkpt>
      <trkpt lat="62.631766855573" lon="17.988622488033">
        <ele>98.4</ele>
        <time>2018-03-31T11:21:17Z</time>
      </trkpt>
      <trkpt lat="62.631757551664" lon="17.988697673676">
        <ele>98.4</ele>
        <time>2018-03-31T11:21:18Z</time>
      </trkpt>
      <trkpt lat="62.63174615228" lon="17.988779061925">
        <ele>98.4</ele>
        <time>2018-03-31T11:21:19Z</time>
      </trkpt>
      <trkpt lat="62.63173860857" lon="17.988855337215">
        <ele>98.6</ele>
        <time>2018-03-31T11:21:20Z</time>
      </trkpt>
      <trkpt lat="62.631728298833" lon="17.988921889501">
        <ele>98.6</ele>
        <time>2018-03-31T11:21:21Z</time>
      </trkpt>
      <trkpt lat="62.63171346287" lon="17.989000092628">
        <ele>98.6</ele>
        <time>2018-03-31T11:21:22Z</time>
      </trkpt>
      <trkpt lat="62.63170843373" lon="17.989073769529">
        <ele>98.8</ele>
        <time>2018-03-31T11:21:23Z</time>
      </trkpt>
      <trkpt lat="62.631694603595" lon="17.989149206629">
        <ele>98.8</ele>
        <time>2018-03-31T11:21:24Z</time>
      </trkpt>
      <trkpt lat="62.631691837568" lon="17.989222967349">
        <ele>99</ele>
        <time>2018-03-31T11:21:25Z</time>
      </trkpt>
      <trkpt lat="62.631675995777" lon="17.989291531291">
        <ele>98.8</ele>
        <time>2018-03-31T11:21:26Z</time>
      </trkpt>
      <trkpt lat="62.631667530058" lon="17.989373003359">
        <ele>99</ele>
        <time>2018-03-31T11:21:27Z</time>
      </trkpt>
      <trkpt lat="62.631656549769" lon="17.989428742994">
        <ele>99</ele>
        <time>2018-03-31T11:21:28Z</time>
      </trkpt>
      <trkpt lat="62.631645820937" lon="17.989502168438">
        <ele>99</ele>
        <time>2018-03-31T11:21:29Z</time>
      </trkpt>
      <trkpt lat="62.631639953607" lon="17.98957827609">
        <ele>99</ele>
        <time>2018-03-31T11:21:30Z</time>
      </trkpt>
      <trkpt lat="62.631626458748" lon="17.989654216104">
        <ele>99</ele>
        <time>2018-03-31T11:21:31Z</time>
      </trkpt>
      <trkpt lat="62.631627464576" lon="17.98972747391">
        <ele>99.2</ele>
        <time>2018-03-31T11:21:32Z</time>
      </trkpt>
      <trkpt lat="62.631615478459" lon="17.989798217146">
        <ele>99.2</ele>
        <time>2018-03-31T11:21:33Z</time>
      </trkpt>
      <trkpt lat="62.631603240885" lon="17.989895698643">
        <ele>99.4</ele>
        <time>2018-03-31T11:21:34Z</time>
      </trkpt>
      <trkpt lat="62.631598379383" lon="17.989955042495">
        <ele>99.4</ele>
        <time>2018-03-31T11:21:35Z</time>
      </trkpt>
      <trkpt lat="62.63158019066" lon="17.990046908119">
        <ele>99.4</ele>
        <time>2018-03-31T11:21:36Z</time>
      </trkpt>
      <trkpt lat="62.63156677962" lon="17.99012477597">
        <ele>99.2</ele>
        <time>2018-03-31T11:21:37Z</time>
      </trkpt>
      <trkpt lat="62.631554877322" lon="17.990194764835">
        <ele>99</ele>
        <time>2018-03-31T11:21:38Z</time>
      </trkpt>
      <trkpt lat="62.631546411603" lon="17.990260227474">
        <ele>99.2</ele>
        <time>2018-03-31T11:21:39Z</time>
      </trkpt>
      <trkpt lat="62.631535515133" lon="17.990339268791">
        <ele>99.2</ele>
        <time>2018-03-31T11:21:40Z</time>
      </trkpt>
      <trkpt lat="62.631525373034" lon="17.990407497457">
        <ele>99.4</ele>
        <time>2018-03-31T11:21:41Z</time>
      </trkpt>
      <trkpt lat="62.631513051641" lon="17.990485784403">
        <ele>99.6</ele>
        <time>2018-03-31T11:21:42Z</time>
      </trkpt>
      <trkpt lat="62.631495198194" lon="17.990572788525">
        <ele>99.8</ele>
        <time>2018-03-31T11:21:43Z</time>
      </trkpt>
      <trkpt lat="62.631484469362" lon="17.990658703">
        <ele>100</ele>
        <time>2018-03-31T11:21:44Z</time>
      </trkpt>
      <trkpt lat="62.631470890684" lon="17.990733385729">
        <ele>100</ele>
        <time>2018-03-31T11:21:45Z</time>
      </trkpt>
      <trkpt lat="62.631464017526" lon="17.990821144222">
        <ele>100</ele>
        <time>2018-03-31T11:21:46Z</time>
      </trkpt>
      <trkpt lat="62.631457479644" lon="17.990882164454">
        <ele>100</ele>
        <time>2018-03-31T11:21:47Z</time>
      </trkpt>
      <trkpt lat="62.631439123283" lon="17.990977299019">
        <ele>99.8</ele>
        <time>2018-03-31T11:21:48Z</time>
      </trkpt>
      <trkpt lat="62.631430238469" lon="17.991063297313">
        <ele>99.8</ele>
        <time>2018-03-31T11:21:49Z</time>
      </trkpt>
      <trkpt lat="62.631412636479" lon="17.991137058033">
        <ele>99.8</ele>
        <time>2018-03-31T11:21:50Z</time>
      </trkpt>
      <trkpt lat="62.631405679502" lon="17.99122280487">
        <ele>99.8</ele>
        <time>2018-03-31T11:21:51Z</time>
      </trkpt>
      <trkpt lat="62.631395202127" lon="17.991293380468">
        <ele>100</ele>
        <time>2018-03-31T11:21:52Z</time>
      </trkpt>
      <trkpt lat="62.631377767775" lon="17.991362028229">
        <ele>100</ele>
        <time>2018-03-31T11:21:53Z</time>
      </trkpt>
      <trkpt lat="62.631358154129" lon="17.991438638795">
        <ele>100</ele>
        <time>2018-03-31T11:21:54Z</time>
      </trkpt>
      <trkpt lat="62.631335690637" lon="17.991506364547">
        <ele>100.2</ele>
        <time>2018-03-31T11:21:55Z</time>
      </trkpt>
      <trkpt lat="62.631312891869" lon="17.991582136923">
        <ele>100.2</ele>
        <time>2018-03-31T11:21:56Z</time>
      </trkpt>
      <trkpt lat="62.631303336503" lon="17.991655646186">
        <ele>100.2</ele>
        <time>2018-03-31T11:21:57Z</time>
      </trkpt>
      <trkpt lat="62.631285063961" lon="17.991723958671">
        <ele>100.4</ele>
        <time>2018-03-31T11:21:58Z</time>
      </trkpt>
      <trkpt lat="62.631276682061" lon="17.991792941708">
        <ele>100.6</ele>
        <time>2018-03-31T11:21:59Z</time>
      </trkpt>
      <trkpt lat="62.631270227998" lon="17.991862008564">
        <ele>100.4</ele>
        <time>2018-03-31T11:22:00Z</time>
      </trkpt>
      <trkpt lat="62.63127844226" lon="17.991927890298">
        <ele>100.4</ele>
        <time>2018-03-31T11:22:01Z</time>
      </trkpt>
      <trkpt lat="62.631283387581" lon="17.991973571653">
        <ele>100.6</ele>
        <time>2018-03-31T11:22:02Z</time>
      </trkpt>
      <trkpt lat="62.631289757825" lon="17.992031742039">
        <ele>100.8</ele>
        <time>2018-03-31T11:22:03Z</time>
      </trkpt>
      <trkpt lat="62.631299480829" lon="17.99208278781">
        <ele>100.6</ele>
        <time>2018-03-31T11:22:04Z</time>
      </trkpt>
      <trkpt lat="62.631309622928" lon="17.992125284043">
        <ele>100.8</ele>
        <time>2018-03-31T11:22:05Z</time>
      </trkpt>
      <trkpt lat="62.631328398384" lon="17.992154117779">
        <ele>100.8</ele>
        <time>2018-03-31T11:22:06Z</time>
      </trkpt>
      <trkpt lat="62.631346251831" lon="17.992176916547">
        <ele>101</ele>
        <time>2018-03-31T11:22:07Z</time>
      </trkpt>
      <trkpt lat="62.631367541857" lon="17.992196027279">
        <ele>101.2</ele>
        <time>2018-03-31T11:22:08Z</time>
      </trkpt>
      <trkpt lat="62.631389418616" lon="17.992210360328">
        <ele>101.4</ele>
        <time>2018-03-31T11:22:09Z</time>
      </trkpt>
      <trkpt lat="62.63140836171" lon="17.992206504654">
        <ele>101.6</ele>
        <time>2018-03-31T11:22:10Z</time>
      </trkpt>
      <trkpt lat="62.631434513238" lon="17.992216814391">
        <ele>101.6</ele>
        <time>2018-03-31T11:22:11Z</time>
      </trkpt>
      <trkpt lat="62.631463179336" lon="17.992228716689">
        <ele>101.8</ele>
        <time>2018-03-31T11:22:12Z</time>
      </trkpt>
      <trkpt lat="62.631487654484" lon="17.992230476888">
        <ele>101.8</ele>
        <time>2018-03-31T11:22:13Z</time>
      </trkpt>
      <trkpt lat="62.631513219279" lon="17.992250509629">
        <ele>102</ele>
        <time>2018-03-31T11:22:14Z</time>
      </trkpt>
      <trkpt lat="62.631537023875" lon="17.992265848506">
        <ele>102</ele>
        <time>2018-03-31T11:22:15Z</time>
      </trkpt>
      <trkpt lat="62.631557727168" lon="17.992282528487">
        <ele>102.2</ele>
        <time>2018-03-31T11:22:16Z</time>
      </trkpt>
      <trkpt lat="62.631584716886" lon="17.992301220124">
        <ele>102.2</ele>
        <time>2018-03-31T11:22:17Z</time>
      </trkpt>
      <trkpt lat="62.631612460975" lon="17.992323935073">
        <ele>102.4</ele>
        <time>2018-03-31T11:22:18Z</time>
      </trkpt>
      <trkpt lat="62.631639869788" lon="17.992339525407">
        <ele>102.4</ele>
        <time>2018-03-31T11:22:19Z</time>
      </trkpt>
      <trkpt lat="62.631686305514" lon="17.992365844573">
        <ele>102.8</ele>
        <time>2018-03-31T11:22:21Z</time>
      </trkpt>
      <trkpt lat="62.631710277748" lon="17.992367520953">
        <ele>102.8</ele>
        <time>2018-03-31T11:22:22Z</time>
      </trkpt>
      <trkpt lat="62.631728801747" lon="17.992364168193">
        <ele>103</ele>
        <time>2018-03-31T11:22:23Z</time>
      </trkpt>
      <trkpt lat="62.631757551664" lon="17.992349416049">
        <ele>103</ele>
        <time>2018-03-31T11:22:24Z</time>
      </trkpt>
      <trkpt lat="62.631786301581" lon="17.992337010837">
        <ele>103.2</ele>
        <time>2018-03-31T11:22:25Z</time>
      </trkpt>
      <trkpt lat="62.631813794213" lon="17.992318822114">
        <ele>103.2</ele>
        <time>2018-03-31T11:22:26Z</time>
      </trkpt>
      <trkpt lat="62.631847154175" lon="17.992307674187">
        <ele>103.4</ele>
        <time>2018-03-31T11:22:27Z</time>
      </trkpt>
      <trkpt lat="62.631882022879" lon="17.992304656703">
        <ele>103.4</ele>
        <time>2018-03-31T11:22:28Z</time>
      </trkpt>
      <trkpt lat="62.631901887982" lon="17.992284959238">
        <ele>103.6</ele>
        <time>2018-03-31T11:22:29Z</time>
      </trkpt>
      <trkpt lat="62.631921836904" lon="17.992275990605">
        <ele>103.6</ele>
        <time>2018-03-31T11:22:30Z</time>
      </trkpt>
      <trkpt lat="62.631946731147" lon="17.992253443294">
        <ele>103.6</ele>
        <time>2018-03-31T11:22:31Z</time>
      </trkpt>
      <trkpt lat="62.631971960666" lon="17.99223114744">
        <ele>103.4</ele>
        <time>2018-03-31T11:22:32Z</time>
      </trkpt>
      <trkpt lat="62.63199006557" lon="17.992211952889">
        <ele>103.6</ele>
        <time>2018-03-31T11:22:33Z</time>
      </trkpt>
      <trkpt lat="62.632014289261" lon="17.992190243768">
        <ele>103.8</ele>
        <time>2018-03-31T11:22:34Z</time>
      </trkpt>
      <trkpt lat="62.632034322002" lon="17.992176832728">
        <ele>103.8</ele>
        <time>2018-03-31T11:22:35Z</time>
      </trkpt>
      <trkpt lat="62.632076231502" lon="17.992164678973">
        <ele>104</ele>
        <time>2018-03-31T11:22:36Z</time>
      </trkpt>
      <trkpt lat="62.632104646143" lon="17.9921506812">
        <ele>104.2</ele>
        <time>2018-03-31T11:22:37Z</time>
      </trkpt>
      <trkpt lat="62.632132138775" lon="17.992121679826">
        <ele>104.4</ele>
        <time>2018-03-31T11:22:38Z</time>
      </trkpt>
      <trkpt lat="62.63216776185" lon="17.992100473619">
        <ele>104.6</ele>
        <time>2018-03-31T11:22:39Z</time>
      </trkpt>
      <trkpt lat="62.632201792364" lon="17.992084045095">
        <ele>104.8</ele>
        <time>2018-03-31T11:22:40Z</time>
      </trkpt>
      <trkpt lat="62.632229871729" lon="17.992076585204">
        <ele>104.8</ele>
        <time>2018-03-31T11:22:41Z</time>
      </trkpt>
      <trkpt lat="62.632255185067" lon="17.992057558291">
        <ele>105</ele>
        <time>2018-03-31T11:22:42Z</time>
      </trkpt>
      <trkpt lat="62.632296507834" lon="17.992042973785">
        <ele>105</ele>
        <time>2018-03-31T11:22:43Z</time>
      </trkpt>
      <trkpt lat="62.632338501153" lon="17.992021516121">
        <ele>105.2</ele>
        <time>2018-03-31T11:22:44Z</time>
      </trkpt>
      <trkpt lat="62.632363814491" lon="17.991979103707">
        <ele>105.4</ele>
        <time>2018-03-31T11:22:45Z</time>
      </trkpt>
      <trkpt lat="62.632404801982" lon="17.991970721807">
        <ele>105.4</ele>
        <time>2018-03-31T11:22:46Z</time>
      </trkpt>
      <trkpt lat="62.632441263247" lon="17.991953371274">
        <ele>105.2</ele>
        <time>2018-03-31T11:22:47Z</time>
      </trkpt>
      <trkpt lat="62.632492644294" lon="17.991936858931">
        <ele>105.4</ele>
        <time>2018-03-31T11:22:48Z</time>
      </trkpt>
      <trkpt lat="62.63252566898" lon="17.991929985773">
        <ele>105.2</ele>
        <time>2018-03-31T11:22:49Z</time>
      </trkpt>
      <trkpt lat="62.632566069738" lon="17.991922022968">
        <ele>105.2</ele>
        <time>2018-03-31T11:22:50Z</time>
      </trkpt>
      <trkpt lat="62.632605883763" lon="17.991934595818">
        <ele>105</ele>
        <time>2018-03-31T11:22:51Z</time>
      </trkpt>
      <trkpt lat="62.632639495182" lon="17.991943480632">
        <ele>104.8</ele>
        <time>2018-03-31T11:22:52Z</time>
      </trkpt>
      <trkpt lat="62.632684841261" lon="17.99195203017">
        <ele>104.8</ele>
        <time>2018-03-31T11:22:53Z</time>
      </trkpt>
      <trkpt lat="62.632713507359" lon="17.991976002404">
        <ele>104.6</ele>
        <time>2018-03-31T11:22:54Z</time>
      </trkpt>
      <trkpt lat="62.632782574215" lon="17.991991760376">
        <ele>104.6</ele>
        <time>2018-03-31T11:22:55Z</time>
      </trkpt>
      <trkpt lat="62.632807384639" lon="17.992011290203">
        <ele>104.6</ele>
        <time>2018-03-31T11:22:56Z</time>
      </trkpt>
      <trkpt lat="62.632840409325" lon="17.992021851397">
        <ele>104.6</ele>
        <time>2018-03-31T11:22:57Z</time>
      </trkpt>
      <trkpt lat="62.632874188382" lon="17.992033669876">
        <ele>104.6</ele>
        <time>2018-03-31T11:22:58Z</time>
      </trkpt>
      <trkpt lat="62.632897909159" lon="17.992030987668">
        <ele>104.6</ele>
        <time>2018-03-31T11:22:59Z</time>
      </trkpt>
      <trkpt lat="62.632925317972" lon="17.992045153079">
        <ele>104.6</ele>
        <time>2018-03-31T11:23:00Z</time>
      </trkpt>
      <trkpt lat="62.632954654622" lon="17.992058396481">
        <ele>104.8</ele>
        <time>2018-03-31T11:23:01Z</time>
      </trkpt>
      <trkpt lat="62.632984494186" lon="17.992077674851">
        <ele>104.8</ele>
        <time>2018-03-31T11:23:02Z</time>
      </trkpt>
      <trkpt lat="62.633013998474" lon="17.992100976533">
        <ele>104.8</ele>
        <time>2018-03-31T11:23:03Z</time>
      </trkpt>
      <trkpt lat="62.633058590182" lon="17.992126457509">
        <ele>104.8</ele>
        <time>2018-03-31T11:23:04Z</time>
      </trkpt>
      <trkpt lat="62.633077868552" lon="17.992145987336">
        <ele>104.8</ele>
        <time>2018-03-31T11:23:05Z</time>
      </trkpt>
      <trkpt lat="62.633107540478" lon="17.992145149146">
        <ele>104.6</ele>
        <time>2018-03-31T11:23:06Z</time>
      </trkpt>
      <trkpt lat="62.633147270684" lon="17.992155626521">
        <ele>104.6</ele>
        <time>2018-03-31T11:23:07Z</time>
      </trkpt>
      <trkpt lat="62.633191527116" lon="17.992177000366">
        <ele>104.6</ele>
        <time>2018-03-31T11:23:08Z</time>
      </trkpt>
      <trkpt lat="62.633222959241" lon="17.992198793306">
        <ele>104.8</ele>
        <time>2018-03-31T11:23:09Z</time>
      </trkpt>
      <trkpt lat="62.633251960615" lon="17.992200385867">
        <ele>104.6</ele>
        <time>2018-03-31T11:23:10Z</time>
      </trkpt>
      <trkpt lat="62.633280710532" lon="17.992209103043">
        <ele>104.4</ele>
        <time>2018-03-31T11:23:11Z</time>
      </trkpt>
      <trkpt lat="62.633317423254" lon="17.992224022825">
        <ele>104.4</ele>
        <time>2018-03-31T11:23:12Z</time>
      </trkpt>
      <trkpt lat="62.633365367722" lon="17.992230560707">
        <ele>104.2</ele>
        <time>2018-03-31T11:23:13Z</time>
      </trkpt>
      <trkpt lat="62.633412976914" lon="17.992234835476">
        <ele>104.2</ele>
        <time>2018-03-31T11:23:14Z</time>
      </trkpt>
      <trkpt lat="62.633462094848" lon="17.992265261773">
        <ele>104.2</ele>
        <time>2018-03-31T11:23:15Z</time>
      </trkpt>
      <trkpt lat="62.63350718947" lon="17.992286887075">
        <ele>104.2</ele>
        <time>2018-03-31T11:23:16Z</time>
      </trkpt>
      <trkpt lat="62.633549518065" lon="17.992330640593">
        <ele>104</ele>
        <time>2018-03-31T11:23:17Z</time>
      </trkpt>
      <trkpt lat="62.633600312379" lon="17.992388308065">
        <ele>104.2</ele>
        <time>2018-03-31T11:23:18Z</time>
      </trkpt>
      <trkpt lat="62.633648089209" lon="17.992444550614">
        <ele>103.8</ele>
        <time>2018-03-31T11:23:19Z</time>
      </trkpt>
      <trkpt lat="62.633674156918" lon="17.992512108728">
        <ele>103.8</ele>
        <time>2018-03-31T11:23:20Z</time>
      </trkpt>
      <trkpt lat="62.633696033677" lon="17.992578577195">
        <ele>103.2</ele>
        <time>2018-03-31T11:23:21Z</time>
      </trkpt>
      <trkpt lat="62.633735512426" lon="17.992637585771">
        <ele>103</ele>
        <time>2018-03-31T11:23:22Z</time>
      </trkpt>
      <trkpt lat="62.633763256515" lon="17.992713609604">
        <ele>102.8</ele>
        <time>2018-03-31T11:23:23Z</time>
      </trkpt>
      <trkpt lat="62.633819331426" lon="17.99276339809">
        <ele>102.6</ele>
        <time>2018-03-31T11:23:24Z</time>
      </trkpt>
      <trkpt lat="62.633869622826" lon="17.992837997">
        <ele>102.2</ele>
        <time>2018-03-31T11:23:25Z</time>
      </trkpt>
      <trkpt lat="62.633902479874" lon="17.992906309485">
        <ele>102.2</ele>
        <time>2018-03-31T11:23:26Z</time>
      </trkpt>
      <trkpt lat="62.63395897388" lon="17.992955092143">
        <ele>102</ele>
        <time>2018-03-31T11:23:27Z</time>
      </trkpt>
      <trkpt lat="62.633999123181" lon="17.993028014673">
        <ele>101.6</ele>
        <time>2018-03-31T11:23:28Z</time>
      </trkpt>
      <trkpt lat="62.634033656609" lon="17.993091800932">
        <ele>101.6</ele>
        <time>2018-03-31T11:23:29Z</time>
      </trkpt>
      <trkpt lat="62.634078332136" lon="17.993162963263">
        <ele>100.8</ele>
        <time>2018-03-31T11:23:30Z</time>
      </trkpt>
      <trkpt lat="62.634137340712" lon="17.993242675132">
        <ele>100</ele>
        <time>2018-03-31T11:23:31Z</time>
      </trkpt>
      <trkpt lat="62.634188051207" lon="17.993311825807">
        <ele>99.2</ele>
        <time>2018-03-31T11:23:32Z</time>
      </trkpt>
      <trkpt lat="62.634247897973" lon="17.993349795814">
        <ele>98.4</ele>
        <time>2018-03-31T11:23:33Z</time>
      </trkpt>
      <trkpt lat="62.634304643436" lon="17.993392124409">
        <ele>97.2</ele>
        <time>2018-03-31T11:23:34Z</time>
      </trkpt>
      <trkpt lat="62.634361137442" lon="17.993416934833">
        <ele>97</ele>
        <time>2018-03-31T11:23:35Z</time>
      </trkpt>
      <trkpt lat="62.634445543175" lon="17.993455072478">
        <ele>96.6</ele>
        <time>2018-03-31T11:23:36Z</time>
      </trkpt>
      <trkpt lat="62.634518130429" lon="17.993479044712">
        <ele>96.4</ele>
        <time>2018-03-31T11:23:37Z</time>
      </trkpt>
      <trkpt lat="62.634595243909" lon="17.993512991407">
        <ele>96</ele>
        <time>2018-03-31T11:23:38Z</time>
      </trkpt>
      <trkpt lat="62.634665735688" lon="17.99354794393">
        <ele>95.6</ele>
        <time>2018-03-31T11:23:39Z</time>
      </trkpt>
      <trkpt lat="62.634745615195" lon="17.99356889868">
        <ele>94.8</ele>
        <time>2018-03-31T11:23:40Z</time>
      </trkpt>
      <trkpt lat="62.634825327064" lon="17.993581722987">
        <ele>93.6</ele>
        <time>2018-03-31T11:23:41Z</time>
      </trkpt>
      <trkpt lat="62.634898836327" lon="17.993591697448">
        <ele>93</ele>
        <time>2018-03-31T11:23:42Z</time>
      </trkpt>
      <trkpt lat="62.63497402197" lon="17.993601671909">
        <ele>91.8</ele>
        <time>2018-03-31T11:23:43Z</time>
      </trkpt>
      <trkpt lat="62.635042166817" lon="17.993625476505">
        <ele>91</ele>
        <time>2018-03-31T11:23:44Z</time>
      </trkpt>
      <trkpt lat="62.635100923936" lon="17.993642827038">
        <ele>90.2</ele>
        <time>2018-03-31T11:23:45Z</time>
      </trkpt>
      <trkpt lat="62.635179546158" lon="17.993668391833">
        <ele>89.6</ele>
        <time>2018-03-31T11:23:46Z</time>
      </trkpt>
      <trkpt lat="62.635247858643" lon="17.993678282475">
        <ele>89.4</ele>
        <time>2018-03-31T11:23:47Z</time>
      </trkpt>
      <trkpt lat="62.635329498349" lon="17.993700997424">
        <ele>88.8</ele>
        <time>2018-03-31T11:23:48Z</time>
      </trkpt>
      <trkpt lat="62.635398229929" lon="17.993713737912">
        <ele>88.4</ele>
        <time>2018-03-31T11:23:49Z</time>
      </trkpt>
      <trkpt lat="62.635453718107" lon="17.993729579703">
        <ele>88</ele>
        <time>2018-03-31T11:23:50Z</time>
      </trkpt>
      <trkpt lat="62.63553058013" lon="17.993733938291">
        <ele>87.4</ele>
        <time>2018-03-31T11:23:51Z</time>
      </trkpt>
      <trkpt lat="62.635607358334" lon="17.993742990743">
        <ele>87</ele>
        <time>2018-03-31T11:23:52Z</time>
      </trkpt>
      <trkpt lat="62.635674664991" lon="17.993765118959">
        <ele>86.8</ele>
        <time>2018-03-31T11:23:53Z</time>
      </trkpt>
      <trkpt lat="62.635755047412" lon="17.993788336822">
        <ele>86.4</ele>
        <time>2018-03-31T11:23:54Z</time>
      </trkpt>
      <trkpt lat="62.635808356296" lon="17.993824798087">
        <ele>86.2</ele>
        <time>2018-03-31T11:23:55Z</time>
      </trkpt>
      <trkpt lat="62.635871555822" lon="17.993852793633">
        <ele>85.8</ele>
        <time>2018-03-31T11:23:56Z</time>
      </trkpt>
      <trkpt lat="62.635935174443" lon="17.99385388328">
        <ele>85.4</ele>
        <time>2018-03-31T11:23:57Z</time>
      </trkpt>
      <trkpt lat="62.635996781408" lon="17.993835694557">
        <ele>85</ele>
        <time>2018-03-31T11:23:58Z</time>
      </trkpt>
      <trkpt lat="62.636058136916" lon="17.993809207753">
        <ele>84.8</ele>
        <time>2018-03-31T11:23:59Z</time>
      </trkpt>
      <trkpt lat="62.636126784677" lon="17.993776434524">
        <ele>84.4</ele>
        <time>2018-03-31T11:24:00Z</time>
      </trkpt>
      <trkpt lat="62.636190906212" lon="17.993723460916">
        <ele>84.2</ele>
        <time>2018-03-31T11:24:01Z</time>
      </trkpt>
      <trkpt lat="62.636244550372" lon="17.993666715453">
        <ele>83.6</ele>
        <time>2018-03-31T11:24:02Z</time>
      </trkpt>
      <trkpt lat="62.636306576432" lon="17.99359152981">
        <ele>83.2</ele>
        <time>2018-03-31T11:24:03Z</time>
      </trkpt>
      <trkpt lat="62.636359130945" lon="17.993512572312">
        <ele>82.6</ele>
        <time>2018-03-31T11:24:04Z</time>
      </trkpt>
      <trkpt lat="62.636405482852" lon="17.993442080533">
        <ele>81.8</ele>
        <time>2018-03-31T11:24:05Z</time>
      </trkpt>
      <trkpt lat="62.636460384297" lon="17.993342000647">
        <ele>81.4</ele>
        <time>2018-03-31T11:24:06Z</time>
      </trkpt>
      <trkpt lat="62.636528110049" lon="17.993262875511">
        <ele>81.2</ele>
        <time>2018-03-31T11:24:07Z</time>
      </trkpt>
      <trkpt lat="62.636600194389" lon="17.993181151986">
        <ele>81</ele>
        <time>2018-03-31T11:24:08Z</time>
      </trkpt>
      <trkpt lat="62.636669261245" lon="17.993105798705">
        <ele>80.4</ele>
        <time>2018-03-31T11:24:09Z</time>
      </trkpt>
      <trkpt lat="62.636723575957" lon="17.992999013299">
        <ele>80</ele>
        <time>2018-03-31T11:24:10Z</time>
      </trkpt>
      <trkpt lat="62.636773196805" lon="17.992879152129">
        <ele>79.2</ele>
        <time>2018-03-31T11:24:11Z</time>
      </trkpt>
      <trkpt lat="62.636814268115" lon="17.992753088353">
        <ele>78</ele>
        <time>2018-03-31T11:24:12Z</time>
      </trkpt>
      <trkpt lat="62.636837569797" lon="17.992648985155">
        <ele>77.2</ele>
        <time>2018-03-31T11:24:13Z</time>
      </trkpt>
      <trkpt lat="62.636848382448" lon="17.992545720147">
        <ele>77</ele>
        <time>2018-03-31T11:24:14Z</time>
      </trkpt>
      <trkpt lat="62.636849220638" lon="17.992461482052">
        <ele>77</ele>
        <time>2018-03-31T11:24:15Z</time>
      </trkpt>
      <trkpt lat="62.636849975009" lon="17.992394175395">
        <ele>77</ele>
        <time>2018-03-31T11:24:16Z</time>
      </trkpt>
      <trkpt lat="62.636858943642" lon="17.992284707781">
        <ele>77.6</ele>
        <time>2018-03-31T11:24:17Z</time>
      </trkpt>
      <trkpt lat="62.636868163732" lon="17.992176329814">
        <ele>78.2</ele>
        <time>2018-03-31T11:24:18Z</time>
      </trkpt>
      <trkpt lat="62.636874114881" lon="17.99209619885">
        <ele>78.8</ele>
        <time>2018-03-31T11:24:19Z</time>
      </trkpt>
      <trkpt lat="62.636874869252" lon="17.992009278547">
        <ele>79</ele>
        <time>2018-03-31T11:24:20Z</time>
      </trkpt>
      <trkpt lat="62.636892135966" lon="17.991944570279">
        <ele>79.6</ele>
        <time>2018-03-31T11:24:21Z</time>
      </trkpt>
      <trkpt lat="62.636920047693" lon="17.9918656966">
        <ele>80</ele>
        <time>2018-03-31T11:24:22Z</time>
      </trkpt>
      <trkpt lat="62.636945361031" lon="17.991798557581">
        <ele>80</ele>
        <time>2018-03-31T11:24:23Z</time>
      </trkpt>
      <trkpt lat="62.636966148143" lon="17.991726976155">
        <ele>80.2</ele>
        <time>2018-03-31T11:24:24Z</time>
      </trkpt>
      <trkpt lat="62.636988695454" lon="17.991663608991">
        <ele>80.2</ele>
        <time>2018-03-31T11:24:25Z</time>
      </trkpt>
      <trkpt lat="62.637007387091" lon="17.991606612071">
        <ele>80.2</ele>
        <time>2018-03-31T11:24:26Z</time>
      </trkpt>
      <trkpt lat="62.637033287162" lon="17.991552129721">
        <ele>80.4</ele>
        <time>2018-03-31T11:24:27Z</time>
      </trkpt>
      <trkpt lat="62.637057091758" lon="17.991483314322">
        <ele>80.4</ele>
        <time>2018-03-31T11:24:28Z</time>
      </trkpt>
      <trkpt lat="62.637081399268" lon="17.9914214559">
        <ele>80.4</ele>
        <time>2018-03-31T11:24:29Z</time>
      </trkpt>
      <trkpt lat="62.637108556624" lon="17.991356831451">
        <ele>80.6</ele>
        <time>2018-03-31T11:24:30Z</time>
      </trkpt>
      <trkpt lat="62.637137557998" lon="17.991269911148">
        <ele>80.4</ele>
        <time>2018-03-31T11:24:31Z</time>
      </trkpt>
      <trkpt lat="62.637160440585" lon="17.991227666372">
        <ele>80.4</ele>
        <time>2018-03-31T11:24:32Z</time>
      </trkpt>
      <trkpt lat="62.637196566574" lon="17.991148122141">
        <ele>80.4</ele>
        <time>2018-03-31T11:24:33Z</time>
      </trkpt>
      <trkpt lat="62.637229507441" lon="17.99104007945">
        <ele>80.4</ele>
        <time>2018-03-31T11:24:34Z</time>
      </trkpt>
      <trkpt lat="62.637243589033" lon="17.990958942658">
        <ele>80.4</ele>
        <time>2018-03-31T11:24:35Z</time>
      </trkpt>
      <trkpt lat="62.637266723077" lon="17.990874201649">
        <ele>80.2</ele>
        <time>2018-03-31T11:24:36Z</time>
      </trkpt>
      <trkpt lat="62.637284744162" lon="17.990775714324">
        <ele>80.2</ele>
        <time>2018-03-31T11:24:37Z</time>
      </trkpt>
      <trkpt lat="62.63729497008" lon="17.990695499541">
        <ele>80.2</ele>
        <time>2018-03-31T11:24:38Z</time>
      </trkpt>
      <trkpt lat="62.637301088867" lon="17.990620732993">
        <ele>80.4</ele>
        <time>2018-03-31T11:24:39Z</time>
      </trkpt>
      <trkpt lat="62.637320618694" lon="17.990510930103">
        <ele>80.4</ele>
        <time>2018-03-31T11:24:40Z</time>
      </trkpt>
      <trkpt lat="62.63733939415" lon="17.990412358959">
        <ele>80.4</ele>
        <time>2018-03-31T11:24:41Z</time>
      </trkpt>
      <trkpt lat="62.637345345299" lon="17.990312698168">
        <ele>80.4</ele>
        <time>2018-03-31T11:24:42Z</time>
      </trkpt>
      <trkpt lat="62.637351967" lon="17.990212450644">
        <ele>80.4</ele>
        <time>2018-03-31T11:24:43Z</time>
      </trkpt>
      <trkpt lat="62.637363031108" lon="17.990122596676">
        <ele>80</ele>
        <time>2018-03-31T11:24:44Z</time>
      </trkpt>
      <trkpt lat="62.637387003342" lon="17.990048835956">
        <ele>79.8</ele>
        <time>2018-03-31T11:24:45Z</time>
      </trkpt>
      <trkpt lat="62.637400665839" lon="17.989963675852">
        <ele>79.6</ele>
        <time>2018-03-31T11:24:46Z</time>
      </trkpt>
      <trkpt lat="62.637424135159" lon="17.98989678829">
        <ele>79.8</ele>
        <time>2018-03-31T11:24:47Z</time>
      </trkpt>
      <trkpt lat="62.637456573112" lon="17.989826799425">
        <ele>79.8</ele>
        <time>2018-03-31T11:24:48Z</time>
      </trkpt>
      <trkpt lat="62.637490603626" lon="17.989754547447">
        <ele>80</ele>
        <time>2018-03-31T11:24:49Z</time>
      </trkpt>
      <trkpt lat="62.637524550321" lon="17.989716074526">
        <ele>80</ele>
        <time>2018-03-31T11:24:50Z</time>
      </trkpt>
      <trkpt lat="62.637542906682" lon="17.989643906367">
        <ele>80</ele>
        <time>2018-03-31T11:24:51Z</time>
      </trkpt>
      <trkpt lat="62.637558077921" lon="17.989570816199">
        <ele>80</ele>
        <time>2018-03-31T11:24:52Z</time>
      </trkpt>
      <trkpt lat="62.637585151458" lon="17.989510550338">
        <ele>80</ele>
        <time>2018-03-31T11:24:53Z</time>
      </trkpt>
      <trkpt lat="62.637620606895" lon="17.98940309438">
        <ele>80</ele>
        <time>2018-03-31T11:24:54Z</time>
      </trkpt>
      <trkpt lat="62.637654805047" lon="17.989337380284">
        <ele>79.8</ele>
        <time>2018-03-31T11:24:55Z</time>
      </trkpt>
      <trkpt lat="62.637690428122" lon="17.989241156072">
        <ele>79.6</ele>
        <time>2018-03-31T11:24:56Z</time>
      </trkpt>
      <trkpt lat="62.637735355106" lon="17.989121127264">
        <ele>79.2</ele>
        <time>2018-03-31T11:24:57Z</time>
      </trkpt>
      <trkpt lat="62.637768212154" lon="17.989017107885">
        <ele>78.6</ele>
        <time>2018-03-31T11:24:58Z</time>
      </trkpt>
      <trkpt lat="62.637785730325" lon="17.988921051311">
        <ele>77.6</ele>
        <time>2018-03-31T11:24:59Z</time>
      </trkpt>
      <trkpt lat="62.637799979555" lon="17.988856762138">
        <ele>77.2</ele>
        <time>2018-03-31T11:25:00Z</time>
      </trkpt>
      <trkpt lat="62.637819928477" lon="17.988767494903">
        <ele>76.8</ele>
        <time>2018-03-31T11:25:01Z</time>
      </trkpt>
      <trkpt lat="62.637824454703" lon="17.988672276519">
        <ele>76.6</ele>
        <time>2018-03-31T11:25:02Z</time>
      </trkpt>
      <trkpt lat="62.637840128856" lon="17.988599437808">
        <ele>76.6</ele>
        <time>2018-03-31T11:25:03Z</time>
      </trkpt>
      <trkpt lat="62.637856808837" lon="17.988474547498">
        <ele>77.2</ele>
        <time>2018-03-31T11:25:04Z</time>
      </trkpt>
      <trkpt lat="62.637867956764" lon="17.988369354653">
        <ele>77.4</ele>
        <time>2018-03-31T11:25:05Z</time>
      </trkpt>
      <trkpt lat="62.63789343774" lon="17.988253432976">
        <ele>77.8</ele>
        <time>2018-03-31T11:25:06Z</time>
      </trkpt>
      <trkpt lat="62.637908692798" lon="17.988138349489">
        <ele>77.4</ele>
        <time>2018-03-31T11:25:07Z</time>
      </trkpt>
      <trkpt lat="62.637942388036" lon="17.988013040084">
        <ele>77</ele>
        <time>2018-03-31T11:25:08Z</time>
      </trkpt>
      <trkpt lat="62.637974239256" lon="17.987851688509">
        <ele>76.2</ele>
        <time>2018-03-31T11:25:09Z</time>
      </trkpt>
      <trkpt lat="62.637997457119" lon="17.987738951954">
        <ele>75.4</ele>
        <time>2018-03-31T11:25:10Z</time>
      </trkpt>
      <trkpt lat="62.638021094077" lon="17.987619593698">
        <ele>74.4</ele>
        <time>2018-03-31T11:25:11Z</time>
      </trkpt>
      <trkpt lat="62.638047748519" lon="17.987498391424">
        <ele>73.8</ele>
        <time>2018-03-31T11:25:12Z</time>
      </trkpt>
      <trkpt lat="62.638072642762" lon="17.987393198579">
        <ele>73.2</ele>
        <time>2018-03-31T11:25:13Z</time>
      </trkpt>
      <trkpt lat="62.638101392679" lon="17.987280545843">
        <ele>73</ele>
        <time>2018-03-31T11:25:14Z</time>
      </trkpt>
      <trkpt lat="62.638128466216" lon="17.987157834827">
        <ele>72.8</ele>
        <time>2018-03-31T11:25:15Z</time>
      </trkpt>
      <trkpt lat="62.638153779554" lon="17.987049037765">
        <ele>72.8</ele>
        <time>2018-03-31T11:25:16Z</time>
      </trkpt>
      <trkpt lat="62.638176075408" lon="17.986949628431">
        <ele>72.6</ele>
        <time>2018-03-31T11:25:17Z</time>
      </trkpt>
      <trkpt lat="62.638186468964" lon="17.986842340111">
        <ele>72.4</ele>
        <time>2018-03-31T11:25:18Z</time>
      </trkpt>
      <trkpt lat="62.638182864747" lon="17.986721389294">
        <ele>72.2</ele>
        <time>2018-03-31T11:25:19Z</time>
      </trkpt>
      <trkpt lat="62.63817674596" lon="17.98663120005">
        <ele>72.2</ele>
        <time>2018-03-31T11:25:20Z</time>
      </trkpt>
      <trkpt lat="62.638168280241" lon="17.9865180444">
        <ele>72.2</ele>
        <time>2018-03-31T11:25:21Z</time>
      </trkpt>
      <trkpt lat="62.638161239445" lon="17.986441182377">
        <ele>72.2</ele>
        <time>2018-03-31T11:25:22Z</time>
      </trkpt>
      <trkpt lat="62.638164927481" lon="17.986370187684">
        <ele>72.2</ele>
        <time>2018-03-31T11:25:23Z</time>
      </trkpt>
      <trkpt lat="62.638164843662" lon="17.986263653735">
        <ele>72.4</ele>
        <time>2018-03-31T11:25:24Z</time>
      </trkpt>
      <trkpt lat="62.63817423139" lon="17.986178912726">
        <ele>72.6</ele>
        <time>2018-03-31T11:25:25Z</time>
      </trkpt>
      <trkpt lat="62.638177751788" lon="17.986083442885">
        <ele>73</ele>
        <time>2018-03-31T11:25:26Z</time>
      </trkpt>
      <trkpt lat="62.638190408457" lon="17.98599920479">
        <ele>73</ele>
        <time>2018-03-31T11:25:27Z</time>
      </trkpt>
      <trkpt lat="62.638206585524" lon="17.985928293916">
        <ele>73</ele>
        <time>2018-03-31T11:25:28Z</time>
      </trkpt>
      <trkpt lat="62.638225696256" lon="17.985866016399">
        <ele>73</ele>
        <time>2018-03-31T11:25:29Z</time>
      </trkpt>
      <trkpt lat="62.638242543875" lon="17.985819329216">
        <ele>72.8</ele>
        <time>2018-03-31T11:25:30Z</time>
      </trkpt>
      <trkpt lat="62.638258218028" lon="17.985783538503">
        <ele>72.8</ele>
        <time>2018-03-31T11:25:31Z</time>
      </trkpt>
      <trkpt lat="62.638267521937" lon="17.985750094722">
        <ele>72.6</ele>
        <time>2018-03-31T11:25:32Z</time>
      </trkpt>
      <trkpt lat="62.638279508054" lon="17.985715142199">
        <ele>72.8</ele>
        <time>2018-03-31T11:25:33Z</time>
      </trkpt>
      <trkpt lat="62.638288895782" lon="17.985687984843">
        <ele>72.8</ele>
        <time>2018-03-31T11:25:34Z</time>
      </trkpt>
      <trkpt lat="62.638301803908" lon="17.98565806146">
        <ele>72.8</ele>
        <time>2018-03-31T11:25:35Z</time>
      </trkpt>
      <trkpt lat="62.638313035654" lon="17.985630652647">
        <ele>73.2</ele>
        <time>2018-03-31T11:25:36Z</time>
      </trkpt>
      <trkpt lat="62.638326362875" lon="17.985603495291">
        <ele>73.2</ele>
        <time>2018-03-31T11:25:37Z</time>
      </trkpt>
      <trkpt lat="62.638339271001" lon="17.985569045682">
        <ele>73</ele>
        <time>2018-03-31T11:25:38Z</time>
      </trkpt>
      <trkpt lat="62.638351676213" lon="17.98552981839">
        <ele>73</ele>
        <time>2018-03-31T11:25:39Z</time>
      </trkpt>
      <trkpt lat="62.638366428357" lon="17.985490507279">
        <ele>73</ele>
        <time>2018-03-31T11:25:40Z</time>
      </trkpt>
      <trkpt lat="62.638381012863" lon="17.98546443957">
        <ele>73</ele>
        <time>2018-03-31T11:25:41Z</time>
      </trkpt>
      <trkpt lat="62.638392915161" lon="17.985421943337">
        <ele>72.8</ele>
        <time>2018-03-31T11:25:42Z</time>
      </trkpt>
      <trkpt lat="62.63841982106" lon="17.985372071032">
        <ele>72.6</ele>
        <time>2018-03-31T11:25:43Z</time>
      </trkpt>
      <trkpt lat="62.638446475502" lon="17.985307949497">
        <ele>72.4</ele>
        <time>2018-03-31T11:25:44Z</time>
      </trkpt>
      <trkpt lat="62.638472124116" lon="17.985252796595">
        <ele>72.4</ele>
        <time>2018-03-31T11:25:45Z</time>
      </trkpt>
      <trkpt lat="62.638483272043" lon="17.985197643693">
        <ele>72.4</ele>
        <time>2018-03-31T11:25:46Z</time>
      </trkpt>
      <trkpt lat="62.638517218738" lon="17.985125140258">
        <ele>72.4</ele>
        <time>2018-03-31T11:25:47Z</time>
      </trkpt>
      <trkpt lat="62.638551081614" lon="17.985048613511">
        <ele>72.6</ele>
        <time>2018-03-31T11:25:48Z</time>
      </trkpt>
      <trkpt lat="62.638590225087" lon="17.984979714293">
        <ele>72.4</ele>
        <time>2018-03-31T11:25:49Z</time>
      </trkpt>
      <trkpt lat="62.638623333592" lon="17.984922046821">
        <ele>72.2</ele>
        <time>2018-03-31T11:25:50Z</time>
      </trkpt>
      <trkpt lat="62.638649820396" lon="17.984836719079">
        <ele>71.8</ele>
        <time>2018-03-31T11:25:51Z</time>
      </trkpt>
      <trkpt lat="62.63867882177" lon="17.984778297236">
        <ele>71.4</ele>
        <time>2018-03-31T11:25:52Z</time>
      </trkpt>
      <trkpt lat="62.63870564385" lon="17.984723228153">
        <ele>71.2</ele>
        <time>2018-03-31T11:25:53Z</time>
      </trkpt>
      <trkpt lat="62.638732382111" lon="17.984616526566">
        <ele>71</ele>
        <time>2018-03-31T11:25:54Z</time>
      </trkpt>
      <trkpt lat="62.638761551123" lon="17.984515273214">
        <ele>71</ele>
        <time>2018-03-31T11:25:55Z</time>
      </trkpt>
      <trkpt lat="62.638785355719" lon="17.984402620478">
        <ele>71</ele>
        <time>2018-03-31T11:25:56Z</time>
      </trkpt>
      <trkpt lat="62.638794240533" lon="17.984286195887">
        <ele>71</ele>
        <time>2018-03-31T11:25:57Z</time>
      </trkpt>
      <trkpt lat="62.638803292985" lon="17.984158120455">
        <ele>71</ele>
        <time>2018-03-31T11:25:58Z</time>
      </trkpt>
      <trkpt lat="62.638801281329" lon="17.984070697238">
        <ele>70.8</ele>
        <time>2018-03-31T11:25:59Z</time>
      </trkpt>
      <trkpt lat="62.638794072895" lon="17.983964414746">
        <ele>70.4</ele>
        <time>2018-03-31T11:26:00Z</time>
      </trkpt>
      <trkpt lat="62.638795162542" lon="17.983858132254">
        <ele>70</ele>
        <time>2018-03-31T11:26:01Z</time>
      </trkpt>
      <trkpt lat="62.638793905257" lon="17.98376291387">
        <ele>69.6</ele>
        <time>2018-03-31T11:26:02Z</time>
      </trkpt>
      <trkpt lat="62.638785188081" lon="17.983670042418">
        <ele>69.2</ele>
        <time>2018-03-31T11:26:03Z</time>
      </trkpt>
      <trkpt lat="62.638764736245" lon="17.983589995273">
        <ele>68.8</ele>
        <time>2018-03-31T11:26:04Z</time>
      </trkpt>
      <trkpt lat="62.638758198363" lon="17.983514390535">
        <ele>69</ele>
        <time>2018-03-31T11:26:05Z</time>
      </trkpt>
      <trkpt lat="62.638761970218" lon="17.983426129128">
        <ele>68.8</ele>
        <time>2018-03-31T11:26:06Z</time>
      </trkpt>
      <trkpt lat="62.63876766991" lon="17.98332286412">
        <ele>68.8</ele>
        <time>2018-03-31T11:26:07Z</time>
      </trkpt>
      <trkpt lat="62.638760880571" lon="17.983238626025">
        <ele>68.8</ele>
        <time>2018-03-31T11:26:08Z</time>
      </trkpt>
      <trkpt lat="62.638764484788" lon="17.983189424272">
        <ele>69</ele>
        <time>2018-03-31T11:26:09Z</time>
      </trkpt>
      <trkpt lat="62.63876599353" lon="17.983089260567">
        <ele>69</ele>
        <time>2018-03-31T11:26:10Z</time>
      </trkpt>
      <trkpt lat="62.638769178652" lon="17.983015667485">
        <ele>69</ele>
        <time>2018-03-31T11:26:11Z</time>
      </trkpt>
      <trkpt lat="62.638786780642" lon="17.982936709987">
        <ele>69</ele>
        <time>2018-03-31T11:26:12Z</time>
      </trkpt>
      <trkpt lat="62.638792899429" lon="17.982866385846">
        <ele>69</ele>
        <time>2018-03-31T11:26:13Z</time>
      </trkpt>
      <trkpt lat="62.638799437311" lon="17.982779633181">
        <ele>69</ele>
        <time>2018-03-31T11:26:14Z</time>
      </trkpt>
      <trkpt lat="62.638805807555" lon="17.982693299611">
        <ele>69</ele>
        <time>2018-03-31T11:26:15Z</time>
      </trkpt>
      <trkpt lat="62.638814524731" lon="17.982585843653">
        <ele>69.2</ele>
        <time>2018-03-31T11:26:16Z</time>
      </trkpt>
      <trkpt lat="62.638818548043" lon="17.98251568715">
        <ele>69.4</ele>
        <time>2018-03-31T11:26:17Z</time>
      </trkpt>
      <trkpt lat="62.638830450341" lon="17.982419127662">
        <ele>69.4</ele>
        <time>2018-03-31T11:26:18Z</time>
      </trkpt>
      <trkpt lat="62.63884226882" lon="17.982333632282">
        <ele>69.4</ele>
        <time>2018-03-31T11:26:19Z</time>
      </trkpt>
      <trkpt lat="62.63884897434" lon="17.98226171558">
        <ele>69.4</ele>
        <time>2018-03-31T11:26:20Z</time>
      </trkpt>
      <trkpt lat="62.63888334013" lon="17.982173789449">
        <ele>69.4</ele>
        <time>2018-03-31T11:26:21Z</time>
      </trkpt>
      <trkpt lat="62.638914520798" lon="17.982080079807">
        <ele>69.4</ele>
        <time>2018-03-31T11:26:22Z</time>
      </trkpt>
      <trkpt lat="62.638940420869" lon="17.982028950217">
        <ele>69.4</ele>
        <time>2018-03-31T11:26:23Z</time>
      </trkpt>
      <trkpt lat="62.638976127763" lon="17.981931636358">
        <ele>69.2</ele>
        <time>2018-03-31T11:26:24Z</time>
      </trkpt>
      <trkpt lat="62.639001441101" lon="17.981857875638">
        <ele>69.2</ele>
        <time>2018-03-31T11:26:25Z</time>
      </trkpt>
      <trkpt lat="62.639030274837" lon="17.981757041381">
        <ele>69.2</ele>
        <time>2018-03-31T11:26:26Z</time>
      </trkpt>
      <trkpt lat="62.639055336718" lon="17.981652435269">
        <ele>69</ele>
        <time>2018-03-31T11:26:27Z</time>
      </trkpt>
      <trkpt lat="62.639075788554" lon="17.981566436975">
        <ele>69</ele>
        <time>2018-03-31T11:26:28Z</time>
      </trkpt>
      <trkpt lat="62.639091378888" lon="17.981479600491">
        <ele>68.6</ele>
        <time>2018-03-31T11:26:29Z</time>
      </trkpt>
      <trkpt lat="62.639117698054" lon="17.98137491056">
        <ele>68.4</ele>
        <time>2018-03-31T11:26:30Z</time>
      </trkpt>
      <trkpt lat="62.639136389691" lon="17.981289834275">
        <ele>68.4</ele>
        <time>2018-03-31T11:26:31Z</time>
      </trkpt>
      <trkpt lat="62.639178215372" lon="17.981191933683">
        <ele>68.2</ele>
        <time>2018-03-31T11:26:32Z</time>
      </trkpt>
      <trkpt lat="62.639214173723" lon="17.981114149651">
        <ele>68</ele>
        <time>2018-03-31T11:26:33Z</time>
      </trkpt>
      <trkpt lat="62.639254742119" lon="17.981029743918">
        <ele>67.8</ele>
        <time>2018-03-31T11:26:34Z</time>
      </trkpt>
      <trkpt lat="62.639287934443" lon="17.98095749194">
        <ele>67.6</ele>
        <time>2018-03-31T11:26:35Z</time>
      </trkpt>
      <trkpt lat="62.639330346857" lon="17.980869649628">
        <ele>67</ele>
        <time>2018-03-31T11:26:36Z</time>
      </trkpt>
      <trkpt lat="62.639367227217" lon="17.980787926103">
        <ele>66.6</ele>
        <time>2018-03-31T11:26:37Z</time>
      </trkpt>
      <trkpt lat="62.639400000446" lon="17.980700083791">
        <ele>66.2</ele>
        <time>2018-03-31T11:26:38Z</time>
      </trkpt>
      <trkpt lat="62.639426151974" lon="17.980602853751">
        <ele>66</ele>
        <time>2018-03-31T11:26:39Z</time>
      </trkpt>
      <trkpt lat="62.639449202199" lon="17.980503109141">
        <ele>65.8</ele>
        <time>2018-03-31T11:26:40Z</time>
      </trkpt>
      <trkpt lat="62.639466636551" lon="17.980378721745">
        <ele>65.6</ele>
        <time>2018-03-31T11:26:41Z</time>
      </trkpt>
      <trkpt lat="62.63949857159" lon="17.980273445081">
        <ele>65.6</ele>
        <time>2018-03-31T11:26:42Z</time>
      </trkpt>
      <trkpt lat="62.639519358702" lon="17.98016959334">
        <ele>65.8</ele>
        <time>2018-03-31T11:26:43Z</time>
      </trkpt>
      <trkpt lat="62.639537463606" lon="17.980066747427">
        <ele>65.4</ele>
        <time>2018-03-31T11:26:44Z</time>
      </trkpt>
      <trkpt lat="62.639550790827" lon="17.979979491848">
        <ele>65.6</ele>
        <time>2018-03-31T11:26:45Z</time>
      </trkpt>
      <trkpt lat="62.639569985378" lon="17.979871281519">
        <ele>65.6</ele>
        <time>2018-03-31T11:26:46Z</time>
      </trkpt>
      <trkpt lat="62.639576774717" lon="17.979778661524">
        <ele>65.6</ele>
        <time>2018-03-31T11:26:47Z</time>
      </trkpt>
      <trkpt lat="62.639591862137" lon="17.979697440913">
        <ele>65.2</ele>
        <time>2018-03-31T11:26:48Z</time>
      </trkpt>
      <trkpt lat="62.639622372253" lon="17.979604066547">
        <ele>65.2</ele>
        <time>2018-03-31T11:26:49Z</time>
      </trkpt>
      <trkpt lat="62.639636286207" lon="17.979550422387">
        <ele>65.2</ele>
        <time>2018-03-31T11:26:50Z</time>
      </trkpt>
      <trkpt lat="62.639668305065" lon="17.979491581449">
        <ele>65.2</ele>
        <time>2018-03-31T11:26:51Z</time>
      </trkpt>
      <trkpt lat="62.639707029443" lon="17.979410863752">
        <ele>65</ele>
        <time>2018-03-31T11:26:52Z</time>
      </trkpt>
      <trkpt lat="62.639727648917" lon="17.979325452191">
        <ele>65</ele>
        <time>2018-03-31T11:26:53Z</time>
      </trkpt>
      <trkpt lat="62.639758829585" lon="17.979278429732">
        <ele>65</ele>
        <time>2018-03-31T11:26:54Z</time>
      </trkpt>
      <trkpt lat="62.639800906723" lon="17.979168040109">
        <ele>64.8</ele>
        <time>2018-03-31T11:26:55Z</time>
      </trkpt>
      <trkpt lat="62.639838206178" lon="17.979079694883">
        <ele>64.4</ele>
        <time>2018-03-31T11:26:56Z</time>
      </trkpt>
      <trkpt lat="62.63986988976" lon="17.979015154253">
        <ele>64.2</ele>
        <time>2018-03-31T11:26:57Z</time>
      </trkpt>
      <trkpt lat="62.639901824799" lon="17.97892991033">
        <ele>64.2</ele>
        <time>2018-03-31T11:26:58Z</time>
      </trkpt>
      <trkpt lat="62.639939543349" lon="17.978853718859">
        <ele>64</ele>
        <time>2018-03-31T11:26:59Z</time>
      </trkpt>
      <trkpt lat="62.639977932451" lon="17.978805355296">
        <ele>64</ele>
        <time>2018-03-31T11:27:00Z</time>
      </trkpt>
      <trkpt lat="62.640023697625" lon="17.978753974249">
        <ele>63.8</ele>
        <time>2018-03-31T11:27:01Z</time>
      </trkpt>
      <trkpt lat="62.640073821387" lon="17.978693708388">
        <ele>63.6</ele>
        <time>2018-03-31T11:27:02Z</time>
      </trkpt>
      <trkpt lat="62.640122268769" lon="17.978673340371">
        <ele>63.4</ele>
        <time>2018-03-31T11:27:03Z</time>
      </trkpt>
      <trkpt lat="62.640161831337" lon="17.978610224664">
        <ele>63</ele>
        <time>2018-03-31T11:27:04Z</time>
      </trkpt>
      <trkpt lat="62.640197705869" lon="17.978561861101">
        <ele>63</ele>
        <time>2018-03-31T11:27:05Z</time>
      </trkpt>
      <trkpt lat="62.640246991441" lon="17.978497655747">
        <ele>62.4</ele>
        <time>2018-03-31T11:27:06Z</time>
      </trkpt>
      <trkpt lat="62.640288314208" lon="17.978435126773">
        <ele>62.2</ele>
        <time>2018-03-31T11:27:07Z</time>
      </trkpt>
      <trkpt lat="62.64033508521" lon="17.978347871194">
        <ele>61.8</ele>
        <time>2018-03-31T11:27:08Z</time>
      </trkpt>
      <trkpt lat="62.640377916719" lon="17.978265309479">
        <ele>61.4</ele>
        <time>2018-03-31T11:27:09Z</time>
      </trkpt>
      <trkpt lat="62.640420077676" lon="17.978199260107">
        <ele>60.8</ele>
        <time>2018-03-31T11:27:10Z</time>
      </trkpt>
      <trkpt lat="62.64045913733" lon="17.978123655369">
        <ele>60.2</ele>
        <time>2018-03-31T11:27:11Z</time>
      </trkpt>
      <trkpt lat="62.640516050431" lon="17.978041261292">
        <ele>59.8</ele>
        <time>2018-03-31T11:27:12Z</time>
      </trkpt>
      <trkpt lat="62.640555696818" lon="17.977979151413">
        <ele>59.4</ele>
        <time>2018-03-31T11:27:13Z</time>
      </trkpt>
      <trkpt lat="62.640598612146" lon="17.977894829499">
        <ele>59</ele>
        <time>2018-03-31T11:27:14Z</time>
      </trkpt>
      <trkpt lat="62.640636414515" lon="17.977810507585">
        <ele>58.8</ele>
        <time>2018-03-31T11:27:15Z</time>
      </trkpt>
      <trkpt lat="62.640686705915" lon="17.977738339426">
        <ele>58.4</ele>
        <time>2018-03-31T11:27:16Z</time>
      </trkpt>
      <trkpt lat="62.64072400537" lon="17.977678576479">
        <ele>58.2</ele>
        <time>2018-03-31T11:27:17Z</time>
      </trkpt>
      <trkpt lat="62.640777817168" lon="17.977601295361">
        <ele>58</ele>
        <time>2018-03-31T11:27:18Z</time>
      </trkpt>
      <trkpt lat="62.640822325057" lon="17.977525522985">
        <ele>57.8</ele>
        <time>2018-03-31T11:27:19Z</time>
      </trkpt>
      <trkpt lat="62.640863480186" lon="17.977440614338">
        <ele>57.2</ele>
        <time>2018-03-31T11:27:20Z</time>
      </trkpt>
      <trkpt lat="62.640911927568" lon="17.97734740761">
        <ele>56.8</ele>
        <time>2018-03-31T11:27:21Z</time>
      </trkpt>
      <trkpt lat="62.640961129321" lon="17.977258224194">
        <ele>56.2</ele>
        <time>2018-03-31T11:27:22Z</time>
      </trkpt>
      <trkpt lat="62.641007984142" lon="17.977181865085">
        <ele>55.6</ele>
        <time>2018-03-31T11:27:23Z</time>
      </trkpt>
      <trkpt lat="62.641046540882" lon="17.977101482664">
        <ele>55.2</ele>
        <time>2018-03-31T11:27:24Z</time>
      </trkpt>
      <trkpt lat="62.641087109278" lon="17.977022860442">
        <ele>55</ele>
        <time>2018-03-31T11:27:25Z</time>
      </trkpt>
      <trkpt lat="62.64113304209" lon="17.976940466365">
        <ele>54.6</ele>
        <time>2018-03-31T11:27:26Z</time>
      </trkpt>
      <trkpt lat="62.641182746757" lon="17.976879110857">
        <ele>54.4</ele>
        <time>2018-03-31T11:27:27Z</time>
      </trkpt>
      <trkpt lat="62.641240414229" lon="17.976850780035">
        <ele>54</ele>
        <time>2018-03-31T11:27:28Z</time>
      </trkpt>
      <trkpt lat="62.641300009538" lon="17.976824041774">
        <ele>53.6</ele>
        <time>2018-03-31T11:27:29Z</time>
      </trkpt>
      <trkpt lat="62.64137192624" lon="17.976790095079">
        <ele>53.2</ele>
        <time>2018-03-31T11:27:30Z</time>
      </trkpt>
      <trkpt lat="62.641441663648" lon="17.976769559424">
        <ele>52.6</ele>
        <time>2018-03-31T11:27:31Z</time>
      </trkpt>
      <trkpt lat="62.641502097147" lon="17.976727566105">
        <ele>51.6</ele>
        <time>2018-03-31T11:27:32Z</time>
      </trkpt>
      <trkpt lat="62.641559429343" lon="17.976682387664">
        <ele>51</ele>
        <time>2018-03-31T11:27:33Z</time>
      </trkpt>
      <trkpt lat="62.641619779023" lon="17.976627821495">
        <ele>50.2</ele>
        <time>2018-03-31T11:27:34Z</time>
      </trkpt>
      <trkpt lat="62.641671495346" lon="17.976567136539">
        <ele>49.4</ele>
        <time>2018-03-31T11:27:35Z</time>
      </trkpt>
      <trkpt lat="62.641735784519" lon="17.976487089394">
        <ele>48.8</ele>
        <time>2018-03-31T11:27:36Z</time>
      </trkpt>
      <trkpt lat="62.641793703448" lon="17.976416094701">
        <ele>48.2</ele>
        <time>2018-03-31T11:27:37Z</time>
      </trkpt>
      <trkpt lat="62.641852041472" lon="17.976337472479">
        <ele>47.6</ele>
        <time>2018-03-31T11:27:38Z</time>
      </trkpt>
      <trkpt lat="62.641896130266" lon="17.97627284803">
        <ele>47</ele>
        <time>2018-03-31T11:27:39Z</time>
      </trkpt>
      <trkpt lat="62.641948014227" lon="17.976189699582">
        <ele>46.6</ele>
        <time>2018-03-31T11:27:40Z</time>
      </trkpt>
      <trkpt lat="62.641998305627" lon="17.976105126211">
        <ele>46</ele>
        <time>2018-03-31T11:27:41Z</time>
      </trkpt>
      <trkpt lat="62.642049351398" lon="17.976015942795">
        <ele>45.4</ele>
        <time>2018-03-31T11:27:42Z</time>
      </trkpt>
      <trkpt lat="62.642103414653" lon="17.975926759379">
        <ele>45.2</ele>
        <time>2018-03-31T11:27:43Z</time>
      </trkpt>
      <trkpt lat="62.642155885347" lon="17.975851657555">
        <ele>44.8</ele>
        <time>2018-03-31T11:27:44Z</time>
      </trkpt>
      <trkpt lat="62.642213469" lon="17.975783764165">
        <ele>44.8</ele>
        <time>2018-03-31T11:27:45Z</time>
      </trkpt>
      <trkpt lat="62.642280859476" lon="17.97570287883">
        <ele>44.2</ele>
        <time>2018-03-31T11:27:46Z</time>
      </trkpt>
      <trkpt lat="62.642337772577" lon="17.975625010979">
        <ele>44</ele>
        <time>2018-03-31T11:27:47Z</time>
      </trkpt>
      <trkpt lat="62.642401642655" lon="17.975525853102">
        <ele>43.6</ele>
        <time>2018-03-31T11:27:48Z</time>
      </trkpt>
      <trkpt lat="62.64244564763" lon="17.975409177054">
        <ele>43.2</ele>
        <time>2018-03-31T11:27:49Z</time>
      </trkpt>
      <trkpt lat="62.642481605981" lon="17.975297111051">
        <ele>42.8</ele>
        <time>2018-03-31T11:27:50Z</time>
      </trkpt>
      <trkpt lat="62.642525778594" lon="17.975181776107">
        <ele>42</ele>
        <time>2018-03-31T11:27:51Z</time>
      </trkpt>
      <trkpt lat="62.642568777741" lon="17.975068201362">
        <ele>41.6</ele>
        <time>2018-03-31T11:27:52Z</time>
      </trkpt>
      <trkpt lat="62.642607166843" lon="17.974962421784">
        <ele>41.2</ele>
        <time>2018-03-31T11:27:53Z</time>
      </trkpt>
      <trkpt lat="62.642648070515" lon="17.974853205627">
        <ele>40.8</ele>
        <time>2018-03-31T11:27:54Z</time>
      </trkpt>
      <trkpt lat="62.642682939219" lon="17.974736194303">
        <ele>40.4</ele>
        <time>2018-03-31T11:27:55Z</time>
      </trkpt>
      <trkpt lat="62.642714874258" lon="17.974607280681">
        <ele>40.4</ele>
        <time>2018-03-31T11:27:56Z</time>
      </trkpt>
      <trkpt lat="62.64273901413" lon="17.974497980705">
        <ele>40.2</ele>
        <time>2018-03-31T11:27:57Z</time>
      </trkpt>
      <trkpt lat="62.642760136518" lon="17.974381556114">
        <ele>40</ele>
        <time>2018-03-31T11:27:58Z</time>
      </trkpt>
      <trkpt lat="62.642771032988" lon="17.974271753224">
        <ele>39.8</ele>
        <time>2018-03-31T11:27:59Z</time>
      </trkpt>
      <trkpt lat="62.642795843412" lon="17.974158010841">
        <ele>39.6</ele>
        <time>2018-03-31T11:28:00Z</time>
      </trkpt>
      <trkpt lat="62.64282870046" lon="17.974067905416">
        <ele>39.4</ele>
        <time>2018-03-31T11:28:01Z</time>
      </trkpt>
      <trkpt lat="62.642833897238" lon="17.973921473623">
        <ele>39.2</ele>
        <time>2018-03-31T11:28:02Z</time>
      </trkpt>
      <trkpt lat="62.642857701834" lon="17.973814017665">
        <ele>39</ele>
        <time>2018-03-31T11:28:03Z</time>
      </trkpt>
      <trkpt lat="62.642870023227" lon="17.973692480115">
        <ele>38.8</ele>
        <time>2018-03-31T11:28:04Z</time>
      </trkpt>
      <trkpt lat="62.642866167553" lon="17.973605056898">
        <ele>38.6</ele>
        <time>2018-03-31T11:28:05Z</time>
      </trkpt>
      <trkpt lat="62.64287060996" lon="17.973503132994">
        <ele>38.6</ele>
        <time>2018-03-31T11:28:06Z</time>
      </trkpt>
      <trkpt lat="62.642870442322" lon="17.973415793596">
        <ele>38.4</ele>
        <time>2018-03-31T11:28:07Z</time>
      </trkpt>
      <trkpt lat="62.642872118702" lon="17.973324849981">
        <ele>38.2</ele>
        <time>2018-03-31T11:28:08Z</time>
      </trkpt>
      <trkpt lat="62.642877566937" lon="17.973218902765">
        <ele>38.2</ele>
        <time>2018-03-31T11:28:09Z</time>
      </trkpt>
      <trkpt lat="62.642876058195" lon="17.973122762372">
        <ele>38</ele>
        <time>2018-03-31T11:28:10Z</time>
      </trkpt>
      <trkpt lat="62.642857869472" lon="17.973044559245">
        <ele>38</ele>
        <time>2018-03-31T11:28:11Z</time>
      </trkpt>
      <trkpt lat="62.64284378788" lon="17.97296786486">
        <ele>38.2</ele>
        <time>2018-03-31T11:28:12Z</time>
      </trkpt>
      <trkpt lat="62.642832388496" lon="17.972882872394">
        <ele>38.2</ele>
        <time>2018-03-31T11:28:13Z</time>
      </trkpt>
      <trkpt lat="62.642815959972" lon="17.972803495801">
        <ele>38.2</ele>
        <time>2018-03-31T11:28:14Z</time>
      </trkpt>
      <trkpt lat="62.642795591955" lon="17.972738955171">
        <ele>38.2</ele>
        <time>2018-03-31T11:28:15Z</time>
      </trkpt>
      <trkpt lat="62.642779414888" lon="17.972695788386">
        <ele>38.2</ele>
        <time>2018-03-31T11:28:16Z</time>
      </trkpt>
      <trkpt lat="62.642754855921" lon="17.972636695991">
        <ele>38.2</ele>
        <time>2018-03-31T11:28:17Z</time>
      </trkpt>
      <trkpt lat="62.642725770728" lon="17.972557235579">
        <ele>38.2</ele>
        <time>2018-03-31T11:28:18Z</time>
      </trkpt>
      <trkpt lat="62.64270883929" lon="17.972502753229">
        <ele>38.4</ele>
        <time>2018-03-31T11:28:19Z</time>
      </trkpt>
      <trkpt lat="62.642701966132" lon="17.972431590898">
        <ele>38.6</ele>
        <time>2018-03-31T11:28:20Z</time>
      </trkpt>
      <trkpt lat="62.642685453789" lon="17.972357494902">
        <ele>38.8</ele>
        <time>2018-03-31T11:28:21Z</time>
      </trkpt>
      <trkpt lat="62.642665504867" lon="17.972307287321">
        <ele>39</ele>
        <time>2018-03-31T11:28:22Z</time>
      </trkpt>
      <trkpt lat="62.642654105483" lon="17.972233694239">
        <ele>39.2</ele>
        <time>2018-03-31T11:28:23Z</time>
      </trkpt>
      <trkpt lat="62.642638515149" lon="17.972161023166">
        <ele>39.4</ele>
        <time>2018-03-31T11:28:24Z</time>
      </trkpt>
      <trkpt lat="62.642630217068" lon="17.972095811984">
        <ele>39.6</ele>
        <time>2018-03-31T11:28:25Z</time>
      </trkpt>
      <trkpt lat="62.642616135476" lon="17.972024817291">
        <ele>39.6</ele>
        <time>2018-03-31T11:28:26Z</time>
      </trkpt>
      <trkpt lat="62.642594761631" lon="17.971953068227">
        <ele>39.6</ele>
        <time>2018-03-31T11:28:27Z</time>
      </trkpt>
      <trkpt lat="62.642589481034" lon="17.971880397154">
        <ele>39.8</ele>
        <time>2018-03-31T11:28:28Z</time>
      </trkpt>
      <trkpt lat="62.642590738319" lon="17.971823903148">
        <ele>39.8</ele>
        <time>2018-03-31T11:28:29Z</time>
      </trkpt>
      <trkpt lat="62.642599790771" lon="17.971781155458">
        <ele>39.8</ele>
        <time>2018-03-31T11:28:30Z</time>
      </trkpt>
      <trkpt lat="62.642619907331" lon="17.971767660599">
        <ele>39.8</ele>
        <time>2018-03-31T11:28:31Z</time>
      </trkpt>
      <trkpt lat="62.642646310316" lon="17.971770007531">
        <ele>39.8</ele>
        <time>2018-03-31T11:28:32Z</time>
      </trkpt>
      <trkpt lat="62.642670114912" lon="17.971789118263">
        <ele>39.8</ele>
        <time>2018-03-31T11:28:33Z</time>
      </trkpt>
      <trkpt lat="62.642699283924" lon="17.971838403835">
        <ele>39.8</ele>
        <time>2018-03-31T11:28:34Z</time>
      </trkpt>
      <trkpt lat="62.642712946421" lon="17.971888192321">
        <ele>39.6</ele>
        <time>2018-03-31T11:28:35Z</time>
      </trkpt>
      <trkpt lat="62.642732560067" lon="17.971962204498">
        <ele>39.6</ele>
        <time>2018-03-31T11:28:36Z</time>
      </trkpt>
      <trkpt lat="62.642757538129" lon="17.972019452875">
        <ele>39.4</ele>
        <time>2018-03-31T11:28:37Z</time>
      </trkpt>
      <trkpt lat="62.64278427639" lon="17.972073348492">
        <ele>39.2</ele>
        <time>2018-03-31T11:28:38Z</time>
      </trkpt>
      <trkpt lat="62.642800956371" lon="17.97214895323">
        <ele>39</ele>
        <time>2018-03-31T11:28:39Z</time>
      </trkpt>
      <trkpt lat="62.642825766795" lon="17.972210308738">
        <ele>38.8</ele>
        <time>2018-03-31T11:28:40Z</time>
      </trkpt>
      <trkpt lat="62.642844793708" lon="17.972270658418">
        <ele>38.6</ele>
        <time>2018-03-31T11:28:41Z</time>
      </trkpt>
      <trkpt lat="62.642860635499" lon="17.972360260929">
        <ele>38.6</ele>
        <time>2018-03-31T11:28:42Z</time>
      </trkpt>
      <trkpt lat="62.642888966321" lon="17.972438212599">
        <ele>38.2</ele>
        <time>2018-03-31T11:28:43Z</time>
      </trkpt>
      <trkpt lat="62.642921655731" lon="17.972498143184">
        <ele>38.2</ele>
        <time>2018-03-31T11:28:44Z</time>
      </trkpt>
      <trkpt lat="62.642933055115" lon="17.972577771234">
        <ele>38.2</ele>
        <time>2018-03-31T11:28:45Z</time>
      </trkpt>
      <trkpt lat="62.642951160019" lon="17.972682544984">
        <ele>38</ele>
        <time>2018-03-31T11:28:46Z</time>
      </trkpt>
      <trkpt lat="62.642970606027" lon="17.972733087841">
        <ele>37.8</ele>
        <time>2018-03-31T11:28:47Z</time>
      </trkpt>
      <trkpt lat="62.642982843601" lon="17.972847249319">
        <ele>37.8</ele>
        <time>2018-03-31T11:28:48Z</time>
      </trkpt>
      <trkpt lat="62.642997595745" lon="17.972942467703">
        <ele>37.6</ele>
        <time>2018-03-31T11:28:49Z</time>
      </trkpt>
      <trkpt lat="62.643016203563" lon="17.973007678885">
        <ele>37.6</ele>
        <time>2018-03-31T11:28:50Z</time>
      </trkpt>
      <trkpt lat="62.6430265133" lon="17.973104322192">
        <ele>37.4</ele>
        <time>2018-03-31T11:28:51Z</time>
      </trkpt>
      <trkpt lat="62.643041852177" lon="17.973185458984">
        <ele>37.2</ele>
        <time>2018-03-31T11:28:52Z</time>
      </trkpt>
      <trkpt lat="62.643063812755" lon="17.973238181135">
        <ele>37</ele>
        <time>2018-03-31T11:28:53Z</time>
      </trkpt>
      <trkpt lat="62.643077726709" lon="17.973372291535">
        <ele>37</ele>
        <time>2018-03-31T11:28:54Z</time>
      </trkpt>
      <trkpt lat="62.643087114437" lon="17.973462648417">
        <ele>37</ele>
        <time>2018-03-31T11:28:55Z</time>
      </trkpt>
      <trkpt lat="62.643104129694" lon="17.973529619798">
        <ele>37</ele>
        <time>2018-03-31T11:28:56Z</time>
      </trkpt>
      <trkpt lat="62.643104800246" lon="17.973629532046">
        <ele>37</ele>
        <time>2018-03-31T11:28:57Z</time>
      </trkpt>
      <trkpt lat="62.643105554617" lon="17.973717541996">
        <ele>37</ele>
        <time>2018-03-31T11:28:58Z</time>
      </trkpt>
      <trkpt lat="62.643102704771" lon="17.973789626336">
        <ele>36.8</ele>
        <time>2018-03-31T11:28:59Z</time>
      </trkpt>
      <trkpt lat="62.643095747794" lon="17.973868667653">
        <ele>36.8</ele>
        <time>2018-03-31T11:29:00Z</time>
      </trkpt>
      <trkpt lat="62.643090802473" lon="17.973958270164">
        <ele>36.8</ele>
        <time>2018-03-31T11:29:01Z</time>
      </trkpt>
      <trkpt lat="62.643091640663" lon="17.974027588477">
        <ele>36.6</ele>
        <time>2018-03-31T11:29:02Z</time>
      </trkpt>
      <trkpt lat="62.643088455541" lon="17.974107384165">
        <ele>36.6</ele>
        <time>2018-03-31T11:29:03Z</time>
      </trkpt>
      <trkpt lat="62.643086611523" lon="17.974171589519">
        <ele>36.6</ele>
        <time>2018-03-31T11:29:04Z</time>
      </trkpt>
      <trkpt lat="62.643077056157" lon="17.974242081298">
        <ele>36.6</ele>
        <time>2018-03-31T11:29:05Z</time>
      </trkpt>
      <trkpt lat="62.64306423185" lon="17.974347944695">
        <ele>36.4</ele>
        <time>2018-03-31T11:29:06Z</time>
      </trkpt>
      <trkpt lat="62.643050653172" lon="17.974422878881">
        <ele>36.4</ele>
        <time>2018-03-31T11:29:07Z</time>
      </trkpt>
      <trkpt lat="62.643046126946" lon="17.974487838606">
        <ele>36.4</ele>
        <time>2018-03-31T11:29:08Z</time>
      </trkpt>
      <trkpt lat="62.643028524956" lon="17.974584649551">
        <ele>36.2</ele>
        <time>2018-03-31T11:29:09Z</time>
      </trkpt>
      <trkpt lat="62.643011677337" lon="17.97465011219">
        <ele>36.4</ele>
        <time>2018-03-31T11:29:10Z</time>
      </trkpt>
      <trkpt lat="62.643011593518" lon="17.974719765779">
        <ele>36.4</ele>
        <time>2018-03-31T11:29:11Z</time>
      </trkpt>
      <trkpt lat="62.643021400341" lon="17.97480685372">
        <ele>36.4</ele>
        <time>2018-03-31T11:29:12Z</time>
      </trkpt>
      <trkpt lat="62.643017963762" lon="17.974874998567">
        <ele>36.4</ele>
        <time>2018-03-31T11:29:13Z</time>
      </trkpt>
      <trkpt lat="62.643016203563" lon="17.974968037657">
        <ele>36.6</ele>
        <time>2018-03-31T11:29:14Z</time>
      </trkpt>
      <trkpt lat="62.643023579635" lon="17.9750516052">
        <ele>36.4</ele>
        <time>2018-03-31T11:29:15Z</time>
      </trkpt>
      <trkpt lat="62.64303070425" lon="17.975129137775">
        <ele>36.6</ele>
        <time>2018-03-31T11:29:16Z</time>
      </trkpt>
      <trkpt lat="62.64303238063" lon="17.975201725029">
        <ele>36.6</ele>
        <time>2018-03-31T11:29:17Z</time>
      </trkpt>
      <trkpt lat="62.643023579635" lon="17.975281855993">
        <ele>36.4</ele>
        <time>2018-03-31T11:29:18Z</time>
      </trkpt>
      <trkpt lat="62.643008408396" lon="17.975346228985">
        <ele>36.4</ele>
        <time>2018-03-31T11:29:19Z</time>
      </trkpt>
      <trkpt lat="62.643003295437" lon="17.975390736874">
        <ele>36.4</ele>
        <time>2018-03-31T11:29:20Z</time>
      </trkpt>
      <trkpt lat="62.64298376561" lon="17.975439351894">
        <ele>36.2</ele>
        <time>2018-03-31T11:29:21Z</time>
      </trkpt>
      <trkpt lat="62.64297203095" lon="17.975497773737">
        <ele>36.2</ele>
        <time>2018-03-31T11:29:22Z</time>
      </trkpt>
      <trkpt lat="62.642957194987" lon="17.975552926639">
        <ele>36.2</ele>
        <time>2018-03-31T11:29:23Z</time>
      </trkpt>
      <trkpt lat="62.642950824743" lon="17.975615120337">
        <ele>36.4</ele>
        <time>2018-03-31T11:29:24Z</time>
      </trkpt>
      <trkpt lat="62.642942442843" lon="17.975674128913">
        <ele>36.6</ele>
        <time>2018-03-31T11:29:25Z</time>
      </trkpt>
      <trkpt lat="62.642943281033" lon="17.975721570467">
        <ele>36.8</ele>
        <time>2018-03-31T11:29:26Z</time>
      </trkpt>
      <trkpt lat="62.642942610481" lon="17.975805557105">
        <ele>37</ele>
        <time>2018-03-31T11:29:27Z</time>
      </trkpt>
      <trkpt lat="62.642940095911" lon="17.975870013916">
        <ele>37</ele>
        <time>2018-03-31T11:29:28Z</time>
      </trkpt>
      <trkpt lat="62.642944035404" lon="17.975938577858">
        <ele>37</ele>
        <time>2018-03-31T11:29:29Z</time>
      </trkpt>
      <trkpt lat="62.642947974897" lon="17.976023318867">
        <ele>37.2</ele>
        <time>2018-03-31T11:29:30Z</time>
      </trkpt>
      <trkpt lat="62.642952501123" lon="17.976077214484">
        <ele>37.4</ele>
        <time>2018-03-31T11:29:31Z</time>
      </trkpt>
      <trkpt lat="62.642949651277" lon="17.976145946064">
        <ele>37.2</ele>
        <time>2018-03-31T11:29:32Z</time>
      </trkpt>
      <trkpt lat="62.642939173902" lon="17.976224484467">
        <ele>37.2</ele>
        <time>2018-03-31T11:29:33Z</time>
      </trkpt>
      <trkpt lat="62.642940095911" lon="17.976282738672">
        <ele>37.4</ele>
        <time>2018-03-31T11:29:34Z</time>
      </trkpt>
      <trkpt lat="62.642941688472" lon="17.976309896028">
        <ele>37.2</ele>
        <time>2018-03-31T11:29:35Z</time>
      </trkpt>
      <trkpt lat="62.64293263602" lon="17.976422381126">
        <ele>37.2</ele>
        <time>2018-03-31T11:29:36Z</time>
      </trkpt>
      <trkpt lat="62.642930540545" lon="17.976498069683">
        <ele>37.2</ele>
        <time>2018-03-31T11:29:37Z</time>
      </trkpt>
      <trkpt lat="62.642926517233" lon="17.976566130711">
        <ele>37.2</ele>
        <time>2018-03-31T11:29:38Z</time>
      </trkpt>
      <trkpt lat="62.642924505577" lon="17.976639723793">
        <ele>37.2</ele>
        <time>2018-03-31T11:29:39Z</time>
      </trkpt>
      <trkpt lat="62.64292928326" lon="17.976719016567">
        <ele>37.2</ele>
        <time>2018-03-31T11:29:40Z</time>
      </trkpt>
      <trkpt lat="62.642909753433" lon="17.976789424527">
        <ele>37.2</ele>
        <time>2018-03-31T11:29:41Z</time>
      </trkpt>
      <trkpt lat="62.642913441469" lon="17.976856060632">
        <ele>37</ele>
        <time>2018-03-31T11:29:42Z</time>
      </trkpt>
      <trkpt lat="62.642894330737" lon="17.976909369516">
        <ele>37.2</ele>
        <time>2018-03-31T11:29:43Z</time>
      </trkpt>
      <trkpt lat="62.642880835878" lon="17.976974664517">
        <ele>37.2</ele>
        <time>2018-03-31T11:29:44Z</time>
      </trkpt>
      <trkpt lat="62.642879327136" lon="17.977012802162">
        <ele>37.2</ele>
        <time>2018-03-31T11:29:45Z</time>
      </trkpt>
      <trkpt lat="62.642864072078" lon="17.977070301996">
        <ele>37.4</ele>
        <time>2018-03-31T11:29:46Z</time>
      </trkpt>
      <trkpt lat="62.642862563336" lon="17.977116150989">
        <ele>37.4</ele>
        <time>2018-03-31T11:29:47Z</time>
      </trkpt>
      <trkpt lat="62.642846050993" lon="17.977183541465">
        <ele>37.6</ele>
        <time>2018-03-31T11:29:48Z</time>
      </trkpt>
      <trkpt lat="62.642846973002" lon="17.977246238077">
        <ele>37.8</ele>
        <time>2018-03-31T11:29:49Z</time>
      </trkpt>
      <trkpt lat="62.64283121503" lon="17.97729627802">
        <ele>37.8</ele>
        <time>2018-03-31T11:29:50Z</time>
      </trkpt>
      <trkpt lat="62.642826102071" lon="17.977360734831">
        <ele>37.8</ele>
        <time>2018-03-31T11:29:51Z</time>
      </trkpt>
      <trkpt lat="62.64282450951" lon="17.977405829453">
        <ele>37.8</ele>
        <time>2018-03-31T11:29:52Z</time>
      </trkpt>
      <trkpt lat="62.642800956371" lon="17.97746307783">
        <ele>38</ele>
        <time>2018-03-31T11:29:53Z</time>
      </trkpt>
      <trkpt lat="62.642779414888" lon="17.977513117773">
        <ele>38</ele>
        <time>2018-03-31T11:29:54Z</time>
      </trkpt>
      <trkpt lat="62.64276835078" lon="17.977559637318">
        <ele>38</ele>
        <time>2018-03-31T11:29:55Z</time>
      </trkpt>
      <trkpt lat="62.642745216736" lon="17.977596601497">
        <ele>38</ele>
        <time>2018-03-31T11:29:56Z</time>
      </trkpt>
      <trkpt lat="62.642728285298" lon="17.977645970888">
        <ele>38.2</ele>
        <time>2018-03-31T11:29:57Z</time>
      </trkpt>
      <trkpt lat="62.642713533154" lon="17.977670781312">
        <ele>38.2</ele>
        <time>2018-03-31T11:29:58Z</time>
      </trkpt>
      <trkpt lat="62.642698529553" lon="17.977701039971">
        <ele>38.4</ele>
        <time>2018-03-31T11:29:59Z</time>
      </trkpt>
      <trkpt lat="62.642680508468" lon="17.977733645562">
        <ele>38.6</ele>
        <time>2018-03-31T11:30:00Z</time>
      </trkpt>
      <trkpt lat="62.642671791292" lon="17.977761389651">
        <ele>38.8</ele>
        <time>2018-03-31T11:30:01Z</time>
      </trkpt>
      <trkpt lat="62.642650920361" lon="17.97779081012">
        <ele>39</ele>
        <time>2018-03-31T11:30:02Z</time>
      </trkpt>
      <trkpt lat="62.642632815457" lon="17.977844789556">
        <ele>39.2</ele>
        <time>2018-03-31T11:30:03Z</time>
      </trkpt>
      <trkpt lat="62.642616051657" lon="17.977867001591">
        <ele>39.4</ele>
        <time>2018-03-31T11:30:04Z</time>
      </trkpt>
      <trkpt lat="62.64258562536" lon="17.977882340468">
        <ele>39.8</ele>
        <time>2018-03-31T11:30:05Z</time>
      </trkpt>
      <trkpt lat="62.642566766085" lon="17.977950317677">
        <ele>40</ele>
        <time>2018-03-31T11:30:06Z</time>
      </trkpt>
      <trkpt lat="62.642538854358" lon="17.977979067594">
        <ele>40</ele>
        <time>2018-03-31T11:30:07Z</time>
      </trkpt>
      <trkpt lat="62.642527874069" lon="17.978011589366">
        <ele>40.2</ele>
        <time>2018-03-31T11:30:08Z</time>
      </trkpt>
      <trkpt lat="62.64251186464" lon="17.978038830541">
        <ele>40.4</ele>
        <time>2018-03-31T11:30:09Z</time>
      </trkpt>
      <trkpt lat="62.642493592098" lon="17.97807244196">
        <ele>40.4</ele>
        <time>2018-03-31T11:30:10Z</time>
      </trkpt>
      <trkpt lat="62.642485629293" lon="17.978102030067">
        <ele>40.6</ele>
        <time>2018-03-31T11:30:11Z</time>
      </trkpt>
      <trkpt lat="62.642471380063" lon="17.978127175767">
        <ele>40.8</ele>
        <time>2018-03-31T11:30:12Z</time>
      </trkpt>
      <trkpt lat="62.642458807213" lon="17.978175958425">
        <ele>40.8</ele>
        <time>2018-03-31T11:30:13Z</time>
      </trkpt>
      <trkpt lat="62.642446904915" lon="17.978207642007">
        <ele>41</ele>
        <time>2018-03-31T11:30:14Z</time>
      </trkpt>
      <trkpt lat="62.642432990961" lon="17.978242510711">
        <ele>41</ele>
        <time>2018-03-31T11:30:15Z</time>
      </trkpt>
      <trkpt lat="62.642426872174" lon="17.978298585622">
        <ele>41.2</ele>
        <time>2018-03-31T11:30:16Z</time>
      </trkpt>
      <trkpt lat="62.642414550781" lon="17.978328509005">
        <ele>41.4</ele>
        <time>2018-03-31T11:30:17Z</time>
      </trkpt>
      <trkpt lat="62.642400301551" lon="17.978374860912">
        <ele>41.4</ele>
        <time>2018-03-31T11:30:18Z</time>
      </trkpt>
      <trkpt lat="62.642379179163" lon="17.978415177851">
        <ele>41.6</ele>
        <time>2018-03-31T11:30:19Z</time>
      </trkpt>
      <trkpt lat="62.642371719272" lon="17.97845549479">
        <ele>41.6</ele>
        <time>2018-03-31T11:30:20Z</time>
      </trkpt>
      <trkpt lat="62.642356380395" lon="17.978496901376">
        <ele>41.8</ele>
        <time>2018-03-31T11:30:21Z</time>
      </trkpt>
      <trkpt lat="62.642349339599" lon="17.978538727057">
        <ele>42</ele>
        <time>2018-03-31T11:30:22Z</time>
      </trkpt>
      <trkpt lat="62.642336766749" lon="17.978578121987">
        <ele>42</ele>
        <time>2018-03-31T11:30:23Z</time>
      </trkpt>
      <trkpt lat="62.642331067057" lon="17.978608296827">
        <ele>42</ele>
        <time>2018-03-31T11:30:24Z</time>
      </trkpt>
      <trkpt lat="62.642323690985" lon="17.978625228265">
        <ele>42.2</ele>
        <time>2018-03-31T11:30:25Z</time>
      </trkpt>
      <trkpt lat="62.642305753719" lon="17.978661940987">
        <ele>42.4</ele>
        <time>2018-03-31T11:30:26Z</time>
      </trkpt>
      <trkpt lat="62.642296030715" lon="17.978702844659">
        <ele>42.4</ele>
        <time>2018-03-31T11:30:27Z</time>
      </trkpt>
      <trkpt lat="62.642279518372" lon="17.978722206848">
        <ele>42.8</ele>
        <time>2018-03-31T11:30:28Z</time>
      </trkpt>
      <trkpt lat="62.642264011857" lon="17.978744083607">
        <ele>43</ele>
        <time>2018-03-31T11:30:29Z</time>
      </trkpt>
      <trkpt lat="62.642254875586" lon="17.978763529615">
        <ele>43</ele>
        <time>2018-03-31T11:30:30Z</time>
      </trkpt>
      <trkpt lat="62.642229981343" lon="17.978771995334">
        <ele>43.2</ele>
        <time>2018-03-31T11:30:31Z</time>
      </trkpt>
      <trkpt lat="62.642216905579" lon="17.978789681143">
        <ele>43.4</ele>
        <time>2018-03-31T11:30:32Z</time>
      </trkpt>
      <trkpt lat="62.642195447915" lon="17.97880082907">
        <ele>43.4</ele>
        <time>2018-03-31T11:30:33Z</time>
      </trkpt>
      <trkpt lat="62.642172230052" lon="17.978797560129">
        <ele>43.6</ele>
        <time>2018-03-31T11:30:34Z</time>
      </trkpt>
      <trkpt lat="62.64215395751" lon="17.978812899006">
        <ele>43.6</ele>
        <time>2018-03-31T11:30:35Z</time>
      </trkpt>
      <trkpt lat="62.642134595321" lon="17.978825304218">
        <ele>43.8</ele>
        <time>2018-03-31T11:30:36Z</time>
      </trkpt>
      <trkpt lat="62.642116658055" lon="17.97883435667">
        <ele>44</ele>
        <time>2018-03-31T11:30:37Z</time>
      </trkpt>
      <trkpt lat="62.642092350545" lon="17.978845420778">
        <ele>44.2</ele>
        <time>2018-03-31T11:30:38Z</time>
      </trkpt>
      <trkpt lat="62.642082040808" lon="17.978857323076">
        <ele>44.4</ele>
        <time>2018-03-31T11:30:39Z</time>
      </trkpt>
      <trkpt lat="62.642060164049" lon="17.978860843474">
        <ele>44.6</ele>
        <time>2018-03-31T11:30:40Z</time>
      </trkpt>
      <trkpt lat="62.642043567887" lon="17.978870985573">
        <ele>44.8</ele>
        <time>2018-03-31T11:30:41Z</time>
      </trkpt>
      <trkpt lat="62.642032084684" lon="17.978894371074">
        <ele>45</ele>
        <time>2018-03-31T11:30:42Z</time>
      </trkpt>
      <trkpt lat="62.642002664215" lon="17.978906021915">
        <ele>45.2</ele>
        <time>2018-03-31T11:30:43Z</time>
      </trkpt>
      <trkpt lat="62.64198631951" lon="17.97891063196">
        <ele>45.4</ele>
        <time>2018-03-31T11:30:44Z</time>
      </trkpt>
      <trkpt lat="62.641978105248" lon="17.978929239778">
        <ele>45.6</ele>
        <time>2018-03-31T11:30:45Z</time>
      </trkpt>
      <trkpt lat="62.641961425267" lon="17.978934771832">
        <ele>45.8</ele>
        <time>2018-03-31T11:30:46Z</time>
      </trkpt>
      <trkpt lat="62.641942398354" lon="17.978934352737">
        <ele>46</ele>
        <time>2018-03-31T11:30:47Z</time>
      </trkpt>
      <trkpt lat="62.641935609015" lon="17.978957067686">
        <ele>46.2</ele>
        <time>2018-03-31T11:30:48Z</time>
      </trkpt>
      <trkpt lat="62.641919096672" lon="17.978967209785">
        <ele>46.4</ele>
        <time>2018-03-31T11:30:49Z</time>
      </trkpt>
      <trkpt lat="62.641906020908" lon="17.978973747667">
        <ele>46.6</ele>
        <time>2018-03-31T11:30:50Z</time>
      </trkpt>
      <trkpt lat="62.641896716999" lon="17.97897768716">
        <ele>46.8</ele>
        <time>2018-03-31T11:30:51Z</time>
      </trkpt>
      <trkpt lat="62.641878528276" lon="17.978984895594">
        <ele>47</ele>
        <time>2018-03-31T11:30:52Z</time>
      </trkpt>
      <trkpt lat="62.641865284874" lon="17.978989170363">
        <ele>47.2</ele>
        <time>2018-03-31T11:30:53Z</time>
      </trkpt>
      <trkpt lat="62.641852795843" lon="17.978996797892">
        <ele>47.4</ele>
        <time>2018-03-31T11:30:54Z</time>
      </trkpt>
      <trkpt lat="62.641833349835" lon="17.978995708245">
        <ele>47.6</ele>
        <time>2018-03-31T11:30:55Z</time>
      </trkpt>
      <trkpt lat="62.641807952678" lon="17.979002749041">
        <ele>47.8</ele>
        <time>2018-03-31T11:30:56Z</time>
      </trkpt>
      <trkpt lat="62.641794457819" lon="17.979004844516">
        <ele>48</ele>
        <time>2018-03-31T11:30:57Z</time>
      </trkpt>
      <trkpt lat="62.641782304064" lon="17.979010711846">
        <ele>48.4</ele>
        <time>2018-03-31T11:30:58Z</time>
      </trkpt>
      <trkpt lat="62.641764618255" lon="17.979007107629">
        <ele>48.4</ele>
        <time>2018-03-31T11:30:59Z</time>
      </trkpt>
      <trkpt lat="62.641748441188" lon="17.979005682706">
        <ele>48.6</ele>
        <time>2018-03-31T11:31:00Z</time>
      </trkpt>
      <trkpt lat="62.641741735668" lon="17.979016076262">
        <ele>48.6</ele>
        <time>2018-03-31T11:31:01Z</time>
      </trkpt>
      <trkpt lat="62.641742909134" lon="17.979015824805">
        <ele>49</ele>
        <time>2018-03-31T11:31:02Z</time>
      </trkpt>
      <trkpt lat="62.641719104538" lon="17.979002413765">
        <ele>49</ele>
        <time>2018-03-31T11:31:03Z</time>
      </trkpt>
      <trkpt lat="62.641699742349" lon="17.979005012154">
        <ele>49.4</ele>
        <time>2018-03-31T11:31:04Z</time>
      </trkpt>
      <trkpt lat="62.641684068196" lon="17.979015154253">
        <ele>49.4</ele>
        <time>2018-03-31T11:31:05Z</time>
      </trkpt>
      <trkpt lat="62.641656407926" lon="17.979001910851">
        <ele>49.8</ele>
        <time>2018-03-31T11:31:06Z</time>
      </trkpt>
      <trkpt lat="62.641635369357" lon="17.978989254182">
        <ele>50.2</ele>
        <time>2018-03-31T11:31:07Z</time>
      </trkpt>
      <trkpt lat="62.641615755711" lon="17.978990930562">
        <ele>50.4</ele>
        <time>2018-03-31T11:31:08Z</time>
      </trkpt>
      <trkpt lat="62.641596644979" lon="17.97897098164">
        <ele>50.8</ele>
        <time>2018-03-31T11:31:09Z</time>
      </trkpt>
      <trkpt lat="62.641576528419" lon="17.978962767378">
        <ele>50.8</ele>
        <time>2018-03-31T11:31:10Z</time>
      </trkpt>
      <trkpt lat="62.641561608637" lon="17.978973160934">
        <ele>51.2</ele>
        <time>2018-03-31T11:31:11Z</time>
      </trkpt>
      <trkpt lat="62.641535205652" lon="17.978958073514">
        <ele>51.4</ele>
        <time>2018-03-31T11:31:12Z</time>
      </trkpt>
      <trkpt lat="62.641515843463" lon="17.978972322744">
        <ele>51.4</ele>
        <time>2018-03-31T11:31:13Z</time>
      </trkpt>
      <trkpt lat="62.641493631428" lon="17.978965868681">
        <ele>51.6</ele>
        <time>2018-03-31T11:31:14Z</time>
      </trkpt>
      <trkpt lat="62.641477705818" lon="17.978962348283">
        <ele>51.6</ele>
        <time>2018-03-31T11:31:15Z</time>
      </trkpt>
      <trkpt lat="62.641483321691" lon="17.9789659525">
        <ele>51.8</ele>
        <time>2018-03-31T11:31:16Z</time>
      </trkpt>
      <trkpt lat="62.641458678905" lon="17.97895840879">
        <ele>52</ele>
        <time>2018-03-31T11:31:17Z</time>
      </trkpt>
      <trkpt lat="62.641443591485" lon="17.978944411017">
        <ele>52.2</ele>
        <time>2018-03-31T11:31:18Z</time>
      </trkpt>
      <trkpt lat="62.641419116337" lon="17.978953212012">
        <ele>52.2</ele>
        <time>2018-03-31T11:31:19Z</time>
      </trkpt>
      <trkpt lat="62.641398496863" lon="17.978959330799">
        <ele>52.2</ele>
        <time>2018-03-31T11:31:20Z</time>
      </trkpt>
      <trkpt lat="62.641382906529" lon="17.978977519522">
        <ele>52.4</ele>
        <time>2018-03-31T11:31:21Z</time>
      </trkpt>
      <trkpt lat="62.641362622331" lon="17.97897936354">
        <ele>52.6</ele>
        <time>2018-03-31T11:31:22Z</time>
      </trkpt>
      <trkpt lat="62.641338733916" lon="17.978982381024">
        <ele>52.8</ele>
        <time>2018-03-31T11:31:23Z</time>
      </trkpt>
      <trkpt lat="62.641327083075" lon="17.978984141223">
        <ele>53</ele>
        <time>2018-03-31T11:31:24Z</time>
      </trkpt>
      <trkpt lat="62.641298752253" lon="17.978982967757">
        <ele>53.4</ele>
        <time>2018-03-31T11:31:25Z</time>
      </trkpt>
      <trkpt lat="62.641277881322" lon="17.978993696589">
        <ele>53.6</ele>
        <time>2018-03-31T11:31:26Z</time>
      </trkpt>
      <trkpt lat="62.64125625602" lon="17.978999228643">
        <ele>53.6</ele>
        <time>2018-03-31T11:31:27Z</time>
      </trkpt>
      <trkpt lat="62.641233792528" lon="17.979009286923">
        <ele>54</ele>
        <time>2018-03-31T11:31:28Z</time>
      </trkpt>
      <trkpt lat="62.641208646828" lon="17.979023619972">
        <ele>54</ele>
        <time>2018-03-31T11:31:29Z</time>
      </trkpt>
      <trkpt lat="62.641195319607" lon="17.9790581534">
        <ele>54</ele>
        <time>2018-03-31T11:31:30Z</time>
      </trkpt>
      <trkpt lat="62.641172856115" lon="17.979075839209">
        <ele>54.2</ele>
        <time>2018-03-31T11:31:31Z</time>
      </trkpt>
      <trkpt lat="62.641158020152" lon="17.979105594954">
        <ele>54.4</ele>
        <time>2018-03-31T11:31:32Z</time>
      </trkpt>
      <trkpt lat="62.641146788406" lon="17.979146247169">
        <ele>54.6</ele>
        <time>2018-03-31T11:31:33Z</time>
      </trkpt>
      <trkpt lat="62.641139244696" lon="17.979193018171">
        <ele>55</ele>
        <time>2018-03-31T11:31:34Z</time>
      </trkpt>
      <trkpt lat="62.641124408733" lon="17.97923668787">
        <ele>55</ele>
        <time>2018-03-31T11:31:35Z</time>
      </trkpt>
      <trkpt lat="62.641125582199" lon="17.979301815233">
        <ele>55.2</ele>
        <time>2018-03-31T11:31:36Z</time>
      </trkpt>
      <trkpt lat="62.641110327141" lon="17.979354621203">
        <ele>55.2</ele>
        <time>2018-03-31T11:31:37Z</time>
      </trkpt>
      <trkpt lat="62.641111416788" lon="17.979416982539">
        <ele>55.4</ele>
        <time>2018-03-31T11:31:38Z</time>
      </trkpt>
      <trkpt lat="62.641110243322" lon="17.979450007225">
        <ele>55.4</ele>
        <time>2018-03-31T11:31:39Z</time>
      </trkpt>
      <trkpt lat="62.641104292173" lon="17.979519241719">
        <ele>55.4</ele>
        <time>2018-03-31T11:31:40Z</time>
      </trkpt>
      <trkpt lat="62.641102783431" lon="17.979554110423">
        <ele>55.2</ele>
        <time>2018-03-31T11:31:41Z</time>
      </trkpt>
      <trkpt lat="62.641092138418" lon="17.979608089859">
        <ele>55.2</ele>
        <time>2018-03-31T11:31:42Z</time>
      </trkpt>
      <trkpt lat="62.641099682128" lon="17.979655531413">
        <ele>55.4</ele>
        <time>2018-03-31T11:31:43Z</time>
      </trkpt>
      <trkpt lat="62.641085600536" lon="17.979701967139">
        <ele>55.4</ele>
        <time>2018-03-31T11:31:44Z</time>
      </trkpt>
      <trkpt lat="62.641088198925" lon="17.979756449489">
        <ele>55.4</ele>
        <time>2018-03-31T11:31:45Z</time>
      </trkpt>
      <trkpt lat="62.641079984663" lon="17.979811602391">
        <ele>55.4</ele>
        <time>2018-03-31T11:31:46Z</time>
      </trkpt>
      <trkpt lat="62.641073614419" lon="17.979853763348">
        <ele>55.6</ele>
        <time>2018-03-31T11:31:47Z</time>
      </trkpt>
      <trkpt lat="62.641078140645" lon="17.979942192393">
        <ele>55.8</ele>
        <time>2018-03-31T11:31:48Z</time>
      </trkpt>
      <trkpt lat="62.64105760499" lon="17.979990053042">
        <ele>56</ele>
        <time>2018-03-31T11:31:49Z</time>
      </trkpt>
      <trkpt lat="62.641061628302" lon="17.980051492369">
        <ele>56</ele>
        <time>2018-03-31T11:31:50Z</time>
      </trkpt>
      <trkpt lat="62.641041092647" lon="17.980107483461">
        <ele>56.2</ele>
        <time>2018-03-31T11:31:51Z</time>
      </trkpt>
      <trkpt lat="62.641037572249" lon="17.98016791696">
        <ele>56.2</ele>
        <time>2018-03-31T11:31:52Z</time>
      </trkpt>
      <trkpt lat="62.641032794566" lon="17.980212508668">
        <ele>56.2</ele>
        <time>2018-03-31T11:31:53Z</time>
      </trkpt>
      <trkpt lat="62.641038242801" lon="17.980283251904">
        <ele>56.2</ele>
        <time>2018-03-31T11:31:54Z</time>
      </trkpt>
      <trkpt lat="62.641031704919" lon="17.980346786706">
        <ele>56.2</ele>
        <time>2018-03-31T11:31:55Z</time>
      </trkpt>
      <trkpt lat="62.641036063507" lon="17.980407471662">
        <ele>56.2</ele>
        <time>2018-03-31T11:31:56Z</time>
      </trkpt>
      <trkpt lat="62.641043271941" lon="17.980507467729">
        <ele>56.2</ele>
        <time>2018-03-31T11:31:57Z</time>
      </trkpt>
      <trkpt lat="62.641065651614" lon="17.980582653372">
        <ele>56</ele>
        <time>2018-03-31T11:31:58Z</time>
      </trkpt>
      <trkpt lat="62.641068836736" lon="17.980647780735">
        <ele>55.8</ele>
        <time>2018-03-31T11:31:59Z</time>
      </trkpt>
      <trkpt lat="62.641070429297" lon="17.980734952495">
        <ele>55.8</ele>
        <time>2018-03-31T11:32:00Z</time>
      </trkpt>
      <trkpt lat="62.641080739034" lon="17.980814580545">
        <ele>55.8</ele>
        <time>2018-03-31T11:32:01Z</time>
      </trkpt>
      <trkpt lat="62.641085600536" lon="17.980914157517">
        <ele>55.4</ele>
        <time>2018-03-31T11:32:02Z</time>
      </trkpt>
      <trkpt lat="62.641103873078" lon="17.981004933494">
        <ele>55.6</ele>
        <time>2018-03-31T11:32:03Z</time>
      </trkpt>
      <trkpt lat="62.64111963105" lon="17.981090847969">
        <ele>55.4</ele>
        <time>2018-03-31T11:32:04Z</time>
      </trkpt>
      <trkpt lat="62.641137149221" lon="17.981162932309">
        <ele>55.2</ele>
        <time>2018-03-31T11:32:05Z</time>
      </trkpt>
      <trkpt lat="62.641161205274" lon="17.981264856213">
        <ele>54.8</ele>
        <time>2018-03-31T11:32:06Z</time>
      </trkpt>
      <trkpt lat="62.641176292694" lon="17.981347669385">
        <ele>54.6</ele>
        <time>2018-03-31T11:32:07Z</time>
      </trkpt>
      <trkpt lat="62.641176041237" lon="17.981461747044">
        <ele>54</ele>
        <time>2018-03-31T11:32:08Z</time>
      </trkpt>
      <trkpt lat="62.641166485871" lon="17.98155847417">
        <ele>53.4</ele>
        <time>2018-03-31T11:32:09Z</time>
      </trkpt>
      <trkpt lat="62.641168748984" lon="17.981607256828">
        <ele>52.8</ele>
        <time>2018-03-31T11:32:10Z</time>
      </trkpt>
      <trkpt lat="62.641161372912" lon="17.981706330886">
        <ele>52.2</ele>
        <time>2018-03-31T11:32:11Z</time>
      </trkpt>
      <trkpt lat="62.641160283265" lon="17.981789982248">
        <ele>52.2</ele>
        <time>2018-03-31T11:32:12Z</time>
      </trkpt>
      <trkpt lat="62.641160450903" lon="17.981896348559">
        <ele>52</ele>
        <time>2018-03-31T11:32:13Z</time>
      </trkpt>
      <trkpt lat="62.641167156423" lon="17.981995338798">
        <ele>52</ele>
        <time>2018-03-31T11:32:14Z</time>
      </trkpt>
      <trkpt lat="62.641188614087" lon="17.982066836405">
        <ele>52.4</ele>
        <time>2018-03-31T11:32:15Z</time>
      </trkpt>
      <trkpt lat="62.641197163625" lon="17.982141938229">
        <ele>52.4</ele>
        <time>2018-03-31T11:32:16Z</time>
      </trkpt>
      <trkpt lat="62.641204120602" lon="17.982226092505">
        <ele>52.2</ele>
        <time>2018-03-31T11:32:17Z</time>
      </trkpt>
      <trkpt lat="62.641207138086" lon="17.982298931216">
        <ele>52.4</ele>
        <time>2018-03-31T11:32:18Z</time>
      </trkpt>
      <trkpt lat="62.641217950737" lon="17.982367830434">
        <ele>52.4</ele>
        <time>2018-03-31T11:32:19Z</time>
      </trkpt>
      <trkpt lat="62.641214430339" lon="17.982456343298">
        <ele>52.2</ele>
        <time>2018-03-31T11:32:20Z</time>
      </trkpt>
      <trkpt lat="62.641244018446" lon="17.982518034082">
        <ele>52.4</ele>
        <time>2018-03-31T11:32:21Z</time>
      </trkpt>
      <trkpt lat="62.641252316527" lon="17.982590537517">
        <ele>52.4</ele>
        <time>2018-03-31T11:32:22Z</time>
      </trkpt>
      <trkpt lat="62.641265979024" lon="17.982680642942">
        <ele>52.4</ele>
        <time>2018-03-31T11:32:23Z</time>
      </trkpt>
      <trkpt lat="62.641283329557" lon="17.982746943771">
        <ele>52.4</ele>
        <time>2018-03-31T11:32:24Z</time>
      </trkpt>
      <trkpt lat="62.641279390064" lon="17.982837133015">
        <ele>52.4</ele>
        <time>2018-03-31T11:32:25Z</time>
      </trkpt>
      <trkpt lat="62.64126966706" lon="17.982941068575">
        <ele>52.4</ele>
        <time>2018-03-31T11:32:26Z</time>
      </trkpt>
      <trkpt lat="62.641279473883" lon="17.98303285038">
        <ele>52</ele>
        <time>2018-03-31T11:32:27Z</time>
      </trkpt>
      <trkpt lat="62.641281317901" lon="17.983133181723">
        <ele>52</ele>
        <time>2018-03-31T11:32:28Z</time>
      </trkpt>
      <trkpt lat="62.641279809159" lon="17.983227059003">
        <ele>51.6</ele>
        <time>2018-03-31T11:32:29Z</time>
      </trkpt>
      <trkpt lat="62.641280395892" lon="17.983328144717">
        <ele>51.6</ele>
        <time>2018-03-31T11:32:30Z</time>
      </trkpt>
      <trkpt lat="62.641289951258" lon="17.983441384186">
        <ele>51.2</ele>
        <time>2018-03-31T11:32:31Z</time>
      </trkpt>
      <trkpt lat="62.641300847728" lon="17.983551354714">
        <ele>51</ele>
        <time>2018-03-31T11:32:32Z</time>
      </trkpt>
      <trkpt lat="62.641298333158" lon="17.98366568383">
        <ele>50.6</ele>
        <time>2018-03-31T11:32:33Z</time>
      </trkpt>
      <trkpt lat="62.641296824416" lon="17.983791579968">
        <ele>50</ele>
        <time>2018-03-31T11:32:34Z</time>
      </trkpt>
      <trkpt lat="62.64129313638" lon="17.983886463076">
        <ele>49.2</ele>
        <time>2018-03-31T11:32:35Z</time>
      </trkpt>
      <trkpt lat="62.641295399493" lon="17.984029290652">
        <ele>48.6</ele>
        <time>2018-03-31T11:32:36Z</time>
      </trkpt>
      <trkpt lat="62.641288777792" lon="17.984148984184">
        <ele>48</ele>
        <time>2018-03-31T11:32:37Z</time>
      </trkpt>
      <trkpt lat="62.641280731168" lon="17.984255937228">
        <ele>47.6</ele>
        <time>2018-03-31T11:32:38Z</time>
      </trkpt>
      <trkpt lat="62.641275366752" lon="17.984368673783">
        <ele>47.2</ele>
        <time>2018-03-31T11:32:39Z</time>
      </trkpt>
      <trkpt lat="62.641272433087" lon="17.984484679279">
        <ele>47</ele>
        <time>2018-03-31T11:32:40Z</time>
      </trkpt>
      <trkpt lat="62.641270337612" lon="17.984600768594">
        <ele>46.6</ele>
        <time>2018-03-31T11:32:41Z</time>
      </trkpt>
      <trkpt lat="62.64126547611" lon="17.984722138506">
        <ele>46.2</ele>
        <time>2018-03-31T11:32:42Z</time>
      </trkpt>
      <trkpt lat="62.641259273504" lon="17.984837641088">
        <ele>46</ele>
        <time>2018-03-31T11:32:43Z</time>
      </trkpt>
      <trkpt lat="62.641238905487" lon="17.984933949119">
        <ele>45.8</ele>
        <time>2018-03-31T11:32:44Z</time>
      </trkpt>
      <trkpt lat="62.641222560782" lon="17.985024725096">
        <ele>45.8</ele>
        <time>2018-03-31T11:32:45Z</time>
      </trkpt>
      <trkpt lat="62.641212837778" lon="17.98514592737">
        <ele>45.6</ele>
        <time>2018-03-31T11:32:46Z</time>
      </trkpt>
      <trkpt lat="62.641213592149" lon="17.985215748597">
        <ele>45.8</ele>
        <time>2018-03-31T11:32:47Z</time>
      </trkpt>
      <trkpt lat="62.641204372059" lon="17.985312475723">
        <ele>46</ele>
        <time>2018-03-31T11:32:48Z</time>
      </trkpt>
      <trkpt lat="62.641203030955" lon="17.985415070179">
        <ele>46.2</ele>
        <time>2018-03-31T11:32:49Z</time>
      </trkpt>
      <trkpt lat="62.641206216077" lon="17.985503666862">
        <ele>46.4</ele>
        <time>2018-03-31T11:32:50Z</time>
      </trkpt>
      <trkpt lat="62.641189368458" lon="17.985605087852">
        <ele>46.6</ele>
        <time>2018-03-31T11:32:51Z</time>
      </trkpt>
      <trkpt lat="62.641174867771" lon="17.98570835286">
        <ele>46.6</ele>
        <time>2018-03-31T11:32:52Z</time>
      </trkpt>
      <trkpt lat="62.641154918849" lon="17.985795356982">
        <ele>46.4</ele>
        <time>2018-03-31T11:32:53Z</time>
      </trkpt>
      <trkpt lat="62.641141507809" lon="17.985886300597">
        <ele>46</ele>
        <time>2018-03-31T11:32:54Z</time>
      </trkpt>
      <trkpt lat="62.641130946615" lon="17.985950086856">
        <ele>46</ele>
        <time>2018-03-31T11:32:55Z</time>
      </trkpt>
      <trkpt lat="62.641138406506" lon="17.986035079322">
        <ele>46</ele>
        <time>2018-03-31T11:32:56Z</time>
      </trkpt>
      <trkpt lat="62.641120553059" lon="17.98610816949">
        <ele>46</ele>
        <time>2018-03-31T11:32:57Z</time>
      </trkpt>
      <trkpt lat="62.641113176987" lon="17.986196766173">
        <ele>45.8</ele>
        <time>2018-03-31T11:32:58Z</time>
      </trkpt>
      <trkpt lat="62.641110159503" lon="17.986274466386">
        <ele>46.2</ele>
        <time>2018-03-31T11:32:59Z</time>
      </trkpt>
      <trkpt lat="62.641096413187" lon="17.98636549382">
        <ele>46.2</ele>
        <time>2018-03-31T11:33:00Z</time>
      </trkpt>
      <trkpt lat="62.641097419015" lon="17.986453168494">
        <ele>46</ele>
        <time>2018-03-31T11:33:01Z</time>
      </trkpt>
      <trkpt lat="62.641111752064" lon="17.986548973611">
        <ele>46.2</ele>
        <time>2018-03-31T11:33:02Z</time>
      </trkpt>
      <trkpt lat="62.641090629676" lon="17.986645616918">
        <ele>46.2</ele>
        <time>2018-03-31T11:33:03Z</time>
      </trkpt>
      <trkpt lat="62.641073362962" lon="17.98673094466">
        <ele>46</ele>
        <time>2018-03-31T11:33:04Z</time>
      </trkpt>
      <trkpt lat="62.641075709894" lon="17.98679632348">
        <ele>46</ele>
        <time>2018-03-31T11:33:05Z</time>
      </trkpt>
      <trkpt lat="62.641050731832" lon="17.986905120542">
        <ele>46</ele>
        <time>2018-03-31T11:33:06Z</time>
      </trkpt>
      <trkpt lat="62.641036985516" lon="17.986981060556">
        <ele>46</ele>
        <time>2018-03-31T11:33:07Z</time>
      </trkpt>
      <trkpt lat="62.641021059906" lon="17.987061694434">
        <ele>45.8</ele>
        <time>2018-03-31T11:33:08Z</time>
      </trkpt>
      <trkpt lat="62.64101401911" lon="17.987149955841">
        <ele>45.8</ele>
        <time>2018-03-31T11:33:09Z</time>
      </trkpt>
      <trkpt lat="62.641017204232" lon="17.987230422081">
        <ele>45.8</ele>
        <time>2018-03-31T11:33:10Z</time>
      </trkpt>
      <trkpt lat="62.64102240101" lon="17.987295633263">
        <ele>45.8</ele>
        <time>2018-03-31T11:33:11Z</time>
      </trkpt>
      <trkpt lat="62.641011588359" lon="17.987402921583">
        <ele>45.8</ele>
        <time>2018-03-31T11:33:12Z</time>
      </trkpt>
      <trkpt lat="62.641014102929" lon="17.987461930159">
        <ele>45.8</ele>
        <time>2018-03-31T11:33:13Z</time>
      </trkpt>
      <trkpt lat="62.640992561446" lon="17.987556226534">
        <ele>45.8</ele>
        <time>2018-03-31T11:33:14Z</time>
      </trkpt>
      <trkpt lat="62.64097630056" lon="17.987669466003">
        <ele>45.6</ele>
        <time>2018-03-31T11:33:15Z</time>
      </trkpt>
      <trkpt lat="62.640967583384" lon="17.987751357166">
        <ele>45.6</ele>
        <time>2018-03-31T11:33:16Z</time>
      </trkpt>
      <trkpt lat="62.640950987222" lon="17.987840205306">
        <ele>45.4</ele>
        <time>2018-03-31T11:33:17Z</time>
      </trkpt>
      <trkpt lat="62.640943359693" lon="17.987926119781">
        <ele>45.6</ele>
        <time>2018-03-31T11:33:18Z</time>
      </trkpt>
      <trkpt lat="62.640925338608" lon="17.987993342619">
        <ele>45.4</ele>
        <time>2018-03-31T11:33:19Z</time>
      </trkpt>
      <trkpt lat="62.640908490989" lon="17.988075569058">
        <ele>45.4</ele>
        <time>2018-03-31T11:33:20Z</time>
      </trkpt>
      <trkpt lat="62.640894493216" lon="17.988165506845">
        <ele>45.4</ele>
        <time>2018-03-31T11:33:21Z</time>
      </trkpt>
      <trkpt lat="62.64087404138" lon="17.9882447158">
        <ele>45.4</ele>
        <time>2018-03-31T11:33:22Z</time>
      </trkpt>
      <trkpt lat="62.640855936476" lon="17.988324092393">
        <ele>45.4</ele>
        <time>2018-03-31T11:33:23Z</time>
      </trkpt>
      <trkpt lat="62.640849063318" lon="17.988373629422">
        <ele>45.6</ele>
        <time>2018-03-31T11:33:24Z</time>
      </trkpt>
      <trkpt lat="62.640831042233" lon="17.988446635771">
        <ele>45.4</ele>
        <time>2018-03-31T11:33:25Z</time>
      </trkpt>
      <trkpt lat="62.640800783574" lon="17.988520731767">
        <ele>45.6</ele>
        <time>2018-03-31T11:33:26Z</time>
      </trkpt>
      <trkpt lat="62.640782511032" lon="17.988556606299">
        <ele>45.4</ele>
        <time>2018-03-31T11:33:27Z</time>
      </trkpt>
      <trkpt lat="62.640772033657" lon="17.988586864958">
        <ele>45.6</ele>
        <time>2018-03-31T11:33:28Z</time>
      </trkpt>
      <trkpt lat="62.640739511885" lon="17.988629528829">
        <ele>45.4</ele>
        <time>2018-03-31T11:33:29Z</time>
      </trkpt>
      <trkpt lat="62.640720820248" lon="17.988645286801">
        <ele>45.4</ele>
        <time>2018-03-31T11:33:30Z</time>
      </trkpt>
      <trkpt lat="62.64069885967" lon="17.98869566202">
        <ele>45.4</ele>
        <time>2018-03-31T11:33:31Z</time>
      </trkpt>
      <trkpt lat="62.640669774477" lon="17.98873421876">
        <ele>45.6</ele>
        <time>2018-03-31T11:33:32Z</time>
      </trkpt>
      <trkpt lat="62.640651669573" lon="17.988765734704">
        <ele>45.8</ele>
        <time>2018-03-31T11:33:33Z</time>
      </trkpt>
      <trkpt lat="62.640634905773" lon="17.988796999191">
        <ele>46</ele>
        <time>2018-03-31T11:33:34Z</time>
      </trkpt>
      <trkpt lat="62.64062845171" lon="17.988820887606">
        <ele>46.2</ele>
        <time>2018-03-31T11:33:35Z</time>
      </trkpt>
      <trkpt lat="62.640600456164" lon="17.988869586445">
        <ele>46.4</ele>
        <time>2018-03-31T11:33:36Z</time>
      </trkpt>
      <trkpt lat="62.640582099803" lon="17.988931109591">
        <ele>46.6</ele>
        <time>2018-03-31T11:33:37Z</time>
      </trkpt>
      <trkpt lat="62.640562821433" lon="17.988957512576">
        <ele>46.8</ele>
        <time>2018-03-31T11:33:38Z</time>
      </trkpt>
      <trkpt lat="62.640555110085" lon="17.989017862256">
        <ele>46.8</ele>
        <time>2018-03-31T11:33:39Z</time>
      </trkpt>
      <trkpt lat="62.640525438159" lon="17.989057508643">
        <ele>46.8</ele>
        <time>2018-03-31T11:33:40Z</time>
      </trkpt>
      <trkpt lat="62.640510853653" lon="17.989116014305">
        <ele>47</ele>
        <time>2018-03-31T11:33:41Z</time>
      </trkpt>
      <trkpt lat="62.640489731265" lon="17.989151721199">
        <ele>47</ele>
        <time>2018-03-31T11:33:42Z</time>
      </trkpt>
      <trkpt lat="62.640458969692" lon="17.989200336219">
        <ele>47</ele>
        <time>2018-03-31T11:33:43Z</time>
      </trkpt>
      <trkpt lat="62.640451761258" lon="17.989244425013">
        <ele>47.2</ele>
        <time>2018-03-31T11:33:44Z</time>
      </trkpt>
      <trkpt lat="62.640419490943" lon="17.989271833826">
        <ele>47</ele>
        <time>2018-03-31T11:33:45Z</time>
      </trkpt>
      <trkpt lat="62.640399961116" lon="17.98932430452">
        <ele>47.2</ele>
        <time>2018-03-31T11:33:46Z</time>
      </trkpt>
      <trkpt lat="62.64038286204" lon="17.989366297839">
        <ele>47.2</ele>
        <time>2018-03-31T11:33:47Z</time>
      </trkpt>
      <trkpt lat="62.640360063272" lon="17.989429581184">
        <ele>47.4</ele>
        <time>2018-03-31T11:33:48Z</time>
      </trkpt>
      <trkpt lat="62.640351681372" lon="17.989479537308">
        <ele>47.4</ele>
        <time>2018-03-31T11:33:49Z</time>
      </trkpt>
      <trkpt lat="62.640337515961" lon="17.989519435152">
        <ele>47.6</ele>
        <time>2018-03-31T11:33:50Z</time>
      </trkpt>
      <trkpt lat="62.640324104921" lon="17.989561931385">
        <ele>47.6</ele>
        <time>2018-03-31T11:33:51Z</time>
      </trkpt>
      <trkpt lat="62.640310861519" lon="17.989610797862">
        <ele>48</ele>
        <time>2018-03-31T11:33:52Z</time>
      </trkpt>
      <trkpt lat="62.640297450479" lon="17.989659077606">
        <ele>48.2</ele>
        <time>2018-03-31T11:33:53Z</time>
      </trkpt>
      <trkpt lat="62.640281524869" lon="17.989707441169">
        <ele>48.2</ele>
        <time>2018-03-31T11:33:54Z</time>
      </trkpt>
      <trkpt lat="62.640267359458" lon="17.98975597237">
        <ele>48.4</ele>
        <time>2018-03-31T11:33:55Z</time>
      </trkpt>
      <trkpt lat="62.640255038065" lon="17.989805257942">
        <ele>48.4</ele>
        <time>2018-03-31T11:33:56Z</time>
      </trkpt>
      <trkpt lat="62.640246907622" lon="17.989859488835">
        <ele>48.4</ele>
        <time>2018-03-31T11:33:57Z</time>
      </trkpt>
      <trkpt lat="62.640224947044" lon="17.989919670877">
        <ele>48.6</ele>
        <time>2018-03-31T11:33:58Z</time>
      </trkpt>
      <trkpt lat="62.640220672275" lon="17.989977757444">
        <ele>48.8</ele>
        <time>2018-03-31T11:33:59Z</time>
      </trkpt>
      <trkpt lat="62.640196867679" lon="17.990027210654">
        <ele>49</ele>
        <time>2018-03-31T11:34:00Z</time>
      </trkpt>
      <trkpt lat="62.640184713924" lon="17.99008705742">
        <ele>49.2</ele>
        <time>2018-03-31T11:34:01Z</time>
      </trkpt>
      <trkpt lat="62.640172224893" lon="17.990139947209">
        <ele>49.4</ele>
        <time>2018-03-31T11:34:02Z</time>
      </trkpt>
      <trkpt lat="62.640156383102" lon="17.990180683243">
        <ele>49.2</ele>
        <time>2018-03-31T11:34:03Z</time>
      </trkpt>
      <trkpt lat="62.640143055881" lon="17.990232483385">
        <ele>49.4</ele>
        <time>2018-03-31T11:34:04Z</time>
      </trkpt>
      <trkpt lat="62.640121849674" lon="17.990252348488">
        <ele>49.6</ele>
        <time>2018-03-31T11:34:05Z</time>
      </trkpt>
      <trkpt lat="62.640111875213" lon="17.990299622404">
        <ele>49.6</ele>
        <time>2018-03-31T11:34:06Z</time>
      </trkpt>
      <trkpt lat="62.640088154436" lon="17.990344800845">
        <ele>49.8</ele>
        <time>2018-03-31T11:34:07Z</time>
      </trkpt>
      <trkpt lat="62.640072312645" lon="17.990397103901">
        <ele>50</ele>
        <time>2018-03-31T11:34:08Z</time>
      </trkpt>
      <trkpt lat="62.640049765334" lon="17.990431721148">
        <ele>49.8</ele>
        <time>2018-03-31T11:34:09Z</time>
      </trkpt>
      <trkpt lat="62.640033672086" lon="17.990487544602">
        <ele>50</ele>
        <time>2018-03-31T11:34:10Z</time>
      </trkpt>
      <trkpt lat="62.640017662657" lon="17.990530795206">
        <ele>50</ele>
        <time>2018-03-31T11:34:11Z</time>
      </trkpt>
      <trkpt lat="62.640009448395" lon="17.990570273955">
        <ele>50.2</ele>
        <time>2018-03-31T11:34:12Z</time>
      </trkpt>
      <trkpt lat="62.639986565808" lon="17.990615620034">
        <ele>50.4</ele>
        <time>2018-03-31T11:34:13Z</time>
      </trkpt>
      <trkpt lat="62.639975250243" lon="17.990663648321">
        <ele>50.4</ele>
        <time>2018-03-31T11:34:14Z</time>
      </trkpt>
      <trkpt lat="62.639953960217" lon="17.990709245857">
        <ele>50.4</ele>
        <time>2018-03-31T11:34:15Z</time>
      </trkpt>
      <trkpt lat="62.639931580544" lon="17.990751658271">
        <ele>50.4</ele>
        <time>2018-03-31T11:34:16Z</time>
      </trkpt>
      <trkpt lat="62.639916576943" lon="17.990796669074">
        <ele>50.6</ele>
        <time>2018-03-31T11:34:17Z</time>
      </trkpt>
      <trkpt lat="62.639893442899" lon="17.990844026809">
        <ele>50.6</ele>
        <time>2018-03-31T11:34:18Z</time>
      </trkpt>
      <trkpt lat="62.639872488149" lon="17.990885601033">
        <ele>50.8</ele>
        <time>2018-03-31T11:34:19Z</time>
      </trkpt>
      <trkpt lat="62.639861759317" lon="17.990921727022">
        <ele>51</ele>
        <time>2018-03-31T11:34:20Z</time>
      </trkpt>
      <trkpt lat="62.639842145671" lon="17.990975035906">
        <ele>51.2</ele>
        <time>2018-03-31T11:34:21Z</time>
      </trkpt>
      <trkpt lat="62.639832003572" lon="17.991026416953">
        <ele>51.4</ele>
        <time>2018-03-31T11:34:22Z</time>
      </trkpt>
      <trkpt lat="62.639821861473" lon="17.991065057512">
        <ele>51.4</ele>
        <time>2018-03-31T11:34:23Z</time>
      </trkpt>
      <trkpt lat="62.639801493456" lon="17.991115600369">
        <ele>51.6</ele>
        <time>2018-03-31T11:34:24Z</time>
      </trkpt>
      <trkpt lat="62.639792608642" lon="17.99117502804">
        <ele>51.6</ele>
        <time>2018-03-31T11:34:25Z</time>
      </trkpt>
      <trkpt lat="62.639785567846" lon="17.991223391603">
        <ele>51.8</ele>
        <time>2018-03-31T11:34:26Z</time>
      </trkpt>
      <trkpt lat="62.639774419919" lon="17.991288518966">
        <ele>51.8</ele>
        <time>2018-03-31T11:34:27Z</time>
      </trkpt>
      <trkpt lat="62.639775425747" lon="17.991344090963">
        <ele>52</ele>
        <time>2018-03-31T11:34:28Z</time>
      </trkpt>
      <trkpt lat="62.639761930888" lon="17.991392538345">
        <ele>52</ele>
        <time>2018-03-31T11:34:29Z</time>
      </trkpt>
      <trkpt lat="62.639757153205" lon="17.991451295464">
        <ele>52.2</ele>
        <time>2018-03-31T11:34:30Z</time>
      </trkpt>
      <trkpt lat="62.639737958654" lon="17.991499910484">
        <ele>52.2</ele>
        <time>2018-03-31T11:34:31Z</time>
      </trkpt>
      <trkpt lat="62.639745670002" lon="17.991535617378">
        <ele>52.2</ele>
        <time>2018-03-31T11:34:32Z</time>
      </trkpt>
      <trkpt lat="62.639739551215" lon="17.991588088072">
        <ele>52.4</ele>
        <time>2018-03-31T11:34:33Z</time>
      </trkpt>
      <trkpt lat="62.639729744392" lon="17.991642235146">
        <ele>52.4</ele>
        <time>2018-03-31T11:34:34Z</time>
      </trkpt>
      <trkpt lat="62.639720272845" lon="17.991682384447">
        <ele>52.6</ele>
        <time>2018-03-31T11:34:35Z</time>
      </trkpt>
      <trkpt lat="62.639721362492" lon="17.991743739955">
        <ele>52.6</ele>
        <time>2018-03-31T11:34:36Z</time>
      </trkpt>
      <trkpt lat="62.639709292556" lon="17.991792438794">
        <ele>53</ele>
        <time>2018-03-31T11:34:37Z</time>
      </trkpt>
      <trkpt lat="62.639703425226" lon="17.99185899108">
        <ele>53</ele>
        <time>2018-03-31T11:34:38Z</time>
      </trkpt>
      <trkpt lat="62.639695378602" lon="17.99189419506">
        <ele>53.2</ele>
        <time>2018-03-31T11:34:39Z</time>
      </trkpt>
      <trkpt lat="62.63969135529" lon="17.991955215292">
        <ele>53.2</ele>
        <time>2018-03-31T11:34:40Z</time>
      </trkpt>
      <trkpt lat="62.639688673082" lon="17.991996286602">
        <ele>53.4</ele>
        <time>2018-03-31T11:34:41Z</time>
      </trkpt>
      <trkpt lat="62.639666544866" lon="17.99206770039">
        <ele>53.2</ele>
        <time>2018-03-31T11:34:42Z</time>
      </trkpt>
      <trkpt lat="62.63967207692" lon="17.99210793351">
        <ele>53.2</ele>
        <time>2018-03-31T11:34:43Z</time>
      </trkpt>
      <trkpt lat="62.639660845174" lon="17.992164008421">
        <ele>53.2</ele>
        <time>2018-03-31T11:34:44Z</time>
      </trkpt>
      <trkpt lat="62.639648859057" lon="17.992221256798">
        <ele>53.2</ele>
        <time>2018-03-31T11:34:45Z</time>
      </trkpt>
      <trkpt lat="62.639628826316" lon="17.992273392216">
        <ele>53.2</ele>
        <time>2018-03-31T11:34:46Z</time>
      </trkpt>
      <trkpt lat="62.639627149936" lon="17.992313876793">
        <ele>53.4</ele>
        <time>2018-03-31T11:34:47Z</time>
      </trkpt>
      <trkpt lat="62.63960753629" lon="17.992396019413">
        <ele>53.4</ele>
        <time>2018-03-31T11:34:48Z</time>
      </trkpt>
      <trkpt lat="62.63959161068" lon="17.992449831211">
        <ele>53.6</ele>
        <time>2018-03-31T11:34:49Z</time>
      </trkpt>
      <trkpt lat="62.63959077249" lon="17.992498949145">
        <ele>53.8</ele>
        <time>2018-03-31T11:34:50Z</time>
      </trkpt>
      <trkpt lat="62.639582725866" lon="17.992566674897">
        <ele>54</ele>
        <time>2018-03-31T11:34:51Z</time>
      </trkpt>
      <trkpt lat="62.639593454698" lon="17.992627108396">
        <ele>54</ele>
        <time>2018-03-31T11:34:52Z</time>
      </trkpt>
      <trkpt lat="62.639582474409" lon="17.99269131375">
        <ele>54.2</ele>
        <time>2018-03-31T11:34:53Z</time>
      </trkpt>
      <trkpt lat="62.63957987602" lon="17.992747891575">
        <ele>54.2</ele>
        <time>2018-03-31T11:34:54Z</time>
      </trkpt>
      <trkpt lat="62.639571745577" lon="17.992825591788">
        <ele>54.2</ele>
        <time>2018-03-31T11:34:55Z</time>
      </trkpt>
      <trkpt lat="62.639577696726" lon="17.992873536256">
        <ele>54</ele>
        <time>2018-03-31T11:34:56Z</time>
      </trkpt>
      <trkpt lat="62.639568560455" lon="17.992955762695">
        <ele>54</ele>
        <time>2018-03-31T11:34:57Z</time>
      </trkpt>
      <trkpt lat="62.6395731705" lon="17.992982333318">
        <ele>54.2</ele>
        <time>2018-03-31T11:34:58Z</time>
      </trkpt>
      <trkpt lat="62.639562525487" lon="17.993051903088">
        <ele>54.2</ele>
        <time>2018-03-31T11:34:59Z</time>
      </trkpt>
      <trkpt lat="62.639566045885" lon="17.993106888352">
        <ele>54.2</ele>
        <time>2018-03-31T11:35:00Z</time>
      </trkpt>
      <trkpt lat="62.639562190211" lon="17.993150558051">
        <ele>54.2</ele>
        <time>2018-03-31T11:35:01Z</time>
      </trkpt>
      <trkpt lat="62.639563196039" lon="17.993211745921">
        <ele>54.4</ele>
        <time>2018-03-31T11:35:02Z</time>
      </trkpt>
      <trkpt lat="62.63955724489" lon="17.993273688162">
        <ele>54.2</ele>
        <time>2018-03-31T11:35:03Z</time>
      </trkpt>
      <trkpt lat="62.639562525487" lon="17.993318196051">
        <ele>54.4</ele>
        <time>2018-03-31T11:35:04Z</time>
      </trkpt>
      <trkpt lat="62.639557161071" lon="17.993365721424">
        <ele>54.4</ele>
        <time>2018-03-31T11:35:05Z</time>
      </trkpt>
      <trkpt lat="62.639539894357" lon="17.993452641727">
        <ele>54.6</ele>
        <time>2018-03-31T11:35:06Z</time>
      </trkpt>
      <trkpt lat="62.63954383385" lon="17.993496227607">
        <ele>54.8</ele>
        <time>2018-03-31T11:35:07Z</time>
      </trkpt>
      <trkpt lat="62.639521873272" lon="17.993564037178">
        <ele>54.8</ele>
        <time>2018-03-31T11:35:08Z</time>
      </trkpt>
      <trkpt lat="62.639512401725" lon="17.993634361319">
        <ele>54.8</ele>
        <time>2018-03-31T11:35:09Z</time>
      </trkpt>
      <trkpt lat="62.639494799735" lon="17.993689514221">
        <ele>54.8</ele>
        <time>2018-03-31T11:35:10Z</time>
      </trkpt>
      <trkpt lat="62.639478119754" lon="17.993739135069">
        <ele>54.6</ele>
        <time>2018-03-31T11:35:11Z</time>
      </trkpt>
      <trkpt lat="62.639458087013" lon="17.993797808369">
        <ele>54.6</ele>
        <time>2018-03-31T11:35:12Z</time>
      </trkpt>
      <trkpt lat="62.639431767847" lon="17.993830497779">
        <ele>54.6</ele>
        <time>2018-03-31T11:35:13Z</time>
      </trkpt>
      <trkpt lat="62.639416680427" lon="17.993900151368">
        <ele>54.6</ele>
        <time>2018-03-31T11:35:14Z</time>
      </trkpt>
      <trkpt lat="62.639401593007" lon="17.993929236561">
        <ele>54.6</ele>
        <time>2018-03-31T11:35:15Z</time>
      </trkpt>
      <trkpt lat="62.639375944393" lon="17.993980785246">
        <ele>54.6</ele>
        <time>2018-03-31T11:35:16Z</time>
      </trkpt>
      <trkpt lat="62.639358258584" lon="17.99403074137">
        <ele>54.8</ele>
        <time>2018-03-31T11:35:17Z</time>
      </trkpt>
      <trkpt lat="62.639346272467" lon="17.994079607847">
        <ele>55.2</ele>
        <time>2018-03-31T11:35:18Z</time>
      </trkpt>
      <trkpt lat="62.639322970785" lon="17.994120260062">
        <ele>55.4</ele>
        <time>2018-03-31T11:35:19Z</time>
      </trkpt>
      <trkpt lat="62.639307967184" lon="17.994166947245">
        <ele>55.6</ele>
        <time>2018-03-31T11:35:20Z</time>
      </trkpt>
      <trkpt lat="62.639299501465" lon="17.994217238645">
        <ele>56</ele>
        <time>2018-03-31T11:35:21Z</time>
      </trkpt>
      <trkpt lat="62.639273266118" lon="17.99425872905">
        <ele>56.2</ele>
        <time>2018-03-31T11:35:22Z</time>
      </trkpt>
      <trkpt lat="62.639268572254" lon="17.994307763165">
        <ele>56.2</ele>
        <time>2018-03-31T11:35:23Z</time>
      </trkpt>
      <trkpt lat="62.639243845649" lon="17.994353863615">
        <ele>56.2</ele>
        <time>2018-03-31T11:35:24Z</time>
      </trkpt>
      <trkpt lat="62.639238397414" lon="17.994403400644">
        <ele>56.4</ele>
        <time>2018-03-31T11:35:25Z</time>
      </trkpt>
      <trkpt lat="62.639215347189" lon="17.994438688443">
        <ele>56.4</ele>
        <time>2018-03-31T11:35:26Z</time>
      </trkpt>
      <trkpt lat="62.639211659153" lon="17.99449174587">
        <ele>56.4</ele>
        <time>2018-03-31T11:35:27Z</time>
      </trkpt>
      <trkpt lat="62.639194895353" lon="17.994527452764">
        <ele>56.6</ele>
        <time>2018-03-31T11:35:28Z</time>
      </trkpt>
      <trkpt lat="62.639175784621" lon="17.994579169087">
        <ele>56.6</ele>
        <time>2018-03-31T11:35:29Z</time>
      </trkpt>
      <trkpt lat="62.639167989454" lon="17.994627448831">
        <ele>56.8</ele>
        <time>2018-03-31T11:35:30Z</time>
      </trkpt>
      <trkpt lat="62.639136138234" lon="17.994664664467">
        <ele>56.8</ele>
        <time>2018-03-31T11:35:31Z</time>
      </trkpt>
      <trkpt lat="62.639124655031" lon="17.994717554256">
        <ele>57</ele>
        <time>2018-03-31T11:35:32Z</time>
      </trkpt>
      <trkpt lat="62.639096994761" lon="17.994751752408">
        <ele>57</ele>
        <time>2018-03-31T11:35:33Z</time>
      </trkpt>
      <trkpt lat="62.639084086635" lon="17.994801959989">
        <ele>57</ele>
        <time>2018-03-31T11:35:34Z</time>
      </trkpt>
      <trkpt lat="62.639062293695" lon="17.994827943879">
        <ele>57</ele>
        <time>2018-03-31T11:35:35Z</time>
      </trkpt>
      <trkpt lat="62.639048547379" lon="17.994863399316">
        <ele>57.2</ele>
        <time>2018-03-31T11:35:36Z</time>
      </trkpt>
      <trkpt lat="62.639030191018" lon="17.994903716255">
        <ele>57.2</ele>
        <time>2018-03-31T11:35:37Z</time>
      </trkpt>
      <trkpt lat="62.639021892937" lon="17.994930538335">
        <ele>57.2</ele>
        <time>2018-03-31T11:35:38Z</time>
      </trkpt>
      <trkpt lat="62.639002195472" lon="17.9949669996">
        <ele>57.2</ele>
        <time>2018-03-31T11:35:39Z</time>
      </trkpt>
      <trkpt lat="62.638986856595" lon="17.995007903272">
        <ele>57.4</ele>
        <time>2018-03-31T11:35:40Z</time>
      </trkpt>
      <trkpt lat="62.638970176614" lon="17.995036485551">
        <ele>57.6</ele>
        <time>2018-03-31T11:35:41Z</time>
      </trkpt>
      <trkpt lat="62.638944695638" lon="17.995084513838">
        <ele>57.6</ele>
        <time>2018-03-31T11:35:42Z</time>
      </trkpt>
      <trkpt lat="62.638930027313" lon="17.995135894885">
        <ele>58</ele>
        <time>2018-03-31T11:35:43Z</time>
      </trkpt>
      <trkpt lat="62.638906222717" lon="17.995171769417">
        <ele>58.2</ele>
        <time>2018-03-31T11:35:44Z</time>
      </trkpt>
      <trkpt lat="62.638891554392" lon="17.99520839832">
        <ele>58.2</ele>
        <time>2018-03-31T11:35:45Z</time>
      </trkpt>
      <trkpt lat="62.638860373724" lon="17.99524863144">
        <ele>58.4</ele>
        <time>2018-03-31T11:35:46Z</time>
      </trkpt>
      <trkpt lat="62.638840173345" lon="17.995294899528">
        <ele>58.4</ele>
        <time>2018-03-31T11:35:47Z</time>
      </trkpt>
      <trkpt lat="62.638811507247" lon="17.995325074368">
        <ele>58.6</ele>
        <time>2018-03-31T11:35:48Z</time>
      </trkpt>
      <trkpt lat="62.638797341836" lon="17.995369666076">
        <ele>58.6</ele>
        <time>2018-03-31T11:35:49Z</time>
      </trkpt>
      <trkpt lat="62.638769933023" lon="17.995395649966">
        <ele>58.8</ele>
        <time>2018-03-31T11:35:50Z</time>
      </trkpt>
      <trkpt lat="62.638753253042" lon="17.995440241674">
        <ele>58.8</ele>
        <time>2018-03-31T11:35:51Z</time>
      </trkpt>
      <trkpt lat="62.63873665688" lon="17.995479888061">
        <ele>59</ele>
        <time>2018-03-31T11:35:52Z</time>
      </trkpt>
      <trkpt lat="62.638721737098" lon="17.995517522792">
        <ele>59</ele>
        <time>2018-03-31T11:35:53Z</time>
      </trkpt>
      <trkpt lat="62.638701117624" lon="17.995560019025">
        <ele>59</ele>
        <time>2018-03-31T11:35:54Z</time>
      </trkpt>
      <trkpt lat="62.638686533118" lon="17.995607292941">
        <ele>59</ele>
        <time>2018-03-31T11:35:55Z</time>
      </trkpt>
      <trkpt lat="62.638663231436" lon="17.995650040631">
        <ele>59</ele>
        <time>2018-03-31T11:35:56Z</time>
      </trkpt>
      <trkpt lat="62.638639007745" lon="17.995705361171">
        <ele>59</ele>
        <time>2018-03-31T11:35:57Z</time>
      </trkpt>
      <trkpt lat="62.638617969176" lon="17.995741319522">
        <ele>59.2</ele>
        <time>2018-03-31T11:35:58Z</time>
      </trkpt>
      <trkpt lat="62.638599612815" lon="17.995797394433">
        <ele>59.2</ele>
        <time>2018-03-31T11:35:59Z</time>
      </trkpt>
      <trkpt lat="62.638580334445" lon="17.995826395807">
        <ele>59.4</ele>
        <time>2018-03-31T11:36:00Z</time>
      </trkpt>
      <trkpt lat="62.6385589606" lon="17.995867886212">
        <ele>59.4</ele>
        <time>2018-03-31T11:36:01Z</time>
      </trkpt>
      <trkpt lat="62.638549991967" lon="17.99589571412">
        <ele>59.6</ele>
        <time>2018-03-31T11:36:02Z</time>
      </trkpt>
      <trkpt lat="62.638533228167" lon="17.995934438498">
        <ele>59.6</ele>
        <time>2018-03-31T11:36:03Z</time>
      </trkpt>
      <trkpt lat="62.638512524874" lon="17.995978527292">
        <ele>59.8</ele>
        <time>2018-03-31T11:36:04Z</time>
      </trkpt>
      <trkpt lat="62.638505735535" lon="17.996003421535">
        <ele>60</ele>
        <time>2018-03-31T11:36:05Z</time>
      </trkpt>
      <trkpt lat="62.638481763301" lon="17.996047594148">
        <ele>60.2</ele>
        <time>2018-03-31T11:36:06Z</time>
      </trkpt>
      <trkpt lat="62.638466089148" lon="17.99609604153">
        <ele>60.4</ele>
        <time>2018-03-31T11:36:07Z</time>
      </trkpt>
      <trkpt lat="62.638447648968" lon="17.996139208315">
        <ele>60.6</ele>
        <time>2018-03-31T11:36:08Z</time>
      </trkpt>
      <trkpt lat="62.638428957331" lon="17.99617566958">
        <ele>60.6</ele>
        <time>2018-03-31T11:36:09Z</time>
      </trkpt>
      <trkpt lat="62.638415462472" lon="17.996225541885">
        <ele>60.8</ele>
        <time>2018-03-31T11:36:10Z</time>
      </trkpt>
      <trkpt lat="62.63838713165" lon="17.996262757521">
        <ele>61</ele>
        <time>2018-03-31T11:36:11Z</time>
      </trkpt>
      <trkpt lat="62.638374810257" lon="17.996301649537">
        <ele>61</ele>
        <time>2018-03-31T11:36:12Z</time>
      </trkpt>
      <trkpt lat="62.638354274602" lon="17.996332494929">
        <ele>61.2</ele>
        <time>2018-03-31T11:36:13Z</time>
      </trkpt>
      <trkpt lat="62.638338013716" lon="17.996386642003">
        <ele>61.2</ele>
        <time>2018-03-31T11:36:14Z</time>
      </trkpt>
      <trkpt lat="62.638317142785" lon="17.996416649205">
        <ele>61.2</ele>
        <time>2018-03-31T11:36:15Z</time>
      </trkpt>
      <trkpt lat="62.638299708433" lon="17.996472891754">
        <ele>61.2</ele>
        <time>2018-03-31T11:36:16Z</time>
      </trkpt>
      <trkpt lat="62.63828151971" lon="17.99651010739">
        <ele>61.4</ele>
        <time>2018-03-31T11:36:17Z</time>
      </trkpt>
      <trkpt lat="62.638254446173" lon="17.996551430157">
        <ele>61.4</ele>
        <time>2018-03-31T11:36:18Z</time>
      </trkpt>
      <trkpt lat="62.638238101468" lon="17.996604068489">
        <ele>61.4</ele>
        <time>2018-03-31T11:36:19Z</time>
      </trkpt>
      <trkpt lat="62.638215805614" lon="17.996631142026">
        <ele>61.4</ele>
        <time>2018-03-31T11:36:20Z</time>
      </trkpt>
      <trkpt lat="62.638185211679" lon="17.996688474222">
        <ele>61.6</ele>
        <time>2018-03-31T11:36:21Z</time>
      </trkpt>
      <trkpt lat="62.638180433996" lon="17.996722337098">
        <ele>61.8</ele>
        <time>2018-03-31T11:36:22Z</time>
      </trkpt>
      <trkpt lat="62.638158641056" lon="17.996754691232">
        <ele>61.8</ele>
        <time>2018-03-31T11:36:23Z</time>
      </trkpt>
      <trkpt lat="62.638137518668" lon="17.996789476117">
        <ele>62</ele>
        <time>2018-03-31T11:36:24Z</time>
      </trkpt>
      <trkpt lat="62.638118743212" lon="17.996811352876">
        <ele>62.2</ele>
        <time>2018-03-31T11:36:25Z</time>
      </trkpt>
      <trkpt lat="62.638095022435" lon="17.996831385617">
        <ele>62.2</ele>
        <time>2018-03-31T11:36:26Z</time>
      </trkpt>
      <trkpt lat="62.638076749893" lon="17.9968529271">
        <ele>62.4</ele>
        <time>2018-03-31T11:36:27Z</time>
      </trkpt>
      <trkpt lat="62.638062919758" lon="17.9968696909">
        <ele>62.6</ele>
        <time>2018-03-31T11:36:28Z</time>
      </trkpt>
      <trkpt lat="62.638040456266" lon="17.996894752781">
        <ele>62.8</ele>
        <time>2018-03-31T11:36:29Z</time>
      </trkpt>
      <trkpt lat="62.638022602819" lon="17.996937500471">
        <ele>62.8</ele>
        <time>2018-03-31T11:36:30Z</time>
      </trkpt>
      <trkpt lat="62.638005922838" lon="17.996967172397">
        <ele>63</ele>
        <time>2018-03-31T11:36:31Z</time>
      </trkpt>
      <trkpt lat="62.637995277825" lon="17.996995335581">
        <ele>63.2</ele>
        <time>2018-03-31T11:36:32Z</time>
      </trkpt>
      <trkpt lat="62.637985722459" lon="17.997048309189">
        <ele>63.2</ele>
        <time>2018-03-31T11:36:33Z</time>
      </trkpt>
      <trkpt lat="62.637957643094" lon="17.997076220916">
        <ele>63.4</ele>
        <time>2018-03-31T11:36:34Z</time>
      </trkpt>
      <trkpt lat="62.63794959647" lon="17.997113939466">
        <ele>63.4</ele>
        <time>2018-03-31T11:36:35Z</time>
      </trkpt>
      <trkpt lat="62.63792025982" lon="17.997150568369">
        <ele>63.4</ele>
        <time>2018-03-31T11:36:36Z</time>
      </trkpt>
      <trkpt lat="62.637905591495" lon="17.997204883081">
        <ele>63.6</ele>
        <time>2018-03-31T11:36:37Z</time>
      </trkpt>
      <trkpt lat="62.637881870718" lon="17.997238745957">
        <ele>63.6</ele>
        <time>2018-03-31T11:36:38Z</time>
      </trkpt>
      <trkpt lat="62.637873488818" lon="17.997292641574">
        <ele>63.6</ele>
        <time>2018-03-31T11:36:39Z</time>
      </trkpt>
      <trkpt lat="62.637844655082" lon="17.997346453372">
        <ele>63.6</ele>
        <time>2018-03-31T11:36:40Z</time>
      </trkpt>
      <trkpt lat="62.637833842431" lon="17.997401857731">
        <ele>63.8</ele>
        <time>2018-03-31T11:36:41Z</time>
      </trkpt>
      <trkpt lat="62.637811881853" lon="17.997446952353">
        <ele>63.8</ele>
        <time>2018-03-31T11:36:42Z</time>
      </trkpt>
      <trkpt lat="62.637797967899" lon="17.997516103028">
        <ele>63.8</ele>
        <time>2018-03-31T11:36:43Z</time>
      </trkpt>
      <trkpt lat="62.637793776949" lon="17.997571675025">
        <ele>63.8</ele>
        <time>2018-03-31T11:36:44Z</time>
      </trkpt>
      <trkpt lat="62.637781707013" lon="17.997626492651">
        <ele>63.8</ele>
        <time>2018-03-31T11:36:45Z</time>
      </trkpt>
      <trkpt lat="62.637765278489" lon="17.997675442947">
        <ele>64</ele>
        <time>2018-03-31T11:36:46Z</time>
      </trkpt>
      <trkpt lat="62.637759746435" lon="17.997740067396">
        <ele>64</ele>
        <time>2018-03-31T11:36:47Z</time>
      </trkpt>
      <trkpt lat="62.637741222436" lon="17.997790358796">
        <ele>64</ele>
        <time>2018-03-31T11:36:48Z</time>
      </trkpt>
      <trkpt lat="62.637725296826" lon="17.997852217218">
        <ele>64</ele>
        <time>2018-03-31T11:36:49Z</time>
      </trkpt>
      <trkpt lat="62.637700989316" lon="17.997904604093">
        <ele>64.2</ele>
        <time>2018-03-31T11:36:50Z</time>
      </trkpt>
      <trkpt lat="62.637691769226" lon="17.997961768651">
        <ele>64.2</ele>
        <time>2018-03-31T11:36:51Z</time>
      </trkpt>
      <trkpt lat="62.637668299906" lon="17.998009964576">
        <ele>64.4</ele>
        <time>2018-03-31T11:36:52Z</time>
      </trkpt>
      <trkpt lat="62.637646255509" lon="17.998070230437">
        <ele>64.4</ele>
        <time>2018-03-31T11:36:53Z</time>
      </trkpt>
      <trkpt lat="62.637618595239" lon="17.998103590399">
        <ele>64.2</ele>
        <time>2018-03-31T11:36:54Z</time>
      </trkpt>
      <trkpt lat="62.637591605521" lon="17.998152792152">
        <ele>64.2</ele>
        <time>2018-03-31T11:36:55Z</time>
      </trkpt>
      <trkpt lat="62.637566962735" lon="17.998196964765">
        <ele>64.2</ele>
        <time>2018-03-31T11:36:56Z</time>
      </trkpt>
      <trkpt lat="62.637544163967" lon="17.998224122121">
        <ele>64.2</ele>
        <time>2018-03-31T11:36:57Z</time>
      </trkpt>
      <trkpt lat="62.637514911136" lon="17.998257314445">
        <ele>64.4</ele>
        <time>2018-03-31T11:36:58Z</time>
      </trkpt>
      <trkpt lat="62.637497057689" lon="17.998300900325">
        <ele>64.4</ele>
        <time>2018-03-31T11:36:59Z</time>
      </trkpt>
      <trkpt lat="62.637480712984" lon="17.998330404613">
        <ele>64.4</ele>
        <time>2018-03-31T11:37:00Z</time>
      </trkpt>
      <trkpt lat="62.637456489293" lon="17.998388742637">
        <ele>64.6</ele>
        <time>2018-03-31T11:37:01Z</time>
      </trkpt>
      <trkpt lat="62.637436288914" lon="17.9984287243">
        <ele>64.6</ele>
        <time>2018-03-31T11:37:02Z</time>
      </trkpt>
      <trkpt lat="62.637407958092" lon="17.998484380116">
        <ele>64.8</ele>
        <time>2018-03-31T11:37:03Z</time>
      </trkpt>
      <trkpt lat="62.637398738002" lon="17.998535844982">
        <ele>65</ele>
        <time>2018-03-31T11:37:04Z</time>
      </trkpt>
      <trkpt lat="62.63737124537" lon="17.998586136382">
        <ele>65</ele>
        <time>2018-03-31T11:37:05Z</time>
      </trkpt>
      <trkpt lat="62.637358001968" lon="17.998648413899">
        <ele>65.2</ele>
        <time>2018-03-31T11:37:06Z</time>
      </trkpt>
      <trkpt lat="62.637335538476" lon="17.998695771634">
        <ele>65.2</ele>
        <time>2018-03-31T11:37:07Z</time>
      </trkpt>
      <trkpt lat="62.637308800215" lon="17.998748158509">
        <ele>65</ele>
        <time>2018-03-31T11:37:08Z</time>
      </trkpt>
      <trkpt lat="62.637287091094" lon="17.998794845692">
        <ele>65</ele>
        <time>2018-03-31T11:37:09Z</time>
      </trkpt>
      <trkpt lat="62.63726228067" lon="17.998829882034">
        <ele>65</ele>
        <time>2018-03-31T11:37:10Z</time>
      </trkpt>
      <trkpt lat="62.637248450535" lon="17.998857709942">
        <ele>64.8</ele>
        <time>2018-03-31T11:37:11Z</time>
      </trkpt>
      <trkpt lat="62.637216096401" lon="17.99889308156">
        <ele>65.2</ele>
        <time>2018-03-31T11:37:12Z</time>
      </trkpt>
      <trkpt lat="62.637205032293" lon="17.998938595277">
        <ele>65.2</ele>
        <time>2018-03-31T11:37:13Z</time>
      </trkpt>
      <trkpt lat="62.637181311516" lon="17.998976649103">
        <ele>65.4</ele>
        <time>2018-03-31T11:37:14Z</time>
      </trkpt>
      <trkpt lat="62.637155327626" lon="17.999014954386">
        <ele>65.6</ele>
        <time>2018-03-31T11:37:15Z</time>
      </trkpt>
      <trkpt lat="62.637138312369" lon="17.999045799778">
        <ele>65.6</ele>
        <time>2018-03-31T11:37:16Z</time>
      </trkpt>
      <trkpt lat="62.637111741746" lon="17.999070945478">
        <ele>65.6</ele>
        <time>2018-03-31T11:37:17Z</time>
      </trkpt>
      <trkpt lat="62.637089110616" lon="17.999121823611">
        <ele>65.8</ele>
        <time>2018-03-31T11:37:18Z</time>
      </trkpt>
      <trkpt lat="62.637071340988" lon="17.999144706198">
        <ele>66</ele>
        <time>2018-03-31T11:37:19Z</time>
      </trkpt>
      <trkpt lat="62.63705357136" lon="17.99917136064">
        <ele>66</ele>
        <time>2018-03-31T11:37:20Z</time>
      </trkpt>
      <trkpt lat="62.637029682945" lon="17.999205810249">
        <ele>66.2</ele>
        <time>2018-03-31T11:37:21Z</time>
      </trkpt>
      <trkpt lat="62.637009231109" lon="17.999244450808">
        <ele>66.2</ele>
        <time>2018-03-31T11:37:22Z</time>
      </trkpt>
      <trkpt lat="62.636986683798" lon="17.999267417214">
        <ele>66.4</ele>
        <time>2018-03-31T11:37:23Z</time>
      </trkpt>
      <trkpt lat="62.63695131218" lon="17.999305722497">
        <ele>66.6</ele>
        <time>2018-03-31T11:37:24Z</time>
      </trkpt>
      <trkpt lat="62.636933961647" lon="17.999343608685">
        <ele>66.8</ele>
        <time>2018-03-31T11:37:25Z</time>
      </trkpt>
      <trkpt lat="62.636900601685" lon="17.999382081606">
        <ele>67</ele>
        <time>2018-03-31T11:37:26Z</time>
      </trkpt>
      <trkpt lat="62.636885681903" lon="17.999415106292">
        <ele>67.2</ele>
        <time>2018-03-31T11:37:27Z</time>
      </trkpt>
      <trkpt lat="62.636855842339" lon="17.999444945856">
        <ele>67.4</ele>
        <time>2018-03-31T11:37:28Z</time>
      </trkpt>
      <trkpt lat="62.636836983064" lon="17.99948903465">
        <ele>67.4</ele>
        <time>2018-03-31T11:37:29Z</time>
      </trkpt>
      <trkpt lat="62.636817117961" lon="17.999526669381">
        <ele>67.6</ele>
        <time>2018-03-31T11:37:30Z</time>
      </trkpt>
      <trkpt lat="62.636806724405" lon="17.999582995749">
        <ele>67.8</ele>
        <time>2018-03-31T11:37:31Z</time>
      </trkpt>
      <trkpt lat="62.636785937293" lon="17.999638148651">
        <ele>67.8</ele>
        <time>2018-03-31T11:37:32Z</time>
      </trkpt>
      <trkpt lat="62.636756768281" lon="17.99970361129">
        <ele>67.8</ele>
        <time>2018-03-31T11:37:33Z</time>
      </trkpt>
      <trkpt lat="62.636749811304" lon="17.999765721169">
        <ele>68</ele>
        <time>2018-03-31T11:37:34Z</time>
      </trkpt>
      <trkpt lat="62.636731874038" lon="17.999793884353">
        <ele>67.8</ele>
        <time>2018-03-31T11:37:35Z</time>
      </trkpt>
      <trkpt lat="62.636728688916" lon="17.999865046684">
        <ele>67.8</ele>
        <time>2018-03-31T11:37:36Z</time>
      </trkpt>
      <trkpt lat="62.636707985623" lon="17.999901507949">
        <ele>67.8</ele>
        <time>2018-03-31T11:37:37Z</time>
      </trkpt>
      <trkpt lat="62.636690215995" lon="17.99997015571">
        <ele>67.6</ele>
        <time>2018-03-31T11:37:38Z</time>
      </trkpt>
      <trkpt lat="62.636677559326" lon="18.000013993047">
        <ele>67.8</ele>
        <time>2018-03-31T11:37:39Z</time>
      </trkpt>
      <trkpt lat="62.636648306495" lon="18.000069397406">
        <ele>67.6</ele>
        <time>2018-03-31T11:37:40Z</time>
      </trkpt>
      <trkpt lat="62.636625843003" lon="18.00011851534">
        <ele>67.8</ele>
        <time>2018-03-31T11:37:41Z</time>
      </trkpt>
      <trkpt lat="62.636610336488" lon="18.000160927754">
        <ele>67.8</ele>
        <time>2018-03-31T11:37:42Z</time>
      </trkpt>
      <trkpt lat="62.636593907964" lon="18.000223540547">
        <ele>68</ele>
        <time>2018-03-31T11:37:43Z</time>
      </trkpt>
      <trkpt lat="62.636579742553" lon="18.000295457249">
        <ele>68</ele>
        <time>2018-03-31T11:37:44Z</time>
      </trkpt>
      <trkpt lat="62.636566415332" lon="18.000355806929">
        <ele>68</ele>
        <time>2018-03-31T11:37:45Z</time>
      </trkpt>
      <trkpt lat="62.636560128907" lon="18.000420347559">
        <ele>68</ele>
        <time>2018-03-31T11:37:46Z</time>
      </trkpt>
      <trkpt lat="62.636552417559" lon="18.000491090795">
        <ele>68</ele>
        <time>2018-03-31T11:37:47Z</time>
      </trkpt>
      <trkpt lat="62.636532552456" lon="18.000529396078">
        <ele>68</ele>
        <time>2018-03-31T11:37:48Z</time>
      </trkpt>
      <trkpt lat="62.636519392873" lon="18.000610784327">
        <ele>68</ele>
        <time>2018-03-31T11:37:49Z</time>
      </trkpt>
      <trkpt lat="62.636506317109" lon="18.00065663332">
        <ele>67.8</ele>
        <time>2018-03-31T11:37:50Z</time>
      </trkpt>
      <trkpt lat="62.636474465889" lon="18.00071279205">
        <ele>67.8</ele>
        <time>2018-03-31T11:37:51Z</time>
      </trkpt>
      <trkpt lat="62.636473040966" lon="18.000766520029">
        <ele>67.8</ele>
        <time>2018-03-31T11:37:52Z</time>
      </trkpt>
      <trkpt lat="62.636444291049" lon="18.000811866108">
        <ele>67.8</ele>
        <time>2018-03-31T11:37:53Z</time>
      </trkpt>
      <trkpt lat="62.636426437602" lon="18.000871293779">
        <ele>67.8</ele>
        <time>2018-03-31T11:37:54Z</time>
      </trkpt>
      <trkpt lat="62.636404141748" lon="18.00092233955">
        <ele>68</ele>
        <time>2018-03-31T11:37:55Z</time>
      </trkpt>
      <trkpt lat="62.636367345207" lon="18.000987047818">
        <ele>67.8</ele>
        <time>2018-03-31T11:37:56Z</time>
      </trkpt>
      <trkpt lat="62.636349324122" lon="18.001046559308">
        <ele>67.8</ele>
        <time>2018-03-31T11:37:57Z</time>
      </trkpt>
      <trkpt lat="62.636322753499" lon="18.001090312826">
        <ele>68</ele>
        <time>2018-03-31T11:37:58Z</time>
      </trkpt>
      <trkpt lat="62.636304816233" lon="18.001159714958">
        <ele>68</ele>
        <time>2018-03-31T11:37:59Z</time>
      </trkpt>
      <trkpt lat="62.636287214243" lon="18.00121067691">
        <ele>68.2</ele>
        <time>2018-03-31T11:38:00Z</time>
      </trkpt>
      <trkpt lat="62.636262739095" lon="18.001272535332">
        <ele>68.2</ele>
        <time>2018-03-31T11:38:01Z</time>
      </trkpt>
      <trkpt lat="62.636248992779" lon="18.001320563619">
        <ele>68.2</ele>
        <time>2018-03-31T11:38:02Z</time>
      </trkpt>
      <trkpt lat="62.636223930898" lon="18.00137496215">
        <ele>68</ele>
        <time>2018-03-31T11:38:03Z</time>
      </trkpt>
      <trkpt lat="62.636225355821" lon="18.00145039925">
        <ele>68</ele>
        <time>2018-03-31T11:38:04Z</time>
      </trkpt>
      <trkpt lat="62.636198198465" lon="18.001491219103">
        <ele>68</ele>
        <time>2018-03-31T11:38:05Z</time>
      </trkpt>
      <trkpt lat="62.636168023625" lon="18.001564896004">
        <ele>68</ele>
        <time>2018-03-31T11:38:06Z</time>
      </trkpt>
      <trkpt lat="62.636148409979" lon="18.00160881716">
        <ele>67.8</ele>
        <time>2018-03-31T11:38:07Z</time>
      </trkpt>
      <trkpt lat="62.636117983682" lon="18.001676291455">
        <ele>68</ele>
        <time>2018-03-31T11:38:08Z</time>
      </trkpt>
      <trkpt lat="62.636103734452" lon="18.00172784014">
        <ele>68</ele>
        <time>2018-03-31T11:38:09Z</time>
      </trkpt>
      <trkpt lat="62.63606869811" lon="18.001776622798">
        <ele>68</ele>
        <time>2018-03-31T11:38:10Z</time>
      </trkpt>
      <trkpt lat="62.636045647885" lon="18.001834709365">
        <ele>68.2</ele>
        <time>2018-03-31T11:38:11Z</time>
      </trkpt>
      <trkpt lat="62.63601421576" lon="18.001877708512">
        <ele>68.2</ele>
        <time>2018-03-31T11:38:12Z</time>
      </trkpt>
      <trkpt lat="62.635980520522" lon="18.001930095387">
        <ele>68.2</ele>
        <time>2018-03-31T11:38:13Z</time>
      </trkpt>
      <trkpt lat="62.635959062858" lon="18.00196085696">
        <ele>68.2</ele>
        <time>2018-03-31T11:38:14Z</time>
      </trkpt>
      <trkpt lat="62.635929893846" lon="18.002019697898">
        <ele>68</ele>
        <time>2018-03-31T11:38:15Z</time>
      </trkpt>
      <trkpt lat="62.635904831965" lon="18.002021709554">
        <ele>68</ele>
        <time>2018-03-31T11:38:16Z</time>
      </trkpt>
      <trkpt lat="62.635880440636" lon="18.002104103631">
        <ele>68</ele>
        <time>2018-03-31T11:38:17Z</time>
      </trkpt>
      <trkpt lat="62.635851523081" lon="18.002165459139">
        <ele>68</ele>
        <time>2018-03-31T11:38:18Z</time>
      </trkpt>
      <trkpt lat="62.635823443716" lon="18.002233184891">
        <ele>68</ele>
        <time>2018-03-31T11:38:19Z</time>
      </trkpt>
      <trkpt lat="62.635820342413" lon="18.002301329738">
        <ele>68</ele>
        <time>2018-03-31T11:38:20Z</time>
      </trkpt>
      <trkpt lat="62.635799722939" lon="18.002394285009">
        <ele>68</ele>
        <time>2018-03-31T11:38:21Z</time>
      </trkpt>
      <trkpt lat="62.635789077926" lon="18.002481624407">
        <ele>68.2</ele>
        <time>2018-03-31T11:38:22Z</time>
      </trkpt>
      <trkpt lat="62.635788239736" lon="18.002564772855">
        <ele>68</ele>
        <time>2018-03-31T11:38:23Z</time>
      </trkpt>
      <trkpt lat="62.63576275876" lon="18.002672396451">
        <ele>68</ele>
        <time>2018-03-31T11:38:24Z</time>
      </trkpt>
      <trkpt lat="62.635741636372" lon="18.002769542672">
        <ele>67.6</ele>
        <time>2018-03-31T11:38:25Z</time>
      </trkpt>
      <trkpt lat="62.635709198419" lon="18.002893427154">
        <ele>67.2</ele>
        <time>2018-03-31T11:38:26Z</time>
      </trkpt>
      <trkpt lat="62.635675335543" lon="18.002991243927">
        <ele>66.8</ele>
        <time>2018-03-31T11:38:27Z</time>
      </trkpt>
      <trkpt lat="62.635647256178" lon="18.00310247174">
        <ele>66.2</ele>
        <time>2018-03-31T11:38:28Z</time>
      </trkpt>
      <trkpt lat="62.635649184015" lon="18.003164581619">
        <ele>66.2</ele>
        <time>2018-03-31T11:38:29Z</time>
      </trkpt>
      <trkpt lat="62.63562781017" lon="18.003265164419">
        <ele>66.2</ele>
        <time>2018-03-31T11:38:30Z</time>
      </trkpt>
      <trkpt lat="62.635613896216" lon="18.003355269844">
        <ele>66</ele>
        <time>2018-03-31T11:38:31Z</time>
      </trkpt>
      <trkpt lat="62.635595456036" lon="18.003440765224">
        <ele>66</ele>
        <time>2018-03-31T11:38:32Z</time>
      </trkpt>
      <trkpt lat="62.635566203205" lon="18.003553837055">
        <ele>65.8</ele>
        <time>2018-03-31T11:38:33Z</time>
      </trkpt>
      <trkpt lat="62.63555404945" lon="18.003660957737">
        <ele>65.6</ele>
        <time>2018-03-31T11:38:34Z</time>
      </trkpt>
      <trkpt lat="62.635548517396" lon="18.003749470601">
        <ele>65.4</ele>
        <time>2018-03-31T11:38:35Z</time>
      </trkpt>
      <trkpt lat="62.635521108583" lon="18.003872852169">
        <ele>65</ele>
        <time>2018-03-31T11:38:36Z</time>
      </trkpt>
      <trkpt lat="62.635495795245" lon="18.003978464109">
        <ele>65</ele>
        <time>2018-03-31T11:38:37Z</time>
      </trkpt>
      <trkpt lat="62.635469224622" lon="18.004065887326">
        <ele>65</ele>
        <time>2018-03-31T11:38:38Z</time>
      </trkpt>
      <trkpt lat="62.635445503845" lon="18.004159094054">
        <ele>64.8</ele>
        <time>2018-03-31T11:38:39Z</time>
      </trkpt>
      <trkpt lat="62.635414826091" lon="18.004269651315">
        <ele>64.4</ele>
        <time>2018-03-31T11:38:40Z</time>
      </trkpt>
      <trkpt lat="62.635400576861" lon="18.004354895238">
        <ele>64.4</ele>
        <time>2018-03-31T11:38:41Z</time>
      </trkpt>
      <trkpt lat="62.635365708157" lon="18.004442653731">
        <ele>64.2</ele>
        <time>2018-03-31T11:38:42Z</time>
      </trkpt>
      <trkpt lat="62.635317847508" lon="18.004528819663">
        <ele>64</ele>
        <time>2018-03-31T11:38:43Z</time>
      </trkpt>
      <trkpt lat="62.635290773971" lon="18.004608447713">
        <ele>64.2</ele>
        <time>2018-03-31T11:38:44Z</time>
      </trkpt>
      <trkpt lat="62.635253474516" lon="18.004646836815">
        <ele>64</ele>
        <time>2018-03-31T11:38:45Z</time>
      </trkpt>
      <trkpt lat="62.635207122609" lon="18.004709114332">
        <ele>64</ele>
        <time>2018-03-31T11:38:46Z</time>
      </trkpt>
      <trkpt lat="62.635193543931" lon="18.004752700212">
        <ele>64</ele>
        <time>2018-03-31T11:38:47Z</time>
      </trkpt>
      <trkpt lat="62.635156579752" lon="18.004822102344">
        <ele>63.8</ele>
        <time>2018-03-31T11:38:48Z</time>
      </trkpt>
      <trkpt lat="62.635123387428" lon="18.004874740676">
        <ele>64</ele>
        <time>2018-03-31T11:38:49Z</time>
      </trkpt>
      <trkpt lat="62.635096816805" lon="18.004940035677">
        <ele>64</ele>
        <time>2018-03-31T11:38:50Z</time>
      </trkpt>
      <trkpt lat="62.635068821259" lon="18.004992841647">
        <ele>64</ele>
        <time>2018-03-31T11:38:51Z</time>
      </trkpt>
      <trkpt lat="62.635036634763" lon="18.005062746693">
        <ele>64</ele>
        <time>2018-03-31T11:38:52Z</time>
      </trkpt>
      <trkpt lat="62.635024732465" lon="18.005123096373">
        <ele>64.2</ele>
        <time>2018-03-31T11:38:53Z</time>
      </trkpt>
      <trkpt lat="62.635000089679" lon="18.005177159628">
        <ele>64</ele>
        <time>2018-03-31T11:38:54Z</time>
      </trkpt>
      <trkpt lat="62.634981733318" lon="18.00524069443">
        <ele>64.2</ele>
        <time>2018-03-31T11:38:55Z</time>
      </trkpt>
      <trkpt lat="62.6349631255" lon="18.005303977775">
        <ele>64.2</ele>
        <time>2018-03-31T11:38:56Z</time>
      </trkpt>
      <trkpt lat="62.634933202117" lon="18.005366925844">
        <ele>64.2</ele>
        <time>2018-03-31T11:38:57Z</time>
      </trkpt>
      <trkpt lat="62.634894561558" lon="18.005409338258">
        <ele>64.2</ele>
        <time>2018-03-31T11:38:58Z</time>
      </trkpt>
      <trkpt lat="62.634856507732" lon="18.005444542238">
        <ele>64.2</ele>
        <time>2018-03-31T11:38:59Z</time>
      </trkpt>
      <trkpt lat="62.634826584349" lon="18.005466838092">
        <ele>64.2</ele>
        <time>2018-03-31T11:39:00Z</time>
      </trkpt>
      <trkpt lat="62.634784088116" lon="18.005494582181">
        <ele>64.2</ele>
        <time>2018-03-31T11:39:01Z</time>
      </trkpt>
      <trkpt lat="62.634750476697" lon="18.005518638234">
        <ele>64.2</ele>
        <time>2018-03-31T11:39:02Z</time>
      </trkpt>
      <trkpt lat="62.634730779232" lon="18.005552752567">
        <ele>64.4</ele>
        <time>2018-03-31T11:39:03Z</time>
      </trkpt>
      <trkpt lat="62.634707142274" lon="18.005574461688">
        <ele>64.4</ele>
        <time>2018-03-31T11:39:04Z</time>
      </trkpt>
      <trkpt lat="62.634689372646" lon="18.0056036307">
        <ele>64.6</ele>
        <time>2018-03-31T11:39:05Z</time>
      </trkpt>
      <trkpt lat="62.63466640624" lon="18.005645624019">
        <ele>64.8</ele>
        <time>2018-03-31T11:39:06Z</time>
      </trkpt>
      <trkpt lat="62.634647044051" lon="18.005693736125">
        <ele>64.8</ele>
        <time>2018-03-31T11:39:07Z</time>
      </trkpt>
      <trkpt lat="62.634633549192" lon="18.005726509354">
        <ele>65</ele>
        <time>2018-03-31T11:39:08Z</time>
      </trkpt>
      <trkpt lat="62.634612426804" lon="18.005769424682">
        <ele>65</ele>
        <time>2018-03-31T11:39:09Z</time>
      </trkpt>
      <trkpt lat="62.634591555873" lon="18.005813513476">
        <ele>65.2</ele>
        <time>2018-03-31T11:39:10Z</time>
      </trkpt>
      <trkpt lat="62.634579485937" lon="18.00585927865">
        <ele>65.4</ele>
        <time>2018-03-31T11:39:11Z</time>
      </trkpt>
      <trkpt lat="62.634543779043" lon="18.005919795968">
        <ele>65.4</ele>
        <time>2018-03-31T11:39:12Z</time>
      </trkpt>
      <trkpt lat="62.634526260872" lon="18.005975116508">
        <ele>65.6</ele>
        <time>2018-03-31T11:39:13Z</time>
      </trkpt>
      <trkpt lat="62.634509413253" lon="18.006025491727">
        <ele>65.8</ele>
        <time>2018-03-31T11:39:14Z</time>
      </trkpt>
      <trkpt lat="62.634485776295" lon="18.006068909969">
        <ele>65.8</ele>
        <time>2018-03-31T11:39:15Z</time>
      </trkpt>
      <trkpt lat="62.634466749382" lon="18.006165888552">
        <ele>65.8</ele>
        <time>2018-03-31T11:39:16Z</time>
      </trkpt>
      <trkpt lat="62.634444202071" lon="18.006210396441">
        <ele>65.8</ele>
        <time>2018-03-31T11:39:17Z</time>
      </trkpt>
      <trkpt lat="62.634417212353" lon="18.006284576256">
        <ele>65.8</ele>
        <time>2018-03-31T11:39:18Z</time>
      </trkpt>
      <trkpt lat="62.63441159648" lon="18.006334029466">
        <ele>65.8</ele>
        <time>2018-03-31T11:39:19Z</time>
      </trkpt>
      <trkpt lat="62.634389468264" lon="18.006370993645">
        <ele>65.8</ele>
        <time>2018-03-31T11:39:20Z</time>
      </trkpt>
      <trkpt lat="62.634369100247" lon="18.006411059127">
        <ele>65.8</ele>
        <time>2018-03-31T11:39:21Z</time>
      </trkpt>
      <trkpt lat="62.6343512468" lon="18.006475935033">
        <ele>65.8</ele>
        <time>2018-03-31T11:39:22Z</time>
      </trkpt>
      <trkpt lat="62.634323335073" lon="18.006529076279">
        <ele>65.8</ele>
        <time>2018-03-31T11:39:23Z</time>
      </trkpt>
      <trkpt lat="62.634304475798" lon="18.006569057942">
        <ele>65.8</ele>
        <time>2018-03-31T11:39:24Z</time>
      </trkpt>
      <trkpt lat="62.634283101953" lon="18.006618594971">
        <ele>65.8</ele>
        <time>2018-03-31T11:39:25Z</time>
      </trkpt>
      <trkpt lat="62.634255357864" lon="18.006673077321">
        <ele>65.8</ele>
        <time>2018-03-31T11:39:26Z</time>
      </trkpt>
      <trkpt lat="62.634232642915" lon="18.006729236051">
        <ele>65.8</ele>
        <time>2018-03-31T11:39:27Z</time>
      </trkpt>
      <trkpt lat="62.634217639314" lon="18.006779527451">
        <ele>65.8</ele>
        <time>2018-03-31T11:39:28Z</time>
      </trkpt>
      <trkpt lat="62.634190565777" lon="18.006838033113">
        <ele>65.8</ele>
        <time>2018-03-31T11:39:29Z</time>
      </trkpt>
      <trkpt lat="62.634172796149" lon="18.006903914847">
        <ele>65.8</ele>
        <time>2018-03-31T11:39:30Z</time>
      </trkpt>
      <trkpt lat="62.634159217471" lon="18.006964180708">
        <ele>65.8</ele>
        <time>2018-03-31T11:39:31Z</time>
      </trkpt>
      <trkpt lat="62.634139268549" lon="18.00703023008">
        <ele>65.8</ele>
        <time>2018-03-31T11:39:32Z</time>
      </trkpt>
      <trkpt lat="62.634122337111" lon="18.007100302764">
        <ele>66</ele>
        <time>2018-03-31T11:39:33Z</time>
      </trkpt>
      <trkpt lat="62.634111105365" lon="18.007156042399">
        <ele>65.8</ele>
        <time>2018-03-31T11:39:34Z</time>
      </trkpt>
      <trkpt lat="62.634091324081" lon="18.007210943844">
        <ele>66</ele>
        <time>2018-03-31T11:39:35Z</time>
      </trkpt>
      <trkpt lat="62.634066597476" lon="18.007283531098">
        <ele>66</ele>
        <time>2018-03-31T11:39:36Z</time>
      </trkpt>
      <trkpt lat="62.634047738201" lon="18.007337510534">
        <ele>66</ele>
        <time>2018-03-31T11:39:37Z</time>
      </trkpt>
      <trkpt lat="62.63401429442" lon="18.007392076703">
        <ele>65.8</ele>
        <time>2018-03-31T11:39:38Z</time>
      </trkpt>
      <trkpt lat="62.634010857841" lon="18.007449744175">
        <ele>66</ele>
        <time>2018-03-31T11:39:39Z</time>
      </trkpt>
      <trkpt lat="62.633974564214" lon="18.00747447078">
        <ele>65.8</ele>
        <time>2018-03-31T11:39:40Z</time>
      </trkpt>
      <trkpt lat="62.633938102949" lon="18.007493832969">
        <ele>65.8</ele>
        <time>2018-03-31T11:39:41Z</time>
      </trkpt>
      <trkpt lat="62.633894600888" lon="18.007486540716">
        <ele>65.6</ele>
        <time>2018-03-31T11:39:42Z</time>
      </trkpt>
      <trkpt lat="62.633866521523" lon="18.007493162417">
        <ele>65.6</ele>
        <time>2018-03-31T11:39:43Z</time>
      </trkpt>
      <trkpt lat="62.633824360566" lon="18.007464244862">
        <ele>65.6</ele>
        <time>2018-03-31T11:39:44Z</time>
      </trkpt>
      <trkpt lat="62.633792928441" lon="18.007443625388">
        <ele>65.8</ele>
        <time>2018-03-31T11:39:45Z</time>
      </trkpt>
      <trkpt lat="62.633767782741" lon="18.007432058366">
        <ele>65.8</ele>
        <time>2018-03-31T11:39:46Z</time>
      </trkpt>
      <trkpt lat="62.633750432208" lon="18.00741579748">
        <ele>65.6</ele>
        <time>2018-03-31T11:39:47Z</time>
      </trkpt>
      <trkpt lat="62.6337142224" lon="18.007388556305">
        <ele>65.8</ele>
        <time>2018-03-31T11:39:48Z</time>
      </trkpt>
      <trkpt lat="62.633689579614" lon="18.007372295419">
        <ele>66</ele>
        <time>2018-03-31T11:39:49Z</time>
      </trkpt>
      <trkpt lat="62.633668373407" lon="18.007355783076">
        <ele>66</ele>
        <time>2018-03-31T11:39:50Z</time>
      </trkpt>
      <trkpt lat="62.633637192739" lon="18.007331727023">
        <ele>66.2</ele>
        <time>2018-03-31T11:39:51Z</time>
      </trkpt>
      <trkpt lat="62.633610705935" lon="18.00730012726">
        <ele>66.4</ele>
        <time>2018-03-31T11:39:52Z</time>
      </trkpt>
      <trkpt lat="62.633580279638" lon="18.007286464763">
        <ele>66.6</ele>
        <time>2018-03-31T11:39:53Z</time>
      </trkpt>
      <trkpt lat="62.633552367911" lon="18.007255032638">
        <ele>66.6</ele>
        <time>2018-03-31T11:39:54Z</time>
      </trkpt>
      <trkpt lat="62.63352395327" lon="18.007223097599">
        <ele>66.8</ele>
        <time>2018-03-31T11:39:55Z</time>
      </trkpt>
      <trkpt lat="62.633499394303" lon="18.00719283894">
        <ele>67</ele>
        <time>2018-03-31T11:39:56Z</time>
      </trkpt>
      <trkpt lat="62.633478942467" lon="18.007159981892">
        <ele>67.2</ele>
        <time>2018-03-31T11:39:57Z</time>
      </trkpt>
      <trkpt lat="62.633449019084" lon="18.007105164266">
        <ele>67.2</ele>
        <time>2018-03-31T11:39:58Z</time>
      </trkpt>
      <trkpt lat="62.633432255284" lon="18.007056046332">
        <ele>67.2</ele>
        <time>2018-03-31T11:39:59Z</time>
      </trkpt>
      <trkpt lat="62.633412809276" lon="18.00700927533">
        <ele>67.2</ele>
        <time>2018-03-31T11:40:00Z</time>
      </trkpt>
      <trkpt lat="62.633390178146" lon="18.006952362229">
        <ele>67.4</ele>
        <time>2018-03-31T11:40:01Z</time>
      </trkpt>
      <trkpt lat="62.633399482055" lon="18.006900981182">
        <ele>67.4</ele>
        <time>2018-03-31T11:40:02Z</time>
      </trkpt>
      <trkpt lat="62.633384981368" lon="18.006848594307">
        <ele>67.4</ele>
        <time>2018-03-31T11:40:03Z</time>
      </trkpt>
      <trkpt lat="62.633377521477" lon="18.006785059505">
        <ele>67.6</ele>
        <time>2018-03-31T11:40:04Z</time>
      </trkpt>
      <trkpt lat="62.633382131522" lon="18.00673853996">
        <ele>67.6</ele>
        <time>2018-03-31T11:40:05Z</time>
      </trkpt>
      <trkpt lat="62.633375174545" lon="18.006675005158">
        <ele>67.8</ele>
        <time>2018-03-31T11:40:06Z</time>
      </trkpt>
      <trkpt lat="62.633366541188" lon="18.006618511152">
        <ele>68</ele>
        <time>2018-03-31T11:40:07Z</time>
      </trkpt>
      <trkpt lat="62.633364026618" lon="18.006575428186">
        <ele>68.2</ele>
        <time>2018-03-31T11:40:08Z</time>
      </trkpt>
      <trkpt lat="62.633360003306" lon="18.006535195066">
        <ele>68.4</ele>
        <time>2018-03-31T11:40:09Z</time>
      </trkpt>
      <trkpt lat="62.633352291958" lon="18.006473169006">
        <ele>68.4</ele>
        <time>2018-03-31T11:40:10Z</time>
      </trkpt>
      <trkpt lat="62.633342485135" lon="18.006417345552">
        <ele>68.6</ele>
        <time>2018-03-31T11:40:11Z</time>
      </trkpt>
      <trkpt lat="62.633339802927" lon="18.006358169338">
        <ele>68.8</ele>
        <time>2018-03-31T11:40:12Z</time>
      </trkpt>
      <trkpt lat="62.633336701624" lon="18.006309638137">
        <ele>69</ele>
        <time>2018-03-31T11:40:13Z</time>
      </trkpt>
      <trkpt lat="62.633336366348" lon="18.00625322795">
        <ele>69</ele>
        <time>2018-03-31T11:40:14Z</time>
      </trkpt>
      <trkpt lat="62.633336366348" lon="18.006214084477">
        <ele>69.2</ele>
        <time>2018-03-31T11:40:15Z</time>
      </trkpt>
      <trkpt lat="62.633329912285" lon="18.00617779085">
        <ele>69.4</ele>
        <time>2018-03-31T11:40:16Z</time>
      </trkpt>
      <trkpt lat="62.633327984448" lon="18.006130684572">
        <ele>69.4</ele>
        <time>2018-03-31T11:40:17Z</time>
      </trkpt>
      <trkpt lat="62.633332510674" lon="18.006082823923">
        <ele>69.6</ele>
        <time>2018-03-31T11:40:18Z</time>
      </trkpt>
      <trkpt lat="62.633333265045" lon="18.006026497555">
        <ele>69.8</ele>
        <time>2018-03-31T11:40:19Z</time>
      </trkpt>
      <trkpt lat="62.633325553697" lon="18.005987186444">
        <ele>70</ele>
        <time>2018-03-31T11:40:20Z</time>
      </trkpt>
      <trkpt lat="62.633318931996" lon="18.005952066283">
        <ele>70.2</ele>
        <time>2018-03-31T11:40:21Z</time>
      </trkpt>
      <trkpt lat="62.633322452394" lon="18.005938319967">
        <ele>70.6</ele>
        <time>2018-03-31T11:40:22Z</time>
      </trkpt>
      <trkpt lat="62.633322871489" lon="18.005922561995">
        <ele>70.8</ele>
        <time>2018-03-31T11:40:23Z</time>
      </trkpt>
      <trkpt lat="62.633326727163" lon="18.005898338304">
        <ele>71</ele>
        <time>2018-03-31T11:40:24Z</time>
      </trkpt>
      <trkpt lat="62.633323877317" lon="18.00588945349">
        <ele>71.4</ele>
        <time>2018-03-31T11:40:25Z</time>
      </trkpt>
      <trkpt lat="62.633327984448" lon="18.005877132097">
        <ele>71.4</ele>
        <time>2018-03-31T11:40:26Z</time>
      </trkpt>
      <trkpt lat="62.633321278928" lon="18.005850980569">
        <ele>71.6</ele>
        <time>2018-03-31T11:40:27Z</time>
      </trkpt>
      <trkpt lat="62.633318931996" lon="18.005831702199">
        <ele>72</ele>
        <time>2018-03-31T11:40:28Z</time>
      </trkpt>
      <trkpt lat="62.633314657227" lon="18.005823571756">
        <ele>72.2</ele>
        <time>2018-03-31T11:40:29Z</time>
      </trkpt>
      <trkpt lat="62.6333118912" lon="18.005814603123">
        <ele>72.4</ele>
        <time>2018-03-31T11:40:30Z</time>
      </trkpt>
      <trkpt lat="62.633307951707" lon="18.005787361948">
        <ele>72.6</ele>
        <time>2018-03-31T11:40:31Z</time>
      </trkpt>
      <trkpt lat="62.633307197336" lon="18.005765485189">
        <ele>72.8</ele>
        <time>2018-03-31T11:40:32Z</time>
      </trkpt>
      <trkpt lat="62.633301665282" lon="18.005747464104">
        <ele>73</ele>
        <time>2018-03-31T11:40:33Z</time>
      </trkpt>
      <trkpt lat="62.633298815436" lon="18.005732209046">
        <ele>73.2</ele>
        <time>2018-03-31T11:40:34Z</time>
      </trkpt>
      <trkpt lat="62.633298983074" lon="18.005727012268">
        <ele>73.4</ele>
        <time>2018-03-31T11:40:35Z</time>
      </trkpt>
      <trkpt lat="62.633298396341" lon="18.005699938731">
        <ele>73.6</ele>
        <time>2018-03-31T11:40:36Z</time>
      </trkpt>
      <trkpt lat="62.633297893427" lon="18.005678145791">
        <ele>73.6</ele>
        <time>2018-03-31T11:40:37Z</time>
      </trkpt>
      <trkpt lat="62.633297977246" lon="18.005649312055">
        <ele>74</ele>
        <time>2018-03-31T11:40:38Z</time>
      </trkpt>
      <trkpt lat="62.633296217047" lon="18.005635733377">
        <ele>74.2</ele>
        <time>2018-03-31T11:40:39Z</time>
      </trkpt>
      <trkpt lat="62.633298647798" lon="18.005620226862">
        <ele>74.4</ele>
        <time>2018-03-31T11:40:40Z</time>
      </trkpt>
      <trkpt lat="62.63330015654" lon="18.005610252401">
        <ele>74.6</ele>
        <time>2018-03-31T11:40:41Z</time>
      </trkpt>
      <trkpt lat="62.633300659454" lon="18.005586699262">
        <ele>75.2</ele>
        <time>2018-03-31T11:40:42Z</time>
      </trkpt>
      <trkpt lat="62.633302000558" lon="18.005565241598">
        <ele>75.4</ele>
        <time>2018-03-31T11:40:43Z</time>
      </trkpt>
      <trkpt lat="62.633304431309" lon="18.005547639608">
        <ele>75.6</ele>
        <time>2018-03-31T11:40:44Z</time>
      </trkpt>
      <trkpt lat="62.633306610603" lon="18.005529450885">
        <ele>75.8</ele>
        <time>2018-03-31T11:40:45Z</time>
      </trkpt>
      <trkpt lat="62.633303425481" lon="18.005508244678">
        <ele>76</ele>
        <time>2018-03-31T11:40:46Z</time>
      </trkpt>
      <trkpt lat="62.633302419653" lon="18.005497515846">
        <ele>76.2</ele>
        <time>2018-03-31T11:40:47Z</time>
      </trkpt>
      <trkpt lat="62.633306191508" lon="18.005483098978">
        <ele>76.4</ele>
        <time>2018-03-31T11:40:48Z</time>
      </trkpt>
      <trkpt lat="62.633307951707" lon="18.005459964934">
        <ele>76.6</ele>
        <time>2018-03-31T11:40:49Z</time>
      </trkpt>
      <trkpt lat="62.633307281155" lon="18.005442782039">
        <ele>76.8</ele>
        <time>2018-03-31T11:40:50Z</time>
      </trkpt>
      <trkpt lat="62.633308203164" lon="18.005416127597">
        <ele>77</ele>
        <time>2018-03-31T11:40:51Z</time>
      </trkpt>
      <trkpt lat="62.633306359146" lon="18.005396262494">
        <ele>77</ele>
        <time>2018-03-31T11:40:52Z</time>
      </trkpt>
      <trkpt lat="62.633305856232" lon="18.005380420703">
        <ele>77.4</ele>
        <time>2018-03-31T11:40:53Z</time>
      </trkpt>
      <trkpt lat="62.633303174024" lon="18.005365500921">
        <ele>77.4</ele>
        <time>2018-03-31T11:40:54Z</time>
      </trkpt>
      <trkpt lat="62.633301581463" lon="18.005350245863">
        <ele>77.6</ele>
        <time>2018-03-31T11:40:55Z</time>
      </trkpt>
      <trkpt lat="62.633303090205" lon="18.005327782371">
        <ele>77.8</ele>
        <time>2018-03-31T11:40:56Z</time>
      </trkpt>
      <trkpt lat="62.633303006386" lon="18.005302804309">
        <ele>77.8</ele>
        <time>2018-03-31T11:40:57Z</time>
      </trkpt>
      <trkpt lat="62.633301497644" lon="18.005269109071">
        <ele>78</ele>
        <time>2018-03-31T11:40:58Z</time>
      </trkpt>
      <trkpt lat="62.633296719961" lon="18.005251423262">
        <ele>78.2</ele>
        <time>2018-03-31T11:40:59Z</time>
      </trkpt>
      <trkpt lat="62.633296468504" lon="18.005227199571">
        <ele>78.2</ele>
        <time>2018-03-31T11:41:00Z</time>
      </trkpt>
      <trkpt lat="62.633295043581" lon="18.005200712767">
        <ele>78.4</ele>
        <time>2018-03-31T11:41:01Z</time>
      </trkpt>
      <trkpt lat="62.633293618658" lon="18.005182691682">
        <ele>78.4</ele>
        <time>2018-03-31T11:41:02Z</time>
      </trkpt>
      <trkpt lat="62.633296971418" lon="18.005166766072">
        <ele>78.8</ele>
        <time>2018-03-31T11:41:03Z</time>
      </trkpt>
      <trkpt lat="62.633296552323" lon="18.005145559865">
        <ele>78.8</ele>
        <time>2018-03-31T11:41:04Z</time>
      </trkpt>
      <trkpt lat="62.633296133228" lon="18.005131394454">
        <ele>79</ele>
        <time>2018-03-31T11:41:05Z</time>
      </trkpt>
      <trkpt lat="62.633293953934" lon="18.005098453587">
        <ele>79.2</ele>
        <time>2018-03-31T11:41:06Z</time>
      </trkpt>
      <trkpt lat="62.633288673337" lon="18.005080097226">
        <ele>79.4</ele>
        <time>2018-03-31T11:41:07Z</time>
      </trkpt>
      <trkpt lat="62.633288673337" lon="18.005066518548">
        <ele>79.8</ele>
        <time>2018-03-31T11:41:08Z</time>
      </trkpt>
      <trkpt lat="62.63328758369" lon="18.005053610422">
        <ele>80</ele>
        <time>2018-03-31T11:41:09Z</time>
      </trkpt>
      <trkpt lat="62.633283728016" lon="18.005035170242">
        <ele>80.4</ele>
        <time>2018-03-31T11:41:10Z</time>
      </trkpt>
      <trkpt lat="62.633280961989" lon="18.00502108865">
        <ele>80.4</ele>
        <time>2018-03-31T11:41:11Z</time>
      </trkpt>
      <trkpt lat="62.633280207618" lon="18.004999798624">
        <ele>80.8</ele>
        <time>2018-03-31T11:41:12Z</time>
      </trkpt>
      <trkpt lat="62.633275932849" lon="18.004982112815">
        <ele>80.8</ele>
        <time>2018-03-31T11:41:13Z</time>
      </trkpt>
      <trkpt lat="62.633267802406" lon="18.00496325354">
        <ele>81</ele>
        <time>2018-03-31T11:41:14Z</time>
      </trkpt>
      <trkpt lat="62.633259755782" lon="18.0049498425">
        <ele>81</ele>
        <time>2018-03-31T11:41:15Z</time>
      </trkpt>
      <trkpt lat="62.633252631167" lon="18.004930312673">
        <ele>81.2</ele>
        <time>2018-03-31T11:41:16Z</time>
      </trkpt>
      <trkpt lat="62.633244752181" lon="18.00491966766">
        <ele>81.4</ele>
        <time>2018-03-31T11:41:17Z</time>
      </trkpt>
      <trkpt lat="62.633238214299" lon="18.004909525561">
        <ele>81.4</ele>
        <time>2018-03-31T11:41:18Z</time>
      </trkpt>
      <trkpt lat="62.633232766064" lon="18.00490458024">
        <ele>81.6</ele>
        <time>2018-03-31T11:41:19Z</time>
      </trkpt>
      <trkpt lat="62.633220612309" lon="18.004893180856">
        <ele>81.8</ele>
        <time>2018-03-31T11:41:20Z</time>
      </trkpt>
      <trkpt lat="62.63321633754" lon="18.00488530187">
        <ele>82</ele>
        <time>2018-03-31T11:41:21Z</time>
      </trkpt>
      <trkpt lat="62.633194963695" lon="18.004886894431">
        <ele>82.2</ele>
        <time>2018-03-31T11:41:22Z</time>
      </trkpt>
      <trkpt lat="62.633177110248" lon="18.004878847807">
        <ele>82.4</ele>
        <time>2018-03-31T11:41:23Z</time>
      </trkpt>
      <trkpt lat="62.633161268457" lon="18.004881781472">
        <ele>82.6</ele>
        <time>2018-03-31T11:41:24Z</time>
      </trkpt>
      <trkpt lat="62.633142325363" lon="18.004881865291">
        <ele>82.8</ele>
        <time>2018-03-31T11:41:25Z</time>
      </trkpt>
      <trkpt lat="62.633127154124" lon="18.004902820041">
        <ele>83</ele>
        <time>2018-03-31T11:41:26Z</time>
      </trkpt>
      <trkpt lat="62.633102930433" lon="18.004922098411">
        <ele>83.2</ele>
        <time>2018-03-31T11:41:27Z</time>
      </trkpt>
      <trkpt lat="62.633085663719" lon="18.004973395639">
        <ele>83.4</ele>
        <time>2018-03-31T11:41:28Z</time>
      </trkpt>
      <trkpt lat="62.633064876607" lon="18.005017819709">
        <ele>83.6</ele>
        <time>2018-03-31T11:41:29Z</time>
      </trkpt>
      <trkpt lat="62.633048783359" lon="18.005044390332">
        <ele>83.8</ele>
        <time>2018-03-31T11:41:30Z</time>
      </trkpt>
      <trkpt lat="62.633033695939" lon="18.005089568773">
        <ele>83.8</ele>
        <time>2018-03-31T11:41:31Z</time>
      </trkpt>
      <trkpt lat="62.633016513044" lon="18.005116977586">
        <ele>84</ele>
        <time>2018-03-31T11:41:32Z</time>
      </trkpt>
      <trkpt lat="62.632996815579" lon="18.005160898742">
        <ele>84.2</ele>
        <time>2018-03-31T11:41:33Z</time>
      </trkpt>
      <trkpt lat="62.632976699019" lon="18.005211273961">
        <ele>84.2</ele>
        <time>2018-03-31T11:41:34Z</time>
      </trkpt>
      <trkpt lat="62.632963874712" lon="18.005242286991">
        <ele>84.2</ele>
        <time>2018-03-31T11:41:35Z</time>
      </trkpt>
      <trkpt lat="62.63293135294" lon="18.005300960291">
        <ele>84.4</ele>
        <time>2018-03-31T11:41:36Z</time>
      </trkpt>
      <trkpt lat="62.632916768434" lon="18.005344210895">
        <ele>84.4</ele>
        <time>2018-03-31T11:41:37Z</time>
      </trkpt>
      <trkpt lat="62.632888772888" lon="18.00537564302">
        <ele>84.4</ele>
        <time>2018-03-31T11:41:38Z</time>
      </trkpt>
      <trkpt lat="62.632849545596" lon="18.00539911234">
        <ele>84.4</ele>
        <time>2018-03-31T11:41:39Z</time>
      </trkpt>
      <trkpt lat="62.632815850358" lon="18.005422916936">
        <ele>84.2</ele>
        <time>2018-03-31T11:41:40Z</time>
      </trkpt>
      <trkpt lat="62.63278886064" lon="18.005429370999">
        <ele>84.2</ele>
        <time>2018-03-31T11:41:41Z</time>
      </trkpt>
      <trkpt lat="62.632766900062" lon="18.005429538637">
        <ele>84.2</ele>
        <time>2018-03-31T11:41:42Z</time>
      </trkpt>
      <trkpt lat="62.632748124606" lon="18.00543431632">
        <ele>84.2</ele>
        <time>2018-03-31T11:41:43Z</time>
      </trkpt>
      <trkpt lat="62.632729181512" lon="18.005428029895">
        <ele>84.2</ele>
        <time>2018-03-31T11:41:44Z</time>
      </trkpt>
      <trkpt lat="62.632709735504" lon="18.005433142854">
        <ele>84.4</ele>
        <time>2018-03-31T11:41:45Z</time>
      </trkpt>
      <trkpt lat="62.632682913424" lon="18.005432388483">
        <ele>84.6</ele>
        <time>2018-03-31T11:41:46Z</time>
      </trkpt>
      <trkpt lat="62.632655839887" lon="18.005430460646">
        <ele>85</ele>
        <time>2018-03-31T11:41:47Z</time>
      </trkpt>
      <trkpt lat="62.63263547187" lon="18.005423755126">
        <ele>85.4</ele>
        <time>2018-03-31T11:41:48Z</time>
      </trkpt>
      <trkpt lat="62.632612170188" lon="18.005425180049">
        <ele>85.8</ele>
        <time>2018-03-31T11:41:49Z</time>
      </trkpt>
      <trkpt lat="62.632588617049" lon="18.005423252212">
        <ele>86</ele>
        <time>2018-03-31T11:41:50Z</time>
      </trkpt>
      <trkpt lat="62.632553077793" lon="18.005430879741">
        <ele>86</ele>
        <time>2018-03-31T11:41:51Z</time>
      </trkpt>
      <trkpt lat="62.632525082247" lon="18.005435322148">
        <ele>86</ele>
        <time>2018-03-31T11:41:52Z</time>
      </trkpt>
      <trkpt lat="62.632496919063" lon="18.00544102184">
        <ele>86</ele>
        <time>2018-03-31T11:41:53Z</time>
      </trkpt>
      <trkpt lat="62.632467414775" lon="18.005460719305">
        <ele>86</ele>
        <time>2018-03-31T11:41:55Z</time>
      </trkpt>
      <trkpt lat="62.632450064242" lon="18.005483853349">
        <ele>86.2</ele>
        <time>2018-03-31T11:41:56Z</time>
      </trkpt>
      <trkpt lat="62.632422152515" lon="18.005495839466">
        <ele>86.2</ele>
        <time>2018-03-31T11:41:57Z</time>
      </trkpt>
      <trkpt lat="62.632401197765" lon="18.005512770904">
        <ele>86.4</ele>
        <time>2018-03-31T11:41:58Z</time>
      </trkpt>
      <trkpt lat="62.632382757585" lon="18.005522913003">
        <ele>86.6</ele>
        <time>2018-03-31T11:41:59Z</time>
      </trkpt>
      <trkpt lat="62.632357276609" lon="18.005543448658">
        <ele>86.6</ele>
        <time>2018-03-31T11:42:00Z</time>
      </trkpt>
      <trkpt lat="62.632340512809" lon="18.005569181091">
        <ele>86.6</ele>
        <time>2018-03-31T11:42:01Z</time>
      </trkpt>
      <trkpt lat="62.632310337969" lon="18.005578149724">
        <ele>86.8</ele>
        <time>2018-03-31T11:42:02Z</time>
      </trkpt>
      <trkpt lat="62.632294747635" lon="18.005596254628">
        <ele>86.8</ele>
        <time>2018-03-31T11:42:03Z</time>
      </trkpt>
      <trkpt lat="62.632265997718" lon="18.005598098646">
        <ele>86.6</ele>
        <time>2018-03-31T11:42:04Z</time>
      </trkpt>
      <trkpt lat="62.632248898642" lon="18.00560782165">
        <ele>86.8</ele>
        <time>2018-03-31T11:42:05Z</time>
      </trkpt>
      <trkpt lat="62.632223836761" lon="18.005631374789">
        <ele>87</ele>
        <time>2018-03-31T11:42:06Z</time>
      </trkpt>
      <trkpt lat="62.632195673577" lon="18.005628189667">
        <ele>87</ele>
        <time>2018-03-31T11:42:07Z</time>
      </trkpt>
      <trkpt lat="62.632166169289" lon="18.005654592652">
        <ele>87</ele>
        <time>2018-03-31T11:42:08Z</time>
      </trkpt>
      <trkpt lat="62.632146220367" lon="18.005660376163">
        <ele>87.2</ele>
        <time>2018-03-31T11:42:09Z</time>
      </trkpt>
      <trkpt lat="62.632111016387" lon="18.005678900162">
        <ele>87.2</ele>
        <time>2018-03-31T11:42:10Z</time>
      </trkpt>
      <trkpt lat="62.632090899827" lon="18.005692311202">
        <ele>87.2</ele>
        <time>2018-03-31T11:42:11Z</time>
      </trkpt>
      <trkpt lat="62.632050499069" lon="18.005694071401">
        <ele>87.4</ele>
        <time>2018-03-31T11:42:12Z</time>
      </trkpt>
      <trkpt lat="62.632026694473" lon="18.005719468558">
        <ele>87.2</ele>
        <time>2018-03-31T11:42:13Z</time>
      </trkpt>
      <trkpt lat="62.631993502149" lon="18.00571762454">
        <ele>87.4</ele>
        <time>2018-03-31T11:42:14Z</time>
      </trkpt>
      <trkpt lat="62.631957040884" lon="18.00571846273">
        <ele>87.2</ele>
        <time>2018-03-31T11:42:15Z</time>
      </trkpt>
      <trkpt lat="62.631935247944" lon="18.005700106369">
        <ele>87.2</ele>
        <time>2018-03-31T11:42:16Z</time>
      </trkpt>
      <trkpt lat="62.631907168579" lon="18.005665405303">
        <ele>87.4</ele>
        <time>2018-03-31T11:42:17Z</time>
      </trkpt>
      <trkpt lat="62.631869282391" lon="18.005648138589">
        <ele>87.4</ele>
        <time>2018-03-31T11:42:18Z</time>
      </trkpt>
      <trkpt lat="62.631843885234" lon="18.005648557684">
        <ele>87.4</ele>
        <time>2018-03-31T11:42:19Z</time>
      </trkpt>
      <trkpt lat="62.631816224964" lon="18.005599523569">
        <ele>87.6</ele>
        <time>2018-03-31T11:42:20Z</time>
      </trkpt>
      <trkpt lat="62.631795186395" lon="18.005552836386">
        <ele>87.6</ele>
        <time>2018-03-31T11:42:21Z</time>
      </trkpt>
      <trkpt lat="62.631775824206" lon="18.00550137152">
        <ele>87.6</ele>
        <time>2018-03-31T11:42:22Z</time>
      </trkpt>
      <trkpt lat="62.631750678506" lon="18.005450158111">
        <ele>87.6</ele>
        <time>2018-03-31T11:42:23Z</time>
      </trkpt>
      <trkpt lat="62.631729220842" lon="18.005405734041">
        <ele>87.8</ele>
        <time>2018-03-31T11:42:24Z</time>
      </trkpt>
      <trkpt lat="62.631713881965" lon="18.005369691871">
        <ele>87.8</ele>
        <time>2018-03-31T11:42:25Z</time>
      </trkpt>
      <trkpt lat="62.631688903903" lon="18.005302049938">
        <ele>87.8</ele>
        <time>2018-03-31T11:42:26Z</time>
      </trkpt>
      <trkpt lat="62.631666356592" lon="18.005276652781">
        <ele>88</ele>
        <time>2018-03-31T11:42:27Z</time>
      </trkpt>
      <trkpt lat="62.631651604448" lon="18.005202556785">
        <ele>88</ele>
        <time>2018-03-31T11:42:28Z</time>
      </trkpt>
      <trkpt lat="62.631640624159" lon="18.005160982561">
        <ele>88</ele>
        <time>2018-03-31T11:42:29Z</time>
      </trkpt>
      <trkpt lat="62.631611455147" lon="18.005123180192">
        <ele>88</ele>
        <time>2018-03-31T11:42:30Z</time>
      </trkpt>
      <trkpt lat="62.631591673863" lon="18.005088646764">
        <ele>88.2</ele>
        <time>2018-03-31T11:42:31Z</time>
      </trkpt>
      <trkpt lat="62.631572395493" lon="18.00505796901">
        <ele>88.4</ele>
        <time>2018-03-31T11:42:32Z</time>
      </trkpt>
      <trkpt lat="62.631547417431" lon="18.00503701426">
        <ele>88.6</ele>
        <time>2018-03-31T11:42:33Z</time>
      </trkpt>
      <trkpt lat="62.631520846808" lon="18.004998625158">
        <ele>88.8</ele>
        <time>2018-03-31T11:42:34Z</time>
      </trkpt>
      <trkpt lat="62.63149553347" lon="18.00498756105">
        <ele>88.8</ele>
        <time>2018-03-31T11:42:35Z</time>
      </trkpt>
      <trkpt lat="62.631480110774" lon="18.004947914663">
        <ele>89</ele>
        <time>2018-03-31T11:42:36Z</time>
      </trkpt>
      <trkpt lat="62.631437865998" lon="18.004916231081">
        <ele>89.2</ele>
        <time>2018-03-31T11:42:37Z</time>
      </trkpt>
      <trkpt lat="62.631415402506" lon="18.004909106466">
        <ele>89.2</ele>
        <time>2018-03-31T11:42:38Z</time>
      </trkpt>
      <trkpt lat="62.631381874906" lon="18.004877506703">
        <ele>89.4</ele>
        <time>2018-03-31T11:42:39Z</time>
      </trkpt>
      <trkpt lat="62.631361842165" lon="18.004894270503">
        <ele>89.4</ele>
        <time>2018-03-31T11:42:40Z</time>
      </trkpt>
      <trkpt lat="62.631330661497" lon="18.004853199193">
        <ele>89.4</ele>
        <time>2018-03-31T11:42:41Z</time>
      </trkpt>
      <trkpt lat="62.631312975688" lon="18.004793520065">
        <ele>89.6</ele>
        <time>2018-03-31T11:42:42Z</time>
      </trkpt>
      <trkpt lat="62.631286488884" lon="18.004786646907">
        <ele>89.6</ele>
        <time>2018-03-31T11:42:43Z</time>
      </trkpt>
      <trkpt lat="62.631274167491" lon="18.004769715469">
        <ele>89.8</ele>
        <time>2018-03-31T11:42:44Z</time>
      </trkpt>
      <trkpt lat="62.631252206913" lon="18.004765608338">
        <ele>89.8</ele>
        <time>2018-03-31T11:42:45Z</time>
      </trkpt>
      <trkpt lat="62.631227564127" lon="18.004732416014">
        <ele>90</ele>
        <time>2018-03-31T11:42:46Z</time>
      </trkpt>
      <trkpt lat="62.631212560526" lon="18.004720010802">
        <ele>90.2</ele>
        <time>2018-03-31T11:42:47Z</time>
      </trkpt>
      <trkpt lat="62.631184145885" lon="18.004683884813">
        <ele>90.2</ele>
        <time>2018-03-31T11:42:48Z</time>
      </trkpt>
      <trkpt lat="62.631169896655" lon="18.004646752996">
        <ele>90.4</ele>
        <time>2018-03-31T11:42:49Z</time>
      </trkpt>
      <trkpt lat="62.631149780095" lon="18.004650524851">
        <ele>90.6</ele>
        <time>2018-03-31T11:42:50Z</time>
      </trkpt>
      <trkpt lat="62.631119772893" lon="18.004604340582">
        <ele>90.6</ele>
        <time>2018-03-31T11:42:51Z</time>
      </trkpt>
      <trkpt lat="62.631107367681" lon="18.004598389433">
        <ele>90.6</ele>
        <time>2018-03-31T11:42:52Z</time>
      </trkpt>
      <trkpt lat="62.631081719067" lon="18.004552875716">
        <ele>90.8</ele>
        <time>2018-03-31T11:42:53Z</time>
      </trkpt>
      <trkpt lat="62.63105883648" lon="18.004523958161">
        <ele>91</ele>
        <time>2018-03-31T11:42:54Z</time>
      </trkpt>
      <trkpt lat="62.631039306653" lon="18.00450811637">
        <ele>91.2</ele>
        <time>2018-03-31T11:42:55Z</time>
      </trkpt>
      <trkpt lat="62.631011562564" lon="18.004456902961">
        <ele>91.4</ele>
        <time>2018-03-31T11:42:56Z</time>
      </trkpt>
      <trkpt lat="62.63099429585" lon="18.004434104193">
        <ele>91.4</ele>
        <time>2018-03-31T11:42:57Z</time>
      </trkpt>
      <trkpt lat="62.6309733411" lon="18.004385572992">
        <ele>91.6</ele>
        <time>2018-03-31T11:42:58Z</time>
      </trkpt>
      <trkpt lat="62.630959594784" lon="18.004334275764">
        <ele>91.8</ele>
        <time>2018-03-31T11:42:59Z</time>
      </trkpt>
      <trkpt lat="62.630944675002" lon="18.00430108344">
        <ele>92</ele>
        <time>2018-03-31T11:43:00Z</time>
      </trkpt>
      <trkpt lat="62.63092472608" lon="18.004261017958">
        <ele>92.2</ele>
        <time>2018-03-31T11:43:01Z</time>
      </trkpt>
      <trkpt lat="62.630910895945" lon="18.004220365743">
        <ele>92.4</ele>
        <time>2018-03-31T11:43:02Z</time>
      </trkpt>
      <trkpt lat="62.630909051927" lon="18.004199494812">
        <ele>92.6</ele>
        <time>2018-03-31T11:43:03Z</time>
      </trkpt>
      <trkpt lat="62.630894718878" lon="18.004140318598">
        <ele>92.6</ele>
        <time>2018-03-31T11:43:04Z</time>
      </trkpt>
      <trkpt lat="62.630887678082" lon="18.00411081431">
        <ele>92.8</ele>
        <time>2018-03-31T11:43:05Z</time>
      </trkpt>
      <trkpt lat="62.630882732761" lon="18.004072676665">
        <ele>93</ele>
        <time>2018-03-31T11:43:06Z</time>
      </trkpt>
      <trkpt lat="62.630874853775" lon="18.004031689174">
        <ele>93</ele>
        <time>2018-03-31T11:43:07Z</time>
      </trkpt>
      <trkpt lat="62.63086521459" lon="18.003990198769">
        <ele>93</ele>
        <time>2018-03-31T11:43:08Z</time>
      </trkpt>
      <trkpt lat="62.630866471875" lon="18.003929849089">
        <ele>93</ele>
        <time>2018-03-31T11:43:09Z</time>
      </trkpt>
      <trkpt lat="62.630864292581" lon="18.003872600712">
        <ele>93</ele>
        <time>2018-03-31T11:43:10Z</time>
      </trkpt>
      <trkpt lat="62.630868651169" lon="18.003823566597">
        <ele>93.2</ele>
        <time>2018-03-31T11:43:11Z</time>
      </trkpt>
      <trkpt lat="62.630875356689" lon="18.003754248284">
        <ele>93.4</ele>
        <time>2018-03-31T11:43:12Z</time>
      </trkpt>
      <trkpt lat="62.630881056381" lon="18.003695239708">
        <ele>93.4</ele>
        <time>2018-03-31T11:43:13Z</time>
      </trkpt>
      <trkpt lat="62.630892371946" lon="18.003651402371">
        <ele>93.8</ele>
        <time>2018-03-31T11:43:14Z</time>
      </trkpt>
      <trkpt lat="62.630897317267" lon="18.003597422935">
        <ele>94</ele>
        <time>2018-03-31T11:43:15Z</time>
      </trkpt>
      <trkpt lat="62.63089622762" lon="18.003531122106">
        <ele>94.2</ele>
        <time>2018-03-31T11:43:16Z</time>
      </trkpt>
      <trkpt lat="62.630897233448" lon="18.00348049543">
        <ele>94.4</ele>
        <time>2018-03-31T11:43:17Z</time>
      </trkpt>
      <trkpt lat="62.630890527928" lon="18.003413775506">
        <ele>94.6</ele>
        <time>2018-03-31T11:43:18Z</time>
      </trkpt>
      <trkpt lat="62.630912237049" lon="18.003360550441">
        <ele>94.6</ele>
        <time>2018-03-31T11:43:19Z</time>
      </trkpt>
      <trkpt lat="62.630911734135" lon="18.003302547693">
        <ele>94.8</ele>
        <time>2018-03-31T11:43:20Z</time>
      </trkpt>
      <trkpt lat="62.630923971709" lon="18.003231469181">
        <ele>94.8</ele>
        <time>2018-03-31T11:43:21Z</time>
      </trkpt>
      <trkpt lat="62.630921960053" lon="18.003188134758">
        <ele>94.8</ele>
        <time>2018-03-31T11:43:22Z</time>
      </trkpt>
      <trkpt lat="62.630935371093" lon="18.003131389295">
        <ele>95</ele>
        <time>2018-03-31T11:43:23Z</time>
      </trkpt>
      <trkpt lat="62.630921205682" lon="18.003076068755">
        <ele>95.2</ele>
        <time>2018-03-31T11:43:24Z</time>
      </trkpt>
      <trkpt lat="62.630914332524" lon="18.003028627201">
        <ele>95.2</ele>
        <time>2018-03-31T11:43:25Z</time>
      </trkpt>
      <trkpt lat="62.630900921484" lon="18.002970372996">
        <ele>95.2</ele>
        <time>2018-03-31T11:43:26Z</time>
      </trkpt>
      <trkpt lat="62.630898239276" lon="18.002922428528">
        <ele>95.4</ele>
        <time>2018-03-31T11:43:27Z</time>
      </trkpt>
      <trkpt lat="62.630895221792" lon="18.002868700549">
        <ele>95.6</ele>
        <time>2018-03-31T11:43:28Z</time>
      </trkpt>
      <trkpt lat="62.630889773557" lon="18.002823773565">
        <ele>95.6</ele>
        <time>2018-03-31T11:43:29Z</time>
      </trkpt>
      <trkpt lat="62.630882062209" lon="18.002762920971">
        <ele>95.8</ele>
        <time>2018-03-31T11:43:30Z</time>
      </trkpt>
      <trkpt lat="62.630892288127" lon="18.002701984558">
        <ele>96</ele>
        <time>2018-03-31T11:43:31Z</time>
      </trkpt>
      <trkpt lat="62.630885498788" lon="18.002652531348">
        <ele>96.2</ele>
        <time>2018-03-31T11:43:32Z</time>
      </trkpt>
      <trkpt lat="62.630872255386" lon="18.002585559967">
        <ele>96.4</ele>
        <time>2018-03-31T11:43:33Z</time>
      </trkpt>
      <trkpt lat="62.630871668653" lon="18.00253334073">
        <ele>96.4</ele>
        <time>2018-03-31T11:43:34Z</time>
      </trkpt>
      <trkpt lat="62.630866136599" lon="18.002479109837">
        <ele>96.6</ele>
        <time>2018-03-31T11:43:35Z</time>
      </trkpt>
      <trkpt lat="62.63086270002" lon="18.002422029098">
        <ele>96.6</ele>
        <time>2018-03-31T11:43:36Z</time>
      </trkpt>
      <trkpt lat="62.630848702247" lon="18.002369558404">
        <ele>96.8</ele>
        <time>2018-03-31T11:43:37Z</time>
      </trkpt>
      <trkpt lat="62.63086353821" lon="18.002340976125">
        <ele>96.8</ele>
        <time>2018-03-31T11:43:38Z</time>
      </trkpt>
      <trkpt lat="62.630857838518" lon="18.002277776599">
        <ele>97</ele>
        <time>2018-03-31T11:43:39Z</time>
      </trkpt>
      <trkpt lat="62.630855659224" lon="18.002231173235">
        <ele>97</ele>
        <time>2018-03-31T11:43:40Z</time>
      </trkpt>
      <trkpt lat="62.63085934726" lon="18.002203261508">
        <ele>97.2</ele>
        <time>2018-03-31T11:43:41Z</time>
      </trkpt>
      <trkpt lat="62.630855240129" lon="18.002133859376">
        <ele>97.4</ele>
        <time>2018-03-31T11:43:42Z</time>
      </trkpt>
      <trkpt lat="62.630846439134" lon="18.002077113913">
        <ele>97.6</ele>
        <time>2018-03-31T11:43:43Z</time>
      </trkpt>
      <trkpt lat="62.630841996727" lon="18.002015758405">
        <ele>97.8</ele>
        <time>2018-03-31T11:43:44Z</time>
      </trkpt>
      <trkpt lat="62.630830429705" lon="18.001971501973">
        <ele>97.8</ele>
        <time>2018-03-31T11:43:45Z</time>
      </trkpt>
      <trkpt lat="62.630829759153" lon="18.001906793705">
        <ele>98</ele>
        <time>2018-03-31T11:43:46Z</time>
      </trkpt>
      <trkpt lat="62.630828082773" lon="18.001842169256">
        <ele>98</ele>
        <time>2018-03-31T11:43:47Z</time>
      </trkpt>
      <trkpt lat="62.630819281778" lon="18.001799589204">
        <ele>98</ele>
        <time>2018-03-31T11:43:48Z</time>
      </trkpt>
      <trkpt lat="62.630816348113" lon="18.001724655018">
        <ele>98</ele>
        <time>2018-03-31T11:43:49Z</time>
      </trkpt>
      <trkpt lat="62.630802685616" lon="18.001692133246">
        <ele>98</ele>
        <time>2018-03-31T11:43:50Z</time>
      </trkpt>
      <trkpt lat="62.630782485237" lon="18.001611834644">
        <ele>97.8</ele>
        <time>2018-03-31T11:43:51Z</time>
      </trkpt>
      <trkpt lat="62.630778210468" lon="18.001571182429">
        <ele>98</ele>
        <time>2018-03-31T11:43:52Z</time>
      </trkpt>
      <trkpt lat="62.630782988151" lon="18.001520639572">
        <ele>98</ele>
        <time>2018-03-31T11:43:53Z</time>
      </trkpt>
      <trkpt lat="62.630763625962" lon="18.001455093114">
        <ele>98.2</ele>
        <time>2018-03-31T11:43:54Z</time>
      </trkpt>
      <trkpt lat="62.630764799428" lon="18.001432545803">
        <ele>98.2</ele>
        <time>2018-03-31T11:43:55Z</time>
      </trkpt>
      <trkpt lat="62.63074954437" lon="18.001350822278">
        <ele>98.4</ele>
        <time>2018-03-31T11:43:56Z</time>
      </trkpt>
      <trkpt lat="62.630735462778" lon="18.001291226969">
        <ele>98.4</ele>
        <time>2018-03-31T11:43:57Z</time>
      </trkpt>
      <trkpt lat="62.630717190236" lon="18.001260465396">
        <ele>98.4</ele>
        <time>2018-03-31T11:43:58Z</time>
      </trkpt>
      <trkpt lat="62.630721548824" lon="18.001197684965">
        <ele>98.6</ele>
        <time>2018-03-31T11:43:59Z</time>
      </trkpt>
      <trkpt lat="62.63071266401" lon="18.001140101312">
        <ele>98.6</ele>
        <time>2018-03-31T11:44:00Z</time>
      </trkpt>
      <trkpt lat="62.630732612932" lon="18.001074554854">
        <ele>98.8</ele>
        <time>2018-03-31T11:44:01Z</time>
      </trkpt>
      <trkpt lat="62.630709814164" lon="18.001006410007">
        <ele>99</ele>
        <time>2018-03-31T11:44:02Z</time>
      </trkpt>
      <trkpt lat="62.630693637097" lon="18.000963829955">
        <ele>99</ele>
        <time>2018-03-31T11:44:03Z</time>
      </trkpt>
      <trkpt lat="62.630670419234" lon="18.000898534954">
        <ele>99</ele>
        <time>2018-03-31T11:44:04Z</time>
      </trkpt>
      <trkpt lat="62.630662875524" lon="18.000869114485">
        <ele>99.2</ele>
        <time>2018-03-31T11:44:05Z</time>
      </trkpt>
      <trkpt lat="62.630659690402" lon="18.000819745094">
        <ele>99.2</ele>
        <time>2018-03-31T11:44:06Z</time>
      </trkpt>
      <trkpt lat="62.630630772847" lon="18.000764256916">
        <ele>99.4</ele>
        <time>2018-03-31T11:44:07Z</time>
      </trkpt>
      <trkpt lat="62.63063555053" lon="18.000717485914">
        <ele>99.4</ele>
        <time>2018-03-31T11:44:08Z</time>
      </trkpt>
      <trkpt lat="62.630615517789" lon="18.000648335239">
        <ele>99.4</ele>
        <time>2018-03-31T11:44:09Z</time>
      </trkpt>
      <trkpt lat="62.630610823925" lon="18.000623608634">
        <ele>99.6</ele>
        <time>2018-03-31T11:44:10Z</time>
      </trkpt>
      <trkpt lat="62.630589282442" lon="18.000568707189">
        <ele>99.6</ele>
        <time>2018-03-31T11:44:11Z</time>
      </trkpt>
      <trkpt lat="62.630574111203" lon="18.000521014178">
        <ele>99.6</ele>
        <time>2018-03-31T11:44:12Z</time>
      </trkpt>
      <trkpt lat="62.630563130914" lon="18.000468292027">
        <ele>99.6</ele>
        <time>2018-03-31T11:44:13Z</time>
      </trkpt>
      <trkpt lat="62.630548797865" lon="18.000402326474">
        <ele>99.8</ele>
        <time>2018-03-31T11:44:14Z</time>
      </trkpt>
      <trkpt lat="62.630533961902" lon="18.000351280703">
        <ele>99.8</ele>
        <time>2018-03-31T11:44:15Z</time>
      </trkpt>
      <trkpt lat="62.630525077088" lon="18.000283219675">
        <ele>100</ele>
        <time>2018-03-31T11:44:16Z</time>
      </trkpt>
      <trkpt lat="62.630503703243" lon="18.000226558031">
        <ele>100</ele>
        <time>2018-03-31T11:44:17Z</time>
      </trkpt>
      <trkpt lat="62.630487358538" lon="18.000186744006">
        <ele>100.2</ele>
        <time>2018-03-31T11:44:18Z</time>
      </trkpt>
      <trkpt lat="62.630468834539" lon="18.000112312734">
        <ele>100.2</ele>
        <time>2018-03-31T11:44:19Z</time>
      </trkpt>
      <trkpt lat="62.6304452814" lon="18.000074678003">
        <ele>100.4</ele>
        <time>2018-03-31T11:44:20Z</time>
      </trkpt>
      <trkpt lat="62.63042767941" lon="18.000010891744">
        <ele>100.4</ele>
        <time>2018-03-31T11:44:21Z</time>
      </trkpt>
      <trkpt lat="62.630408149583" lon="17.999963785466">
        <ele>100.6</ele>
        <time>2018-03-31T11:44:22Z</time>
      </trkpt>
      <trkpt lat="62.630393397439" lon="17.999912152962">
        <ele>100.6</ele>
        <time>2018-03-31T11:44:23Z</time>
      </trkpt>
      <trkpt lat="62.6303530805" lon="17.99986454377">
        <ele>100.8</ele>
        <time>2018-03-31T11:44:24Z</time>
      </trkpt>
      <trkpt lat="62.630354673061" lon="17.999808720316">
        <ele>100.8</ele>
        <time>2018-03-31T11:44:25Z</time>
      </trkpt>
      <trkpt lat="62.630343608953" lon="17.999753651233">
        <ele>101</ele>
        <time>2018-03-31T11:44:26Z</time>
      </trkpt>
      <trkpt lat="62.630326426058" lon="17.999681902169">
        <ele>101.2</ele>
        <time>2018-03-31T11:44:27Z</time>
      </trkpt>
      <trkpt lat="62.630290635345" lon="17.999639992669">
        <ele>101.4</ele>
        <time>2018-03-31T11:44:28Z</time>
      </trkpt>
      <trkpt lat="62.630272949536" lon="17.999576457867">
        <ele>101.4</ele>
        <time>2018-03-31T11:44:29Z</time>
      </trkpt>
      <trkpt lat="62.630261047238" lon="17.999515437635">
        <ele>101.4</ele>
        <time>2018-03-31T11:44:30Z</time>
      </trkpt>
      <trkpt lat="62.630254341718" lon="17.999446706055">
        <ele>101.4</ele>
        <time>2018-03-31T11:44:31Z</time>
      </trkpt>
      <trkpt lat="62.630237997013" lon="17.999377471561">
        <ele>101.6</ele>
        <time>2018-03-31T11:44:32Z</time>
      </trkpt>
      <trkpt lat="62.630235901538" lon="17.999301028633">
        <ele>101.6</ele>
        <time>2018-03-31T11:44:33Z</time>
      </trkpt>
      <trkpt lat="62.630226346172" lon="17.999229447207">
        <ele>101.6</ele>
        <time>2018-03-31T11:44:34Z</time>
      </trkpt>
      <trkpt lat="62.630229112199" lon="17.999158955428">
        <ele>101.8</ele>
        <time>2018-03-31T11:44:35Z</time>
      </trkpt>
      <trkpt lat="62.630216120254" lon="17.999086954907">
        <ele>102</ele>
        <time>2018-03-31T11:44:36Z</time>
      </trkpt>
      <trkpt lat="62.630213270408" lon="17.999023336286">
        <ele>102.2</ele>
        <time>2018-03-31T11:44:37Z</time>
      </trkpt>
      <trkpt lat="62.630190220183" lon="17.998953766516">
        <ele>102.8</ele>
        <time>2018-03-31T11:44:38Z</time>
      </trkpt>
      <trkpt lat="62.630198434445" lon="17.998899367985">
        <ele>102.8</ele>
        <time>2018-03-31T11:44:39Z</time>
      </trkpt>
      <trkpt lat="62.630191645106" lon="17.998807502361">
        <ele>103.2</ele>
        <time>2018-03-31T11:44:40Z</time>
      </trkpt>
      <trkpt lat="62.630201954843" lon="17.998745308663">
        <ele>103.2</ele>
        <time>2018-03-31T11:44:41Z</time>
      </trkpt>
      <trkpt lat="62.630208828001" lon="17.998672553771">
        <ele>103.2</ele>
        <time>2018-03-31T11:44:42Z</time>
      </trkpt>
      <trkpt lat="62.630191561287" lon="17.998597787223">
        <ele>102.8</ele>
        <time>2018-03-31T11:44:43Z</time>
      </trkpt>
      <trkpt lat="62.630207151621" lon="17.998544645977">
        <ele>103</ele>
        <time>2018-03-31T11:44:44Z</time>
      </trkpt>
      <trkpt lat="62.630206481069" lon="17.99846141371">
        <ele>102.8</ele>
        <time>2018-03-31T11:44:45Z</time>
      </trkpt>
      <trkpt lat="62.630226932905" lon="17.998400309659">
        <ele>102.8</ele>
        <time>2018-03-31T11:44:46Z</time>
      </trkpt>
      <trkpt lat="62.630230537122" lon="17.998327890043">
        <ele>103</ele>
        <time>2018-03-31T11:44:47Z</time>
      </trkpt>
      <trkpt lat="62.630215868797" lon="17.998246166518">
        <ele>103</ele>
        <time>2018-03-31T11:44:48Z</time>
      </trkpt>
      <trkpt lat="62.630224502154" lon="17.998187660856">
        <ele>103.2</ele>
        <time>2018-03-31T11:44:49Z</time>
      </trkpt>
      <trkpt lat="62.630238416108" lon="17.998117252896">
        <ele>103.2</ele>
        <time>2018-03-31T11:44:50Z</time>
      </trkpt>
      <trkpt lat="62.630245624542" lon="17.99804148052">
        <ele>103.2</ele>
        <time>2018-03-31T11:44:51Z</time>
      </trkpt>
      <trkpt lat="62.630246127456" lon="17.997991859672">
        <ele>103</ele>
        <time>2018-03-31T11:44:52Z</time>
      </trkpt>
      <trkpt lat="62.630247217103" lon="17.997927402861">
        <ele>103.2</ele>
        <time>2018-03-31T11:44:53Z</time>
      </trkpt>
      <trkpt lat="62.63025668865" lon="17.997864957706">
        <ele>103.2</ele>
        <time>2018-03-31T11:44:54Z</time>
      </trkpt>
      <trkpt lat="62.630269512957" lon="17.997796058488">
        <ele>103.2</ele>
        <time>2018-03-31T11:44:55Z</time>
      </trkpt>
      <trkpt lat="62.630278816866" lon="17.997726572537">
        <ele>103.2</ele>
        <time>2018-03-31T11:44:56Z</time>
      </trkpt>
      <trkpt lat="62.63029608358" lon="17.997655745482">
        <ele>103.4</ele>
        <time>2018-03-31T11:44:57Z</time>
      </trkpt>
      <trkpt lat="62.63029859815" lon="17.997585086065">
        <ele>103.6</ele>
        <time>2018-03-31T11:44:58Z</time>
      </trkpt>
      <trkpt lat="62.630302621462" lon="17.997508978413">
        <ele>103.6</ele>
        <time>2018-03-31T11:44:59Z</time>
      </trkpt>
      <trkpt lat="62.630326845153" lon="17.997431445838">
        <ele>103.8</ele>
        <time>2018-03-31T11:45:00Z</time>
      </trkpt>
      <trkpt lat="62.630354673061" lon="17.997361456973">
        <ele>103.8</ele>
        <time>2018-03-31T11:45:01Z</time>
      </trkpt>
      <trkpt lat="62.630388368299" lon="17.997271435367">
        <ele>103.8</ele>
        <time>2018-03-31T11:45:02Z</time>
      </trkpt>
      <trkpt lat="62.630408987773" lon="17.997195914448">
        <ele>103.8</ele>
        <time>2018-03-31T11:45:03Z</time>
      </trkpt>
      <trkpt lat="62.630430780713" lon="17.997147047971">
        <ele>103.6</ele>
        <time>2018-03-31T11:45:04Z</time>
      </trkpt>
      <trkpt lat="62.63042935579" lon="17.997093403811">
        <ele>103.6</ele>
        <time>2018-03-31T11:45:05Z</time>
      </trkpt>
      <trkpt lat="62.630458105707" lon="17.997025175145">
        <ele>103.6</ele>
        <time>2018-03-31T11:45:06Z</time>
      </trkpt>
      <trkpt lat="62.630481658846" lon="17.996969100234">
        <ele>103.8</ele>
        <time>2018-03-31T11:45:07Z</time>
      </trkpt>
      <trkpt lat="62.630485849796" lon="17.996909756382">
        <ele>103.8</ele>
        <time>2018-03-31T11:45:08Z</time>
      </trkpt>
      <trkpt lat="62.630509738211" lon="17.996843455553">
        <ele>103.8</ele>
        <time>2018-03-31T11:45:09Z</time>
      </trkpt>
      <trkpt lat="62.630529435676" lon="17.996782183864">
        <ele>104</ele>
        <time>2018-03-31T11:45:10Z</time>
      </trkpt>
      <trkpt lat="62.630561538353" lon="17.99672049308">
        <ele>104</ele>
        <time>2018-03-31T11:45:11Z</time>
      </trkpt>
      <trkpt lat="62.630577044868" lon="17.996647319093">
        <ele>104</ele>
        <time>2018-03-31T11:45:12Z</time>
      </trkpt>
      <trkpt lat="62.630594898315" lon="17.996606918335">
        <ele>104</ele>
        <time>2018-03-31T11:45:13Z</time>
      </trkpt>
      <trkpt lat="62.630609399002" lon="17.996529050484">
        <ele>104.2</ele>
        <time>2018-03-31T11:45:14Z</time>
      </trkpt>
      <trkpt lat="62.630629096467" lon="17.996480016369">
        <ele>104</ele>
        <time>2018-03-31T11:45:15Z</time>
      </trkpt>
      <trkpt lat="62.630649213027" lon="17.996413799359">
        <ele>104</ele>
        <time>2018-03-31T11:45:16Z</time>
      </trkpt>
      <trkpt lat="62.630666898836" lon="17.996355712792">
        <ele>104</ele>
        <time>2018-03-31T11:45:17Z</time>
      </trkpt>
      <trkpt lat="62.630689529966" lon="17.99627541419">
        <ele>104.2</ele>
        <time>2018-03-31T11:45:18Z</time>
      </trkpt>
      <trkpt lat="62.63068668012" lon="17.996219590736">
        <ele>104.2</ele>
        <time>2018-03-31T11:45:19Z</time>
      </trkpt>
      <trkpt lat="62.630715010942" lon="17.996164354015">
        <ele>104.2</ele>
        <time>2018-03-31T11:45:20Z</time>
      </trkpt>
      <trkpt lat="62.630722303195" lon="17.996097885548">
        <ele>104.2</ele>
        <time>2018-03-31T11:45:21Z</time>
      </trkpt>
      <trkpt lat="62.63076546998" lon="17.996063184482">
        <ele>104.2</ele>
        <time>2018-03-31T11:45:22Z</time>
      </trkpt>
      <trkpt lat="62.630793046431" lon="17.996014150367">
        <ele>104</ele>
        <time>2018-03-31T11:45:23Z</time>
      </trkpt>
      <trkpt lat="62.630815090828" lon="17.995976683274">
        <ele>104.2</ele>
        <time>2018-03-31T11:45:24Z</time>
      </trkpt>
      <trkpt lat="62.630838224872" lon="17.995958075456">
        <ele>104</ele>
        <time>2018-03-31T11:45:25Z</time>
      </trkpt>
      <trkpt lat="62.63087108192" lon="17.995893618645">
        <ele>104</ele>
        <time>2018-03-31T11:45:26Z</time>
      </trkpt>
      <trkpt lat="62.63089874219" lon="17.995868472945">
        <ele>104</ele>
        <time>2018-03-31T11:45:27Z</time>
      </trkpt>
      <trkpt lat="62.630927995021" lon="17.995832430775">
        <ele>104</ele>
        <time>2018-03-31T11:45:28Z</time>
      </trkpt>
      <trkpt lat="62.630952134893" lon="17.995800747193">
        <ele>104</ele>
        <time>2018-03-31T11:45:29Z</time>
      </trkpt>
      <trkpt lat="62.630987087416" lon="17.995762022815">
        <ele>104.2</ele>
        <time>2018-03-31T11:45:30Z</time>
      </trkpt>
      <trkpt lat="62.631015585876" lon="17.995720448591">
        <ele>104.2</ele>
        <time>2018-03-31T11:45:31Z</time>
      </trkpt>
      <trkpt lat="62.631046766544" lon="17.995703517153">
        <ele>104.2</ele>
        <time>2018-03-31T11:45:32Z</time>
      </trkpt>
      <trkpt lat="62.631079288316" lon="17.995656075599">
        <ele>104.2</ele>
        <time>2018-03-31T11:45:33Z</time>
      </trkpt>
      <trkpt lat="62.631108038233" lon="17.995632690098">
        <ele>104.2</ele>
        <time>2018-03-31T11:45:34Z</time>
      </trkpt>
      <trkpt lat="62.63113511177" lon="17.995585416182">
        <ele>104</ele>
        <time>2018-03-31T11:45:35Z</time>
      </trkpt>
      <trkpt lat="62.631167717361" lon="17.995555492799">
        <ele>104.4</ele>
        <time>2018-03-31T11:45:36Z</time>
      </trkpt>
      <trkpt lat="62.631207615205" lon="17.995514170032">
        <ele>104.4</ele>
        <time>2018-03-31T11:45:37Z</time>
      </trkpt>
      <trkpt lat="62.631234688742" lon="17.995465219736">
        <ele>104.4</ele>
        <time>2018-03-31T11:45:38Z</time>
      </trkpt>
      <trkpt lat="62.631255056759" lon="17.995426411539">
        <ele>104.4</ele>
        <time>2018-03-31T11:45:39Z</time>
      </trkpt>
      <trkpt lat="62.631284393409" lon="17.995376623053">
        <ele>104.4</ele>
        <time>2018-03-31T11:45:40Z</time>
      </trkpt>
      <trkpt lat="62.631313394783" lon="17.995333707725">
        <ele>104.6</ele>
        <time>2018-03-31T11:45:41Z</time>
      </trkpt>
      <trkpt lat="62.631350023686" lon="17.995269753828">
        <ele>104.4</ele>
        <time>2018-03-31T11:45:42Z</time>
      </trkpt>
      <trkpt lat="62.631372235721" lon="17.995226251767">
        <ele>104.6</ele>
        <time>2018-03-31T11:45:43Z</time>
      </trkpt>
      <trkpt lat="62.631401069457" lon="17.995167746105">
        <ele>104.6</ele>
        <time>2018-03-31T11:45:44Z</time>
      </trkpt>
      <trkpt lat="62.631420347827" lon="17.995127177709">
        <ele>104.8</ele>
        <time>2018-03-31T11:45:45Z</time>
      </trkpt>
      <trkpt lat="62.631436441075" lon="17.995072360083">
        <ele>105</ele>
        <time>2018-03-31T11:45:46Z</time>
      </trkpt>
      <trkpt lat="62.631472818521" lon="17.99501310005">
        <ele>105</ele>
        <time>2018-03-31T11:45:47Z</time>
      </trkpt>
      <trkpt lat="62.631490923425" lon="17.994954175293">
        <ele>105</ele>
        <time>2018-03-31T11:45:48Z</time>
      </trkpt>
      <trkpt lat="62.631515063297" lon="17.994890053758">
        <ele>105.2</ele>
        <time>2018-03-31T11:45:49Z</time>
      </trkpt>
      <trkpt lat="62.631550518734" lon="17.994811850631">
        <ele>105.2</ele>
        <time>2018-03-31T11:45:50Z</time>
      </trkpt>
      <trkpt lat="62.631566695801" lon="17.994731300572">
        <ele>105.4</ele>
        <time>2018-03-31T11:45:51Z</time>
      </trkpt>
      <trkpt lat="62.631565270878" lon="17.994641865699">
        <ele>105.4</ele>
        <time>2018-03-31T11:45:52Z</time>
      </trkpt>
      <trkpt lat="62.631561079928" lon="17.994558549613">
        <ele>105.4</ele>
        <time>2018-03-31T11:45:53Z</time>
      </trkpt>
      <trkpt lat="62.631558313901" lon="17.994492667879">
        <ele>105.2</ele>
        <time>2018-03-31T11:45:54Z</time>
      </trkpt>
      <trkpt lat="62.631548758535" lon="17.994399628789">
        <ele>105.2</ele>
        <time>2018-03-31T11:45:55Z</time>
      </trkpt>
      <trkpt lat="62.631530821269" lon="17.994307595527">
        <ele>105</ele>
        <time>2018-03-31T11:45:56Z</time>
      </trkpt>
      <trkpt lat="62.631524618663" lon="17.994205587804">
        <ele>105</ele>
        <time>2018-03-31T11:45:57Z</time>
      </trkpt>
      <trkpt lat="62.631545070499" lon="17.99409863476">
        <ele>104.8</ele>
        <time>2018-03-31T11:45:58Z</time>
      </trkpt>
      <trkpt lat="62.631543897033" lon="17.994019593443">
        <ele>104.6</ele>
        <time>2018-03-31T11:45:59Z</time>
      </trkpt>
      <trkpt lat="62.631541214825" lon="17.993955891003">
        <ele>104.2</ele>
        <time>2018-03-31T11:46:00Z</time>
      </trkpt>
      <trkpt lat="62.631541466282" lon="17.993865366483">
        <ele>104.2</ele>
        <time>2018-03-31T11:46:01Z</time>
      </trkpt>
      <trkpt lat="62.631526127405" lon="17.993770651013">
        <ele>103.8</ele>
        <time>2018-03-31T11:46:02Z</time>
      </trkpt>
      <trkpt lat="62.631515733849" lon="17.993673337154">
        <ele>103.6</ele>
        <time>2018-03-31T11:46:03Z</time>
      </trkpt>
      <trkpt lat="62.631515314754" lon="17.993599324977">
        <ele>103.6</ele>
        <time>2018-03-31T11:46:04Z</time>
      </trkpt>
      <trkpt lat="62.631518080781" lon="17.993497987806">
        <ele>103.8</ele>
        <time>2018-03-31T11:46:05Z</time>
      </trkpt>
      <trkpt lat="62.631532916744" lon="17.993385167432">
        <ele>103.6</ele>
        <time>2018-03-31T11:46:06Z</time>
      </trkpt>
      <trkpt lat="62.631541466282" lon="17.993288607944">
        <ele>103.6</ele>
        <time>2018-03-31T11:46:07Z</time>
      </trkpt>
      <trkpt lat="62.631562756308" lon="17.993164555824">
        <ele>103.6</ele>
        <time>2018-03-31T11:46:08Z</time>
      </trkpt>
      <trkpt lat="62.631552949485" lon="17.993054166201">
        <ele>103.4</ele>
        <time>2018-03-31T11:46:09Z</time>
      </trkpt>
      <trkpt lat="62.631564181231" lon="17.992970933934">
        <ele>103.4</ele>
        <time>2018-03-31T11:46:10Z</time>
      </trkpt>
      <trkpt lat="62.631580945031" lon="17.99286565727">
        <ele>103</ele>
        <time>2018-03-31T11:46:11Z</time>
      </trkpt>
      <trkpt lat="62.631598379383" lon="17.992776054759">
        <ele>103</ele>
        <time>2018-03-31T11:46:12Z</time>
      </trkpt>
      <trkpt lat="62.631614807907" lon="17.992724338436">
        <ele>103</ele>
        <time>2018-03-31T11:46:13Z</time>
      </trkpt>
      <trkpt lat="62.631620842875" lon="17.99265694796">
        <ele>102.8</ele>
        <time>2018-03-31T11:46:14Z</time>
      </trkpt>
      <trkpt lat="62.631633080449" lon="17.99257899629">
        <ele>102.8</ele>
        <time>2018-03-31T11:46:15Z</time>
      </trkpt>
      <trkpt lat="62.631657555597" lon="17.992509258882">
        <ele>103.2</ele>
        <time>2018-03-31T11:46:16Z</time>
      </trkpt>
      <trkpt lat="62.631683790944" lon="17.992456536731">
        <ele>103</ele>
        <time>2018-03-31T11:46:17Z</time>
      </trkpt>
      <trkpt lat="62.631722096227" lon="17.992418902">
        <ele>102.6</ele>
        <time>2018-03-31T11:46:18Z</time>
      </trkpt>
      <trkpt lat="62.631742380425" lon="17.992376824862">
        <ele>102.6</ele>
        <time>2018-03-31T11:46:19Z</time>
      </trkpt>
      <trkpt lat="62.631786133943" lon="17.992378417423">
        <ele>102.4</ele>
        <time>2018-03-31T11:46:20Z</time>
      </trkpt>
      <trkpt lat="62.631826869977" lon="17.992358384682">
        <ele>102.4</ele>
        <time>2018-03-31T11:46:21Z</time>
      </trkpt>
      <trkpt lat="62.631880765594" lon="17.992343716357">
        <ele>102.2</ele>
        <time>2018-03-31T11:46:22Z</time>
      </trkpt>
      <trkpt lat="62.631907000941" lon="17.992335083">
        <ele>102.2</ele>
        <time>2018-03-31T11:46:23Z</time>
      </trkpt>
      <trkpt lat="62.631934577392" lon="17.992328126023">
        <ele>102.6</ele>
        <time>2018-03-31T11:46:24Z</time>
      </trkpt>
      <trkpt lat="62.631945892957" lon="17.992315301716">
        <ele>102.8</ele>
        <time>2018-03-31T11:46:25Z</time>
      </trkpt>
      <trkpt lat="62.631955448323" lon="17.992278002261">
        <ele>103</ele>
        <time>2018-03-31T11:46:26Z</time>
      </trkpt>
      <trkpt lat="62.631980258747" lon="17.992273308397">
        <ele>103.2</ele>
        <time>2018-03-31T11:46:27Z</time>
      </trkpt>
      <trkpt lat="62.63201688765" lon="17.9922680278">
        <ele>103.4</ele>
        <time>2018-03-31T11:46:28Z</time>
      </trkpt>
      <trkpt lat="62.632043039178" lon="17.992256460778">
        <ele>103.6</ele>
        <time>2018-03-31T11:46:29Z</time>
      </trkpt>
      <trkpt lat="62.632065083575" lon="17.992231398897">
        <ele>103.8</ele>
        <time>2018-03-31T11:46:30Z</time>
      </trkpt>
      <trkpt lat="62.632095761329" lon="17.992206420835">
        <ele>104</ele>
        <time>2018-03-31T11:46:31Z</time>
      </trkpt>
      <trkpt lat="62.63212836692" lon="17.992186891008">
        <ele>104.2</ele>
        <time>2018-03-31T11:46:32Z</time>
      </trkpt>
      <trkpt lat="62.632147896747" lon="17.992181610411">
        <ele>104.2</ele>
        <time>2018-03-31T11:46:33Z</time>
      </trkpt>
      <trkpt lat="62.632168264764" lon="17.992155207426">
        <ele>104.4</ele>
        <time>2018-03-31T11:46:34Z</time>
      </trkpt>
      <trkpt lat="62.632180250881" lon="17.992157721996">
        <ele>104.6</ele>
        <time>2018-03-31T11:46:35Z</time>
      </trkpt>
      <trkpt lat="62.632213359386" lon="17.992144897689">
        <ele>104.6</ele>
        <time>2018-03-31T11:46:36Z</time>
      </trkpt>
      <trkpt lat="62.632244288597" lon="17.992125200224">
        <ele>104.8</ele>
        <time>2018-03-31T11:46:37Z</time>
      </trkpt>
      <trkpt lat="62.632285359907" lon="17.992095779755">
        <ele>104.8</ele>
        <time>2018-03-31T11:46:38Z</time>
      </trkpt>
      <trkpt lat="62.632312098168" lon="17.992081195249">
        <ele>104.8</ele>
        <time>2018-03-31T11:46:39Z</time>
      </trkpt>
      <trkpt lat="62.632350906365" lon="17.992064431449">
        <ele>105</ele>
        <time>2018-03-31T11:46:40Z</time>
      </trkpt>
      <trkpt lat="62.632379656282" lon="17.9920417165">
        <ele>104.8</ele>
        <time>2018-03-31T11:46:41Z</time>
      </trkpt>
      <trkpt lat="62.632416788099" lon="17.992028054003">
        <ele>104.6</ele>
        <time>2018-03-31T11:46:42Z</time>
      </trkpt>
      <trkpt lat="62.632457691771" lon="17.991996035145">
        <ele>104.6</ele>
        <time>2018-03-31T11:46:43Z</time>
      </trkpt>
      <trkpt lat="62.632489710629" lon="17.991986060684">
        <ele>104.6</ele>
        <time>2018-03-31T11:46:44Z</time>
      </trkpt>
      <trkpt lat="62.632521813306" lon="17.99196544121">
        <ele>104.6</ele>
        <time>2018-03-31T11:46:45Z</time>
      </trkpt>
      <trkpt lat="62.632551569051" lon="17.991926800651">
        <ele>104.4</ele>
        <time>2018-03-31T11:46:46Z</time>
      </trkpt>
      <trkpt lat="62.632571937068" lon="17.99189670963">
        <ele>104.4</ele>
        <time>2018-03-31T11:46:47Z</time>
      </trkpt>
      <trkpt lat="62.632599178243" lon="17.991844909488">
        <ele>104.4</ele>
        <time>2018-03-31T11:46:48Z</time>
      </trkpt>
      <trkpt lat="62.632631448558" lon="17.9917986414">
        <ele>104.2</ele>
        <time>2018-03-31T11:46:49Z</time>
      </trkpt>
      <trkpt lat="62.632645278693" lon="17.991756899538">
        <ele>104.4</ele>
        <time>2018-03-31T11:46:50Z</time>
      </trkpt>
      <trkpt lat="62.632675285895" lon="17.991690682528">
        <ele>104.2</ele>
        <time>2018-03-31T11:46:51Z</time>
      </trkpt>
      <trkpt lat="62.632706969477" lon="17.991639804395">
        <ele>104</ele>
        <time>2018-03-31T11:46:52Z</time>
      </trkpt>
      <trkpt lat="62.632733372462" lon="17.991593033393">
        <ele>104</ele>
        <time>2018-03-31T11:46:53Z</time>
      </trkpt>
      <trkpt lat="62.632768576442" lon="17.991539473052">
        <ele>104</ele>
        <time>2018-03-31T11:46:54Z</time>
      </trkpt>
      <trkpt lat="62.632788357726" lon="17.991481470304">
        <ele>104</ele>
        <time>2018-03-31T11:46:55Z</time>
      </trkpt>
      <trkpt lat="62.63281400634" lon="17.991444422306">
        <ele>104</ele>
        <time>2018-03-31T11:46:56Z</time>
      </trkpt>
      <trkpt lat="62.632833452348" lon="17.991380719866">
        <ele>104</ele>
        <time>2018-03-31T11:46:57Z</time>
      </trkpt>
      <trkpt lat="62.632849042682" lon="17.991342079307">
        <ele>104</ele>
        <time>2018-03-31T11:46:58Z</time>
      </trkpt>
      <trkpt lat="62.632879049884" lon="17.991286926405">
        <ele>104</ele>
        <time>2018-03-31T11:46:59Z</time>
      </trkpt>
      <trkpt lat="62.632896400417" lon="17.991232527874">
        <ele>104</ele>
        <time>2018-03-31T11:47:00Z</time>
      </trkpt>
      <trkpt lat="62.632915343511" lon="17.991171340004">
        <ele>104</ele>
        <time>2018-03-31T11:47:01Z</time>
      </trkpt>
      <trkpt lat="62.632943674333" lon="17.991102440786">
        <ele>104</ele>
        <time>2018-03-31T11:47:02Z</time>
      </trkpt>
      <trkpt lat="62.632957085373" lon="17.991059693096">
        <ele>104</ele>
        <time>2018-03-31T11:47:03Z</time>
      </trkpt>
      <trkpt lat="62.63298583529" lon="17.99100152271">
        <ele>104</ele>
        <time>2018-03-31T11:47:04Z</time>
      </trkpt>
      <trkpt lat="62.633001509443" lon="17.990960786676">
        <ele>104</ele>
        <time>2018-03-31T11:47:05Z</time>
      </trkpt>
      <trkpt lat="62.633028080066" lon="17.990879733703">
        <ele>104</ele>
        <time>2018-03-31T11:47:06Z</time>
      </trkpt>
      <trkpt lat="62.633047358436" lon="17.990829609941">
        <ele>104.2</ele>
        <time>2018-03-31T11:47:07Z</time>
      </trkpt>
      <trkpt lat="62.633076527448" lon="17.990752999375">
        <ele>104</ele>
        <time>2018-03-31T11:47:08Z</time>
      </trkpt>
      <trkpt lat="62.633103600985" lon="17.990691895324">
        <ele>104</ele>
        <time>2018-03-31T11:47:09Z</time>
      </trkpt>
      <trkpt lat="62.633123885183" lon="17.990658870638">
        <ele>104.2</ele>
        <time>2018-03-31T11:47:10Z</time>
      </trkpt>
      <trkpt lat="62.633151629272" lon="17.990600532614">
        <ele>104</ele>
        <time>2018-03-31T11:47:11Z</time>
      </trkpt>
      <trkpt lat="62.633183815768" lon="17.990546636997">
        <ele>104</ele>
        <time>2018-03-31T11:47:12Z</time>
      </trkpt>
      <trkpt lat="62.633210554029" lon="17.990508415533">
        <ele>104</ele>
        <time>2018-03-31T11:47:13Z</time>
      </trkpt>
      <trkpt lat="62.63324232143" lon="17.990476229037">
        <ele>104</ele>
        <time>2018-03-31T11:47:14Z</time>
      </trkpt>
      <trkpt lat="62.633259336687" lon="17.990462063626">
        <ele>103.8</ele>
        <time>2018-03-31T11:47:15Z</time>
      </trkpt>
      <trkpt lat="62.633292780468" lon="17.99044999369">
        <ele>103.8</ele>
        <time>2018-03-31T11:47:16Z</time>
      </trkpt>
      <trkpt lat="62.633315746874" lon="17.990442533799">
        <ele>104</ele>
        <time>2018-03-31T11:47:17Z</time>
      </trkpt>
      <trkpt lat="62.633337539814" lon="17.990411604588">
        <ele>104</ele>
        <time>2018-03-31T11:47:18Z</time>
      </trkpt>
      <trkpt lat="62.633377186201" lon="17.990391655666">
        <ele>104</ele>
        <time>2018-03-31T11:47:19Z</time>
      </trkpt>
      <trkpt lat="62.633407696317" lon="17.990366426147">
        <ele>104</ele>
        <time>2018-03-31T11:47:20Z</time>
      </trkpt>
      <trkpt lat="62.633457987717" lon="17.990320828611">
        <ele>104.2</ele>
        <time>2018-03-31T11:47:21Z</time>
      </trkpt>
      <trkpt lat="62.633482211408" lon="17.990285289355">
        <ele>104.2</ele>
        <time>2018-03-31T11:47:22Z</time>
      </trkpt>
      <trkpt lat="62.633513727352" lon="17.99022368239">
        <ele>104</ele>
        <time>2018-03-31T11:47:23Z</time>
      </trkpt>
      <trkpt lat="62.633542728726" lon="17.990176073198">
        <ele>104</ele>
        <time>2018-03-31T11:47:24Z</time>
      </trkpt>
      <trkpt lat="62.633580782552" lon="17.990126703807">
        <ele>104.2</ele>
        <time>2018-03-31T11:47:25Z</time>
      </trkpt>
      <trkpt lat="62.633617076179" lon="17.990061492625">
        <ele>104.2</ele>
        <time>2018-03-31T11:47:26Z</time>
      </trkpt>
      <trkpt lat="62.633640796956" lon="17.989973817951">
        <ele>104.2</ele>
        <time>2018-03-31T11:47:27Z</time>
      </trkpt>
      <trkpt lat="62.633676252393" lon="17.989925873483">
        <ele>104</ele>
        <time>2018-03-31T11:47:28Z</time>
      </trkpt>
      <trkpt lat="62.633705672862" lon="17.989849682012">
        <ele>103.8</ele>
        <time>2018-03-31T11:47:29Z</time>
      </trkpt>
      <trkpt lat="62.633734841874" lon="17.989767204116">
        <ele>103.6</ele>
        <time>2018-03-31T11:47:30Z</time>
      </trkpt>
      <trkpt lat="62.633766693094" lon="17.989708782273">
        <ele>103.4</ele>
        <time>2018-03-31T11:47:31Z</time>
      </trkpt>
      <trkpt lat="62.63380809968" lon="17.989645247471">
        <ele>103.2</ele>
        <time>2018-03-31T11:47:32Z</time>
      </trkpt>
      <trkpt lat="62.633841543461" lon="17.989604176161">
        <ele>103.2</ele>
        <time>2018-03-31T11:47:33Z</time>
      </trkpt>
      <trkpt lat="62.633875071061" lon="17.989560925557">
        <ele>103.2</ele>
        <time>2018-03-31T11:47:34Z</time>
      </trkpt>
      <trkpt lat="62.633905078263" lon="17.989532091821">
        <ele>103</ele>
        <time>2018-03-31T11:47:35Z</time>
      </trkpt>
      <trkpt lat="62.633949586152" lon="17.989503258085">
        <ele>103.2</ele>
        <time>2018-03-31T11:47:36Z</time>
      </trkpt>
      <trkpt lat="62.633970289445" lon="17.989463863155">
        <ele>103</ele>
        <time>2018-03-31T11:47:37Z</time>
      </trkpt>
      <trkpt lat="62.63401513261" lon="17.989420361094">
        <ele>103</ele>
        <time>2018-03-31T11:47:38Z</time>
      </trkpt>
      <trkpt lat="62.634059975775" lon="17.989404854579">
        <ele>103</ele>
        <time>2018-03-31T11:47:39Z</time>
      </trkpt>
      <trkpt lat="62.634088641873" lon="17.989383480734">
        <ele>103</ele>
        <time>2018-03-31T11:47:40Z</time>
      </trkpt>
      <trkpt lat="62.634118397618" lon="17.989353222075">
        <ele>103</ele>
        <time>2018-03-31T11:47:41Z</time>
      </trkpt>
      <trkpt lat="62.634154858883" lon="17.989300499924">
        <ele>102.4</ele>
        <time>2018-03-31T11:47:42Z</time>
      </trkpt>
      <trkpt lat="62.634188218845" lon="17.98926395484">
        <ele>102</ele>
        <time>2018-03-31T11:47:43Z</time>
      </trkpt>
      <trkpt lat="62.634236666227" lon="17.989222380616">
        <ele>101.8</ele>
        <time>2018-03-31T11:47:44Z</time>
      </trkpt>
      <trkpt lat="62.634269774732" lon="17.989155241597">
        <ele>101.2</ele>
        <time>2018-03-31T11:47:45Z</time>
      </trkpt>
      <trkpt lat="62.63429592626" lon="17.989095897745">
        <ele>100.8</ele>
        <time>2018-03-31T11:47:46Z</time>
      </trkpt>
      <trkpt lat="62.634322329245" lon="17.989015096229">
        <ele>100.2</ele>
        <time>2018-03-31T11:47:47Z</time>
      </trkpt>
      <trkpt lat="62.634363987288" lon="17.988931863962">
        <ele>100.4</ele>
        <time>2018-03-31T11:47:48Z</time>
      </trkpt>
      <trkpt lat="62.634398101621" lon="17.988871179006">
        <ele>100.8</ele>
        <time>2018-03-31T11:47:49Z</time>
      </trkpt>
      <trkpt lat="62.634429449927" lon="17.988816277561">
        <ele>101</ele>
        <time>2018-03-31T11:47:50Z</time>
      </trkpt>
      <trkpt lat="62.634469012495" lon="17.988748300352">
        <ele>101.4</ele>
        <time>2018-03-31T11:47:51Z</time>
      </trkpt>
      <trkpt lat="62.634510251443" lon="17.9886889565">
        <ele>101.6</ele>
        <time>2018-03-31T11:47:52Z</time>
      </trkpt>
      <trkpt lat="62.634550484563" lon="17.988650232122">
        <ele>101.2</ele>
        <time>2018-03-31T11:47:53Z</time>
      </trkpt>
      <trkpt lat="62.634603122895" lon="17.988613184124">
        <ele>101</ele>
        <time>2018-03-31T11:47:54Z</time>
      </trkpt>
      <trkpt lat="62.63465131882" lon="17.988583260741">
        <ele>101</ele>
        <time>2018-03-31T11:47:55Z</time>
      </trkpt>
      <trkpt lat="62.634705633532" lon="17.988562054534">
        <ele>100.8</ele>
        <time>2018-03-31T11:47:56Z</time>
      </trkpt>
      <trkpt lat="62.634759026235" lon="17.988514361523">
        <ele>100.4</ele>
        <time>2018-03-31T11:47:57Z</time>
      </trkpt>
      <trkpt lat="62.634805042866" lon="17.988486533615">
        <ele>100.4</ele>
        <time>2018-03-31T11:47:58Z</time>
      </trkpt>
      <trkpt lat="62.63484829347" lon="17.98846935072">
        <ele>100</ele>
        <time>2018-03-31T11:47:59Z</time>
      </trkpt>
      <trkpt lat="62.63489523211" lon="17.988439343518">
        <ele>99.8</ele>
        <time>2018-03-31T11:48:00Z</time>
      </trkpt>
      <trkpt lat="62.634946277881" lon="17.988401122054">
        <ele>99.2</ele>
        <time>2018-03-31T11:48:01Z</time>
      </trkpt>
      <trkpt lat="62.63499162396" lon="17.988349070455">
        <ele>99</ele>
        <time>2018-03-31T11:48:02Z</time>
      </trkpt>
      <trkpt lat="62.635028755777" lon="17.98829835996">
        <ele>98.6</ele>
        <time>2018-03-31T11:48:03Z</time>
      </trkpt>
      <trkpt lat="62.635066390508" lon="17.988228119638">
        <ele>98.2</ele>
        <time>2018-03-31T11:48:04Z</time>
      </trkpt>
      <trkpt lat="62.635089608371" lon="17.988150922339">
        <ele>98.2</ele>
        <time>2018-03-31T11:48:05Z</time>
      </trkpt>
      <trkpt lat="62.635112742415" lon="17.988052854109">
        <ele>98</ele>
        <time>2018-03-31T11:48:06Z</time>
      </trkpt>
      <trkpt lat="62.635130847319" lon="17.987969118928">
        <ele>98</ele>
        <time>2018-03-31T11:48:07Z</time>
      </trkpt>
      <trkpt lat="62.635147192024" lon="17.987896699312">
        <ele>98</ele>
        <time>2018-03-31T11:48:08Z</time>
      </trkpt>
      <trkpt lat="62.635156663571" lon="17.987821681307">
        <ele>98</ele>
        <time>2018-03-31T11:48:09Z</time>
      </trkpt>
      <trkpt lat="62.635160770702" lon="17.98775102189">
        <ele>97.8</ele>
        <time>2018-03-31T11:48:10Z</time>
      </trkpt>
      <trkpt lat="62.635157334123" lon="17.987693605875">
        <ele>97.8</ele>
        <time>2018-03-31T11:48:11Z</time>
      </trkpt>
      <trkpt lat="62.635144509816" lon="17.98765630642">
        <ele>97.6</ele>
        <time>2018-03-31T11:48:12Z</time>
      </trkpt>
      <trkpt lat="62.635125315265" lon="17.987649768538">
        <ele>97.4</ele>
        <time>2018-03-31T11:48:13Z</time>
      </trkpt>
      <trkpt lat="62.635102600316" lon="17.987682793224">
        <ele>97.2</ele>
        <time>2018-03-31T11:48:14Z</time>
      </trkpt>
      <trkpt lat="62.635096481529" lon="17.987713722435">
        <ele>97</ele>
        <time>2018-03-31T11:48:15Z</time>
      </trkpt>
      <trkpt lat="62.635079382453" lon="17.987743394361">
        <ele>97</ele>
        <time>2018-03-31T11:48:16Z</time>
      </trkpt>
      <trkpt lat="62.635058176246" lon="17.987782789291">
        <ele>96.8</ele>
        <time>2018-03-31T11:48:17Z</time>
      </trkpt>
      <trkpt lat="62.635047447414" lon="17.987824363515">
        <ele>96.8</ele>
        <time>2018-03-31T11:48:18Z</time>
      </trkpt>
      <trkpt lat="62.635037305315" lon="17.987852610518">
        <ele>96.8</ele>
        <time>2018-03-31T11:48:19Z</time>
      </trkpt>
      <trkpt lat="62.635020206239" lon="17.987897872778">
        <ele>96.8</ele>
        <time>2018-03-31T11:48:20Z</time>
      </trkpt>
      <trkpt lat="62.634996317824" lon="17.987939447002">
        <ele>96.8</ele>
        <time>2018-03-31T11:48:21Z</time>
      </trkpt>
      <trkpt lat="62.63497402197" lon="17.987969957118">
        <ele>96.8</ele>
        <time>2018-03-31T11:48:22Z</time>
      </trkpt>
      <trkpt lat="62.634959269826" lon="17.988001305424">
        <ele>97</ele>
        <time>2018-03-31T11:48:23Z</time>
      </trkpt>
      <trkpt lat="62.634934207945" lon="17.988011279885">
        <ele>97</ele>
        <time>2018-03-31T11:48:24Z</time>
      </trkpt>
      <trkpt lat="62.634921718914" lon="17.988026283486">
        <ele>97</ele>
        <time>2018-03-31T11:48:25Z</time>
      </trkpt>
      <trkpt lat="62.634896573214" lon="17.988050758634">
        <ele>97.2</ele>
        <time>2018-03-31T11:48:26Z</time>
      </trkpt>
      <trkpt lat="62.634878803586" lon="17.988069282633">
        <ele>97.2</ele>
        <time>2018-03-31T11:48:27Z</time>
      </trkpt>
      <trkpt lat="62.634857597379" lon="17.988082693673">
        <ele>97.4</ele>
        <time>2018-03-31T11:48:28Z</time>
      </trkpt>
      <trkpt lat="62.634830607661" lon="17.988091829944">
        <ele>97.6</ele>
        <time>2018-03-31T11:48:29Z</time>
      </trkpt>
      <trkpt lat="62.63480219302" lon="17.988116808006">
        <ele>97.6</ele>
        <time>2018-03-31T11:48:30Z</time>
      </trkpt>
      <trkpt lat="62.634780483899" lon="17.988116891825">
        <ele>98</ele>
        <time>2018-03-31T11:48:31Z</time>
      </trkpt>
      <trkpt lat="62.634770174162" lon="17.988158801325">
        <ele>98.2</ele>
        <time>2018-03-31T11:48:32Z</time>
      </trkpt>
      <trkpt lat="62.63474268153" lon="17.988157627859">
        <ele>98.4</ele>
        <time>2018-03-31T11:48:33Z</time>
      </trkpt>
      <trkpt lat="62.634731701241" lon="17.988160729162">
        <ele>98.4</ele>
        <time>2018-03-31T11:48:34Z</time>
      </trkpt>
      <trkpt lat="62.634706220265" lon="17.988174475478">
        <ele>98.6</ele>
        <time>2018-03-31T11:48:35Z</time>
      </trkpt>
      <trkpt lat="62.63467897909" lon="17.98818436612">
        <ele>98.6</ele>
        <time>2018-03-31T11:48:36Z</time>
      </trkpt>
      <trkpt lat="62.634654336304" lon="17.988183695568">
        <ele>98.8</ele>
        <time>2018-03-31T11:48:37Z</time>
      </trkpt>
      <trkpt lat="62.634618797048" lon="17.988181600093">
        <ele>98.8</ele>
        <time>2018-03-31T11:48:38Z</time>
      </trkpt>
      <trkpt lat="62.634612175347" lon="17.988187802699">
        <ele>99</ele>
        <time>2018-03-31T11:48:39Z</time>
      </trkpt>
      <trkpt lat="62.634580491765" lon="17.988196855151">
        <ele>99</ele>
        <time>2018-03-31T11:48:40Z</time>
      </trkpt>
      <trkpt lat="62.634560961938" lon="17.988221330299">
        <ele>99.2</ele>
        <time>2018-03-31T11:48:41Z</time>
      </trkpt>
      <trkpt lat="62.634534978048" lon="17.98820783544">
        <ele>99.2</ele>
        <time>2018-03-31T11:48:42Z</time>
      </trkpt>
      <trkpt lat="62.634519471533" lon="17.988218312815">
        <ele>99.2</ele>
        <time>2018-03-31T11:48:43Z</time>
      </trkpt>
      <trkpt lat="62.634489212874" lon="17.98822292286">
        <ele>99.4</ele>
        <time>2018-03-31T11:48:44Z</time>
      </trkpt>
      <trkpt lat="62.634471862341" lon="17.988234238425">
        <ele>99.4</ele>
        <time>2018-03-31T11:48:45Z</time>
      </trkpt>
      <trkpt lat="62.634446549003" lon="17.988228371095">
        <ele>99.4</ele>
        <time>2018-03-31T11:48:46Z</time>
      </trkpt>
      <trkpt lat="62.63440656734" lon="17.988239099927">
        <ele>99.6</ele>
        <time>2018-03-31T11:48:47Z</time>
      </trkpt>
      <trkpt lat="62.634383684753" lon="17.988235328072">
        <ele>99.6</ele>
        <time>2018-03-31T11:48:48Z</time>
      </trkpt>
      <trkpt lat="62.634361807994" lon="17.988230969484">
        <ele>99.8</ele>
        <time>2018-03-31T11:48:49Z</time>
      </trkpt>
      <trkpt lat="62.634338757769" lon="17.988246559818">
        <ele>99.8</ele>
        <time>2018-03-31T11:48:50Z</time>
      </trkpt>
      <trkpt lat="62.63430682273" lon="17.988226359439">
        <ele>99.8</ele>
        <time>2018-03-31T11:48:51Z</time>
      </trkpt>
      <trkpt lat="62.634258962081" lon="17.988220995023">
        <ele>100</ele>
        <time>2018-03-31T11:48:52Z</time>
      </trkpt>
      <trkpt lat="62.634215627658" lon="17.988199621178">
        <ele>99.8</ele>
        <time>2018-03-31T11:48:53Z</time>
      </trkpt>
      <trkpt lat="62.63418863794" lon="17.988198782988">
        <ele>99.8</ele>
        <time>2018-03-31T11:48:54Z</time>
      </trkpt>
      <trkpt lat="62.634166174448" lon="17.988180761903">
        <ele>100</ele>
        <time>2018-03-31T11:48:55Z</time>
      </trkpt>
      <trkpt lat="62.634121498921" lon="17.988161064438">
        <ele>100</ele>
        <time>2018-03-31T11:48:56Z</time>
      </trkpt>
      <trkpt lat="62.634098532515" lon="17.988158633687">
        <ele>100.2</ele>
        <time>2018-03-31T11:48:57Z</time>
      </trkpt>
      <trkpt lat="62.634055198092" lon="17.988131224874">
        <ele>100.4</ele>
        <time>2018-03-31T11:48:58Z</time>
      </trkpt>
      <trkpt lat="62.634038266654" lon="17.988117730015">
        <ele>100.4</ele>
        <time>2018-03-31T11:48:59Z</time>
      </trkpt>
      <trkpt lat="62.634014964972" lon="17.988102307319">
        <ele>100.6</ele>
        <time>2018-03-31T11:49:00Z</time>
      </trkpt>
      <trkpt lat="62.633984035761" lon="17.988069450271">
        <ele>100.8</ele>
        <time>2018-03-31T11:49:01Z</time>
      </trkpt>
      <trkpt lat="62.633954866749" lon="17.988058386163">
        <ele>100.8</ele>
        <time>2018-03-31T11:49:02Z</time>
      </trkpt>
      <trkpt lat="62.633948328867" lon="17.988022008717">
        <ele>101</ele>
        <time>2018-03-31T11:49:03Z</time>
      </trkpt>
      <trkpt lat="62.633923853719" lon="17.987998623216">
        <ele>101</ele>
        <time>2018-03-31T11:49:04Z</time>
      </trkpt>
      <trkpt lat="62.633894684707" lon="17.987971717317">
        <ele>101</ele>
        <time>2018-03-31T11:49:05Z</time>
      </trkpt>
      <trkpt lat="62.633856211786" lon="17.987934501681">
        <ele>101.2</ele>
        <time>2018-03-31T11:49:06Z</time>
      </trkpt>
      <trkpt lat="62.63382737805" lon="17.987913044017">
        <ele>101.2</ele>
        <time>2018-03-31T11:49:07Z</time>
      </trkpt>
      <trkpt lat="62.633796784115" lon="17.98789770514">
        <ele>101.2</ele>
        <time>2018-03-31T11:49:08Z</time>
      </trkpt>
      <trkpt lat="62.633770632587" lon="17.98787004487">
        <ele>101.4</ele>
        <time>2018-03-31T11:49:09Z</time>
      </trkpt>
      <trkpt lat="62.633740122471" lon="17.987835595261">
        <ele>101.4</ele>
        <time>2018-03-31T11:49:10Z</time>
      </trkpt>
      <trkpt lat="62.633713887124" lon="17.987814472873">
        <ele>101.6</ele>
        <time>2018-03-31T11:49:11Z</time>
      </trkpt>
      <trkpt lat="62.63368823851" lon="17.987796116512">
        <ele>101.6</ele>
        <time>2018-03-31T11:49:12Z</time>
      </trkpt>
      <trkpt lat="62.633660662059" lon="17.987759906704">
        <ele>101.8</ele>
        <time>2018-03-31T11:49:13Z</time>
      </trkpt>
      <trkpt lat="62.633634426712" lon="17.987727636389">
        <ele>102</ele>
        <time>2018-03-31T11:49:14Z</time>
      </trkpt>
      <trkpt lat="62.633610789754" lon="17.98771330334">
        <ele>102.4</ele>
        <time>2018-03-31T11:49:15Z</time>
      </trkpt>
      <trkpt lat="62.633576423964" lon="17.987659826818">
        <ele>102.4</ele>
        <time>2018-03-31T11:49:16Z</time>
      </trkpt>
      <trkpt lat="62.633555636852" lon="17.98762780796">
        <ele>102.6</ele>
        <time>2018-03-31T11:49:17Z</time>
      </trkpt>
      <trkpt lat="62.633526300202" lon="17.98759008941">
        <ele>102.8</ele>
        <time>2018-03-31T11:49:18Z</time>
      </trkpt>
      <trkpt lat="62.633501741235" lon="17.987557316181">
        <ele>102.8</ele>
        <time>2018-03-31T11:49:19Z</time>
      </trkpt>
      <trkpt lat="62.633479613019" lon="17.987527895712">
        <ele>102.8</ele>
        <time>2018-03-31T11:49:20Z</time>
      </trkpt>
      <trkpt lat="62.633471901671" lon="17.98748112471">
        <ele>103</ele>
        <time>2018-03-31T11:49:21Z</time>
      </trkpt>
      <trkpt lat="62.633453126215" lon="17.987435527174">
        <ele>103.2</ele>
        <time>2018-03-31T11:49:22Z</time>
      </trkpt>
      <trkpt lat="62.633432087646" lon="17.98739479114">
        <ele>103.4</ele>
        <time>2018-03-31T11:49:23Z</time>
      </trkpt>
      <trkpt lat="62.63340995943" lon="17.987361012083">
        <ele>103.8</ele>
        <time>2018-03-31T11:49:24Z</time>
      </trkpt>
      <trkpt lat="62.633379700771" lon="17.98727492997">
        <ele>104</ele>
        <time>2018-03-31T11:49:25Z</time>
      </trkpt>
      <trkpt lat="62.633364026618" lon="17.987174682446">
        <ele>104</ele>
        <time>2018-03-31T11:49:26Z</time>
      </trkpt>
      <trkpt lat="62.633335947253" lon="17.987055491828">
        <ele>104</ele>
        <time>2018-03-31T11:49:27Z</time>
      </trkpt>
      <trkpt lat="62.63330853844" lon="17.986931942622">
        <ele>103.6</ele>
        <time>2018-03-31T11:49:28Z</time>
      </trkpt>
      <trkpt lat="62.633288002785" lon="17.986832030374">
        <ele>103.2</ele>
        <time>2018-03-31T11:49:29Z</time>
      </trkpt>
      <trkpt lat="62.633272244813" lon="17.986722478941">
        <ele>102.6</ele>
        <time>2018-03-31T11:49:30Z</time>
      </trkpt>
      <trkpt lat="62.633259839601" lon="17.986617118458">
        <ele>102</ele>
        <time>2018-03-31T11:49:31Z</time>
      </trkpt>
      <trkpt lat="62.633249446045" lon="17.98650630974">
        <ele>101.4</ele>
        <time>2018-03-31T11:49:32Z</time>
      </trkpt>
      <trkpt lat="62.63324148324" lon="17.98639818323">
        <ele>101</ele>
        <time>2018-03-31T11:49:33Z</time>
      </trkpt>
      <trkpt lat="62.633244668362" lon="17.986289972901">
        <ele>100.2</ele>
        <time>2018-03-31T11:49:34Z</time>
      </trkpt>
      <trkpt lat="62.633241315602" lon="17.986181259658">
        <ele>100</ele>
        <time>2018-03-31T11:49:35Z</time>
      </trkpt>
      <trkpt lat="62.633247266751" lon="17.986046646344">
        <ele>99.6</ele>
        <time>2018-03-31T11:49:36Z</time>
      </trkpt>
      <trkpt lat="62.63325237971" lon="17.985930640848">
        <ele>99.4</ele>
        <time>2018-03-31T11:49:37Z</time>
      </trkpt>
      <trkpt lat="62.633257660307" lon="17.985814132438">
        <ele>99</ele>
        <time>2018-03-31T11:49:38Z</time>
      </trkpt>
      <trkpt lat="62.633257073574" lon="17.98570416191">
        <ele>98.6</ele>
        <time>2018-03-31T11:49:39Z</time>
      </trkpt>
      <trkpt lat="62.633252966443" lon="17.985609697897">
        <ele>98.4</ele>
        <time>2018-03-31T11:49:40Z</time>
      </trkpt>
      <trkpt lat="62.633256654479" lon="17.985513306047">
        <ele>98</ele>
        <time>2018-03-31T11:49:41Z</time>
      </trkpt>
      <trkpt lat="62.63325908523" lon="17.985398138741">
        <ele>97.8</ele>
        <time>2018-03-31T11:49:42Z</time>
      </trkpt>
      <trkpt lat="62.633273166822" lon="17.985269476576">
        <ele>97.8</ele>
        <time>2018-03-31T11:49:43Z</time>
      </trkpt>
      <trkpt lat="62.633287499871" lon="17.985137713108">
        <ele>97.6</ele>
        <time>2018-03-31T11:49:44Z</time>
      </trkpt>
      <trkpt lat="62.633309460449" lon="17.985016091739">
        <ele>97.4</ele>
        <time>2018-03-31T11:49:45Z</time>
      </trkpt>
      <trkpt lat="62.633330750475" lon="17.9848835739">
        <ele>97</ele>
        <time>2018-03-31T11:49:46Z</time>
      </trkpt>
      <trkpt lat="62.633354974166" lon="17.98476203635">
        <ele>96.6</ele>
        <time>2018-03-31T11:49:47Z</time>
      </trkpt>
      <trkpt lat="62.63338313735" lon="17.984647120501">
        <ele>96.2</ele>
        <time>2018-03-31T11:49:48Z</time>
      </trkpt>
      <trkpt lat="62.633407109584" lon="17.98454410695">
        <ele>95.6</ele>
        <time>2018-03-31T11:49:49Z</time>
      </trkpt>
      <trkpt lat="62.633437368243" lon="17.984467412565">
        <ele>95.2</ele>
        <time>2018-03-31T11:49:50Z</time>
      </trkpt>
      <trkpt lat="62.63345941264" lon="17.984366159213">
        <ele>95.2</ele>
        <time>2018-03-31T11:49:51Z</time>
      </trkpt>
      <trkpt lat="62.633469973834" lon="17.984273623037">
        <ele>95.4</ele>
        <time>2018-03-31T11:49:52Z</time>
      </trkpt>
      <trkpt lat="62.633477769001" lon="17.984188965847">
        <ele>95.6</ele>
        <time>2018-03-31T11:49:53Z</time>
      </trkpt>
      <trkpt lat="62.633472572223" lon="17.984104560114">
        <ele>95.8</ele>
        <time>2018-03-31T11:49:54Z</time>
      </trkpt>
      <trkpt lat="62.633476511716" lon="17.98402526734">
        <ele>95.8</ele>
        <time>2018-03-31T11:49:55Z</time>
      </trkpt>
      <trkpt lat="62.633489000747" lon="17.983939017589">
        <ele>96.2</ele>
        <time>2018-03-31T11:49:56Z</time>
      </trkpt>
      <trkpt lat="62.633496712095" lon="17.983871291837">
        <ele>96.4</ele>
        <time>2018-03-31T11:49:57Z</time>
      </trkpt>
      <trkpt lat="62.633508530574" lon="17.983801722067">
        <ele>96.4</ele>
        <time>2018-03-31T11:49:58Z</time>
      </trkpt>
      <trkpt lat="62.633510206954" lon="17.983725865872">
        <ele>96.4</ele>
        <time>2018-03-31T11:49:59Z</time>
      </trkpt>
      <trkpt lat="62.633520013777" lon="17.983641124863">
        <ele>96.4</ele>
        <time>2018-03-31T11:50:00Z</time>
      </trkpt>
      <trkpt lat="62.633527222211" lon="17.983573985844">
        <ele>96.4</ele>
        <time>2018-03-31T11:50:01Z</time>
      </trkpt>
      <trkpt lat="62.633540214156" lon="17.983516066915">
        <ele>96.6</ele>
        <time>2018-03-31T11:50:02Z</time>
      </trkpt>
      <trkpt lat="62.633551110626" lon="17.983436103589">
        <ele>96.6</ele>
        <time>2018-03-31T11:50:03Z</time>
      </trkpt>
      <trkpt lat="62.633557816146" lon="17.983370305674">
        <ele>96.6</ele>
        <time>2018-03-31T11:50:04Z</time>
      </trkpt>
      <trkpt lat="62.633570137539" lon="17.983314817496">
        <ele>96.6</ele>
        <time>2018-03-31T11:50:05Z</time>
      </trkpt>
      <trkpt lat="62.633587320434" lon="17.983232842514">
        <ele>96.6</ele>
        <time>2018-03-31T11:50:06Z</time>
      </trkpt>
      <trkpt lat="62.633600060922" lon="17.983185149503">
        <ele>96.8</ele>
        <time>2018-03-31T11:50:07Z</time>
      </trkpt>
      <trkpt lat="62.633622692052" lon="17.983108790394">
        <ele>96.8</ele>
        <time>2018-03-31T11:50:08Z</time>
      </trkpt>
      <trkpt lat="62.633617159998" lon="17.983082974142">
        <ele>96.8</ele>
        <time>2018-03-31T11:50:09Z</time>
      </trkpt>
      <trkpt lat="62.633634007617" lon="17.983022540643">
        <ele>96.8</ele>
        <time>2018-03-31T11:50:10Z</time>
      </trkpt>
      <trkpt lat="62.63366476919" lon="17.982933273408">
        <ele>96.8</ele>
        <time>2018-03-31T11:50:11Z</time>
      </trkpt>
      <trkpt lat="62.633679772791" lon="17.982863703638">
        <ele>96.8</ele>
        <time>2018-03-31T11:50:12Z</time>
      </trkpt>
      <trkpt lat="62.633693602926" lon="17.982795726429">
        <ele>96.8</ele>
        <time>2018-03-31T11:50:13Z</time>
      </trkpt>
      <trkpt lat="62.633719922092" lon="17.982708051755">
        <ele>96.6</ele>
        <time>2018-03-31T11:50:14Z</time>
      </trkpt>
      <trkpt lat="62.633729980372" lon="17.982629513352">
        <ele>96.6</ele>
        <time>2018-03-31T11:50:15Z</time>
      </trkpt>
      <trkpt lat="62.633743056136" lon="17.98255927303">
        <ele>96.6</ele>
        <time>2018-03-31T11:50:16Z</time>
      </trkpt>
      <trkpt lat="62.633760490488" lon="17.982481908093">
        <ele>96.8</ele>
        <time>2018-03-31T11:50:17Z</time>
      </trkpt>
      <trkpt lat="62.633779936496" lon="17.982372272841">
        <ele>96.8</ele>
        <time>2018-03-31T11:50:18Z</time>
      </trkpt>
      <trkpt lat="62.633796700296" lon="17.982293482981">
        <ele>96.6</ele>
        <time>2018-03-31T11:50:19Z</time>
      </trkpt>
      <trkpt lat="62.633801058884" lon="17.982211843275">
        <ele>96.6</ele>
        <time>2018-03-31T11:50:20Z</time>
      </trkpt>
      <trkpt lat="62.633804411644" lon="17.982124000963">
        <ele>96.6</ele>
        <time>2018-03-31T11:50:21Z</time>
      </trkpt>
      <trkpt lat="62.633795107735" lon="17.982042864171">
        <ele>96.4</ele>
        <time>2018-03-31T11:50:22Z</time>
      </trkpt>
      <trkpt lat="62.63380977606" lon="17.981982933586">
        <ele>96.4</ele>
        <time>2018-03-31T11:50:23Z</time>
      </trkpt>
      <trkpt lat="62.633820588711" lon="17.981909172866">
        <ele>96.6</ele>
        <time>2018-03-31T11:50:24Z</time>
      </trkpt>
      <trkpt lat="62.633806507119" lon="17.981849074643">
        <ele>96.6</ele>
        <time>2018-03-31T11:50:25Z</time>
      </trkpt>
      <trkpt lat="62.633815308114" lon="17.981780343063">
        <ele>96.8</ele>
        <time>2018-03-31T11:50:26Z</time>
      </trkpt>
      <trkpt lat="62.633826120765" lon="17.981715550976">
        <ele>96.8</ele>
        <time>2018-03-31T11:50:27Z</time>
      </trkpt>
      <trkpt lat="62.633835257036" lon="17.98165067507">
        <ele>96.8</ele>
        <time>2018-03-31T11:50:28Z</time>
      </trkpt>
      <trkpt lat="62.633840118538" lon="17.981594013426">
        <ele>96.8</ele>
        <time>2018-03-31T11:50:29Z</time>
      </trkpt>
      <trkpt lat="62.633848668076" lon="17.981528047873">
        <ele>96.8</ele>
        <time>2018-03-31T11:50:30Z</time>
      </trkpt>
      <trkpt lat="62.633845985868" lon="17.981478427025">
        <ele>96.8</ele>
        <time>2018-03-31T11:50:31Z</time>
      </trkpt>
      <trkpt lat="62.633853864854" lon="17.98137826332">
        <ele>97</ele>
        <time>2018-03-31T11:50:32Z</time>
      </trkpt>
      <trkpt lat="62.633862917306" lon="17.981319841477">
        <ele>97</ele>
        <time>2018-03-31T11:50:33Z</time>
      </trkpt>
      <trkpt lat="62.633865850971" lon="17.981272399923">
        <ele>97</ele>
        <time>2018-03-31T11:50:34Z</time>
      </trkpt>
      <trkpt lat="62.633882950047" lon="17.981220096867">
        <ele>97</ele>
        <time>2018-03-31T11:50:35Z</time>
      </trkpt>
      <trkpt lat="62.633907509014" lon="17.981141223188">
        <ele>97.2</ele>
        <time>2018-03-31T11:50:36Z</time>
      </trkpt>
      <trkpt lat="62.633923686081" lon="17.981088920132">
        <ele>97.2</ele>
        <time>2018-03-31T11:50:37Z</time>
      </trkpt>
      <trkpt lat="62.633936678026" lon="17.981030917384">
        <ele>97.2</ele>
        <time>2018-03-31T11:50:38Z</time>
      </trkpt>
      <trkpt lat="62.633955788758" lon="17.980992109187">
        <ele>97.4</ele>
        <time>2018-03-31T11:50:39Z</time>
      </trkpt>
      <trkpt lat="62.633963919201" lon="17.980934525534">
        <ele>97.6</ele>
        <time>2018-03-31T11:50:40Z</time>
      </trkpt>
      <trkpt lat="62.633986801788" lon="17.980883647401">
        <ele>97.6</ele>
        <time>2018-03-31T11:50:41Z</time>
      </trkpt>
      <trkpt lat="62.633997865896" lon="17.980820364056">
        <ele>97.8</ele>
        <time>2018-03-31T11:50:42Z</time>
      </trkpt>
      <trkpt lat="62.634001973027" lon="17.980774515063">
        <ele>97.8</ele>
        <time>2018-03-31T11:50:43Z</time>
      </trkpt>
      <trkpt lat="62.634010522565" lon="17.980706286397">
        <ele>97.8</ele>
        <time>2018-03-31T11:50:44Z</time>
      </trkpt>
      <trkpt lat="62.634022760139" lon="17.980646104355">
        <ele>98</ele>
        <time>2018-03-31T11:50:45Z</time>
      </trkpt>
      <trkpt lat="62.634039607758" lon="17.980593130747">
        <ele>98.2</ele>
        <time>2018-03-31T11:50:46Z</time>
      </trkpt>
      <trkpt lat="62.634066429838" lon="17.980524482986">
        <ele>98</ele>
        <time>2018-03-31T11:50:47Z</time>
      </trkpt>
      <trkpt lat="62.634080259973" lon="17.980478214898">
        <ele>98.2</ele>
        <time>2018-03-31T11:50:48Z</time>
      </trkpt>
      <trkpt lat="62.634103226379" lon="17.980411914069">
        <ele>98.2</ele>
        <time>2018-03-31T11:50:49Z</time>
      </trkpt>
      <trkpt lat="62.63411906817" lon="17.980352570217">
        <ele>98.2</ele>
        <time>2018-03-31T11:50:50Z</time>
      </trkpt>
      <trkpt lat="62.634147482811" lon="17.980300602437">
        <ele>98.2</ele>
        <time>2018-03-31T11:50:51Z</time>
      </trkpt>
      <trkpt lat="62.634175645995" lon="17.980240085119">
        <ele>98.4</ele>
        <time>2018-03-31T11:50:52Z</time>
      </trkpt>
      <trkpt lat="62.634207161939" lon="17.980197840343">
        <ele>98.4</ele>
        <time>2018-03-31T11:50:53Z</time>
      </trkpt>
      <trkpt lat="62.634235408942" lon="17.980132126247">
        <ele>98.2</ele>
        <time>2018-03-31T11:50:54Z</time>
      </trkpt>
      <trkpt lat="62.63426575142" lon="17.9800891271">
        <ele>98.4</ele>
        <time>2018-03-31T11:50:55Z</time>
      </trkpt>
      <trkpt lat="62.634293998423" lon="17.980032046361">
        <ele>98.4</ele>
        <time>2018-03-31T11:50:56Z</time>
      </trkpt>
      <trkpt lat="62.634311935689" lon="17.979967757188">
        <ele>98.6</ele>
        <time>2018-03-31T11:50:57Z</time>
      </trkpt>
      <trkpt lat="62.634338841588" lon="17.979905982585">
        <ele>98.4</ele>
        <time>2018-03-31T11:50:58Z</time>
      </trkpt>
      <trkpt lat="62.634346050022" lon="17.979824426698">
        <ele>98.4</ele>
        <time>2018-03-31T11:50:59Z</time>
      </trkpt>
      <trkpt lat="62.634366669496" lon="17.979770698719">
        <ele>98.2</ele>
        <time>2018-03-31T11:51:00Z</time>
      </trkpt>
      <trkpt lat="62.634373123559" lon="17.97969769237">
        <ele>98.2</ele>
        <time>2018-03-31T11:51:01Z</time>
      </trkpt>
      <trkpt lat="62.634386031685" lon="17.979622925822">
        <ele>98</ele>
        <time>2018-03-31T11:51:02Z</time>
      </trkpt>
      <trkpt lat="62.63440740553" lon="17.979548829826">
        <ele>98</ele>
        <time>2018-03-31T11:51:03Z</time>
      </trkpt>
      <trkpt lat="62.634411680299" lon="17.97948730668">
        <ele>98</ele>
        <time>2018-03-31T11:51:04Z</time>
      </trkpt>
      <trkpt lat="62.634427102995" lon="17.979426034991">
        <ele>98</ele>
        <time>2018-03-31T11:51:05Z</time>
      </trkpt>
      <trkpt lat="62.634446632822" lon="17.979342048353">
        <ele>98.2</ele>
        <time>2018-03-31T11:51:06Z</time>
      </trkpt>
      <trkpt lat="62.634455852912" lon="17.979296031722">
        <ele>98.2</ele>
        <time>2018-03-31T11:51:07Z</time>
      </trkpt>
      <trkpt lat="62.634477059119" lon="17.979216319853">
        <ele>98.2</ele>
        <time>2018-03-31T11:51:08Z</time>
      </trkpt>
      <trkpt lat="62.634479825146" lon="17.979151863042">
        <ele>98.2</ele>
        <time>2018-03-31T11:51:09Z</time>
      </trkpt>
      <trkpt lat="62.634500779896" lon="17.979089920801">
        <ele>98.2</ele>
        <time>2018-03-31T11:51:10Z</time>
      </trkpt>
      <trkpt lat="62.634508910339" lon="17.979011298579">
        <ele>98.2</ele>
        <time>2018-03-31T11:51:11Z</time>
      </trkpt>
      <trkpt lat="62.634525674139" lon="17.978945249207">
        <ele>98</ele>
        <time>2018-03-31T11:51:12Z</time>
      </trkpt>
      <trkpt lat="62.634529948908" lon="17.978856568705">
        <ele>98</ele>
        <time>2018-03-31T11:51:13Z</time>
      </trkpt>
      <trkpt lat="62.634540007188" lon="17.978783813813">
        <ele>98.2</ele>
        <time>2018-03-31T11:51:14Z</time>
      </trkpt>
      <trkpt lat="62.634555346065" lon="17.978720446649">
        <ele>98.2</ele>
        <time>2018-03-31T11:51:15Z</time>
      </trkpt>
      <trkpt lat="62.634572612779" lon="17.978626317912">
        <ele>98.2</ele>
        <time>2018-03-31T11:51:16Z</time>
      </trkpt>
      <trkpt lat="62.634586694371" lon="17.97855188664">
        <ele>98.2</ele>
        <time>2018-03-31T11:51:17Z</time>
      </trkpt>
      <trkpt lat="62.634602871438" lon="17.978451722935">
        <ele>98.4</ele>
        <time>2018-03-31T11:51:18Z</time>
      </trkpt>
      <trkpt lat="62.634606559474" lon="17.978361952786">
        <ele>98.4</ele>
        <time>2018-03-31T11:51:19Z</time>
      </trkpt>
      <trkpt lat="62.634628352414" lon="17.978275367759">
        <ele>98.4</ele>
        <time>2018-03-31T11:51:20Z</time>
      </trkpt>
      <trkpt lat="62.634643858929" lon="17.978184005049">
        <ele>98.2</ele>
        <time>2018-03-31T11:51:21Z</time>
      </trkpt>
      <trkpt lat="62.634672608846" lon="17.978103203533">
        <ele>98.2</ele>
        <time>2018-03-31T11:51:22Z</time>
      </trkpt>
      <trkpt lat="62.634689791741" lon="17.978014355393">
        <ele>98</ele>
        <time>2018-03-31T11:51:23Z</time>
      </trkpt>
      <trkpt lat="62.634693647415" lon="17.97792743509">
        <ele>97.6</ele>
        <time>2018-03-31T11:51:24Z</time>
      </trkpt>
      <trkpt lat="62.634713177242" lon="17.97786708541">
        <ele>97.2</ele>
        <time>2018-03-31T11:51:25Z</time>
      </trkpt>
      <trkpt lat="62.634733126164" lon="17.977785864799">
        <ele>97</ele>
        <time>2018-03-31T11:51:26Z</time>
      </trkpt>
      <trkpt lat="62.634714434527" lon="17.977714367192">
        <ele>96.6</ele>
        <time>2018-03-31T11:51:27Z</time>
      </trkpt>
      <trkpt lat="62.634735473096" lon="17.977623591215">
        <ele>96.4</ele>
        <time>2018-03-31T11:51:28Z</time>
      </trkpt>
      <trkpt lat="62.634758690959" lon="17.977543041156">
        <ele>96.4</ele>
        <time>2018-03-31T11:51:29Z</time>
      </trkpt>
      <trkpt lat="62.634773191646" lon="17.977441117252">
        <ele>96.4</ele>
        <time>2018-03-31T11:51:30Z</time>
      </trkpt>
      <trkpt lat="62.634792470016" lon="17.977375151699">
        <ele>96.6</ele>
        <time>2018-03-31T11:51:31Z</time>
      </trkpt>
      <trkpt lat="62.634810658739" lon="17.977316729856">
        <ele>96.4</ele>
        <time>2018-03-31T11:51:32Z</time>
      </trkpt>
      <trkpt lat="62.634834128059" lon="17.977238694367">
        <ele>96.2</ele>
        <time>2018-03-31T11:51:33Z</time>
      </trkpt>
      <trkpt lat="62.63485667537" lon="17.977138195386">
        <ele>96.4</ele>
        <time>2018-03-31T11:51:34Z</time>
      </trkpt>
      <trkpt lat="62.634876205197" lon="17.977066697779">
        <ele>96.2</ele>
        <time>2018-03-31T11:51:35Z</time>
      </trkpt>
      <trkpt lat="62.634893639549" lon="17.976973658689">
        <ele>96</ele>
        <time>2018-03-31T11:51:36Z</time>
      </trkpt>
      <trkpt lat="62.634905541847" lon="17.976867795292">
        <ele>96.2</ele>
        <time>2018-03-31T11:51:37Z</time>
      </trkpt>
      <trkpt lat="62.634915181032" lon="17.976802332653">
        <ele>96.2</ele>
        <time>2018-03-31T11:51:38Z</time>
      </trkpt>
      <trkpt lat="62.634933956488" lon="17.976722536965">
        <ele>96</ele>
        <time>2018-03-31T11:51:39Z</time>
      </trkpt>
      <trkpt lat="62.634952061392" lon="17.976616003016">
        <ele>96</ele>
        <time>2018-03-31T11:51:40Z</time>
      </trkpt>
      <trkpt lat="62.634974524884" lon="17.976548444902">
        <ele>96</ele>
        <time>2018-03-31T11:51:41Z</time>
      </trkpt>
      <trkpt lat="62.634994054711" lon="17.976466889015">
        <ele>96</ele>
        <time>2018-03-31T11:51:42Z</time>
      </trkpt>
      <trkpt lat="62.63501593147" lon="17.976387009508">
        <ele>96</ele>
        <time>2018-03-31T11:51:43Z</time>
      </trkpt>
      <trkpt lat="62.63504107717" lon="17.976329509674">
        <ele>95.8</ele>
        <time>2018-03-31T11:51:44Z</time>
      </trkpt>
      <trkpt lat="62.635068150707" lon="17.976239152792">
        <ele>95.6</ele>
        <time>2018-03-31T11:51:45Z</time>
      </trkpt>
      <trkpt lat="62.635090949475" lon="17.976147538625">
        <ele>95.4</ele>
        <time>2018-03-31T11:51:46Z</time>
      </trkpt>
      <trkpt lat="62.635117771555" lon="17.976075538104">
        <ele>95.2</ele>
        <time>2018-03-31T11:51:47Z</time>
      </trkpt>
      <trkpt lat="62.635125147627" lon="17.975959113513">
        <ele>95.2</ele>
        <time>2018-03-31T11:51:48Z</time>
      </trkpt>
      <trkpt lat="62.635150712422" lon="17.975866409699">
        <ele>94.8</ele>
        <time>2018-03-31T11:51:49Z</time>
      </trkpt>
      <trkpt lat="62.635165632204" lon="17.975782423061">
        <ele>94.8</ele>
        <time>2018-03-31T11:51:50Z</time>
      </trkpt>
      <trkpt lat="62.635181809271" lon="17.975697682052">
        <ele>94.4</ele>
        <time>2018-03-31T11:51:51Z</time>
      </trkpt>
      <trkpt lat="62.635200584727" lon="17.975604642962">
        <ele>94.2</ele>
        <time>2018-03-31T11:51:52Z</time>
      </trkpt>
      <trkpt lat="62.635225730427" lon="17.975527948577">
        <ele>94</ele>
        <time>2018-03-31T11:51:53Z</time>
      </trkpt>
      <trkpt lat="62.635240063476" lon="17.9754204088">
        <ele>94</ele>
        <time>2018-03-31T11:51:54Z</time>
      </trkpt>
      <trkpt lat="62.635253223059" lon="17.975359053292">
        <ele>94</ele>
        <time>2018-03-31T11:51:55Z</time>
      </trkpt>
      <trkpt lat="62.635254480344" lon="17.975250340049">
        <ele>94</ele>
        <time>2018-03-31T11:51:56Z</time>
      </trkpt>
      <trkpt lat="62.635241488399" lon="17.975143470824">
        <ele>93.8</ele>
        <time>2018-03-31T11:51:57Z</time>
      </trkpt>
      <trkpt lat="62.63522464078" lon="17.975039116169">
        <ele>93.4</ele>
        <time>2018-03-31T11:51:58Z</time>
      </trkpt>
      <trkpt lat="62.635201506736" lon="17.974951944409">
        <ele>93</ele>
        <time>2018-03-31T11:51:59Z</time>
      </trkpt>
      <trkpt lat="62.635179797615" lon="17.974863599183">
        <ele>92.6</ele>
        <time>2018-03-31T11:52:00Z</time>
      </trkpt>
      <trkpt lat="62.635158842865" lon="17.974779864002">
        <ele>92</ele>
        <time>2018-03-31T11:52:01Z</time>
      </trkpt>
      <trkpt lat="62.635138139572" lon="17.974688166016">
        <ele>91.6</ele>
        <time>2018-03-31T11:52:02Z</time>
      </trkpt>
      <trkpt lat="62.635112826234" lon="17.974585487741">
        <ele>91.2</ele>
        <time>2018-03-31T11:52:03Z</time>
      </trkpt>
      <trkpt lat="62.635092709674" lon="17.974487000416">
        <ele>90.6</ele>
        <time>2018-03-31T11:52:04Z</time>
      </trkpt>
      <trkpt lat="62.635070749096" lon="17.974400415389">
        <ele>90.4</ele>
        <time>2018-03-31T11:52:05Z</time>
      </trkpt>
      <trkpt lat="62.635049039975" lon="17.974296815105">
        <ele>90.4</ele>
        <time>2018-03-31T11:52:06Z</time>
      </trkpt>
      <trkpt lat="62.6350301807" lon="17.974217103236">
        <ele>90.2</ele>
        <time>2018-03-31T11:52:07Z</time>
      </trkpt>
      <trkpt lat="62.634999083851" lon="17.974158765212">
        <ele>90.4</ele>
        <time>2018-03-31T11:52:08Z</time>
      </trkpt>
      <trkpt lat="62.634983577336" lon="17.974083747207">
        <ele>90.6</ele>
        <time>2018-03-31T11:52:09Z</time>
      </trkpt>
      <trkpt lat="62.634966729717" lon="17.974012668695">
        <ele>90.8</ele>
        <time>2018-03-31T11:52:10Z</time>
      </trkpt>
      <trkpt lat="62.63491786324" lon="17.97394100345">
        <ele>91</ele>
        <time>2018-03-31T11:52:11Z</time>
      </trkpt>
      <trkpt lat="62.634914091385" lon="17.973887024014">
        <ele>91</ele>
        <time>2018-03-31T11:52:12Z</time>
      </trkpt>
      <trkpt lat="62.634902692001" lon="17.973795745123">
        <ele>91</ele>
        <time>2018-03-31T11:52:13Z</time>
      </trkpt>
      <trkpt lat="62.634888275133" lon="17.973714775969">
        <ele>90.8</ele>
        <time>2018-03-31T11:52:14Z</time>
      </trkpt>
      <trkpt lat="62.634881569613" lon="17.973654091013">
        <ele>90.8</ele>
        <time>2018-03-31T11:52:15Z</time>
      </trkpt>
      <trkpt lat="62.634871511333" lon="17.973541103001">
        <ele>90.6</ele>
        <time>2018-03-31T11:52:16Z</time>
      </trkpt>
      <trkpt lat="62.634845611262" lon="17.973472539059">
        <ele>90.6</ele>
        <time>2018-03-31T11:52:17Z</time>
      </trkpt>
      <trkpt lat="62.6348541608" lon="17.973378494141">
        <ele>90.4</ele>
        <time>2018-03-31T11:52:18Z</time>
      </trkpt>
      <trkpt lat="62.634854747533" lon="17.973271708735">
        <ele>90.2</ele>
        <time>2018-03-31T11:52:19Z</time>
      </trkpt>
      <trkpt lat="62.634866398374" lon="17.973184620794">
        <ele>90.2</ele>
        <time>2018-03-31T11:52:20Z</time>
      </trkpt>
      <trkpt lat="62.634890873522" lon="17.973106920581">
        <ele>90.2</ele>
        <time>2018-03-31T11:52:21Z</time>
      </trkpt>
      <trkpt lat="62.634896573214" lon="17.972992340008">
        <ele>90.2</ele>
        <time>2018-03-31T11:52:22Z</time>
      </trkpt>
      <trkpt lat="62.634907385865" lon="17.972903240411">
        <ele>90.2</ele>
        <time>2018-03-31T11:52:23Z</time>
      </trkpt>
      <trkpt lat="62.634927753882" lon="17.972815146642">
        <ele>90.2</ele>
        <time>2018-03-31T11:52:24Z</time>
      </trkpt>
      <trkpt lat="62.634958683093" lon="17.972731746737">
        <ele>90</ele>
        <time>2018-03-31T11:52:25Z</time>
      </trkpt>
      <trkpt lat="62.63497234559" lon="17.972679862776">
        <ele>90</ele>
        <time>2018-03-31T11:52:26Z</time>
      </trkpt>
      <trkpt lat="62.635009728864" lon="17.972593026292">
        <ele>89.8</ele>
        <time>2018-03-31T11:52:27Z</time>
      </trkpt>
      <trkpt lat="62.635037640591" lon="17.972505770713">
        <ele>89.6</ele>
        <time>2018-03-31T11:52:28Z</time>
      </trkpt>
      <trkpt lat="62.635056667504" lon="17.972441732997">
        <ele>89.4</ele>
        <time>2018-03-31T11:52:29Z</time>
      </trkpt>
      <trkpt lat="62.635081394109" lon="17.972357411083">
        <ele>89.2</ele>
        <time>2018-03-31T11:52:30Z</time>
      </trkpt>
      <trkpt lat="62.63510142685" lon="17.972286500209">
        <ele>89.2</ele>
        <time>2018-03-31T11:52:31Z</time>
      </trkpt>
      <trkpt lat="62.635134870631" lon="17.972215086421">
        <ele>89.2</ele>
        <time>2018-03-31T11:52:32Z</time>
      </trkpt>
      <trkpt lat="62.635164710195" lon="17.972124561901">
        <ele>88.8</ele>
        <time>2018-03-31T11:52:33Z</time>
      </trkpt>
      <trkpt lat="62.635191364637" lon="17.972017608857">
        <ele>88.8</ele>
        <time>2018-03-31T11:52:34Z</time>
      </trkpt>
      <trkpt lat="62.635207374066" lon="17.971917361333">
        <ele>88.4</ele>
        <time>2018-03-31T11:52:35Z</time>
      </trkpt>
      <trkpt lat="62.635228747911" lon="17.97178098782">
        <ele>87.6</ele>
        <time>2018-03-31T11:52:36Z</time>
      </trkpt>
      <trkpt lat="62.635245260254" lon="17.971648805257">
        <ele>86.8</ele>
        <time>2018-03-31T11:52:37Z</time>
      </trkpt>
      <trkpt lat="62.635271244144" lon="17.971541349299">
        <ele>86</ele>
        <time>2018-03-31T11:52:38Z</time>
      </trkpt>
      <trkpt lat="62.635281721519" lon="17.971417716274">
        <ele>85</ele>
        <time>2018-03-31T11:52:39Z</time>
      </trkpt>
      <trkpt lat="62.635304017373" lon="17.971300956407">
        <ele>84.6</ele>
        <time>2018-03-31T11:52:40Z</time>
      </trkpt>
      <trkpt lat="62.635320613535" lon="17.971175647002">
        <ele>84.2</ele>
        <time>2018-03-31T11:52:41Z</time>
      </trkpt>
      <trkpt lat="62.635334778946" lon="17.971034663444">
        <ele>84</ele>
        <time>2018-03-31T11:52:42Z</time>
      </trkpt>
      <trkpt lat="62.635349866366" lon="17.970914466998">
        <ele>83.8</ele>
        <time>2018-03-31T11:52:43Z</time>
      </trkpt>
      <trkpt lat="62.635360595198" lon="17.970792091258">
        <ele>84</ele>
        <time>2018-03-31T11:52:44Z</time>
      </trkpt>
      <trkpt lat="62.635370904935" lon="17.97067792978">
        <ele>84</ele>
        <time>2018-03-31T11:52:45Z</time>
      </trkpt>
      <trkpt lat="62.635381466129" lon="17.970567204881">
        <ele>83.8</ele>
        <time>2018-03-31T11:52:46Z</time>
      </trkpt>
      <trkpt lat="62.635395044807" lon="17.970462095855">
        <ele>83.6</ele>
        <time>2018-03-31T11:52:47Z</time>
      </trkpt>
      <trkpt lat="62.635405438363" lon="17.970362435064">
        <ele>83.6</ele>
        <time>2018-03-31T11:52:48Z</time>
      </trkpt>
      <trkpt lat="62.635422621258" lon="17.970268725422">
        <ele>83.2</ele>
        <time>2018-03-31T11:52:49Z</time>
      </trkpt>
      <trkpt lat="62.635443743646" lon="17.97018339768">
        <ele>82.4</ele>
        <time>2018-03-31T11:52:50Z</time>
      </trkpt>
      <trkpt lat="62.635466710052" lon="17.970082982518">
        <ele>81.8</ele>
        <time>2018-03-31T11:52:51Z</time>
      </trkpt>
      <trkpt lat="62.635489005906" lon="17.969984914288">
        <ele>81.4</ele>
        <time>2018-03-31T11:52:52Z</time>
      </trkpt>
      <trkpt lat="62.635516666176" lon="17.969900508555">
        <ele>80.8</ele>
        <time>2018-03-31T11:52:53Z</time>
      </trkpt>
      <trkpt lat="62.635543488256" lon="17.969801015402">
        <ele>80.4</ele>
        <time>2018-03-31T11:52:54Z</time>
      </trkpt>
      <trkpt lat="62.635563604816" lon="17.969716861126">
        <ele>80</ele>
        <time>2018-03-31T11:52:55Z</time>
      </trkpt>
      <trkpt lat="62.635590845991" lon="17.969620217819">
        <ele>79.6</ele>
        <time>2018-03-31T11:52:56Z</time>
      </trkpt>
      <trkpt lat="62.635619847365" lon="17.969533716611">
        <ele>79.2</ele>
        <time>2018-03-31T11:52:57Z</time>
      </trkpt>
      <trkpt lat="62.635648848739" lon="17.969442689177">
        <ele>78.8</ele>
        <time>2018-03-31T11:52:58Z</time>
      </trkpt>
      <trkpt lat="62.635678520665" lon="17.969351577924">
        <ele>78.6</ele>
        <time>2018-03-31T11:52:59Z</time>
      </trkpt>
      <trkpt lat="62.635708024953" lon="17.969244373423">
        <ele>78.2</ele>
        <time>2018-03-31T11:53:00Z</time>
      </trkpt>
      <trkpt lat="62.635735433766" lon="17.969143371528">
        <ele>78</ele>
        <time>2018-03-31T11:53:01Z</time>
      </trkpt>
      <trkpt lat="62.635771056841" lon="17.969046560583">
        <ele>77.6</ele>
        <time>2018-03-31T11:53:02Z</time>
      </trkpt>
      <trkpt lat="62.635798717111" lon="17.968949414362">
        <ele>77</ele>
        <time>2018-03-31T11:53:03Z</time>
      </trkpt>
      <trkpt lat="62.63583065215" lon="17.968860147127">
        <ele>76.4</ele>
        <time>2018-03-31T11:53:04Z</time>
      </trkpt>
      <trkpt lat="62.635858228601" lon="17.968781357267">
        <ele>76</ele>
        <time>2018-03-31T11:53:05Z</time>
      </trkpt>
      <trkpt lat="62.635900473377" lon="17.968677924621">
        <ele>75.8</ele>
        <time>2018-03-31T11:53:06Z</time>
      </trkpt>
      <trkpt lat="62.635925954353" lon="17.968633500551">
        <ele>75.6</ele>
        <time>2018-03-31T11:53:07Z</time>
      </trkpt>
      <trkpt lat="62.635983035092" lon="17.968545071506">
        <ele>75.2</ele>
        <time>2018-03-31T11:53:08Z</time>
      </trkpt>
      <trkpt lat="62.636030225189" lon="17.968508442603">
        <ele>74.8</ele>
        <time>2018-03-31T11:53:09Z</time>
      </trkpt>
      <trkpt lat="62.636080600408" lon="17.968480363238">
        <ele>74.4</ele>
        <time>2018-03-31T11:53:10Z</time>
      </trkpt>
      <trkpt lat="62.636126281763" lon="17.968482374894">
        <ele>73.8</ele>
        <time>2018-03-31T11:53:11Z</time>
      </trkpt>
      <trkpt lat="62.636181602303" lon="17.968474160632">
        <ele>73.4</ele>
        <time>2018-03-31T11:53:12Z</time>
      </trkpt>
      <trkpt lat="62.636235749377" lon="17.968476172288">
        <ele>73</ele>
        <time>2018-03-31T11:53:13Z</time>
      </trkpt>
      <trkpt lat="62.636285118768" lon="17.968510621897">
        <ele>73</ele>
        <time>2018-03-31T11:53:14Z</time>
      </trkpt>
      <trkpt lat="62.636322334404" lon="17.968530989914">
        <ele>73</ele>
        <time>2018-03-31T11:53:15Z</time>
      </trkpt>
      <trkpt lat="62.636360891144" lon="17.968560158926">
        <ele>73.2</ele>
        <time>2018-03-31T11:53:16Z</time>
      </trkpt>
      <trkpt lat="62.636401710997" lon="17.968575330165">
        <ele>73.6</ele>
        <time>2018-03-31T11:53:17Z</time>
      </trkpt>
      <trkpt lat="62.636454433148" lon="17.968593267431">
        <ele>73.4</ele>
        <time>2018-03-31T11:53:18Z</time>
      </trkpt>
      <trkpt lat="62.636490223861" lon="17.968623106995">
        <ele>73.4</ele>
        <time>2018-03-31T11:53:19Z</time>
      </trkpt>
      <trkpt lat="62.636522410357" lon="17.968615395647">
        <ele>73.4</ele>
        <time>2018-03-31T11:53:20Z</time>
      </trkpt>
      <trkpt lat="62.636562308201" lon="17.968650599627">
        <ele>73.2</ele>
        <time>2018-03-31T11:53:21Z</time>
      </trkpt>
      <trkpt lat="62.636590471385" lon="17.968724527985">
        <ele>73.2</ele>
        <time>2018-03-31T11:53:22Z</time>
      </trkpt>
      <trkpt lat="62.636611929049" lon="17.968768197684">
        <ele>73.2</ele>
        <time>2018-03-31T11:53:23Z</time>
      </trkpt>
      <trkpt lat="62.636634224903" lon="17.968820333102">
        <ele>73.2</ele>
        <time>2018-03-31T11:53:24Z</time>
      </trkpt>
      <trkpt lat="62.63665878387" lon="17.968872049425">
        <ele>73.2</ele>
        <time>2018-03-31T11:53:25Z</time>
      </trkpt>
      <trkpt lat="62.636703627035" lon="17.968918066056">
        <ele>73</ele>
        <time>2018-03-31T11:53:26Z</time>
      </trkpt>
      <trkpt lat="62.636730952029" lon="17.968951174561">
        <ele>73.2</ele>
        <time>2018-03-31T11:53:27Z</time>
      </trkpt>
      <trkpt lat="62.636746710001" lon="17.969026946937">
        <ele>73.2</ele>
        <time>2018-03-31T11:53:28Z</time>
      </trkpt>
      <trkpt lat="62.636772274796" lon="17.969066258048">
        <ele>73.4</ele>
        <time>2018-03-31T11:53:29Z</time>
      </trkpt>
      <trkpt lat="62.636784847646" lon="17.969135576361">
        <ele>73.2</ele>
        <time>2018-03-31T11:53:30Z</time>
      </trkpt>
      <trkpt lat="62.63681049626" lon="17.969199027344">
        <ele>73.2</ele>
        <time>2018-03-31T11:53:31Z</time>
      </trkpt>
      <trkpt lat="62.636826840965" lon="17.969277901023">
        <ele>73.4</ele>
        <time>2018-03-31T11:53:32Z</time>
      </trkpt>
      <trkpt lat="62.636836899245" lon="17.969368760819">
        <ele>73.2</ele>
        <time>2018-03-31T11:53:33Z</time>
      </trkpt>
      <trkpt lat="62.636862212583" lon="17.96942651211">
        <ele>73</ele>
        <time>2018-03-31T11:53:34Z</time>
      </trkpt>
      <trkpt lat="62.636857937814" lon="17.969465487945">
        <ele>73</ele>
        <time>2018-03-31T11:53:35Z</time>
      </trkpt>
      <trkpt lat="62.636876964727" lon="17.969571267523">
        <ele>73.2</ele>
        <time>2018-03-31T11:53:36Z</time>
      </trkpt>
      <trkpt lat="62.636890459586" lon="17.969614685765">
        <ele>73.4</ele>
        <time>2018-03-31T11:53:37Z</time>
      </trkpt>
      <trkpt lat="62.63689850621" lon="17.969682746793">
        <ele>73.4</ele>
        <time>2018-03-31T11:53:38Z</time>
      </trkpt>
      <trkpt lat="62.636909821775" lon="17.969742174464">
        <ele>73.4</ele>
        <time>2018-03-31T11:53:39Z</time>
      </trkpt>
      <trkpt lat="62.63691862277" lon="17.969784838335">
        <ele>73.6</ele>
        <time>2018-03-31T11:53:40Z</time>
      </trkpt>
      <trkpt lat="62.636929603059" lon="17.969849043689">
        <ele>73.6</ele>
        <time>2018-03-31T11:53:41Z</time>
      </trkpt>
      <trkpt lat="62.636947288868" lon="17.969914003414">
        <ele>73.8</ele>
        <time>2018-03-31T11:53:42Z</time>
      </trkpt>
      <trkpt lat="62.636955670768" lon="17.969963540443">
        <ele>73.8</ele>
        <time>2018-03-31T11:53:43Z</time>
      </trkpt>
      <trkpt lat="62.636970087636" lon="17.970020956458">
        <ele>73.8</ele>
        <time>2018-03-31T11:53:44Z</time>
      </trkpt>
      <trkpt lat="62.63699657444" lon="17.970052891497">
        <ele>73.8</ele>
        <time>2018-03-31T11:53:45Z</time>
      </trkpt>
      <trkpt lat="62.637009901661" lon="17.970099662499">
        <ele>73.8</ele>
        <time>2018-03-31T11:53:46Z</time>
      </trkpt>
      <trkpt lat="62.637043429261" lon="17.970136626678">
        <ele>74</ele>
        <time>2018-03-31T11:53:47Z</time>
      </trkpt>
      <trkpt lat="62.637060025423" lon="17.970185241698">
        <ele>74</ele>
        <time>2018-03-31T11:53:48Z</time>
      </trkpt>
      <trkpt lat="62.637085506399" lon="17.970211309407">
        <ele>74.2</ele>
        <time>2018-03-31T11:53:49Z</time>
      </trkpt>
      <trkpt lat="62.637105036226" lon="17.97022782175">
        <ele>74.2</ele>
        <time>2018-03-31T11:53:50Z</time>
      </trkpt>
      <trkpt lat="62.637146778088" lon="17.970237125659">
        <ele>74.4</ele>
        <time>2018-03-31T11:53:51Z</time>
      </trkpt>
      <trkpt lat="62.637175611824" lon="17.970223044067">
        <ele>74.4</ele>
        <time>2018-03-31T11:53:52Z</time>
      </trkpt>
      <trkpt lat="62.637210480528" lon="17.970212147597">
        <ele>74.6</ele>
        <time>2018-03-31T11:53:53Z</time>
      </trkpt>
      <trkpt lat="62.637248199078" lon="17.970198066005">
        <ele>74.4</ele>
        <time>2018-03-31T11:53:54Z</time>
      </trkpt>
      <trkpt lat="62.637282229592" lon="17.970178787635">
        <ele>74.4</ele>
        <time>2018-03-31T11:53:55Z</time>
      </trkpt>
      <trkpt lat="62.637322127436" lon="17.970157665247">
        <ele>74.4</ele>
        <time>2018-03-31T11:53:56Z</time>
      </trkpt>
      <trkpt lat="62.637363114927" lon="17.97013478266">
        <ele>74.2</ele>
        <time>2018-03-31T11:53:57Z</time>
      </trkpt>
      <trkpt lat="62.637404689151" lon="17.970112654444">
        <ele>74</ele>
        <time>2018-03-31T11:53:58Z</time>
      </trkpt>
      <trkpt lat="62.637442240063" lon="17.970092202608">
        <ele>73.6</ele>
        <time>2018-03-31T11:53:59Z</time>
      </trkpt>
      <trkpt lat="62.637490184531" lon="17.970077282826">
        <ele>73.4</ele>
        <time>2018-03-31T11:54:00Z</time>
      </trkpt>
      <trkpt lat="62.637533351316" lon="17.970050041651">
        <ele>72.8</ele>
        <time>2018-03-31T11:54:01Z</time>
      </trkpt>
      <trkpt lat="62.637575931368" lon="17.970052388583">
        <ele>72.6</ele>
        <time>2018-03-31T11:54:02Z</time>
      </trkpt>
      <trkpt lat="62.637619265791" lon="17.970047778538">
        <ele>72.4</ele>
        <time>2018-03-31T11:54:03Z</time>
      </trkpt>
      <trkpt lat="62.637652290477" lon="17.970067140727">
        <ele>72</ele>
        <time>2018-03-31T11:54:04Z</time>
      </trkpt>
      <trkpt lat="62.637687662095" lon="17.970083988346">
        <ele>71.8</ele>
        <time>2018-03-31T11:54:05Z</time>
      </trkpt>
      <trkpt lat="62.63772663793" lon="17.970137213411">
        <ele>71.6</ele>
        <time>2018-03-31T11:54:06Z</time>
      </trkpt>
      <trkpt lat="62.637748347051" lon="17.970191947218">
        <ele>71.6</ele>
        <time>2018-03-31T11:54:07Z</time>
      </trkpt>
      <trkpt lat="62.637777516063" lon="17.970253638002">
        <ele>71.4</ele>
        <time>2018-03-31T11:54:08Z</time>
      </trkpt>
      <trkpt lat="62.63781045693" lon="17.970322788677">
        <ele>71.2</ele>
        <time>2018-03-31T11:54:09Z</time>
      </trkpt>
      <trkpt lat="62.637855635371" lon="17.970366290738">
        <ele>71.4</ele>
        <time>2018-03-31T11:54:10Z</time>
      </trkpt>
      <trkpt lat="62.637883044184" lon="17.970427562427">
        <ele>71.6</ele>
        <time>2018-03-31T11:54:11Z</time>
      </trkpt>
      <trkpt lat="62.637898131604" lon="17.970499060034">
        <ele>71.6</ele>
        <time>2018-03-31T11:54:12Z</time>
      </trkpt>
      <trkpt lat="62.637907100237" lon="17.970565528501">
        <ele>71.4</ele>
        <time>2018-03-31T11:54:13Z</time>
      </trkpt>
      <trkpt lat="62.637920846553" lon="17.970614897892">
        <ele>71.4</ele>
        <time>2018-03-31T11:54:14Z</time>
      </trkpt>
      <trkpt lat="62.637937442715" lon="17.970678935608">
        <ele>71.4</ele>
        <time>2018-03-31T11:54:15Z</time>
      </trkpt>
      <trkpt lat="62.637945489339" lon="17.97073157394">
        <ele>71.2</ele>
        <time>2018-03-31T11:54:16Z</time>
      </trkpt>
      <trkpt lat="62.637952697773" lon="17.970794605828">
        <ele>71</ele>
        <time>2018-03-31T11:54:17Z</time>
      </trkpt>
      <trkpt lat="62.637962253139" lon="17.970862247761">
        <ele>71</ele>
        <time>2018-03-31T11:54:18Z</time>
      </trkpt>
      <trkpt lat="62.637973736342" lon="17.970915808102">
        <ele>71.2</ele>
        <time>2018-03-31T11:54:19Z</time>
      </trkpt>
      <trkpt lat="62.637978681663" lon="17.970984036768">
        <ele>71.2</ele>
        <time>2018-03-31T11:54:20Z</time>
      </trkpt>
      <trkpt lat="62.638002821535" lon="17.971040446955">
        <ele>71.4</ele>
        <time>2018-03-31T11:54:21Z</time>
      </trkpt>
      <trkpt lat="62.63800994615" lon="17.971109513811">
        <ele>71.6</ele>
        <time>2018-03-31T11:54:22Z</time>
      </trkpt>
      <trkpt lat="62.638002737716" lon="17.971130636199">
        <ele>71.6</ele>
        <time>2018-03-31T11:54:23Z</time>
      </trkpt>
      <trkpt lat="62.638011119616" lon="17.971233146836">
        <ele>71.6</ele>
        <time>2018-03-31T11:54:24Z</time>
      </trkpt>
      <trkpt lat="62.638015897299" lon="17.971324761003">
        <ele>71.6</ele>
        <time>2018-03-31T11:54:25Z</time>
      </trkpt>
      <trkpt lat="62.63802670995" lon="17.971383518122">
        <ele>71.8</ele>
        <time>2018-03-31T11:54:26Z</time>
      </trkpt>
      <trkpt lat="62.638022351362" lon="17.971441856146">
        <ele>71.8</ele>
        <time>2018-03-31T11:54:27Z</time>
      </trkpt>
      <trkpt lat="62.638032074366" lon="17.971509749536">
        <ele>71.8</ele>
        <time>2018-03-31T11:54:28Z</time>
      </trkpt>
      <trkpt lat="62.638032661099" lon="17.971548893009">
        <ele>71.8</ele>
        <time>2018-03-31T11:54:29Z</time>
      </trkpt>
      <trkpt lat="62.638037690239" lon="17.971609829422">
        <ele>72</ele>
        <time>2018-03-31T11:54:30Z</time>
      </trkpt>
      <trkpt lat="62.638045066311" lon="17.97165945027">
        <ele>72</ele>
        <time>2018-03-31T11:54:31Z</time>
      </trkpt>
      <trkpt lat="62.638045569225" lon="17.971726924565">
        <ele>72.2</ele>
        <time>2018-03-31T11:54:32Z</time>
      </trkpt>
      <trkpt lat="62.638047413243" lon="17.97181032447">
        <ele>72.2</ele>
        <time>2018-03-31T11:54:33Z</time>
      </trkpt>
      <trkpt lat="62.638051939469" lon="17.971869752141">
        <ele>72.4</ele>
        <time>2018-03-31T11:54:34Z</time>
      </trkpt>
      <trkpt lat="62.638046742691" lon="17.971933035486">
        <ele>72.4</ele>
        <time>2018-03-31T11:54:35Z</time>
      </trkpt>
      <trkpt lat="62.638047999976" lon="17.972009562233">
        <ele>72.4</ele>
        <time>2018-03-31T11:54:36Z</time>
      </trkpt>
      <trkpt lat="62.63804347375" lon="17.972072342664">
        <ele>72.8</ele>
        <time>2018-03-31T11:54:37Z</time>
      </trkpt>
      <trkpt lat="62.638041294456" lon="17.972153730913">
        <ele>72.8</ele>
        <time>2018-03-31T11:54:38Z</time>
      </trkpt>
      <trkpt lat="62.638043976664" lon="17.97221181748">
        <ele>72.6</ele>
        <time>2018-03-31T11:54:39Z</time>
      </trkpt>
      <trkpt lat="62.638038025515" lon="17.972279543232">
        <ele>72.8</ele>
        <time>2018-03-31T11:54:40Z</time>
      </trkpt>
      <trkpt lat="62.63804012099" lon="17.97234089874">
        <ele>72.8</ele>
        <time>2018-03-31T11:54:41Z</time>
      </trkpt>
      <trkpt lat="62.638034505117" lon="17.972402673343">
        <ele>72.6</ele>
        <time>2018-03-31T11:54:42Z</time>
      </trkpt>
      <trkpt lat="62.638037354963" lon="17.972461095186">
        <ele>72.8</ele>
        <time>2018-03-31T11:54:43Z</time>
      </trkpt>
      <trkpt lat="62.638039534257" lon="17.972513482061">
        <ele>72.8</ele>
        <time>2018-03-31T11:54:44Z</time>
      </trkpt>
      <trkpt lat="62.638038612248" lon="17.972573161189">
        <ele>73</ele>
        <time>2018-03-31T11:54:45Z</time>
      </trkpt>
      <trkpt lat="62.6380476647" lon="17.972623955503">
        <ele>73.2</ele>
        <time>2018-03-31T11:54:46Z</time>
      </trkpt>
      <trkpt lat="62.638044479578" lon="17.972684053726">
        <ele>73.2</ele>
        <time>2018-03-31T11:54:47Z</time>
      </trkpt>
      <trkpt lat="62.638056130419" lon="17.972729651262">
        <ele>73.4</ele>
        <time>2018-03-31T11:54:48Z</time>
      </trkpt>
      <trkpt lat="62.638053280573" lon="17.972792347874">
        <ele>73.4</ele>
        <time>2018-03-31T11:54:49Z</time>
      </trkpt>
      <trkpt lat="62.638053951125" lon="17.972843477464">
        <ele>73.4</ele>
        <time>2018-03-31T11:54:50Z</time>
      </trkpt>
      <trkpt lat="62.638059064084" lon="17.972889661733">
        <ele>73.6</ele>
        <time>2018-03-31T11:54:51Z</time>
      </trkpt>
      <trkpt lat="62.638060572826" lon="17.97294607192">
        <ele>73.6</ele>
        <time>2018-03-31T11:54:52Z</time>
      </trkpt>
      <trkpt lat="62.638061243378" lon="17.973004409944">
        <ele>73.8</ele>
        <time>2018-03-31T11:54:53Z</time>
      </trkpt>
      <trkpt lat="62.638067948898" lon="17.973055371896">
        <ele>73.8</ele>
        <time>2018-03-31T11:54:54Z</time>
      </trkpt>
      <trkpt lat="62.638066188699" lon="17.973117733232">
        <ele>74</ele>
        <time>2018-03-31T11:54:55Z</time>
      </trkpt>
      <trkpt lat="62.638064679957" lon="17.973179340197">
        <ele>74.2</ele>
        <time>2018-03-31T11:54:56Z</time>
      </trkpt>
      <trkpt lat="62.638068284174" lon="17.97322938014">
        <ele>74.4</ele>
        <time>2018-03-31T11:54:57Z</time>
      </trkpt>
      <trkpt lat="62.638066356337" lon="17.973286879974">
        <ele>74.4</ele>
        <time>2018-03-31T11:54:58Z</time>
      </trkpt>
      <trkpt lat="62.638063841767" lon="17.973338512478">
        <ele>74.6</ele>
        <time>2018-03-31T11:54:59Z</time>
      </trkpt>
      <trkpt lat="62.638060991921" lon="17.973398778339">
        <ele>74.8</ele>
        <time>2018-03-31T11:55:00Z</time>
      </trkpt>
      <trkpt lat="62.638058225894" lon="17.973452590137">
        <ele>75</ele>
        <time>2018-03-31T11:55:01Z</time>
      </trkpt>
      <trkpt lat="62.638050346908" lon="17.973516627853">
        <ele>75</ele>
        <time>2018-03-31T11:55:02Z</time>
      </trkpt>
      <trkpt lat="62.638047329424" lon="17.973578653913">
        <ele>75.2</ele>
        <time>2018-03-31T11:55:03Z</time>
      </trkpt>
      <trkpt lat="62.638047832338" lon="17.97362919677">
        <ele>75.4</ele>
        <time>2018-03-31T11:55:04Z</time>
      </trkpt>
      <trkpt lat="62.638041126818" lon="17.973689127355">
        <ele>75.4</ele>
        <time>2018-03-31T11:55:05Z</time>
      </trkpt>
      <trkpt lat="62.63805185565" lon="17.973754170899">
        <ele>75.4</ele>
        <time>2018-03-31T11:55:06Z</time>
      </trkpt>
      <trkpt lat="62.638050849822" lon="17.973810413448">
        <ele>75.6</ele>
        <time>2018-03-31T11:55:07Z</time>
      </trkpt>
      <trkpt lat="62.63805101746" lon="17.973874199707">
        <ele>75.6</ele>
        <time>2018-03-31T11:55:08Z</time>
      </trkpt>
      <trkpt lat="62.638056214238" lon="17.973930693713">
        <ele>75.6</ele>
        <time>2018-03-31T11:55:09Z</time>
      </trkpt>
      <trkpt lat="62.638058728808" lon="17.973984505511">
        <ele>75.6</ele>
        <time>2018-03-31T11:55:10Z</time>
      </trkpt>
      <trkpt lat="62.638059566998" lon="17.974055248747">
        <ele>75.6</ele>
        <time>2018-03-31T11:55:11Z</time>
      </trkpt>
      <trkpt lat="62.638067445984" lon="17.974120627567">
        <ele>75.6</ele>
        <time>2018-03-31T11:55:12Z</time>
      </trkpt>
      <trkpt lat="62.63806861945" lon="17.974177959763">
        <ele>75.6</ele>
        <time>2018-03-31T11:55:13Z</time>
      </trkpt>
      <trkpt lat="62.638068703269" lon="17.974241829841">
        <ele>75.6</ele>
        <time>2018-03-31T11:55:14Z</time>
      </trkpt>
      <trkpt lat="62.638070044373" lon="17.974284996626">
        <ele>75.6</ele>
        <time>2018-03-31T11:55:15Z</time>
      </trkpt>
      <trkpt lat="62.638070547287" lon="17.974354734034">
        <ele>75.6</ele>
        <time>2018-03-31T11:55:16Z</time>
      </trkpt>
      <trkpt lat="62.638073229495" lon="17.974425728727">
        <ele>75.6</ele>
        <time>2018-03-31T11:55:17Z</time>
      </trkpt>
      <trkpt lat="62.638073900047" lon="17.974474008471">
        <ele>75.4</ele>
        <time>2018-03-31T11:55:18Z</time>
      </trkpt>
      <trkpt lat="62.638069290002" lon="17.974549194114">
        <ele>75.6</ele>
        <time>2018-03-31T11:55:19Z</time>
      </trkpt>
      <trkpt lat="62.638074402961" lon="17.974593366727">
        <ele>75.4</ele>
        <time>2018-03-31T11:55:20Z</time>
      </trkpt>
      <trkpt lat="62.638067529803" lon="17.974654219321">
        <ele>75.4</ele>
        <time>2018-03-31T11:55:21Z</time>
      </trkpt>
      <trkpt lat="62.638060740464" lon="17.974711719155">
        <ele>75.4</ele>
        <time>2018-03-31T11:55:22Z</time>
      </trkpt>
      <trkpt lat="62.638057471523" lon="17.974736697217">
        <ele>75.4</ele>
        <time>2018-03-31T11:55:23Z</time>
      </trkpt>
      <trkpt lat="62.63804179737" lon="17.974791179567">
        <ele>75.4</ele>
        <time>2018-03-31T11:55:24Z</time>
      </trkpt>
      <trkpt lat="62.638025704122" lon="17.974855217283">
        <ele>75.2</ele>
        <time>2018-03-31T11:55:25Z</time>
      </trkpt>
      <trkpt lat="62.63801748986" lon="17.974893271109">
        <ele>75.2</ele>
        <time>2018-03-31T11:55:26Z</time>
      </trkpt>
      <trkpt lat="62.637996116015" lon="17.97493090584">
        <ele>75.2</ele>
        <time>2018-03-31T11:55:27Z</time>
      </trkpt>
      <trkpt lat="62.637988488486" lon="17.97497952086">
        <ele>75.6</ele>
        <time>2018-03-31T11:55:28Z</time>
      </trkpt>
      <trkpt lat="62.637968120469" lon="17.975008522234">
        <ele>75.6</ele>
        <time>2018-03-31T11:55:29Z</time>
      </trkpt>
      <trkpt lat="62.637952362497" lon="17.975049761182">
        <ele>75.8</ele>
        <time>2018-03-31T11:55:30Z</time>
      </trkpt>
      <trkpt lat="62.637942555674" lon="17.975084546067">
        <ele>76</ele>
        <time>2018-03-31T11:55:31Z</time>
      </trkpt>
      <trkpt lat="62.637922187657" lon="17.975119917685">
        <ele>76.2</ele>
        <time>2018-03-31T11:55:32Z</time>
      </trkpt>
      <trkpt lat="62.637918164345" lon="17.975167359239">
        <ele>76.4</ele>
        <time>2018-03-31T11:55:33Z</time>
      </trkpt>
      <trkpt lat="62.637899975622" lon="17.975202814676">
        <ele>76.4</ele>
        <time>2018-03-31T11:55:34Z</time>
      </trkpt>
      <trkpt lat="62.637887989505" lon="17.975245562366">
        <ele>76.6</ele>
        <time>2018-03-31T11:55:35Z</time>
      </trkpt>
      <trkpt lat="62.63787248299" lon="17.975279928156">
        <ele>76.6</ele>
        <time>2018-03-31T11:55:36Z</time>
      </trkpt>
      <trkpt lat="62.637850522412" lon="17.975312366109">
        <ele>76.8</ele>
        <time>2018-03-31T11:55:37Z</time>
      </trkpt>
      <trkpt lat="62.637840883227" lon="17.975354024152">
        <ele>77</ele>
        <time>2018-03-31T11:55:38Z</time>
      </trkpt>
      <trkpt lat="62.637819257925" lon="17.975386294467">
        <ele>77.2</ele>
        <time>2018-03-31T11:55:39Z</time>
      </trkpt>
      <trkpt lat="62.637805092514" lon="17.975420157343">
        <ele>77.2</ele>
        <time>2018-03-31T11:55:40Z</time>
      </trkpt>
      <trkpt lat="62.637796040062" lon="17.975444464853">
        <ele>77.4</ele>
        <time>2018-03-31T11:55:41Z</time>
      </trkpt>
      <trkpt lat="62.63777776752" lon="17.975474807331">
        <ele>77.6</ele>
        <time>2018-03-31T11:55:42Z</time>
      </trkpt>
      <trkpt lat="62.637762847738" lon="17.975490397665">
        <ele>77.8</ele>
        <time>2018-03-31T11:55:43Z</time>
      </trkpt>
      <trkpt lat="62.637754214381" lon="17.975510178949">
        <ele>77.8</ele>
        <time>2018-03-31T11:55:44Z</time>
      </trkpt>
      <trkpt lat="62.637739629875" lon="17.975527529482">
        <ele>78.2</ele>
        <time>2018-03-31T11:55:45Z</time>
      </trkpt>
      <trkpt lat="62.637721441152" lon="17.975540772884">
        <ele>78.4</ele>
        <time>2018-03-31T11:55:46Z</time>
      </trkpt>
      <trkpt lat="62.637701827506" lon="17.975556866132">
        <ele>78.6</ele>
        <time>2018-03-31T11:55:47Z</time>
      </trkpt>
      <trkpt lat="62.637689925208" lon="17.975585783687">
        <ele>78.8</ele>
        <time>2018-03-31T11:55:48Z</time>
      </trkpt>
      <trkpt lat="62.637655727056" lon="17.975593159759">
        <ele>79</ele>
        <time>2018-03-31T11:55:49Z</time>
      </trkpt>
      <trkpt lat="62.637639801446" lon="17.975619143649">
        <ele>79.2</ele>
        <time>2018-03-31T11:55:50Z</time>
      </trkpt>
      <trkpt lat="62.637612811728" lon="17.975628531377">
        <ele>79.4</ele>
        <time>2018-03-31T11:55:51Z</time>
      </trkpt>
      <trkpt lat="62.637591856978" lon="17.97564252915">
        <ele>79.4</ele>
        <time>2018-03-31T11:55:52Z</time>
      </trkpt>
      <trkpt lat="62.637581379603" lon="17.97566516028">
        <ele>79.6</ele>
        <time>2018-03-31T11:55:53Z</time>
      </trkpt>
      <trkpt lat="62.637554976618" lon="17.97567857132">
        <ele>79.6</ele>
        <time>2018-03-31T11:55:54Z</time>
      </trkpt>
      <trkpt lat="62.637536620257" lon="17.975691563265">
        <ele>79.8</ele>
        <time>2018-03-31T11:55:55Z</time>
      </trkpt>
      <trkpt lat="62.637515330231" lon="17.975704387572">
        <ele>79.8</ele>
        <time>2018-03-31T11:55:56Z</time>
      </trkpt>
      <trkpt lat="62.637499153164" lon="17.975722911571">
        <ele>80</ele>
        <time>2018-03-31T11:55:57Z</time>
      </trkpt>
      <trkpt lat="62.637472750179" lon="17.975732299299">
        <ele>80.2</ele>
        <time>2018-03-31T11:55:58Z</time>
      </trkpt>
      <trkpt lat="62.637462021347" lon="17.975759456655">
        <ele>80.4</ele>
        <time>2018-03-31T11:55:59Z</time>
      </trkpt>
      <trkpt lat="62.637434025801" lon="17.975788038934">
        <ele>80.6</ele>
        <time>2018-03-31T11:56:00Z</time>
      </trkpt>
      <trkpt lat="62.637409131558" lon="17.9758059762">
        <ele>80.8</ele>
        <time>2018-03-31T11:56:01Z</time>
      </trkpt>
      <trkpt lat="62.637392283939" lon="17.975835229031">
        <ele>81</ele>
        <time>2018-03-31T11:56:02Z</time>
      </trkpt>
      <trkpt lat="62.637368227886" lon="17.975849059166">
        <ele>81.2</ele>
        <time>2018-03-31T11:56:03Z</time>
      </trkpt>
      <trkpt lat="62.63734861424" lon="17.975885436612">
        <ele>81.4</ele>
        <time>2018-03-31T11:56:04Z</time>
      </trkpt>
      <trkpt lat="62.637337298675" lon="17.975903960611">
        <ele>81.6</ele>
        <time>2018-03-31T11:56:05Z</time>
      </trkpt>
      <trkpt lat="62.637317014477" lon="17.97594092479">
        <ele>81.8</ele>
        <time>2018-03-31T11:56:06Z</time>
      </trkpt>
      <trkpt lat="62.637304357808" lon="17.97597864334">
        <ele>81.8</ele>
        <time>2018-03-31T11:56:07Z</time>
      </trkpt>
      <trkpt lat="62.637292874605" lon="17.976003956678">
        <ele>82</ele>
        <time>2018-03-31T11:56:08Z</time>
      </trkpt>
      <trkpt lat="62.637278038642" lon="17.976038573925">
        <ele>82.2</ele>
        <time>2018-03-31T11:56:09Z</time>
      </trkpt>
      <trkpt lat="62.63726395705" lon="17.976071430973">
        <ele>82.4</ele>
        <time>2018-03-31T11:56:10Z</time>
      </trkpt>
      <trkpt lat="62.637259598462" lon="17.976104958573">
        <ele>82.6</ele>
        <time>2018-03-31T11:56:11Z</time>
      </trkpt>
      <trkpt lat="62.637244259585" lon="17.976140916924">
        <ele>82.8</ele>
        <time>2018-03-31T11:56:12Z</time>
      </trkpt>
      <trkpt lat="62.637237721703" lon="17.976186598279">
        <ele>83</ele>
        <time>2018-03-31T11:56:13Z</time>
      </trkpt>
      <trkpt lat="62.637226741414" lon="17.976230687073">
        <ele>83.2</ele>
        <time>2018-03-31T11:56:14Z</time>
      </trkpt>
      <trkpt lat="62.637216683134" lon="17.976276284609">
        <ele>83.6</ele>
        <time>2018-03-31T11:56:15Z</time>
      </trkpt>
      <trkpt lat="62.637210480528" lon="17.976315008987">
        <ele>83.6</ele>
        <time>2018-03-31T11:56:16Z</time>
      </trkpt>
      <trkpt lat="62.63720025461" lon="17.97636085798">
        <ele>83.6</ele>
        <time>2018-03-31T11:56:17Z</time>
      </trkpt>
      <trkpt lat="62.637195476927" lon="17.97641366395">
        <ele>83.8</ele>
        <time>2018-03-31T11:56:18Z</time>
      </trkpt>
      <trkpt lat="62.637187011208" lon="17.97645054431">
        <ele>84</ele>
        <time>2018-03-31T11:56:19Z</time>
      </trkpt>
      <trkpt lat="62.637178713127" lon="17.976503182642">
        <ele>84</ele>
        <time>2018-03-31T11:56:20Z</time>
      </trkpt>
      <trkpt lat="62.637173851625" lon="17.976539560088">
        <ele>84</ele>
        <time>2018-03-31T11:56:21Z</time>
      </trkpt>
      <trkpt lat="62.637160943499" lon="17.97659555118">
        <ele>84</ele>
        <time>2018-03-31T11:56:22Z</time>
      </trkpt>
      <trkpt lat="62.637162033146" lon="17.97662907878">
        <ele>84.2</ele>
        <time>2018-03-31T11:56:23Z</time>
      </trkpt>
      <trkpt lat="62.63714661045" lon="17.97668188475">
        <ele>84.2</ele>
        <time>2018-03-31T11:56:24Z</time>
      </trkpt>
      <trkpt lat="62.637144766432" lon="17.976736199462">
        <ele>84.2</ele>
        <time>2018-03-31T11:56:25Z</time>
      </trkpt>
      <trkpt lat="62.637141078396" lon="17.976785233577">
        <ele>84.2</ele>
        <time>2018-03-31T11:56:26Z</time>
      </trkpt>
      <trkpt lat="62.63713571398" lon="17.976846505266">
        <ele>84.4</ele>
        <time>2018-03-31T11:56:27Z</time>
      </trkpt>
      <trkpt lat="62.637142754776" lon="17.976899562693">
        <ele>84.4</ele>
        <time>2018-03-31T11:56:28Z</time>
      </trkpt>
      <trkpt lat="62.637139402016" lon="17.976952536301">
        <ele>84.4</ele>
        <time>2018-03-31T11:56:29Z</time>
      </trkpt>
      <trkpt lat="62.637141413672" lon="17.977017579845">
        <ele>84.4</ele>
        <time>2018-03-31T11:56:30Z</time>
      </trkpt>
      <trkpt lat="62.637132612677" lon="17.977068877073">
        <ele>84.4</ele>
        <time>2018-03-31T11:56:31Z</time>
      </trkpt>
      <trkpt lat="62.637128589365" lon="17.977133333884">
        <ele>84.4</ele>
        <time>2018-03-31T11:56:32Z</time>
      </trkpt>
      <trkpt lat="62.637126410071" lon="17.977192593917">
        <ele>84.6</ele>
        <time>2018-03-31T11:56:33Z</time>
      </trkpt>
      <trkpt lat="62.637127751175" lon="17.977245232249">
        <ele>84.6</ele>
        <time>2018-03-31T11:56:34Z</time>
      </trkpt>
      <trkpt lat="62.637119704551" lon="17.977310359612">
        <ele>84.6</ele>
        <time>2018-03-31T11:56:35Z</time>
      </trkpt>
      <trkpt lat="62.637115932696" lon="17.977374397328">
        <ele>84.8</ele>
        <time>2018-03-31T11:56:36Z</time>
      </trkpt>
      <trkpt lat="62.63711224466" lon="17.977415720095">
        <ele>84.8</ele>
        <time>2018-03-31T11:56:37Z</time>
      </trkpt>
      <trkpt lat="62.6370921281" lon="17.977487972073">
        <ele>84.8</ele>
        <time>2018-03-31T11:56:38Z</time>
      </trkpt>
      <trkpt lat="62.637080980173" lon="17.977544549898">
        <ele>84.8</ele>
        <time>2018-03-31T11:56:39Z</time>
      </trkpt>
      <trkpt lat="62.63707033516" lon="17.977588051959">
        <ele>84.6</ele>
        <time>2018-03-31T11:56:40Z</time>
      </trkpt>
      <trkpt lat="62.63704854222" lon="17.977656112987">
        <ele>84.6</ele>
        <time>2018-03-31T11:56:41Z</time>
      </trkpt>
      <trkpt lat="62.637040914691" lon="17.977724425472">
        <ele>84.6</ele>
        <time>2018-03-31T11:56:42Z</time>
      </trkpt>
      <trkpt lat="62.637030604954" lon="17.977770861198">
        <ele>84.6</ele>
        <time>2018-03-31T11:56:43Z</time>
      </trkpt>
      <trkpt lat="62.637018535018" lon="17.977836156199">
        <ele>84.8</ele>
        <time>2018-03-31T11:56:44Z</time>
      </trkpt>
      <trkpt lat="62.637024486167" lon="17.977891728196">
        <ele>84.8</ele>
        <time>2018-03-31T11:56:45Z</time>
      </trkpt>
      <trkpt lat="62.637012416231" lon="17.977951910238">
        <ele>84.8</ele>
        <time>2018-03-31T11:56:46Z</time>
      </trkpt>
      <trkpt lat="62.637004034331" lon="17.978014774488">
        <ele>84.8</ele>
        <time>2018-03-31T11:56:47Z</time>
      </trkpt>
      <trkpt lat="62.637005710711" lon="17.978067748096">
        <ele>84.8</ele>
        <time>2018-03-31T11:56:48Z</time>
      </trkpt>
      <trkpt lat="62.636990958567" lon="17.978139664798">
        <ele>85</ele>
        <time>2018-03-31T11:56:49Z</time>
      </trkpt>
      <trkpt lat="62.636985258875" lon="17.978194482424">
        <ele>85</ele>
        <time>2018-03-31T11:56:50Z</time>
      </trkpt>
      <trkpt lat="62.636976625518" lon="17.978239157951">
        <ele>85</ele>
        <time>2018-03-31T11:56:51Z</time>
      </trkpt>
      <trkpt lat="62.636962124831" lon="17.978296657785">
        <ele>85.2</ele>
        <time>2018-03-31T11:56:52Z</time>
      </trkpt>
      <trkpt lat="62.636963214478" lon="17.978347200642">
        <ele>85.2</ele>
        <time>2018-03-31T11:56:53Z</time>
      </trkpt>
      <trkpt lat="62.636945193393" lon="17.978408807607">
        <ele>85.2</ele>
        <time>2018-03-31T11:56:54Z</time>
      </trkpt>
      <trkpt lat="62.636930776525" lon="17.978465050156">
        <ele>85.2</ele>
        <time>2018-03-31T11:56:55Z</time>
      </trkpt>
      <trkpt lat="62.636925998842" lon="17.978522298533">
        <ele>85.4</ele>
        <time>2018-03-31T11:56:56Z</time>
      </trkpt>
      <trkpt lat="62.636897919477" lon="17.978576277969">
        <ele>85.4</ele>
        <time>2018-03-31T11:56:57Z</time>
      </trkpt>
      <trkpt lat="62.636878557288" lon="17.978620199125">
        <ele>85.4</ele>
        <time>2018-03-31T11:56:58Z</time>
      </trkpt>
      <trkpt lat="62.636864224239" lon="17.978658420589">
        <ele>85.4</ele>
        <time>2018-03-31T11:56:59Z</time>
      </trkpt>
      <trkpt lat="62.636841341652" lon="17.978683901565">
        <ele>85.4</ele>
        <time>2018-03-31T11:57:00Z</time>
      </trkpt>
      <trkpt lat="62.636832121562" lon="17.978714411681">
        <ele>85.4</ele>
        <time>2018-03-31T11:57:01Z</time>
      </trkpt>
      <trkpt lat="62.636814351934" lon="17.978765373633">
        <ele>85.4</ele>
        <time>2018-03-31T11:57:02Z</time>
      </trkpt>
      <trkpt lat="62.636765820733" lon="17.978777778845">
        <ele>85.4</ele>
        <time>2018-03-31T11:57:03Z</time>
      </trkpt>
      <trkpt lat="62.636741932318" lon="17.978785993107">
        <ele>85.6</ele>
        <time>2018-03-31T11:57:04Z</time>
      </trkpt>
      <trkpt lat="62.636717624808" lon="17.978796721939">
        <ele>85.6</ele>
        <time>2018-03-31T11:57:05Z</time>
      </trkpt>
      <trkpt lat="62.6366897969" lon="17.978805355296">
        <ele>85.8</ele>
        <time>2018-03-31T11:57:06Z</time>
      </trkpt>
      <trkpt lat="62.636671021444" lon="17.978809043332">
        <ele>86</ele>
        <time>2018-03-31T11:57:07Z</time>
      </trkpt>
      <trkpt lat="62.636646127201" lon="17.978807366952">
        <ele>86.2</ele>
        <time>2018-03-31T11:57:08Z</time>
      </trkpt>
      <trkpt lat="62.636622909338" lon="17.978809797703">
        <ele>86.6</ele>
        <time>2018-03-31T11:57:09Z</time>
      </trkpt>
      <trkpt lat="62.636588878824" lon="17.978803846554">
        <ele>86.8</ele>
        <time>2018-03-31T11:57:10Z</time>
      </trkpt>
      <trkpt lat="62.636559961269" lon="17.978801918717">
        <ele>86.8</ele>
        <time>2018-03-31T11:57:11Z</time>
      </trkpt>
      <trkpt lat="62.636532887732" lon="17.978804600925">
        <ele>87</ele>
        <time>2018-03-31T11:57:12Z</time>
      </trkpt>
      <trkpt lat="62.636501874702" lon="17.97880753459">
        <ele>87.2</ele>
        <time>2018-03-31T11:57:13Z</time>
      </trkpt>
      <trkpt lat="62.636477231916" lon="17.978803595097">
        <ele>87.2</ele>
        <time>2018-03-31T11:57:14Z</time>
      </trkpt>
      <trkpt lat="62.636459127012" lon="17.978821113268">
        <ele>87.4</ele>
        <time>2018-03-31T11:57:15Z</time>
      </trkpt>
      <trkpt lat="62.636434903321" lon="17.978825723313">
        <ele>87.6</ele>
        <time>2018-03-31T11:57:16Z</time>
      </trkpt>
      <trkpt lat="62.636410260535" lon="17.978837960887">
        <ele>87.6</ele>
        <time>2018-03-31T11:57:17Z</time>
      </trkpt>
      <trkpt lat="62.636390311613" lon="17.97884692952">
        <ele>87.8</ele>
        <time>2018-03-31T11:57:18Z</time>
      </trkpt>
      <trkpt lat="62.63638134298" lon="17.978863274225">
        <ele>88</ele>
        <time>2018-03-31T11:57:19Z</time>
      </trkpt>
      <trkpt lat="62.636364327723" lon="17.978878948378">
        <ele>88.2</ele>
        <time>2018-03-31T11:57:20Z</time>
      </trkpt>
      <trkpt lat="62.636343708249" lon="17.978894454893">
        <ele>88.4</ele>
        <time>2018-03-31T11:57:21Z</time>
      </trkpt>
      <trkpt lat="62.636329123743" lon="17.978916918385">
        <ele>88.6</ele>
        <time>2018-03-31T11:57:22Z</time>
      </trkpt>
      <trkpt lat="62.636315293608" lon="17.978947093225">
        <ele>88.8</ele>
        <time>2018-03-31T11:57:23Z</time>
      </trkpt>
      <trkpt lat="62.636293584487" lon="17.97897181983">
        <ele>89</ele>
        <time>2018-03-31T11:57:24Z</time>
      </trkpt>
      <trkpt lat="62.63627573104" lon="17.978995205331">
        <ele>89.4</ele>
        <time>2018-03-31T11:57:25Z</time>
      </trkpt>
      <trkpt lat="62.636256201213" lon="17.979021775954">
        <ele>89.6</ele>
        <time>2018-03-31T11:57:26Z</time>
      </trkpt>
      <trkpt lat="62.636245220924" lon="17.979039545582">
        <ele>90</ele>
        <time>2018-03-31T11:57:27Z</time>
      </trkpt>
      <trkpt lat="62.636232815712" lon="17.979059745961">
        <ele>90.2</ele>
        <time>2018-03-31T11:57:28Z</time>
      </trkpt>
      <trkpt lat="62.636219907586" lon="17.979082041815">
        <ele>90.4</ele>
        <time>2018-03-31T11:57:29Z</time>
      </trkpt>
      <trkpt lat="62.636208089107" lon="17.97910173928">
        <ele>90.8</ele>
        <time>2018-03-31T11:57:30Z</time>
      </trkpt>
      <trkpt lat="62.63619442661" lon="17.979122861668">
        <ele>91</ele>
        <time>2018-03-31T11:57:31Z</time>
      </trkpt>
      <trkpt lat="62.636180931751" lon="17.979152785051">
        <ele>91.4</ele>
        <time>2018-03-31T11:57:32Z</time>
      </trkpt>
      <trkpt lat="62.63616844272" lon="17.979188324307">
        <ele>91.8</ele>
        <time>2018-03-31T11:57:33Z</time>
      </trkpt>
      <trkpt lat="62.636153606757" lon="17.979222522459">
        <ele>92.2</ele>
        <time>2018-03-31T11:57:34Z</time>
      </trkpt>
      <trkpt lat="62.636142039735" lon="17.979265437787">
        <ele>92.4</ele>
        <time>2018-03-31T11:57:35Z</time>
      </trkpt>
      <trkpt lat="62.636138938432" lon="17.979310700047">
        <ele>92.6</ele>
        <time>2018-03-31T11:57:36Z</time>
      </trkpt>
      <trkpt lat="62.636123012822" lon="17.979362584008">
        <ele>92.8</ele>
        <time>2018-03-31T11:57:37Z</time>
      </trkpt>
      <trkpt lat="62.636106500479" lon="17.979424945344">
        <ele>93.2</ele>
        <time>2018-03-31T11:57:38Z</time>
      </trkpt>
      <trkpt lat="62.636093089439" lon="17.979476158753">
        <ele>93.2</ele>
        <time>2018-03-31T11:57:39Z</time>
      </trkpt>
      <trkpt lat="62.636081857693" lon="17.979530473465">
        <ele>93.4</ele>
        <time>2018-03-31T11:57:40Z</time>
      </trkpt>
      <trkpt lat="62.636075152173" lon="17.979610185334">
        <ele>93.4</ele>
        <time>2018-03-31T11:57:41Z</time>
      </trkpt>
      <trkpt lat="62.636084120806" lon="17.979704649347">
        <ele>93.6</ele>
        <time>2018-03-31T11:57:42Z</time>
      </trkpt>
      <trkpt lat="62.636081354779" lon="17.979828869105">
        <ele>93.6</ele>
        <time>2018-03-31T11:57:43Z</time>
      </trkpt>
      <trkpt lat="62.636075738906" lon="17.979985778273">
        <ele>93.6</ele>
        <time>2018-03-31T11:57:44Z</time>
      </trkpt>
      <trkpt lat="62.636074481621" lon="17.980125504546">
        <ele>93.4</ele>
        <time>2018-03-31T11:57:45Z</time>
      </trkpt>
      <trkpt lat="62.636080768046" lon="17.98025592691">
        <ele>92.8</ele>
        <time>2018-03-31T11:57:46Z</time>
      </trkpt>
      <trkpt lat="62.636096861294" lon="17.980397245744">
        <ele>91.8</ele>
        <time>2018-03-31T11:57:47Z</time>
      </trkpt>
      <trkpt lat="62.63611731313" lon="17.980536301465">
        <ele>90.6</ele>
        <time>2018-03-31T11:57:48Z</time>
      </trkpt>
      <trkpt lat="62.636135501853" lon="17.98066831639">
        <ele>89.4</ele>
        <time>2018-03-31T11:57:49Z</time>
      </trkpt>
      <trkpt lat="62.636156205146" lon="17.980780969126">
        <ele>88.2</ele>
        <time>2018-03-31T11:57:50Z</time>
      </trkpt>
      <trkpt lat="62.636173974774" lon="17.98088792217">
        <ele>87.6</ele>
        <time>2018-03-31T11:57:51Z</time>
      </trkpt>
      <trkpt lat="62.636193001687" lon="17.980992276825">
        <ele>87.4</ele>
        <time>2018-03-31T11:57:52Z</time>
      </trkpt>
      <trkpt lat="62.636212112419" lon="17.981085399734">
        <ele>87</ele>
        <time>2018-03-31T11:57:53Z</time>
      </trkpt>
      <trkpt lat="62.636231642246" lon="17.981202578696">
        <ele>86.8</ele>
        <time>2018-03-31T11:57:54Z</time>
      </trkpt>
      <trkpt lat="62.636240694698" lon="17.981296875071">
        <ele>86.6</ele>
        <time>2018-03-31T11:57:55Z</time>
      </trkpt>
      <trkpt lat="62.636247903132" lon="17.981392596369">
        <ele>86.2</ele>
        <time>2018-03-31T11:57:56Z</time>
      </trkpt>
      <trkpt lat="62.636253770462" lon="17.981494268816">
        <ele>86</ele>
        <time>2018-03-31T11:57:57Z</time>
      </trkpt>
      <trkpt lat="62.636263577285" lon="17.981592085589">
        <ele>85.8</ele>
        <time>2018-03-31T11:57:58Z</time>
      </trkpt>
      <trkpt lat="62.636269444615" lon="17.981687639249">
        <ele>85.8</ele>
        <time>2018-03-31T11:57:59Z</time>
      </trkpt>
      <trkpt lat="62.636280592542" lon="17.981792915913">
        <ele>85.8</ele>
        <time>2018-03-31T11:58:00Z</time>
      </trkpt>
      <trkpt lat="62.636291237555" lon="17.981849912833">
        <ele>85.8</ele>
        <time>2018-03-31T11:58:01Z</time>
      </trkpt>
      <trkpt lat="62.63629668579" lon="17.98193482148">
        <ele>86</ele>
        <time>2018-03-31T11:58:02Z</time>
      </trkpt>
      <trkpt lat="62.636306911708" lon="17.982017969928">
        <ele>86</ele>
        <time>2018-03-31T11:58:03Z</time>
      </trkpt>
      <trkpt lat="62.636318897825" lon="17.982097597978">
        <ele>86.2</ele>
        <time>2018-03-31T11:58:04Z</time>
      </trkpt>
      <trkpt lat="62.636315377427" lon="17.982181081702">
        <ele>86.4</ele>
        <time>2018-03-31T11:58:05Z</time>
      </trkpt>
      <trkpt lat="62.636323004956" lon="17.982265822711">
        <ele>86.6</ele>
        <time>2018-03-31T11:58:06Z</time>
      </trkpt>
      <trkpt lat="62.636325854802" lon="17.982339918707">
        <ele>86.6</ele>
        <time>2018-03-31T11:58:07Z</time>
      </trkpt>
      <trkpt lat="62.636330045752" lon="17.982421306956">
        <ele>86.4</ele>
        <time>2018-03-31T11:58:08Z</time>
      </trkpt>
      <trkpt lat="62.636330800123" lon="17.982496995513">
        <ele>86.4</ele>
        <time>2018-03-31T11:58:09Z</time>
      </trkpt>
      <trkpt lat="62.636341780412" lon="17.982584921644">
        <ele>86.4</ele>
        <time>2018-03-31T11:58:10Z</time>
      </trkpt>
      <trkpt lat="62.636341696593" lon="17.982658766183">
        <ele>86.2</ele>
        <time>2018-03-31T11:58:11Z</time>
      </trkpt>
      <trkpt lat="62.636347647742" lon="17.982722384804">
        <ele>86.4</ele>
        <time>2018-03-31T11:58:12Z</time>
      </trkpt>
      <trkpt lat="62.636341612774" lon="17.982804192148">
        <ele>86.4</ele>
        <time>2018-03-31T11:58:13Z</time>
      </trkpt>
      <trkpt lat="62.636333817607" lon="17.982878120506">
        <ele>86.4</ele>
        <time>2018-03-31T11:58:14Z</time>
      </trkpt>
      <trkpt lat="62.636336751272" lon="17.982935871797">
        <ele>86.6</ele>
        <time>2018-03-31T11:58:15Z</time>
      </trkpt>
      <trkpt lat="62.636336332177" lon="17.98299345545">
        <ele>86.6</ele>
        <time>2018-03-31T11:58:16Z</time>
      </trkpt>
      <trkpt lat="62.63633021339" lon="17.983071826215">
        <ele>86.8</ele>
        <time>2018-03-31T11:58:17Z</time>
      </trkpt>
      <trkpt lat="62.636333901426" lon="17.98313930051">
        <ele>87</ele>
        <time>2018-03-31T11:58:18Z</time>
      </trkpt>
      <trkpt lat="62.636337086548" lon="17.983197303258">
        <ele>87</ele>
        <time>2018-03-31T11:58:19Z</time>
      </trkpt>
      <trkpt lat="62.636335326349" lon="17.983284391199">
        <ele>86.8</ele>
        <time>2018-03-31T11:58:20Z</time>
      </trkpt>
      <trkpt lat="62.636331805951" lon="17.983343567413">
        <ele>86.8</ele>
        <time>2018-03-31T11:58:21Z</time>
      </trkpt>
      <trkpt lat="62.63632602244" lon="17.98341338864">
        <ele>86.8</ele>
        <time>2018-03-31T11:58:22Z</time>
      </trkpt>
      <trkpt lat="62.636330045752" lon="17.983476001433">
        <ele>86.8</ele>
        <time>2018-03-31T11:58:23Z</time>
      </trkpt>
      <trkpt lat="62.636321915309" lon="17.983532495439">
        <ele>87</ele>
        <time>2018-03-31T11:58:24Z</time>
      </trkpt>
      <trkpt lat="62.636321915309" lon="17.983598544811">
        <ele>87</ele>
        <time>2018-03-31T11:58:25Z</time>
      </trkpt>
      <trkpt lat="62.636308085174" lon="17.983659481224">
        <ele>87</ele>
        <time>2018-03-31T11:58:26Z</time>
      </trkpt>
      <trkpt lat="62.636299703274" lon="17.98371681342">
        <ele>87</ele>
        <time>2018-03-31T11:58:27Z</time>
      </trkpt>
      <trkpt lat="62.636294674134" lon="17.983786215552">
        <ele>87.2</ele>
        <time>2018-03-31T11:58:28Z</time>
      </trkpt>
      <trkpt lat="62.636286376053" lon="17.983835920219">
        <ele>87.4</ele>
        <time>2018-03-31T11:58:29Z</time>
      </trkpt>
      <trkpt lat="62.636275814859" lon="17.983897359546">
        <ele>87.6</ele>
        <time>2018-03-31T11:58:30Z</time>
      </trkpt>
      <trkpt lat="62.636281179275" lon="17.983943795272">
        <ele>87.8</ele>
        <time>2018-03-31T11:58:31Z</time>
      </trkpt>
      <trkpt lat="62.636272462099" lon="17.984006240427">
        <ele>88</ele>
        <time>2018-03-31T11:58:32Z</time>
      </trkpt>
      <trkpt lat="62.636267768235" lon="17.984064243175">
        <ele>88</ele>
        <time>2018-03-31T11:58:33Z</time>
      </trkpt>
      <trkpt lat="62.636262655276" lon="17.984125682502">
        <ele>88.2</ele>
        <time>2018-03-31T11:58:34Z</time>
      </trkpt>
      <trkpt lat="62.636257542317" lon="17.984176309178">
        <ele>88.2</ele>
        <time>2018-03-31T11:58:35Z</time>
      </trkpt>
      <trkpt lat="62.636259134878" lon="17.984227438768">
        <ele>88.2</ele>
        <time>2018-03-31T11:58:36Z</time>
      </trkpt>
      <trkpt lat="62.636249579512" lon="17.984292566131">
        <ele>88.2</ele>
        <time>2018-03-31T11:58:37Z</time>
      </trkpt>
      <trkpt lat="62.636248573684" lon="17.984358531684">
        <ele>88.2</ele>
        <time>2018-03-31T11:58:38Z</time>
      </trkpt>
      <trkpt lat="62.636237425757" lon="17.984419384278">
        <ele>88.4</ele>
        <time>2018-03-31T11:58:39Z</time>
      </trkpt>
      <trkpt lat="62.636237928671" lon="17.984483086718">
        <ele>88.4</ele>
        <time>2018-03-31T11:58:40Z</time>
      </trkpt>
      <trkpt lat="62.636228373305" lon="17.98453237229">
        <ele>88.6</ele>
        <time>2018-03-31T11:58:41Z</time>
      </trkpt>
      <trkpt lat="62.636223092708" lon="17.984598337843">
        <ele>88.6</ele>
        <time>2018-03-31T11:58:42Z</time>
      </trkpt>
      <trkpt lat="62.636223595622" lon="17.984650892356">
        <ele>88.8</ele>
        <time>2018-03-31T11:58:43Z</time>
      </trkpt>
      <trkpt lat="62.636222170699" lon="17.984717360823">
        <ele>88.8</ele>
        <time>2018-03-31T11:58:44Z</time>
      </trkpt>
      <trkpt lat="62.636224685269" lon="17.984768658051">
        <ele>89</ele>
        <time>2018-03-31T11:58:45Z</time>
      </trkpt>
      <trkpt lat="62.636221500147" lon="17.984820961107">
        <ele>89</ele>
        <time>2018-03-31T11:58:46Z</time>
      </trkpt>
      <trkpt lat="62.63622124869" lon="17.984881143149">
        <ele>89</ele>
        <time>2018-03-31T11:58:47Z</time>
      </trkpt>
      <trkpt lat="62.636231642246" lon="17.984943420666">
        <ele>89.2</ele>
        <time>2018-03-31T11:58:48Z</time>
      </trkpt>
      <trkpt lat="62.636217644473" lon="17.98499589136">
        <ele>89.2</ele>
        <time>2018-03-31T11:58:49Z</time>
      </trkpt>
      <trkpt lat="62.6362204105" lon="17.985051128081">
        <ele>89.4</ele>
        <time>2018-03-31T11:58:50Z</time>
      </trkpt>
      <trkpt lat="62.636213285885" lon="17.985109549924">
        <ele>89.6</ele>
        <time>2018-03-31T11:58:51Z</time>
      </trkpt>
      <trkpt lat="62.636215465179" lon="17.985163194084">
        <ele>89.8</ele>
        <time>2018-03-31T11:58:52Z</time>
      </trkpt>
      <trkpt lat="62.636209011116" lon="17.985224801049">
        <ele>90</ele>
        <time>2018-03-31T11:58:53Z</time>
      </trkpt>
      <trkpt lat="62.636213285885" lon="17.985300489606">
        <ele>90.2</ele>
        <time>2018-03-31T11:58:54Z</time>
      </trkpt>
      <trkpt lat="62.636213285885" lon="17.985342650563">
        <ele>90.2</ele>
        <time>2018-03-31T11:58:55Z</time>
      </trkpt>
      <trkpt lat="62.636211525686" lon="17.985408951392">
        <ele>90.4</ele>
        <time>2018-03-31T11:58:56Z</time>
      </trkpt>
      <trkpt lat="62.636206915641" lon="17.985471396547">
        <ele>90.6</ele>
        <time>2018-03-31T11:58:57Z</time>
      </trkpt>
      <trkpt lat="62.636193672239" lon="17.985524202517">
        <ele>90.6</ele>
        <time>2018-03-31T11:58:58Z</time>
      </trkpt>
      <trkpt lat="62.636193085506" lon="17.985589078423">
        <ele>90.6</ele>
        <time>2018-03-31T11:58:59Z</time>
      </trkpt>
      <trkpt lat="62.636182105217" lon="17.985645153334">
        <ele>90.6</ele>
        <time>2018-03-31T11:59:00Z</time>
      </trkpt>
      <trkpt lat="62.636182356674" lon="17.985714639285">
        <ele>90.6</ele>
        <time>2018-03-31T11:59:01Z</time>
      </trkpt>
      <trkpt lat="62.636173723317" lon="17.985770965653">
        <ele>90.6</ele>
        <time>2018-03-31T11:59:02Z</time>
      </trkpt>
      <trkpt lat="62.636158132983" lon="17.985803235968">
        <ele>90.6</ele>
        <time>2018-03-31T11:59:03Z</time>
      </trkpt>
      <trkpt lat="62.636127958143" lon="17.985834584274">
        <ele>90.6</ele>
        <time>2018-03-31T11:59:04Z</time>
      </trkpt>
      <trkpt lat="62.636115469112" lon="17.985866184037">
        <ele>90.8</ele>
        <time>2018-03-31T11:59:05Z</time>
      </trkpt>
      <trkpt lat="62.636095436371" lon="17.985886552054">
        <ele>91</ele>
        <time>2018-03-31T11:59:06Z</time>
      </trkpt>
      <trkpt lat="62.636080181313" lon="17.9859145476">
        <ele>91</ele>
        <time>2018-03-31T11:59:07Z</time>
      </trkpt>
      <trkpt lat="62.636067440825" lon="17.985947404648">
        <ele>91.2</ele>
        <time>2018-03-31T11:59:08Z</time>
      </trkpt>
      <trkpt lat="62.636046569894" lon="17.985980848429">
        <ele>91.2</ele>
        <time>2018-03-31T11:59:09Z</time>
      </trkpt>
      <trkpt lat="62.636016059778" lon="17.986016639142">
        <ele>91.4</ele>
        <time>2018-03-31T11:59:10Z</time>
      </trkpt>
      <trkpt lat="62.635992674277" lon="17.986035666055">
        <ele>91.4</ele>
        <time>2018-03-31T11:59:11Z</time>
      </trkpt>
      <trkpt lat="62.635965852197" lon="17.986063326325">
        <ele>91.6</ele>
        <time>2018-03-31T11:59:12Z</time>
      </trkpt>
      <trkpt lat="62.635945316542" lon="17.986101380151">
        <ele>91.8</ele>
        <time>2018-03-31T11:59:13Z</time>
      </trkpt>
      <trkpt lat="62.635913968236" lon="17.986142451461">
        <ele>92</ele>
        <time>2018-03-31T11:59:14Z</time>
      </trkpt>
      <trkpt lat="62.635866778139" lon="17.986162903297">
        <ele>92</ele>
        <time>2018-03-31T11:59:15Z</time>
      </trkpt>
      <trkpt lat="62.635855211117" lon="17.986209255204">
        <ele>92.2</ele>
        <time>2018-03-31T11:59:16Z</time>
      </trkpt>
      <trkpt lat="62.635842889724" lon="17.986247728125">
        <ele>92.4</ele>
        <time>2018-03-31T11:59:17Z</time>
      </trkpt>
      <trkpt lat="62.635827634666" lon="17.986300282638">
        <ele>92.6</ele>
        <time>2018-03-31T11:59:18Z</time>
      </trkpt>
      <trkpt lat="62.635813804531" lon="17.98634956821">
        <ele>92.8</ele>
        <time>2018-03-31T11:59:19Z</time>
      </trkpt>
      <trkpt lat="62.635803075699" lon="17.986379994507">
        <ele>93</ele>
        <time>2018-03-31T11:59:20Z</time>
      </trkpt>
      <trkpt lat="62.635781785673" lon="17.986433303391">
        <ele>93.2</ele>
        <time>2018-03-31T11:59:21Z</time>
      </trkpt>
      <trkpt lat="62.635763010217" lon="17.986489378302">
        <ele>93.2</ele>
        <time>2018-03-31T11:59:22Z</time>
      </trkpt>
      <trkpt lat="62.635754795955" lon="17.986550817629">
        <ele>93.4</ele>
        <time>2018-03-31T11:59:23Z</time>
      </trkpt>
      <trkpt lat="62.635735349947" lon="17.986608233644">
        <ele>93.4</ele>
        <time>2018-03-31T11:59:24Z</time>
      </trkpt>
      <trkpt lat="62.635726213676" lon="17.986657016302">
        <ele>93.4</ele>
        <time>2018-03-31T11:59:25Z</time>
      </trkpt>
      <trkpt lat="62.635703834003" lon="17.986713426489">
        <ele>93.6</ele>
        <time>2018-03-31T11:59:26Z</time>
      </trkpt>
      <trkpt lat="62.635689417135" lon="17.986770591047">
        <ele>93.8</ele>
        <time>2018-03-31T11:59:27Z</time>
      </trkpt>
      <trkpt lat="62.635680448502" lon="17.986812416728">
        <ele>94</ele>
        <time>2018-03-31T11:59:28Z</time>
      </trkpt>
      <trkpt lat="62.635661589227" lon="17.986857762807">
        <ele>94</ele>
        <time>2018-03-31T11:59:29Z</time>
      </trkpt>
      <trkpt lat="62.635644071056" lon="17.986920710876">
        <ele>94.2</ele>
        <time>2018-03-31T11:59:30Z</time>
      </trkpt>
      <trkpt lat="62.635620601736" lon="17.986949460793">
        <ele>94.4</ele>
        <time>2018-03-31T11:59:31Z</time>
      </trkpt>
      <trkpt lat="62.635592690009" lon="17.986996483252">
        <ele>94.4</ele>
        <time>2018-03-31T11:59:32Z</time>
      </trkpt>
      <trkpt lat="62.635581961177" lon="17.987030094671">
        <ele>94.4</ele>
        <time>2018-03-31T11:59:33Z</time>
      </trkpt>
      <trkpt lat="62.635560000599" lon="17.987064879556">
        <ele>94.6</ele>
        <time>2018-03-31T11:59:34Z</time>
      </trkpt>
      <trkpt lat="62.635537453288" lon="17.987108213979">
        <ele>94.6</ele>
        <time>2018-03-31T11:59:35Z</time>
      </trkpt>
      <trkpt lat="62.635532005053" lon="17.987152051316">
        <ele>94.8</ele>
        <time>2018-03-31T11:59:36Z</time>
      </trkpt>
      <trkpt lat="62.63550711081" lon="17.987184321631">
        <ele>95</ele>
        <time>2018-03-31T11:59:37Z</time>
      </trkpt>
      <trkpt lat="62.635485904603" lon="17.987252717935">
        <ele>95.2</ele>
        <time>2018-03-31T11:59:38Z</time>
      </trkpt>
      <trkpt lat="62.635464446939" lon="17.9872807973">
        <ele>95.4</ele>
        <time>2018-03-31T11:59:39Z</time>
      </trkpt>
      <trkpt lat="62.635439887972" lon="17.98731935404">
        <ele>95.4</ele>
        <time>2018-03-31T11:59:40Z</time>
      </trkpt>
      <trkpt lat="62.635422034525" lon="17.98736042535">
        <ele>95.4</ele>
        <time>2018-03-31T11:59:41Z</time>
      </trkpt>
      <trkpt lat="62.635393368427" lon="17.98739395295">
        <ele>95.4</ele>
        <time>2018-03-31T11:59:42Z</time>
      </trkpt>
      <trkpt lat="62.635362020121" lon="17.987426307084">
        <ele>95.4</ele>
        <time>2018-03-31T11:59:43Z</time>
      </trkpt>
      <trkpt lat="62.635344753407" lon="17.987469641507">
        <ele>95.6</ele>
        <time>2018-03-31T11:59:44Z</time>
      </trkpt>
      <trkpt lat="62.635334611308" lon="17.987514736129">
        <ele>95.6</ele>
        <time>2018-03-31T11:59:45Z</time>
      </trkpt>
      <trkpt lat="62.635318015146" lon="17.987571230135">
        <ele>96</ele>
        <time>2018-03-31T11:59:46Z</time>
      </trkpt>
      <trkpt lat="62.635310387617" lon="17.987656893153">
        <ele>96</ele>
        <time>2018-03-31T11:59:47Z</time>
      </trkpt>
      <trkpt lat="62.635297228034" lon="17.987712716607">
        <ele>96.4</ele>
        <time>2018-03-31T11:59:48Z</time>
      </trkpt>
      <trkpt lat="62.635288510858" lon="17.98776527112">
        <ele>96.4</ele>
        <time>2018-03-31T11:59:49Z</time>
      </trkpt>
      <trkpt lat="62.635272333791" lon="17.987822770954">
        <ele>96.6</ele>
        <time>2018-03-31T11:59:50Z</time>
      </trkpt>
      <trkpt lat="62.635267137013" lon="17.987880773702">
        <ele>96.6</ele>
        <time>2018-03-31T11:59:51Z</time>
      </trkpt>
      <trkpt lat="62.635247020453" lon="17.987938692631">
        <ele>96.6</ele>
        <time>2018-03-31T11:59:52Z</time>
      </trkpt>
      <trkpt lat="62.635216426518" lon="17.987984290167">
        <ele>96.8</ele>
        <time>2018-03-31T11:59:53Z</time>
      </trkpt>
      <trkpt lat="62.635188095696" lon="17.98803935925">
        <ele>96.8</ele>
        <time>2018-03-31T11:59:54Z</time>
      </trkpt>
      <trkpt lat="62.635174684656" lon="17.988106162993">
        <ele>97</ele>
        <time>2018-03-31T11:59:55Z</time>
      </trkpt>
      <trkpt lat="62.635151299155" lon="17.988156873488">
        <ele>97</ele>
        <time>2018-03-31T11:59:56Z</time>
      </trkpt>
      <trkpt lat="62.635137636658" lon="17.988204985594">
        <ele>97</ele>
        <time>2018-03-31T11:59:57Z</time>
      </trkpt>
      <trkpt lat="62.63511986703" lon="17.988247733284">
        <ele>97.2</ele>
        <time>2018-03-31T11:59:58Z</time>
      </trkpt>
      <trkpt lat="62.63509472133" lon="17.988306322765">
        <ele>97.4</ele>
        <time>2018-03-31T11:59:59Z</time>
      </trkpt>
      <trkpt lat="62.635086087973" lon="17.988334318311">
        <ele>97.4</ele>
        <time>2018-03-31T12:00:00Z</time>
      </trkpt>
      <trkpt lat="62.635052141278" lon="17.988363235866">
        <ele>97.6</ele>
        <time>2018-03-31T12:00:01Z</time>
      </trkpt>
      <trkpt lat="62.635027749949" lon="17.988412186162">
        <ele>97.6</ele>
        <time>2018-03-31T12:00:02Z</time>
      </trkpt>
      <trkpt lat="62.635010567054" lon="17.988435739301">
        <ele>97.8</ele>
        <time>2018-03-31T12:00:03Z</time>
      </trkpt>
      <trkpt lat="62.634985672811" lon="17.988465830322">
        <ele>98</ele>
        <time>2018-03-31T12:00:04Z</time>
      </trkpt>
      <trkpt lat="62.634968573735" lon="17.988491395117">
        <ele>98</ele>
        <time>2018-03-31T12:00:05Z</time>
      </trkpt>
      <trkpt lat="62.634939739999" lon="17.988517379007">
        <ele>98.2</ele>
        <time>2018-03-31T12:00:06Z</time>
      </trkpt>
      <trkpt lat="62.634907888779" lon="17.988522072871">
        <ele>98.2</ele>
        <time>2018-03-31T12:00:07Z</time>
      </trkpt>
      <trkpt lat="62.634890789703" lon="17.988545374553">
        <ele>98.4</ele>
        <time>2018-03-31T12:00:08Z</time>
      </trkpt>
      <trkpt lat="62.634871008419" lon="17.988546799476">
        <ele>98.6</ele>
        <time>2018-03-31T12:00:09Z</time>
      </trkpt>
      <trkpt lat="62.634844521615" lon="17.988564485285">
        <ele>98.6</ele>
        <time>2018-03-31T12:00:10Z</time>
      </trkpt>
      <trkpt lat="62.634824572693" lon="17.988593319021">
        <ele>98.8</ele>
        <time>2018-03-31T12:00:11Z</time>
      </trkpt>
      <trkpt lat="62.634795152224" lon="17.988597342333">
        <ele>98.8</ele>
        <time>2018-03-31T12:00:12Z</time>
      </trkpt>
      <trkpt lat="62.634775790035" lon="17.988618213264">
        <ele>98.8</ele>
        <time>2018-03-31T12:00:13Z</time>
      </trkpt>
      <trkpt lat="62.634753075086" lon="17.988632211037">
        <ele>98.8</ele>
        <time>2018-03-31T12:00:14Z</time>
      </trkpt>
      <trkpt lat="62.634729102852" lon="17.988655596538">
        <ele>99</ele>
        <time>2018-03-31T12:00:15Z</time>
      </trkpt>
      <trkpt lat="62.634710411215" lon="17.988674204356">
        <ele>99</ele>
        <time>2018-03-31T12:00:16Z</time>
      </trkpt>
      <trkpt lat="62.634692557768" lon="17.98869230926">
        <ele>99.4</ele>
        <time>2018-03-31T12:00:17Z</time>
      </trkpt>
      <trkpt lat="62.634662718204" lon="17.988712928734">
        <ele>99.6</ele>
        <time>2018-03-31T12:00:18Z</time>
      </trkpt>
      <trkpt lat="62.634643858929" lon="17.988729608715">
        <ele>99.8</ele>
        <time>2018-03-31T12:00:19Z</time>
      </trkpt>
      <trkpt lat="62.634631956631" lon="17.98875684989">
        <ele>100</ele>
        <time>2018-03-31T12:00:20Z</time>
      </trkpt>
      <trkpt lat="62.634603122895" lon="17.988780989762">
        <ele>100.4</ele>
        <time>2018-03-31T12:00:21Z</time>
      </trkpt>
      <trkpt lat="62.634587532561" lon="17.988807895661">
        <ele>100.4</ele>
        <time>2018-03-31T12:00:22Z</time>
      </trkpt>
      <trkpt lat="62.634570182028" lon="17.988850643351">
        <ele>100.6</ele>
        <time>2018-03-31T12:00:23Z</time>
      </trkpt>
      <trkpt lat="62.634550987477" lon="17.988875118499">
        <ele>100.6</ele>
        <time>2018-03-31T12:00:24Z</time>
      </trkpt>
      <trkpt lat="62.634535732419" lon="17.988909149013">
        <ele>100.8</ele>
        <time>2018-03-31T12:00:25Z</time>
      </trkpt>
      <trkpt lat="62.6345188848" lon="17.98893622255">
        <ele>100.8</ele>
        <time>2018-03-31T12:00:26Z</time>
      </trkpt>
      <trkpt lat="62.634501534267" lon="17.988981233353">
        <ele>101</ele>
        <time>2018-03-31T12:00:27Z</time>
      </trkpt>
      <trkpt lat="62.634493236186" lon="17.989024567776">
        <ele>101.2</ele>
        <time>2018-03-31T12:00:28Z</time>
      </trkpt>
      <trkpt lat="62.634469599228" lon="17.989045354888">
        <ele>101.2</ele>
        <time>2018-03-31T12:00:29Z</time>
      </trkpt>
      <trkpt lat="62.634449147392" lon="17.989091371519">
        <ele>101.2</ele>
        <time>2018-03-31T12:00:30Z</time>
      </trkpt>
      <trkpt lat="62.634428863194" lon="17.989114840839">
        <ele>101.4</ele>
        <time>2018-03-31T12:00:31Z</time>
      </trkpt>
      <trkpt lat="62.634395335594" lon="17.989167060076">
        <ele>101.4</ele>
        <time>2018-03-31T12:00:32Z</time>
      </trkpt>
      <trkpt lat="62.634379829079" lon="17.989203521341">
        <ele>101.4</ele>
        <time>2018-03-31T12:00:33Z</time>
      </trkpt>
      <trkpt lat="62.634347139669" lon="17.989228331765">
        <ele>101.6</ele>
        <time>2018-03-31T12:00:34Z</time>
      </trkpt>
      <trkpt lat="62.634329118584" lon="17.989266050315">
        <ele>101.6</ele>
        <time>2018-03-31T12:00:35Z</time>
      </trkpt>
      <trkpt lat="62.634298189373" lon="17.989282981753">
        <ele>101.6</ele>
        <time>2018-03-31T12:00:36Z</time>
      </trkpt>
      <trkpt lat="62.63427161875" lon="17.989323550149">
        <ele>101.6</ele>
        <time>2018-03-31T12:00:37Z</time>
      </trkpt>
      <trkpt lat="62.634264494135" lon="17.989363867088">
        <ele>101.6</ele>
        <time>2018-03-31T12:00:38Z</time>
      </trkpt>
      <trkpt lat="62.634236666227" lon="17.989374679739">
        <ele>101.6</ele>
        <time>2018-03-31T12:00:39Z</time>
      </trkpt>
      <trkpt lat="62.634218058409" lon="17.989399238706">
        <ele>101.6</ele>
        <time>2018-03-31T12:00:40Z</time>
      </trkpt>
      <trkpt lat="62.634192577433" lon="17.9894433275">
        <ele>101.8</ele>
        <time>2018-03-31T12:00:41Z</time>
      </trkpt>
      <trkpt lat="62.634169611027" lon="17.989471071589">
        <ele>102</ele>
        <time>2018-03-31T12:00:42Z</time>
      </trkpt>
      <trkpt lat="62.634150751752" lon="17.989484817905">
        <ele>102.2</ele>
        <time>2018-03-31T12:00:43Z</time>
      </trkpt>
      <trkpt lat="62.634139436187" lon="17.989518177867">
        <ele>102.4</ele>
        <time>2018-03-31T12:00:44Z</time>
      </trkpt>
      <trkpt lat="62.634123510577" lon="17.98954139573">
        <ele>102.6</ele>
        <time>2018-03-31T12:00:45Z</time>
      </trkpt>
      <trkpt lat="62.634096520859" lon="17.989569726552">
        <ele>102.6</ele>
        <time>2018-03-31T12:00:46Z</time>
      </trkpt>
      <trkpt lat="62.634061065422" lon="17.98960677455">
        <ele>102.4</ele>
        <time>2018-03-31T12:00:47Z</time>
      </trkpt>
      <trkpt lat="62.634036674093" lon="17.989627980757">
        <ele>102.6</ele>
        <time>2018-03-31T12:00:48Z</time>
      </trkpt>
      <trkpt lat="62.634012115126" lon="17.989653210276">
        <ele>102.8</ele>
        <time>2018-03-31T12:00:49Z</time>
      </trkpt>
      <trkpt lat="62.633991830928" lon="17.989669303524">
        <ele>102.8</ele>
        <time>2018-03-31T12:00:50Z</time>
      </trkpt>
      <trkpt lat="62.633957632776" lon="17.989685145315">
        <ele>103</ele>
        <time>2018-03-31T12:00:51Z</time>
      </trkpt>
      <trkpt lat="62.633936091293" lon="17.989704926599">
        <ele>103</ele>
        <time>2018-03-31T12:00:52Z</time>
      </trkpt>
      <trkpt lat="62.633915723276" lon="17.989726468082">
        <ele>103.2</ele>
        <time>2018-03-31T12:00:53Z</time>
      </trkpt>
      <trkpt lat="62.63389694782" lon="17.989790924893">
        <ele>103.2</ele>
        <time>2018-03-31T12:00:54Z</time>
      </trkpt>
      <trkpt lat="62.633882782409" lon="17.989818752801">
        <ele>103.4</ele>
        <time>2018-03-31T12:00:55Z</time>
      </trkpt>
      <trkpt lat="62.633866856799" lon="17.989866781088">
        <ele>103.4</ele>
        <time>2018-03-31T12:00:56Z</time>
      </trkpt>
      <trkpt lat="62.633843136022" lon="17.989930232071">
        <ele>103.4</ele>
        <time>2018-03-31T12:00:57Z</time>
      </trkpt>
      <trkpt lat="62.633826036946" lon="17.989950683907">
        <ele>103.4</ele>
        <time>2018-03-31T12:00:58Z</time>
      </trkpt>
      <trkpt lat="62.633806004205" lon="17.989993347778">
        <ele>103.2</ele>
        <time>2018-03-31T12:00:59Z</time>
      </trkpt>
      <trkpt lat="62.633791922613" lon="17.990042214255">
        <ele>103.2</ele>
        <time>2018-03-31T12:01:00Z</time>
      </trkpt>
      <trkpt lat="62.633767196008" lon="17.990082531194">
        <ele>103.2</ele>
        <time>2018-03-31T12:01:01Z</time>
      </trkpt>
      <trkpt lat="62.633735763883" lon="17.990135756259">
        <ele>103.2</ele>
        <time>2018-03-31T12:01:02Z</time>
      </trkpt>
      <trkpt lat="62.63371506059" lon="17.99016584728">
        <ele>103.4</ele>
        <time>2018-03-31T12:01:03Z</time>
      </trkpt>
      <trkpt lat="62.633697626238" lon="17.99021781506">
        <ele>103.6</ele>
        <time>2018-03-31T12:01:04Z</time>
      </trkpt>
      <trkpt lat="62.633692261822" lon="17.99025720999">
        <ele>103.6</ele>
        <time>2018-03-31T12:01:05Z</time>
      </trkpt>
      <trkpt lat="62.633670552701" lon="17.990300125318">
        <ele>103.8</ele>
        <time>2018-03-31T12:01:06Z</time>
      </trkpt>
      <trkpt lat="62.633644149716" lon="17.990328204683">
        <ele>104</ele>
        <time>2018-03-31T12:01:07Z</time>
      </trkpt>
      <trkpt lat="62.63361112503" lon="17.990365587957">
        <ele>104</ele>
        <time>2018-03-31T12:01:08Z</time>
      </trkpt>
      <trkpt lat="62.633590589375" lon="17.990381513567">
        <ele>104</ele>
        <time>2018-03-31T12:01:09Z</time>
      </trkpt>
      <trkpt lat="62.633570388996" lon="17.990419651212">
        <ele>104.2</ele>
        <time>2018-03-31T12:01:10Z</time>
      </trkpt>
      <trkpt lat="62.633537783405" lon="17.990434990089">
        <ele>104.2</ele>
        <time>2018-03-31T12:01:11Z</time>
      </trkpt>
      <trkpt lat="62.633502830882" lon="17.990457872676">
        <ele>104.4</ele>
        <time>2018-03-31T12:01:12Z</time>
      </trkpt>
      <trkpt lat="62.63348288196" lon="17.990480922901">
        <ele>104.4</ele>
        <time>2018-03-31T12:01:13Z</time>
      </trkpt>
      <trkpt lat="62.63345019255" lon="17.990507325886">
        <ele>104.6</ele>
        <time>2018-03-31T12:01:14Z</time>
      </trkpt>
      <trkpt lat="62.633415407665" lon="17.99053968002">
        <ele>104.4</ele>
        <time>2018-03-31T12:01:15Z</time>
      </trkpt>
      <trkpt lat="62.633391351612" lon="17.990569687222">
        <ele>104.4</ele>
        <time>2018-03-31T12:01:16Z</time>
      </trkpt>
      <trkpt lat="62.633356734365" lon="17.990612351093">
        <ele>104.4</ele>
        <time>2018-03-31T12:01:17Z</time>
      </trkpt>
      <trkpt lat="62.633318429082" lon="17.990647303616">
        <ele>104.4</ele>
        <time>2018-03-31T12:01:18Z</time>
      </trkpt>
      <trkpt lat="62.633295043581" lon="17.990680412121">
        <ele>104.4</ele>
        <time>2018-03-31T12:01:19Z</time>
      </trkpt>
      <trkpt lat="62.633265120198" lon="17.990735313566">
        <ele>104.2</ele>
        <time>2018-03-31T12:01:20Z</time>
      </trkpt>
      <trkpt lat="62.633245506552" lon="17.99078024055">
        <ele>104.2</ele>
        <time>2018-03-31T12:01:21Z</time>
      </trkpt>
      <trkpt lat="62.633237208471" lon="17.990834303805">
        <ele>104.2</ele>
        <time>2018-03-31T12:01:22Z</time>
      </trkpt>
      <trkpt lat="62.633229329485" lon="17.990895994589">
        <ele>104.2</ele>
        <time>2018-03-31T12:01:23Z</time>
      </trkpt>
      <trkpt lat="62.633210805486" lon="17.990944693428">
        <ele>104.4</ele>
        <time>2018-03-31T12:01:24Z</time>
      </trkpt>
      <trkpt lat="62.63318364813" lon="17.991005210746">
        <ele>104.2</ele>
        <time>2018-03-31T12:01:25Z</time>
      </trkpt>
      <trkpt lat="62.633146935408" lon="17.991073020317">
        <ele>104.2</ele>
        <time>2018-03-31T12:01:26Z</time>
      </trkpt>
      <trkpt lat="62.633130423065" lon="17.991118701672">
        <ele>104.2</ele>
        <time>2018-03-31T12:01:27Z</time>
      </trkpt>
      <trkpt lat="62.633112988713" lon="17.991177039696">
        <ele>104.2</ele>
        <time>2018-03-31T12:01:28Z</time>
      </trkpt>
      <trkpt lat="62.633090357583" lon="17.991236383548">
        <ele>104.2</ele>
        <time>2018-03-31T12:01:29Z</time>
      </trkpt>
      <trkpt lat="62.633069486652" lon="17.991303774024">
        <ele>104.2</ele>
        <time>2018-03-31T12:01:30Z</time>
      </trkpt>
      <trkpt lat="62.633047274617" lon="17.991358507831">
        <ele>104.2</ele>
        <time>2018-03-31T12:01:31Z</time>
      </trkpt>
      <trkpt lat="62.633033360663" lon="17.991425814488">
        <ele>104.2</ele>
        <time>2018-03-31T12:01:32Z</time>
      </trkpt>
      <trkpt lat="62.633018357062" lon="17.991492199136">
        <ele>104.2</ele>
        <time>2018-03-31T12:01:33Z</time>
      </trkpt>
      <trkpt lat="62.632990361516" lon="17.991544418373">
        <ele>104.2</ele>
        <time>2018-03-31T12:01:34Z</time>
      </trkpt>
      <trkpt lat="62.632977621028" lon="17.991581047276">
        <ele>104.2</ele>
        <time>2018-03-31T12:01:35Z</time>
      </trkpt>
      <trkpt lat="62.632951385681" lon="17.991642821879">
        <ele>104.2</ele>
        <time>2018-03-31T12:01:36Z</time>
      </trkpt>
      <trkpt lat="62.632925653248" lon="17.991709709441">
        <ele>104</ele>
        <time>2018-03-31T12:01:37Z</time>
      </trkpt>
      <trkpt lat="62.632910817285" lon="17.991787493473">
        <ele>104</ele>
        <time>2018-03-31T12:01:38Z</time>
      </trkpt>
      <trkpt lat="62.632886593594" lon="17.991872150663">
        <ele>104</ele>
        <time>2018-03-31T12:01:39Z</time>
      </trkpt>
      <trkpt lat="62.632870751803" lon="17.991922022968">
        <ele>104</ele>
        <time>2018-03-31T12:01:40Z</time>
      </trkpt>
      <trkpt lat="62.632855748202" lon="17.991988575254">
        <ele>104</ele>
        <time>2018-03-31T12:01:41Z</time>
      </trkpt>
      <trkpt lat="62.632833536167" lon="17.992049092572">
        <ele>104</ele>
        <time>2018-03-31T12:01:42Z</time>
      </trkpt>
      <trkpt lat="62.63279053702" lon="17.992074992643">
        <ele>104</ele>
        <time>2018-03-31T12:01:43Z</time>
      </trkpt>
      <trkpt lat="62.632772515935" lon="17.992101479447">
        <ele>104.2</ele>
        <time>2018-03-31T12:01:44Z</time>
      </trkpt>
      <trkpt lat="62.632735970851" lon="17.99210709532">
        <ele>104.4</ele>
        <time>2018-03-31T12:01:45Z</time>
      </trkpt>
      <trkpt lat="62.63270755621" lon="17.99210709532">
        <ele>104.4</ele>
        <time>2018-03-31T12:01:46Z</time>
      </trkpt>
      <trkpt lat="62.632674782981" lon="17.992136851065">
        <ele>104.4</ele>
        <time>2018-03-31T12:01:47Z</time>
      </trkpt>
      <trkpt lat="62.632640920105" lon="17.992127714794">
        <ele>104.4</ele>
        <time>2018-03-31T12:01:48Z</time>
      </trkpt>
      <trkpt lat="62.632609404161" lon="17.992149423915">
        <ele>104.2</ele>
        <time>2018-03-31T12:01:49Z</time>
      </trkpt>
      <trkpt lat="62.632575876561" lon="17.992157805815">
        <ele>104.4</ele>
        <time>2018-03-31T12:01:50Z</time>
      </trkpt>
      <trkpt lat="62.632545450264" lon="17.992164678973">
        <ele>104.4</ele>
        <time>2018-03-31T12:01:51Z</time>
      </trkpt>
      <trkpt lat="62.632517454718" lon="17.992183705886">
        <ele>104.4</ele>
        <time>2018-03-31T12:01:52Z</time>
      </trkpt>
      <trkpt lat="62.632486944602" lon="17.992203235713">
        <ele>104.6</ele>
        <time>2018-03-31T12:01:53Z</time>
      </trkpt>
      <trkpt lat="62.632458949056" lon="17.992234835476">
        <ele>104.4</ele>
        <time>2018-03-31T12:01:54Z</time>
      </trkpt>
      <trkpt lat="62.632427852207" lon="17.99225713133">
        <ele>104.4</ele>
        <time>2018-03-31T12:01:55Z</time>
      </trkpt>
      <trkpt lat="62.632394492245" lon="17.992279091908">
        <ele>104.4</ele>
        <time>2018-03-31T12:01:56Z</time>
      </trkpt>
      <trkpt lat="62.632360126455" lon="17.992282779944">
        <ele>104.6</ele>
        <time>2018-03-31T12:01:57Z</time>
      </trkpt>
      <trkpt lat="62.632325593027" lon="17.992297196812">
        <ele>104.6</ele>
        <time>2018-03-31T12:01:58Z</time>
      </trkpt>
      <trkpt lat="62.632307571942" lon="17.992294179328">
        <ele>104.6</ele>
        <time>2018-03-31T12:01:59Z</time>
      </trkpt>
      <trkpt lat="62.632264740433" lon="17.992308596196">
        <ele>104.8</ele>
        <time>2018-03-31T12:02:00Z</time>
      </trkpt>
      <trkpt lat="62.632233895041" lon="17.99233256843">
        <ele>104.8</ele>
        <time>2018-03-31T12:02:01Z</time>
      </trkpt>
      <trkpt lat="62.632201037993" lon="17.992343800176">
        <ele>104.8</ele>
        <time>2018-03-31T12:02:02Z</time>
      </trkpt>
      <trkpt lat="62.632162313615" lon="17.992360731614">
        <ele>104.8</ele>
        <time>2018-03-31T12:02:03Z</time>
      </trkpt>
      <trkpt lat="62.632128702196" lon="17.992370957532">
        <ele>104.8</ele>
        <time>2018-03-31T12:02:04Z</time>
      </trkpt>
      <trkpt lat="62.632095090777" lon="17.992392666653">
        <ele>104.6</ele>
        <time>2018-03-31T12:02:05Z</time>
      </trkpt>
      <trkpt lat="62.632051421078" lon="17.992412447937">
        <ele>104.6</ele>
        <time>2018-03-31T12:02:06Z</time>
      </trkpt>
      <trkpt lat="62.632008757207" lon="17.992436671628">
        <ele>104.4</ele>
        <time>2018-03-31T12:02:07Z</time>
      </trkpt>
      <trkpt lat="62.631960645101" lon="17.992445891718">
        <ele>104.2</ele>
        <time>2018-03-31T12:02:08Z</time>
      </trkpt>
      <trkpt lat="62.631916137212" lon="17.99246248788">
        <ele>103.8</ele>
        <time>2018-03-31T12:02:09Z</time>
      </trkpt>
      <trkpt lat="62.631838604637" lon="17.992476485653">
        <ele>103.2</ele>
        <time>2018-03-31T12:02:11Z</time>
      </trkpt>
      <trkpt lat="62.631811195824" lon="17.992490315788">
        <ele>103</ele>
        <time>2018-03-31T12:02:12Z</time>
      </trkpt>
    </trkseg>
  </trk>
</gpx>